<?xml version="1.0" encoding="UTF-8" standalone="no" ?>
<gpx xmlns="http://www.topografix.com/GPX/1/1" xmlns:xsi="http://www.w3.org/2001/XMLSchema-instance" xsi:schemaLocation="http://www.topografix.com/GPX/1/1 http://www.topografix.com/GPX/1/1/gpx.xsd" version="1.1" creator="VisuGPX - https://www.visugpx.com">
  <metadata>
    <name>09 10 2019 Monplo</name>
    <desc><![CDATA[Balade équestre avec Speedy autour de Monplo, découverte du cross.]]></desc>
  </metadata>
  <trk>
    <name><![CDATA[09 10 2019 Monplo_1]]></name>
    <trkseg>
      <trkpt lat="44.22401" lon="2.96153">
        <ele>796</ele>
        <time>2019-10-09T13:29:22.000Z</time>
      </trkpt>
      <trkpt lat="44.22401" lon="2.96153">
        <ele>796</ele>
        <time>2019-10-09T13:29:23.000Z</time>
      </trkpt>
      <trkpt lat="44.22402" lon="2.9616">
        <ele>791</ele>
        <time>2019-10-09T13:29:24.000Z</time>
      </trkpt>
      <trkpt lat="44.22402" lon="2.9616">
        <ele>789</ele>
        <time>2019-10-09T13:29:25.000Z</time>
      </trkpt>
      <trkpt lat="44.22402" lon="2.9616">
        <ele>789</ele>
        <time>2019-10-09T13:29:26.000Z</time>
      </trkpt>
      <trkpt lat="44.22402" lon="2.9616">
        <ele>789</ele>
        <time>2019-10-09T13:29:27.000Z</time>
      </trkpt>
      <trkpt lat="44.22402" lon="2.9616">
        <ele>798</ele>
        <time>2019-10-09T13:29:31.000Z</time>
      </trkpt>
      <trkpt lat="44.22402" lon="2.9616">
        <ele>800</ele>
        <time>2019-10-09T13:29:32.000Z</time>
      </trkpt>
      <trkpt lat="44.22398" lon="2.96163">
        <ele>802</ele>
        <time>2019-10-09T13:29:33.000Z</time>
      </trkpt>
      <trkpt lat="44.22398" lon="2.96163">
        <ele>804</ele>
        <time>2019-10-09T13:29:34.000Z</time>
      </trkpt>
      <trkpt lat="44.22397" lon="2.96163">
        <ele>806</ele>
        <time>2019-10-09T13:29:35.000Z</time>
      </trkpt>
      <trkpt lat="44.22396" lon="2.96163">
        <ele>808</ele>
        <time>2019-10-09T13:29:36.000Z</time>
      </trkpt>
      <trkpt lat="44.22396" lon="2.96164">
        <ele>810</ele>
        <time>2019-10-09T13:29:37.000Z</time>
      </trkpt>
      <trkpt lat="44.22396" lon="2.96164">
        <ele>812</ele>
        <time>2019-10-09T13:29:38.000Z</time>
      </trkpt>
      <trkpt lat="44.22395" lon="2.96164">
        <ele>813</ele>
        <time>2019-10-09T13:29:39.000Z</time>
      </trkpt>
      <trkpt lat="44.22395" lon="2.96165">
        <ele>815</ele>
        <time>2019-10-09T13:29:40.000Z</time>
      </trkpt>
      <trkpt lat="44.22395" lon="2.96165">
        <ele>816</ele>
        <time>2019-10-09T13:29:41.000Z</time>
      </trkpt>
      <trkpt lat="44.22394" lon="2.96165">
        <ele>818</ele>
        <time>2019-10-09T13:29:42.000Z</time>
      </trkpt>
      <trkpt lat="44.22394" lon="2.96165">
        <ele>819</ele>
        <time>2019-10-09T13:29:43.000Z</time>
      </trkpt>
      <trkpt lat="44.22394" lon="2.96165">
        <ele>820</ele>
        <time>2019-10-09T13:29:44.000Z</time>
      </trkpt>
      <trkpt lat="44.22393" lon="2.96166">
        <ele>821</ele>
        <time>2019-10-09T13:29:45.000Z</time>
      </trkpt>
      <trkpt lat="44.22393" lon="2.96166">
        <ele>822</ele>
        <time>2019-10-09T13:29:46.000Z</time>
      </trkpt>
      <trkpt lat="44.22393" lon="2.96166">
        <ele>822</ele>
        <time>2019-10-09T13:29:47.000Z</time>
      </trkpt>
      <trkpt lat="44.22393" lon="2.96166">
        <ele>823</ele>
        <time>2019-10-09T13:29:48.000Z</time>
      </trkpt>
      <trkpt lat="44.22393" lon="2.96166">
        <ele>824</ele>
        <time>2019-10-09T13:29:49.000Z</time>
      </trkpt>
      <trkpt lat="44.22392" lon="2.96166">
        <ele>824</ele>
        <time>2019-10-09T13:29:50.000Z</time>
      </trkpt>
      <trkpt lat="44.22392" lon="2.96166">
        <ele>825</ele>
        <time>2019-10-09T13:29:51.000Z</time>
      </trkpt>
      <trkpt lat="44.22392" lon="2.96166">
        <ele>826</ele>
        <time>2019-10-09T13:29:52.000Z</time>
      </trkpt>
      <trkpt lat="44.22392" lon="2.96166">
        <ele>826</ele>
        <time>2019-10-09T13:29:53.000Z</time>
      </trkpt>
      <trkpt lat="44.22392" lon="2.96167">
        <ele>827</ele>
        <time>2019-10-09T13:29:54.000Z</time>
      </trkpt>
      <trkpt lat="44.22392" lon="2.96167">
        <ele>827</ele>
        <time>2019-10-09T13:29:55.000Z</time>
      </trkpt>
      <trkpt lat="44.22392" lon="2.96166">
        <ele>828</ele>
        <time>2019-10-09T13:29:56.000Z</time>
      </trkpt>
      <trkpt lat="44.22392" lon="2.96166">
        <ele>828</ele>
        <time>2019-10-09T13:29:57.000Z</time>
      </trkpt>
      <trkpt lat="44.22392" lon="2.96166">
        <ele>828</ele>
        <time>2019-10-09T13:29:58.000Z</time>
      </trkpt>
      <trkpt lat="44.22392" lon="2.96166">
        <ele>829</ele>
        <time>2019-10-09T13:29:59.000Z</time>
      </trkpt>
      <trkpt lat="44.22392" lon="2.96166">
        <ele>829</ele>
        <time>2019-10-09T13:30:00.000Z</time>
      </trkpt>
      <trkpt lat="44.22391" lon="2.96166">
        <ele>830</ele>
        <time>2019-10-09T13:30:01.000Z</time>
      </trkpt>
      <trkpt lat="44.22391" lon="2.96166">
        <ele>830</ele>
        <time>2019-10-09T13:30:02.000Z</time>
      </trkpt>
      <trkpt lat="44.22391" lon="2.96167">
        <ele>830</ele>
        <time>2019-10-09T13:30:03.000Z</time>
      </trkpt>
      <trkpt lat="44.22391" lon="2.96167">
        <ele>831</ele>
        <time>2019-10-09T13:30:04.000Z</time>
      </trkpt>
      <trkpt lat="44.22391" lon="2.96167">
        <ele>831</ele>
        <time>2019-10-09T13:30:05.000Z</time>
      </trkpt>
      <trkpt lat="44.22391" lon="2.96166">
        <ele>831</ele>
        <time>2019-10-09T13:30:06.000Z</time>
      </trkpt>
      <trkpt lat="44.22391" lon="2.96166">
        <ele>831</ele>
        <time>2019-10-09T13:30:07.000Z</time>
      </trkpt>
      <trkpt lat="44.22391" lon="2.96166">
        <ele>831</ele>
        <time>2019-10-09T13:30:08.000Z</time>
      </trkpt>
      <trkpt lat="44.2239" lon="2.96167">
        <ele>832</ele>
        <time>2019-10-09T13:30:09.000Z</time>
      </trkpt>
      <trkpt lat="44.2239" lon="2.96167">
        <ele>832</ele>
        <time>2019-10-09T13:30:10.000Z</time>
      </trkpt>
      <trkpt lat="44.2239" lon="2.96167">
        <ele>832</ele>
        <time>2019-10-09T13:30:11.000Z</time>
      </trkpt>
      <trkpt lat="44.2239" lon="2.96167">
        <ele>832</ele>
        <time>2019-10-09T13:30:12.000Z</time>
      </trkpt>
      <trkpt lat="44.2239" lon="2.96167">
        <ele>832</ele>
        <time>2019-10-09T13:30:13.000Z</time>
      </trkpt>
      <trkpt lat="44.2239" lon="2.96167">
        <ele>832</ele>
        <time>2019-10-09T13:30:14.000Z</time>
      </trkpt>
      <trkpt lat="44.2239" lon="2.96167">
        <ele>832</ele>
        <time>2019-10-09T13:30:15.000Z</time>
      </trkpt>
      <trkpt lat="44.2239" lon="2.96167">
        <ele>832</ele>
        <time>2019-10-09T13:30:16.000Z</time>
      </trkpt>
      <trkpt lat="44.2239" lon="2.96167">
        <ele>833</ele>
        <time>2019-10-09T13:30:17.000Z</time>
      </trkpt>
      <trkpt lat="44.2239" lon="2.96167">
        <ele>833</ele>
        <time>2019-10-09T13:30:18.000Z</time>
      </trkpt>
      <trkpt lat="44.2239" lon="2.96167">
        <ele>833</ele>
        <time>2019-10-09T13:30:19.000Z</time>
      </trkpt>
      <trkpt lat="44.22389" lon="2.96167">
        <ele>833</ele>
        <time>2019-10-09T13:30:20.000Z</time>
      </trkpt>
      <trkpt lat="44.22389" lon="2.96167">
        <ele>833</ele>
        <time>2019-10-09T13:30:21.000Z</time>
      </trkpt>
      <trkpt lat="44.22389" lon="2.96168">
        <ele>833</ele>
        <time>2019-10-09T13:30:22.000Z</time>
      </trkpt>
      <trkpt lat="44.22389" lon="2.96168">
        <ele>833</ele>
        <time>2019-10-09T13:30:23.000Z</time>
      </trkpt>
      <trkpt lat="44.22389" lon="2.96168">
        <ele>833</ele>
        <time>2019-10-09T13:30:24.000Z</time>
      </trkpt>
      <trkpt lat="44.22388" lon="2.96168">
        <ele>834</ele>
        <time>2019-10-09T13:30:25.000Z</time>
      </trkpt>
      <trkpt lat="44.22388" lon="2.96168">
        <ele>834</ele>
        <time>2019-10-09T13:30:26.000Z</time>
      </trkpt>
      <trkpt lat="44.22387" lon="2.96168">
        <ele>834</ele>
        <time>2019-10-09T13:30:27.000Z</time>
      </trkpt>
      <trkpt lat="44.22387" lon="2.96167">
        <ele>834</ele>
        <time>2019-10-09T13:30:28.000Z</time>
      </trkpt>
      <trkpt lat="44.22386" lon="2.96167">
        <ele>834</ele>
        <time>2019-10-09T13:30:29.000Z</time>
      </trkpt>
      <trkpt lat="44.22386" lon="2.96165">
        <ele>834</ele>
        <time>2019-10-09T13:30:30.000Z</time>
      </trkpt>
      <trkpt lat="44.22385" lon="2.96164">
        <ele>834</ele>
        <time>2019-10-09T13:30:31.000Z</time>
      </trkpt>
      <trkpt lat="44.22384" lon="2.96162">
        <ele>834</ele>
        <time>2019-10-09T13:30:32.000Z</time>
      </trkpt>
      <trkpt lat="44.22384" lon="2.96161">
        <ele>834</ele>
        <time>2019-10-09T13:30:33.000Z</time>
      </trkpt>
      <trkpt lat="44.22384" lon="2.96159">
        <ele>834</ele>
        <time>2019-10-09T13:30:34.000Z</time>
      </trkpt>
      <trkpt lat="44.22384" lon="2.96158">
        <ele>835</ele>
        <time>2019-10-09T13:30:35.000Z</time>
      </trkpt>
      <trkpt lat="44.22384" lon="2.96156">
        <ele>835</ele>
        <time>2019-10-09T13:30:36.000Z</time>
      </trkpt>
      <trkpt lat="44.22383" lon="2.96155">
        <ele>835</ele>
        <time>2019-10-09T13:30:37.000Z</time>
      </trkpt>
      <trkpt lat="44.22383" lon="2.96153">
        <ele>835</ele>
        <time>2019-10-09T13:30:38.000Z</time>
      </trkpt>
      <trkpt lat="44.22383" lon="2.96152">
        <ele>835</ele>
        <time>2019-10-09T13:30:39.000Z</time>
      </trkpt>
      <trkpt lat="44.22383" lon="2.9615">
        <ele>836</ele>
        <time>2019-10-09T13:30:40.000Z</time>
      </trkpt>
      <trkpt lat="44.22383" lon="2.96148">
        <ele>836</ele>
        <time>2019-10-09T13:30:41.000Z</time>
      </trkpt>
      <trkpt lat="44.22383" lon="2.96147">
        <ele>836</ele>
        <time>2019-10-09T13:30:42.000Z</time>
      </trkpt>
      <trkpt lat="44.22383" lon="2.96145">
        <ele>837</ele>
        <time>2019-10-09T13:30:43.000Z</time>
      </trkpt>
      <trkpt lat="44.22383" lon="2.96143">
        <ele>837</ele>
        <time>2019-10-09T13:30:44.000Z</time>
      </trkpt>
      <trkpt lat="44.22383" lon="2.96142">
        <ele>837</ele>
        <time>2019-10-09T13:30:45.000Z</time>
      </trkpt>
      <trkpt lat="44.22383" lon="2.9614">
        <ele>838</ele>
        <time>2019-10-09T13:30:46.000Z</time>
      </trkpt>
      <trkpt lat="44.22383" lon="2.96138">
        <ele>838</ele>
        <time>2019-10-09T13:30:47.000Z</time>
      </trkpt>
      <trkpt lat="44.22383" lon="2.96137">
        <ele>838</ele>
        <time>2019-10-09T13:30:48.000Z</time>
      </trkpt>
      <trkpt lat="44.22384" lon="2.96135">
        <ele>838</ele>
        <time>2019-10-09T13:30:49.000Z</time>
      </trkpt>
      <trkpt lat="44.22384" lon="2.96133">
        <ele>838</ele>
        <time>2019-10-09T13:30:50.000Z</time>
      </trkpt>
      <trkpt lat="44.22384" lon="2.96132">
        <ele>838</ele>
        <time>2019-10-09T13:30:51.000Z</time>
      </trkpt>
      <trkpt lat="44.22384" lon="2.9613">
        <ele>839</ele>
        <time>2019-10-09T13:30:52.000Z</time>
      </trkpt>
      <trkpt lat="44.22384" lon="2.96128">
        <ele>839</ele>
        <time>2019-10-09T13:30:53.000Z</time>
      </trkpt>
      <trkpt lat="44.22384" lon="2.96126">
        <ele>839</ele>
        <time>2019-10-09T13:30:54.000Z</time>
      </trkpt>
      <trkpt lat="44.22384" lon="2.96125">
        <ele>839</ele>
        <time>2019-10-09T13:30:55.000Z</time>
      </trkpt>
      <trkpt lat="44.22384" lon="2.96124">
        <ele>839</ele>
        <time>2019-10-09T13:30:56.000Z</time>
      </trkpt>
      <trkpt lat="44.22385" lon="2.96122">
        <ele>840</ele>
        <time>2019-10-09T13:30:57.000Z</time>
      </trkpt>
      <trkpt lat="44.22385" lon="2.9612">
        <ele>840</ele>
        <time>2019-10-09T13:30:58.000Z</time>
      </trkpt>
      <trkpt lat="44.22386" lon="2.96118">
        <ele>840</ele>
        <time>2019-10-09T13:30:59.000Z</time>
      </trkpt>
      <trkpt lat="44.22386" lon="2.96117">
        <ele>840</ele>
        <time>2019-10-09T13:31:00.000Z</time>
      </trkpt>
      <trkpt lat="44.22387" lon="2.96115">
        <ele>840</ele>
        <time>2019-10-09T13:31:01.000Z</time>
      </trkpt>
      <trkpt lat="44.22388" lon="2.96114">
        <ele>840</ele>
        <time>2019-10-09T13:31:02.000Z</time>
      </trkpt>
      <trkpt lat="44.22388" lon="2.96112">
        <ele>840</ele>
        <time>2019-10-09T13:31:03.000Z</time>
      </trkpt>
      <trkpt lat="44.22389" lon="2.96111">
        <ele>841</ele>
        <time>2019-10-09T13:31:04.000Z</time>
      </trkpt>
      <trkpt lat="44.2239" lon="2.9611">
        <ele>841</ele>
        <time>2019-10-09T13:31:05.000Z</time>
      </trkpt>
      <trkpt lat="44.22391" lon="2.96109">
        <ele>841</ele>
        <time>2019-10-09T13:31:06.000Z</time>
      </trkpt>
      <trkpt lat="44.22392" lon="2.9611">
        <ele>841</ele>
        <time>2019-10-09T13:31:07.000Z</time>
      </trkpt>
      <trkpt lat="44.22393" lon="2.9611">
        <ele>841</ele>
        <time>2019-10-09T13:31:08.000Z</time>
      </trkpt>
      <trkpt lat="44.22394" lon="2.96112">
        <ele>842</ele>
        <time>2019-10-09T13:31:09.000Z</time>
      </trkpt>
      <trkpt lat="44.22394" lon="2.96113">
        <ele>842</ele>
        <time>2019-10-09T13:31:10.000Z</time>
      </trkpt>
      <trkpt lat="44.22395" lon="2.96115">
        <ele>842</ele>
        <time>2019-10-09T13:31:11.000Z</time>
      </trkpt>
      <trkpt lat="44.22395" lon="2.96116">
        <ele>842</ele>
        <time>2019-10-09T13:31:12.000Z</time>
      </trkpt>
      <trkpt lat="44.22395" lon="2.96118">
        <ele>842</ele>
        <time>2019-10-09T13:31:13.000Z</time>
      </trkpt>
      <trkpt lat="44.22395" lon="2.96119">
        <ele>842</ele>
        <time>2019-10-09T13:31:14.000Z</time>
      </trkpt>
      <trkpt lat="44.22395" lon="2.96121">
        <ele>842</ele>
        <time>2019-10-09T13:31:15.000Z</time>
      </trkpt>
      <trkpt lat="44.22395" lon="2.96122">
        <ele>842</ele>
        <time>2019-10-09T13:31:16.000Z</time>
      </trkpt>
      <trkpt lat="44.22396" lon="2.96124">
        <ele>843</ele>
        <time>2019-10-09T13:31:17.000Z</time>
      </trkpt>
      <trkpt lat="44.22396" lon="2.96125">
        <ele>843</ele>
        <time>2019-10-09T13:31:18.000Z</time>
      </trkpt>
      <trkpt lat="44.22396" lon="2.96127">
        <ele>843</ele>
        <time>2019-10-09T13:31:19.000Z</time>
      </trkpt>
      <trkpt lat="44.22396" lon="2.96129">
        <ele>843</ele>
        <time>2019-10-09T13:31:20.000Z</time>
      </trkpt>
      <trkpt lat="44.22397" lon="2.9613">
        <ele>843</ele>
        <time>2019-10-09T13:31:21.000Z</time>
      </trkpt>
      <trkpt lat="44.22397" lon="2.96132">
        <ele>843</ele>
        <time>2019-10-09T13:31:22.000Z</time>
      </trkpt>
      <trkpt lat="44.22397" lon="2.96133">
        <ele>843</ele>
        <time>2019-10-09T13:31:23.000Z</time>
      </trkpt>
      <trkpt lat="44.22398" lon="2.96135">
        <ele>843</ele>
        <time>2019-10-09T13:31:24.000Z</time>
      </trkpt>
      <trkpt lat="44.22398" lon="2.96137">
        <ele>843</ele>
        <time>2019-10-09T13:31:25.000Z</time>
      </trkpt>
      <trkpt lat="44.22398" lon="2.96138">
        <ele>843</ele>
        <time>2019-10-09T13:31:26.000Z</time>
      </trkpt>
      <trkpt lat="44.22398" lon="2.9614">
        <ele>844</ele>
        <time>2019-10-09T13:31:27.000Z</time>
      </trkpt>
      <trkpt lat="44.22399" lon="2.96142">
        <ele>844</ele>
        <time>2019-10-09T13:31:28.000Z</time>
      </trkpt>
      <trkpt lat="44.22399" lon="2.96143">
        <ele>844</ele>
        <time>2019-10-09T13:31:29.000Z</time>
      </trkpt>
      <trkpt lat="44.22399" lon="2.96145">
        <ele>844</ele>
        <time>2019-10-09T13:31:30.000Z</time>
      </trkpt>
      <trkpt lat="44.224" lon="2.96147">
        <ele>844</ele>
        <time>2019-10-09T13:31:31.000Z</time>
      </trkpt>
      <trkpt lat="44.224" lon="2.96149">
        <ele>844</ele>
        <time>2019-10-09T13:31:32.000Z</time>
      </trkpt>
      <trkpt lat="44.224" lon="2.96151">
        <ele>844</ele>
        <time>2019-10-09T13:31:33.000Z</time>
      </trkpt>
      <trkpt lat="44.22401" lon="2.96152">
        <ele>844</ele>
        <time>2019-10-09T13:31:34.000Z</time>
      </trkpt>
      <trkpt lat="44.22401" lon="2.96154">
        <ele>844</ele>
        <time>2019-10-09T13:31:35.000Z</time>
      </trkpt>
      <trkpt lat="44.22402" lon="2.96155">
        <ele>844</ele>
        <time>2019-10-09T13:31:36.000Z</time>
      </trkpt>
      <trkpt lat="44.22402" lon="2.96157">
        <ele>844</ele>
        <time>2019-10-09T13:31:37.000Z</time>
      </trkpt>
      <trkpt lat="44.22403" lon="2.96158">
        <ele>844</ele>
        <time>2019-10-09T13:31:38.000Z</time>
      </trkpt>
      <trkpt lat="44.22403" lon="2.9616">
        <ele>844</ele>
        <time>2019-10-09T13:31:39.000Z</time>
      </trkpt>
      <trkpt lat="44.22404" lon="2.96162">
        <ele>844</ele>
        <time>2019-10-09T13:31:40.000Z</time>
      </trkpt>
      <trkpt lat="44.22404" lon="2.96163">
        <ele>845</ele>
        <time>2019-10-09T13:31:41.000Z</time>
      </trkpt>
      <trkpt lat="44.22405" lon="2.96165">
        <ele>845</ele>
        <time>2019-10-09T13:31:42.000Z</time>
      </trkpt>
      <trkpt lat="44.22405" lon="2.96166">
        <ele>845</ele>
        <time>2019-10-09T13:31:43.000Z</time>
      </trkpt>
      <trkpt lat="44.22406" lon="2.96168">
        <ele>845</ele>
        <time>2019-10-09T13:31:44.000Z</time>
      </trkpt>
      <trkpt lat="44.22406" lon="2.96169">
        <ele>845</ele>
        <time>2019-10-09T13:31:45.000Z</time>
      </trkpt>
      <trkpt lat="44.22406" lon="2.9617">
        <ele>845</ele>
        <time>2019-10-09T13:31:46.000Z</time>
      </trkpt>
      <trkpt lat="44.22407" lon="2.96172">
        <ele>845</ele>
        <time>2019-10-09T13:31:47.000Z</time>
      </trkpt>
      <trkpt lat="44.22408" lon="2.96174">
        <ele>846</ele>
        <time>2019-10-09T13:31:48.000Z</time>
      </trkpt>
      <trkpt lat="44.22408" lon="2.96175">
        <ele>846</ele>
        <time>2019-10-09T13:31:49.000Z</time>
      </trkpt>
      <trkpt lat="44.22409" lon="2.96176">
        <ele>846</ele>
        <time>2019-10-09T13:31:50.000Z</time>
      </trkpt>
      <trkpt lat="44.2241" lon="2.96177">
        <ele>846</ele>
        <time>2019-10-09T13:31:51.000Z</time>
      </trkpt>
      <trkpt lat="44.22411" lon="2.96179">
        <ele>846</ele>
        <time>2019-10-09T13:31:52.000Z</time>
      </trkpt>
      <trkpt lat="44.22412" lon="2.9618">
        <ele>846</ele>
        <time>2019-10-09T13:31:53.000Z</time>
      </trkpt>
      <trkpt lat="44.22413" lon="2.96182">
        <ele>846</ele>
        <time>2019-10-09T13:31:54.000Z</time>
      </trkpt>
      <trkpt lat="44.22414" lon="2.96183">
        <ele>846</ele>
        <time>2019-10-09T13:31:55.000Z</time>
      </trkpt>
      <trkpt lat="44.22415" lon="2.96185">
        <ele>846</ele>
        <time>2019-10-09T13:31:56.000Z</time>
      </trkpt>
      <trkpt lat="44.22416" lon="2.96186">
        <ele>846</ele>
        <time>2019-10-09T13:31:57.000Z</time>
      </trkpt>
      <trkpt lat="44.22417" lon="2.96188">
        <ele>846</ele>
        <time>2019-10-09T13:31:58.000Z</time>
      </trkpt>
      <trkpt lat="44.22418" lon="2.96189">
        <ele>846</ele>
        <time>2019-10-09T13:31:59.000Z</time>
      </trkpt>
      <trkpt lat="44.22419" lon="2.96191">
        <ele>846</ele>
        <time>2019-10-09T13:32:00.000Z</time>
      </trkpt>
      <trkpt lat="44.2242" lon="2.96192">
        <ele>846</ele>
        <time>2019-10-09T13:32:01.000Z</time>
      </trkpt>
      <trkpt lat="44.22421" lon="2.96193">
        <ele>846</ele>
        <time>2019-10-09T13:32:02.000Z</time>
      </trkpt>
      <trkpt lat="44.22422" lon="2.96195">
        <ele>846</ele>
        <time>2019-10-09T13:32:03.000Z</time>
      </trkpt>
      <trkpt lat="44.22423" lon="2.96196">
        <ele>846</ele>
        <time>2019-10-09T13:32:04.000Z</time>
      </trkpt>
      <trkpt lat="44.22424" lon="2.96198">
        <ele>846</ele>
        <time>2019-10-09T13:32:05.000Z</time>
      </trkpt>
      <trkpt lat="44.22425" lon="2.96199">
        <ele>846</ele>
        <time>2019-10-09T13:32:06.000Z</time>
      </trkpt>
      <trkpt lat="44.22426" lon="2.962">
        <ele>846</ele>
        <time>2019-10-09T13:32:07.000Z</time>
      </trkpt>
      <trkpt lat="44.22427" lon="2.96202">
        <ele>846</ele>
        <time>2019-10-09T13:32:08.000Z</time>
      </trkpt>
      <trkpt lat="44.22427" lon="2.96203">
        <ele>846</ele>
        <time>2019-10-09T13:32:09.000Z</time>
      </trkpt>
      <trkpt lat="44.22428" lon="2.96204">
        <ele>846</ele>
        <time>2019-10-09T13:32:10.000Z</time>
      </trkpt>
      <trkpt lat="44.22429" lon="2.96205">
        <ele>846</ele>
        <time>2019-10-09T13:32:11.000Z</time>
      </trkpt>
      <trkpt lat="44.2243" lon="2.96206">
        <ele>846</ele>
        <time>2019-10-09T13:32:12.000Z</time>
      </trkpt>
      <trkpt lat="44.22431" lon="2.96208">
        <ele>846</ele>
        <time>2019-10-09T13:32:13.000Z</time>
      </trkpt>
      <trkpt lat="44.22432" lon="2.96209">
        <ele>846</ele>
        <time>2019-10-09T13:32:14.000Z</time>
      </trkpt>
      <trkpt lat="44.22433" lon="2.9621">
        <ele>846</ele>
        <time>2019-10-09T13:32:15.000Z</time>
      </trkpt>
      <trkpt lat="44.22434" lon="2.96212">
        <ele>846</ele>
        <time>2019-10-09T13:32:16.000Z</time>
      </trkpt>
      <trkpt lat="44.22435" lon="2.96213">
        <ele>846</ele>
        <time>2019-10-09T13:32:17.000Z</time>
      </trkpt>
      <trkpt lat="44.22436" lon="2.96214">
        <ele>846</ele>
        <time>2019-10-09T13:32:18.000Z</time>
      </trkpt>
      <trkpt lat="44.22437" lon="2.96215">
        <ele>846</ele>
        <time>2019-10-09T13:32:19.000Z</time>
      </trkpt>
      <trkpt lat="44.22438" lon="2.96216">
        <ele>846</ele>
        <time>2019-10-09T13:32:20.000Z</time>
      </trkpt>
      <trkpt lat="44.22439" lon="2.96217">
        <ele>846</ele>
        <time>2019-10-09T13:32:21.000Z</time>
      </trkpt>
      <trkpt lat="44.2244" lon="2.96218">
        <ele>846</ele>
        <time>2019-10-09T13:32:22.000Z</time>
      </trkpt>
      <trkpt lat="44.22441" lon="2.96219">
        <ele>846</ele>
        <time>2019-10-09T13:32:23.000Z</time>
      </trkpt>
      <trkpt lat="44.22442" lon="2.96221">
        <ele>846</ele>
        <time>2019-10-09T13:32:24.000Z</time>
      </trkpt>
      <trkpt lat="44.22443" lon="2.96222">
        <ele>846</ele>
        <time>2019-10-09T13:32:25.000Z</time>
      </trkpt>
      <trkpt lat="44.22444" lon="2.96223">
        <ele>846</ele>
        <time>2019-10-09T13:32:26.000Z</time>
      </trkpt>
      <trkpt lat="44.22445" lon="2.96225">
        <ele>846</ele>
        <time>2019-10-09T13:32:27.000Z</time>
      </trkpt>
      <trkpt lat="44.22446" lon="2.96226">
        <ele>846</ele>
        <time>2019-10-09T13:32:28.000Z</time>
      </trkpt>
      <trkpt lat="44.22447" lon="2.96227">
        <ele>846</ele>
        <time>2019-10-09T13:32:29.000Z</time>
      </trkpt>
      <trkpt lat="44.22448" lon="2.96229">
        <ele>846</ele>
        <time>2019-10-09T13:32:30.000Z</time>
      </trkpt>
      <trkpt lat="44.22449" lon="2.9623">
        <ele>846</ele>
        <time>2019-10-09T13:32:31.000Z</time>
      </trkpt>
      <trkpt lat="44.2245" lon="2.96231">
        <ele>846</ele>
        <time>2019-10-09T13:32:32.000Z</time>
      </trkpt>
      <trkpt lat="44.22451" lon="2.96232">
        <ele>846</ele>
        <time>2019-10-09T13:32:33.000Z</time>
      </trkpt>
      <trkpt lat="44.22452" lon="2.96233">
        <ele>846</ele>
        <time>2019-10-09T13:32:34.000Z</time>
      </trkpt>
      <trkpt lat="44.22453" lon="2.96234">
        <ele>846</ele>
        <time>2019-10-09T13:32:35.000Z</time>
      </trkpt>
      <trkpt lat="44.22454" lon="2.96235">
        <ele>846</ele>
        <time>2019-10-09T13:32:36.000Z</time>
      </trkpt>
      <trkpt lat="44.22454" lon="2.96236">
        <ele>846</ele>
        <time>2019-10-09T13:32:37.000Z</time>
      </trkpt>
      <trkpt lat="44.22455" lon="2.96237">
        <ele>846</ele>
        <time>2019-10-09T13:32:38.000Z</time>
      </trkpt>
      <trkpt lat="44.22456" lon="2.96238">
        <ele>846</ele>
        <time>2019-10-09T13:32:39.000Z</time>
      </trkpt>
      <trkpt lat="44.22458" lon="2.9624">
        <ele>846</ele>
        <time>2019-10-09T13:32:40.000Z</time>
      </trkpt>
      <trkpt lat="44.22459" lon="2.96241">
        <ele>846</ele>
        <time>2019-10-09T13:32:41.000Z</time>
      </trkpt>
      <trkpt lat="44.2246" lon="2.96242">
        <ele>846</ele>
        <time>2019-10-09T13:32:42.000Z</time>
      </trkpt>
      <trkpt lat="44.22461" lon="2.96243">
        <ele>846</ele>
        <time>2019-10-09T13:32:43.000Z</time>
      </trkpt>
      <trkpt lat="44.22462" lon="2.96245">
        <ele>846</ele>
        <time>2019-10-09T13:32:44.000Z</time>
      </trkpt>
      <trkpt lat="44.22463" lon="2.96246">
        <ele>846</ele>
        <time>2019-10-09T13:32:45.000Z</time>
      </trkpt>
      <trkpt lat="44.22464" lon="2.96247">
        <ele>846</ele>
        <time>2019-10-09T13:32:46.000Z</time>
      </trkpt>
      <trkpt lat="44.22464" lon="2.96248">
        <ele>846</ele>
        <time>2019-10-09T13:32:47.000Z</time>
      </trkpt>
      <trkpt lat="44.22465" lon="2.96249">
        <ele>846</ele>
        <time>2019-10-09T13:32:48.000Z</time>
      </trkpt>
      <trkpt lat="44.22466" lon="2.9625">
        <ele>846</ele>
        <time>2019-10-09T13:32:49.000Z</time>
      </trkpt>
      <trkpt lat="44.22467" lon="2.96251">
        <ele>846</ele>
        <time>2019-10-09T13:32:50.000Z</time>
      </trkpt>
      <trkpt lat="44.22468" lon="2.96253">
        <ele>846</ele>
        <time>2019-10-09T13:32:51.000Z</time>
      </trkpt>
      <trkpt lat="44.22468" lon="2.96254">
        <ele>846</ele>
        <time>2019-10-09T13:32:52.000Z</time>
      </trkpt>
      <trkpt lat="44.22469" lon="2.96255">
        <ele>845</ele>
        <time>2019-10-09T13:32:53.000Z</time>
      </trkpt>
      <trkpt lat="44.22471" lon="2.96256">
        <ele>845</ele>
        <time>2019-10-09T13:32:54.000Z</time>
      </trkpt>
      <trkpt lat="44.22472" lon="2.96258">
        <ele>845</ele>
        <time>2019-10-09T13:32:55.000Z</time>
      </trkpt>
      <trkpt lat="44.22473" lon="2.96259">
        <ele>845</ele>
        <time>2019-10-09T13:32:56.000Z</time>
      </trkpt>
      <trkpt lat="44.22474" lon="2.9626">
        <ele>845</ele>
        <time>2019-10-09T13:32:57.000Z</time>
      </trkpt>
      <trkpt lat="44.22475" lon="2.96262">
        <ele>845</ele>
        <time>2019-10-09T13:32:58.000Z</time>
      </trkpt>
      <trkpt lat="44.22475" lon="2.96263">
        <ele>845</ele>
        <time>2019-10-09T13:32:59.000Z</time>
      </trkpt>
      <trkpt lat="44.22476" lon="2.96265">
        <ele>845</ele>
        <time>2019-10-09T13:33:00.000Z</time>
      </trkpt>
      <trkpt lat="44.22477" lon="2.96266">
        <ele>845</ele>
        <time>2019-10-09T13:33:01.000Z</time>
      </trkpt>
      <trkpt lat="44.22478" lon="2.96267">
        <ele>845</ele>
        <time>2019-10-09T13:33:02.000Z</time>
      </trkpt>
      <trkpt lat="44.2248" lon="2.96268">
        <ele>845</ele>
        <time>2019-10-09T13:33:03.000Z</time>
      </trkpt>
      <trkpt lat="44.22481" lon="2.96269">
        <ele>845</ele>
        <time>2019-10-09T13:33:04.000Z</time>
      </trkpt>
      <trkpt lat="44.22482" lon="2.9627">
        <ele>845</ele>
        <time>2019-10-09T13:33:05.000Z</time>
      </trkpt>
      <trkpt lat="44.22483" lon="2.96271">
        <ele>845</ele>
        <time>2019-10-09T13:33:06.000Z</time>
      </trkpt>
      <trkpt lat="44.22484" lon="2.96272">
        <ele>845</ele>
        <time>2019-10-09T13:33:07.000Z</time>
      </trkpt>
      <trkpt lat="44.22484" lon="2.96273">
        <ele>845</ele>
        <time>2019-10-09T13:33:08.000Z</time>
      </trkpt>
      <trkpt lat="44.22485" lon="2.96274">
        <ele>845</ele>
        <time>2019-10-09T13:33:09.000Z</time>
      </trkpt>
      <trkpt lat="44.22486" lon="2.96275">
        <ele>845</ele>
        <time>2019-10-09T13:33:10.000Z</time>
      </trkpt>
      <trkpt lat="44.22487" lon="2.96276">
        <ele>845</ele>
        <time>2019-10-09T13:33:11.000Z</time>
      </trkpt>
      <trkpt lat="44.22489" lon="2.96278">
        <ele>845</ele>
        <time>2019-10-09T13:33:12.000Z</time>
      </trkpt>
      <trkpt lat="44.2249" lon="2.96279">
        <ele>845</ele>
        <time>2019-10-09T13:33:13.000Z</time>
      </trkpt>
      <trkpt lat="44.22491" lon="2.96281">
        <ele>845</ele>
        <time>2019-10-09T13:33:14.000Z</time>
      </trkpt>
      <trkpt lat="44.22492" lon="2.96282">
        <ele>845</ele>
        <time>2019-10-09T13:33:15.000Z</time>
      </trkpt>
      <trkpt lat="44.22493" lon="2.96284">
        <ele>845</ele>
        <time>2019-10-09T13:33:16.000Z</time>
      </trkpt>
      <trkpt lat="44.22494" lon="2.96285">
        <ele>845</ele>
        <time>2019-10-09T13:33:17.000Z</time>
      </trkpt>
      <trkpt lat="44.22496" lon="2.96286">
        <ele>845</ele>
        <time>2019-10-09T13:33:18.000Z</time>
      </trkpt>
      <trkpt lat="44.22497" lon="2.96288">
        <ele>845</ele>
        <time>2019-10-09T13:33:19.000Z</time>
      </trkpt>
      <trkpt lat="44.22498" lon="2.96289">
        <ele>845</ele>
        <time>2019-10-09T13:33:20.000Z</time>
      </trkpt>
      <trkpt lat="44.22499" lon="2.96291">
        <ele>845</ele>
        <time>2019-10-09T13:33:21.000Z</time>
      </trkpt>
      <trkpt lat="44.22501" lon="2.96293">
        <ele>845</ele>
        <time>2019-10-09T13:33:22.000Z</time>
      </trkpt>
      <trkpt lat="44.22502" lon="2.96294">
        <ele>845</ele>
        <time>2019-10-09T13:33:23.000Z</time>
      </trkpt>
      <trkpt lat="44.22503" lon="2.96295">
        <ele>845</ele>
        <time>2019-10-09T13:33:24.000Z</time>
      </trkpt>
      <trkpt lat="44.22505" lon="2.96297">
        <ele>844</ele>
        <time>2019-10-09T13:33:25.000Z</time>
      </trkpt>
      <trkpt lat="44.22506" lon="2.96299">
        <ele>844</ele>
        <time>2019-10-09T13:33:26.000Z</time>
      </trkpt>
      <trkpt lat="44.22508" lon="2.963">
        <ele>844</ele>
        <time>2019-10-09T13:33:27.000Z</time>
      </trkpt>
      <trkpt lat="44.22509" lon="2.96301">
        <ele>844</ele>
        <time>2019-10-09T13:33:28.000Z</time>
      </trkpt>
      <trkpt lat="44.22511" lon="2.96303">
        <ele>844</ele>
        <time>2019-10-09T13:33:29.000Z</time>
      </trkpt>
      <trkpt lat="44.22512" lon="2.96305">
        <ele>844</ele>
        <time>2019-10-09T13:33:30.000Z</time>
      </trkpt>
      <trkpt lat="44.22513" lon="2.96306">
        <ele>844</ele>
        <time>2019-10-09T13:33:31.000Z</time>
      </trkpt>
      <trkpt lat="44.22514" lon="2.96308">
        <ele>844</ele>
        <time>2019-10-09T13:33:32.000Z</time>
      </trkpt>
      <trkpt lat="44.22515" lon="2.9631">
        <ele>843</ele>
        <time>2019-10-09T13:33:33.000Z</time>
      </trkpt>
      <trkpt lat="44.22516" lon="2.96311">
        <ele>843</ele>
        <time>2019-10-09T13:33:34.000Z</time>
      </trkpt>
      <trkpt lat="44.22517" lon="2.96313">
        <ele>843</ele>
        <time>2019-10-09T13:33:35.000Z</time>
      </trkpt>
      <trkpt lat="44.22518" lon="2.96314">
        <ele>843</ele>
        <time>2019-10-09T13:33:36.000Z</time>
      </trkpt>
      <trkpt lat="44.22519" lon="2.96315">
        <ele>843</ele>
        <time>2019-10-09T13:33:37.000Z</time>
      </trkpt>
      <trkpt lat="44.2252" lon="2.96316">
        <ele>843</ele>
        <time>2019-10-09T13:33:38.000Z</time>
      </trkpt>
      <trkpt lat="44.22521" lon="2.96317">
        <ele>843</ele>
        <time>2019-10-09T13:33:39.000Z</time>
      </trkpt>
      <trkpt lat="44.22521" lon="2.96318">
        <ele>843</ele>
        <time>2019-10-09T13:33:40.000Z</time>
      </trkpt>
      <trkpt lat="44.22522" lon="2.96319">
        <ele>843</ele>
        <time>2019-10-09T13:33:41.000Z</time>
      </trkpt>
      <trkpt lat="44.22523" lon="2.9632">
        <ele>843</ele>
        <time>2019-10-09T13:33:42.000Z</time>
      </trkpt>
      <trkpt lat="44.22524" lon="2.96321">
        <ele>843</ele>
        <time>2019-10-09T13:33:43.000Z</time>
      </trkpt>
      <trkpt lat="44.22525" lon="2.96322">
        <ele>843</ele>
        <time>2019-10-09T13:33:44.000Z</time>
      </trkpt>
      <trkpt lat="44.22526" lon="2.96323">
        <ele>843</ele>
        <time>2019-10-09T13:33:45.000Z</time>
      </trkpt>
      <trkpt lat="44.22526" lon="2.96324">
        <ele>843</ele>
        <time>2019-10-09T13:33:46.000Z</time>
      </trkpt>
      <trkpt lat="44.22527" lon="2.96325">
        <ele>843</ele>
        <time>2019-10-09T13:33:47.000Z</time>
      </trkpt>
      <trkpt lat="44.22527" lon="2.96326">
        <ele>842</ele>
        <time>2019-10-09T13:33:48.000Z</time>
      </trkpt>
      <trkpt lat="44.22528" lon="2.96327">
        <ele>842</ele>
        <time>2019-10-09T13:33:49.000Z</time>
      </trkpt>
      <trkpt lat="44.22529" lon="2.96328">
        <ele>842</ele>
        <time>2019-10-09T13:33:50.000Z</time>
      </trkpt>
      <trkpt lat="44.2253" lon="2.96329">
        <ele>842</ele>
        <time>2019-10-09T13:33:51.000Z</time>
      </trkpt>
      <trkpt lat="44.22531" lon="2.9633">
        <ele>842</ele>
        <time>2019-10-09T13:33:52.000Z</time>
      </trkpt>
      <trkpt lat="44.22532" lon="2.96331">
        <ele>842</ele>
        <time>2019-10-09T13:33:53.000Z</time>
      </trkpt>
      <trkpt lat="44.22534" lon="2.96332">
        <ele>842</ele>
        <time>2019-10-09T13:33:54.000Z</time>
      </trkpt>
      <trkpt lat="44.22535" lon="2.96333">
        <ele>842</ele>
        <time>2019-10-09T13:33:55.000Z</time>
      </trkpt>
      <trkpt lat="44.22537" lon="2.96334">
        <ele>842</ele>
        <time>2019-10-09T13:33:56.000Z</time>
      </trkpt>
      <trkpt lat="44.22539" lon="2.96335">
        <ele>842</ele>
        <time>2019-10-09T13:33:57.000Z</time>
      </trkpt>
      <trkpt lat="44.2254" lon="2.96335">
        <ele>842</ele>
        <time>2019-10-09T13:33:58.000Z</time>
      </trkpt>
      <trkpt lat="44.22542" lon="2.96336">
        <ele>842</ele>
        <time>2019-10-09T13:33:59.000Z</time>
      </trkpt>
      <trkpt lat="44.22543" lon="2.96337">
        <ele>841</ele>
        <time>2019-10-09T13:34:00.000Z</time>
      </trkpt>
      <trkpt lat="44.22545" lon="2.96337">
        <ele>841</ele>
        <time>2019-10-09T13:34:01.000Z</time>
      </trkpt>
      <trkpt lat="44.22546" lon="2.96338">
        <ele>841</ele>
        <time>2019-10-09T13:34:02.000Z</time>
      </trkpt>
      <trkpt lat="44.22547" lon="2.96338">
        <ele>841</ele>
        <time>2019-10-09T13:34:03.000Z</time>
      </trkpt>
      <trkpt lat="44.22549" lon="2.96339">
        <ele>840</ele>
        <time>2019-10-09T13:34:04.000Z</time>
      </trkpt>
      <trkpt lat="44.2255" lon="2.96339">
        <ele>840</ele>
        <time>2019-10-09T13:34:05.000Z</time>
      </trkpt>
      <trkpt lat="44.22551" lon="2.9634">
        <ele>840</ele>
        <time>2019-10-09T13:34:06.000Z</time>
      </trkpt>
      <trkpt lat="44.22553" lon="2.96341">
        <ele>840</ele>
        <time>2019-10-09T13:34:07.000Z</time>
      </trkpt>
      <trkpt lat="44.22554" lon="2.96342">
        <ele>840</ele>
        <time>2019-10-09T13:34:08.000Z</time>
      </trkpt>
      <trkpt lat="44.22555" lon="2.96343">
        <ele>840</ele>
        <time>2019-10-09T13:34:09.000Z</time>
      </trkpt>
      <trkpt lat="44.22557" lon="2.96344">
        <ele>840</ele>
        <time>2019-10-09T13:34:10.000Z</time>
      </trkpt>
      <trkpt lat="44.22558" lon="2.96344">
        <ele>840</ele>
        <time>2019-10-09T13:34:11.000Z</time>
      </trkpt>
      <trkpt lat="44.2256" lon="2.96345">
        <ele>839</ele>
        <time>2019-10-09T13:34:12.000Z</time>
      </trkpt>
      <trkpt lat="44.22561" lon="2.96346">
        <ele>839</ele>
        <time>2019-10-09T13:34:13.000Z</time>
      </trkpt>
      <trkpt lat="44.22562" lon="2.96346">
        <ele>839</ele>
        <time>2019-10-09T13:34:14.000Z</time>
      </trkpt>
      <trkpt lat="44.22563" lon="2.96347">
        <ele>839</ele>
        <time>2019-10-09T13:34:15.000Z</time>
      </trkpt>
      <trkpt lat="44.22564" lon="2.96347">
        <ele>839</ele>
        <time>2019-10-09T13:34:16.000Z</time>
      </trkpt>
      <trkpt lat="44.22565" lon="2.96348">
        <ele>839</ele>
        <time>2019-10-09T13:34:17.000Z</time>
      </trkpt>
      <trkpt lat="44.22566" lon="2.96349">
        <ele>839</ele>
        <time>2019-10-09T13:34:18.000Z</time>
      </trkpt>
      <trkpt lat="44.22568" lon="2.96349">
        <ele>839</ele>
        <time>2019-10-09T13:34:19.000Z</time>
      </trkpt>
      <trkpt lat="44.22569" lon="2.9635">
        <ele>839</ele>
        <time>2019-10-09T13:34:20.000Z</time>
      </trkpt>
      <trkpt lat="44.2257" lon="2.96351">
        <ele>838</ele>
        <time>2019-10-09T13:34:21.000Z</time>
      </trkpt>
      <trkpt lat="44.22571" lon="2.96352">
        <ele>838</ele>
        <time>2019-10-09T13:34:22.000Z</time>
      </trkpt>
      <trkpt lat="44.22573" lon="2.96353">
        <ele>838</ele>
        <time>2019-10-09T13:34:23.000Z</time>
      </trkpt>
      <trkpt lat="44.22574" lon="2.96354">
        <ele>838</ele>
        <time>2019-10-09T13:34:24.000Z</time>
      </trkpt>
      <trkpt lat="44.22575" lon="2.96355">
        <ele>838</ele>
        <time>2019-10-09T13:34:25.000Z</time>
      </trkpt>
      <trkpt lat="44.22576" lon="2.96356">
        <ele>837</ele>
        <time>2019-10-09T13:34:26.000Z</time>
      </trkpt>
      <trkpt lat="44.22577" lon="2.96358">
        <ele>837</ele>
        <time>2019-10-09T13:34:27.000Z</time>
      </trkpt>
      <trkpt lat="44.22579" lon="2.96358">
        <ele>837</ele>
        <time>2019-10-09T13:34:28.000Z</time>
      </trkpt>
      <trkpt lat="44.2258" lon="2.96359">
        <ele>837</ele>
        <time>2019-10-09T13:34:29.000Z</time>
      </trkpt>
      <trkpt lat="44.22581" lon="2.9636">
        <ele>837</ele>
        <time>2019-10-09T13:34:30.000Z</time>
      </trkpt>
      <trkpt lat="44.22582" lon="2.96362">
        <ele>837</ele>
        <time>2019-10-09T13:34:31.000Z</time>
      </trkpt>
      <trkpt lat="44.22583" lon="2.96363">
        <ele>836</ele>
        <time>2019-10-09T13:34:32.000Z</time>
      </trkpt>
      <trkpt lat="44.22584" lon="2.96365">
        <ele>836</ele>
        <time>2019-10-09T13:34:33.000Z</time>
      </trkpt>
      <trkpt lat="44.22585" lon="2.96366">
        <ele>836</ele>
        <time>2019-10-09T13:34:34.000Z</time>
      </trkpt>
      <trkpt lat="44.22586" lon="2.96367">
        <ele>836</ele>
        <time>2019-10-09T13:34:35.000Z</time>
      </trkpt>
      <trkpt lat="44.22587" lon="2.96369">
        <ele>836</ele>
        <time>2019-10-09T13:34:36.000Z</time>
      </trkpt>
      <trkpt lat="44.22588" lon="2.9637">
        <ele>836</ele>
        <time>2019-10-09T13:34:37.000Z</time>
      </trkpt>
      <trkpt lat="44.22589" lon="2.96372">
        <ele>836</ele>
        <time>2019-10-09T13:34:38.000Z</time>
      </trkpt>
      <trkpt lat="44.2259" lon="2.96373">
        <ele>836</ele>
        <time>2019-10-09T13:34:39.000Z</time>
      </trkpt>
      <trkpt lat="44.22591" lon="2.96374">
        <ele>836</ele>
        <time>2019-10-09T13:34:40.000Z</time>
      </trkpt>
      <trkpt lat="44.22591" lon="2.96375">
        <ele>835</ele>
        <time>2019-10-09T13:34:41.000Z</time>
      </trkpt>
      <trkpt lat="44.22592" lon="2.96376">
        <ele>835</ele>
        <time>2019-10-09T13:34:42.000Z</time>
      </trkpt>
      <trkpt lat="44.22593" lon="2.96377">
        <ele>835</ele>
        <time>2019-10-09T13:34:43.000Z</time>
      </trkpt>
      <trkpt lat="44.22594" lon="2.96378">
        <ele>835</ele>
        <time>2019-10-09T13:34:44.000Z</time>
      </trkpt>
      <trkpt lat="44.22595" lon="2.96379">
        <ele>835</ele>
        <time>2019-10-09T13:34:45.000Z</time>
      </trkpt>
      <trkpt lat="44.22596" lon="2.9638">
        <ele>835</ele>
        <time>2019-10-09T13:34:46.000Z</time>
      </trkpt>
      <trkpt lat="44.22597" lon="2.96381">
        <ele>835</ele>
        <time>2019-10-09T13:34:47.000Z</time>
      </trkpt>
      <trkpt lat="44.22598" lon="2.96382">
        <ele>835</ele>
        <time>2019-10-09T13:34:48.000Z</time>
      </trkpt>
      <trkpt lat="44.22599" lon="2.96383">
        <ele>835</ele>
        <time>2019-10-09T13:34:49.000Z</time>
      </trkpt>
      <trkpt lat="44.226" lon="2.96384">
        <ele>835</ele>
        <time>2019-10-09T13:34:50.000Z</time>
      </trkpt>
      <trkpt lat="44.22602" lon="2.96386">
        <ele>835</ele>
        <time>2019-10-09T13:34:51.000Z</time>
      </trkpt>
      <trkpt lat="44.22604" lon="2.96387">
        <ele>835</ele>
        <time>2019-10-09T13:34:52.000Z</time>
      </trkpt>
      <trkpt lat="44.22605" lon="2.96388">
        <ele>835</ele>
        <time>2019-10-09T13:34:53.000Z</time>
      </trkpt>
      <trkpt lat="44.22607" lon="2.9639">
        <ele>835</ele>
        <time>2019-10-09T13:34:54.000Z</time>
      </trkpt>
      <trkpt lat="44.22608" lon="2.96391">
        <ele>835</ele>
        <time>2019-10-09T13:34:55.000Z</time>
      </trkpt>
      <trkpt lat="44.2261" lon="2.96393">
        <ele>835</ele>
        <time>2019-10-09T13:34:56.000Z</time>
      </trkpt>
      <trkpt lat="44.22611" lon="2.96394">
        <ele>835</ele>
        <time>2019-10-09T13:34:57.000Z</time>
      </trkpt>
      <trkpt lat="44.22612" lon="2.96395">
        <ele>835</ele>
        <time>2019-10-09T13:34:58.000Z</time>
      </trkpt>
      <trkpt lat="44.22613" lon="2.96397">
        <ele>835</ele>
        <time>2019-10-09T13:34:59.000Z</time>
      </trkpt>
      <trkpt lat="44.22614" lon="2.96398">
        <ele>835</ele>
        <time>2019-10-09T13:35:00.000Z</time>
      </trkpt>
      <trkpt lat="44.22615" lon="2.96399">
        <ele>835</ele>
        <time>2019-10-09T13:35:01.000Z</time>
      </trkpt>
      <trkpt lat="44.22616" lon="2.964">
        <ele>835</ele>
        <time>2019-10-09T13:35:02.000Z</time>
      </trkpt>
      <trkpt lat="44.22617" lon="2.96402">
        <ele>835</ele>
        <time>2019-10-09T13:35:03.000Z</time>
      </trkpt>
      <trkpt lat="44.22618" lon="2.96403">
        <ele>835</ele>
        <time>2019-10-09T13:35:04.000Z</time>
      </trkpt>
      <trkpt lat="44.22619" lon="2.96404">
        <ele>835</ele>
        <time>2019-10-09T13:35:05.000Z</time>
      </trkpt>
      <trkpt lat="44.2262" lon="2.96405">
        <ele>835</ele>
        <time>2019-10-09T13:35:06.000Z</time>
      </trkpt>
      <trkpt lat="44.22621" lon="2.96407">
        <ele>835</ele>
        <time>2019-10-09T13:35:07.000Z</time>
      </trkpt>
      <trkpt lat="44.22622" lon="2.96408">
        <ele>835</ele>
        <time>2019-10-09T13:35:08.000Z</time>
      </trkpt>
      <trkpt lat="44.22624" lon="2.9641">
        <ele>835</ele>
        <time>2019-10-09T13:35:09.000Z</time>
      </trkpt>
      <trkpt lat="44.22625" lon="2.96411">
        <ele>835</ele>
        <time>2019-10-09T13:35:10.000Z</time>
      </trkpt>
      <trkpt lat="44.22625" lon="2.96413">
        <ele>835</ele>
        <time>2019-10-09T13:35:11.000Z</time>
      </trkpt>
      <trkpt lat="44.22626" lon="2.96414">
        <ele>835</ele>
        <time>2019-10-09T13:35:12.000Z</time>
      </trkpt>
      <trkpt lat="44.22627" lon="2.96416">
        <ele>835</ele>
        <time>2019-10-09T13:35:13.000Z</time>
      </trkpt>
      <trkpt lat="44.22627" lon="2.96417">
        <ele>834</ele>
        <time>2019-10-09T13:35:14.000Z</time>
      </trkpt>
      <trkpt lat="44.22628" lon="2.96418">
        <ele>834</ele>
        <time>2019-10-09T13:35:15.000Z</time>
      </trkpt>
      <trkpt lat="44.2263" lon="2.96419">
        <ele>834</ele>
        <time>2019-10-09T13:35:16.000Z</time>
      </trkpt>
      <trkpt lat="44.22631" lon="2.96421">
        <ele>834</ele>
        <time>2019-10-09T13:35:17.000Z</time>
      </trkpt>
      <trkpt lat="44.22632" lon="2.96422">
        <ele>834</ele>
        <time>2019-10-09T13:35:18.000Z</time>
      </trkpt>
      <trkpt lat="44.22634" lon="2.96424">
        <ele>834</ele>
        <time>2019-10-09T13:35:19.000Z</time>
      </trkpt>
      <trkpt lat="44.22635" lon="2.96426">
        <ele>833</ele>
        <time>2019-10-09T13:35:20.000Z</time>
      </trkpt>
      <trkpt lat="44.22636" lon="2.96428">
        <ele>833</ele>
        <time>2019-10-09T13:35:21.000Z</time>
      </trkpt>
      <trkpt lat="44.22637" lon="2.9643">
        <ele>833</ele>
        <time>2019-10-09T13:35:22.000Z</time>
      </trkpt>
      <trkpt lat="44.22637" lon="2.96432">
        <ele>833</ele>
        <time>2019-10-09T13:35:23.000Z</time>
      </trkpt>
      <trkpt lat="44.22638" lon="2.96434">
        <ele>833</ele>
        <time>2019-10-09T13:35:24.000Z</time>
      </trkpt>
      <trkpt lat="44.22639" lon="2.96435">
        <ele>833</ele>
        <time>2019-10-09T13:35:25.000Z</time>
      </trkpt>
      <trkpt lat="44.2264" lon="2.96437">
        <ele>833</ele>
        <time>2019-10-09T13:35:26.000Z</time>
      </trkpt>
      <trkpt lat="44.22641" lon="2.96439">
        <ele>832</ele>
        <time>2019-10-09T13:35:27.000Z</time>
      </trkpt>
      <trkpt lat="44.22642" lon="2.9644">
        <ele>832</ele>
        <time>2019-10-09T13:35:28.000Z</time>
      </trkpt>
      <trkpt lat="44.22643" lon="2.96442">
        <ele>832</ele>
        <time>2019-10-09T13:35:29.000Z</time>
      </trkpt>
      <trkpt lat="44.22644" lon="2.96443">
        <ele>832</ele>
        <time>2019-10-09T13:35:30.000Z</time>
      </trkpt>
      <trkpt lat="44.22646" lon="2.96443">
        <ele>832</ele>
        <time>2019-10-09T13:35:31.000Z</time>
      </trkpt>
      <trkpt lat="44.22647" lon="2.96444">
        <ele>832</ele>
        <time>2019-10-09T13:35:32.000Z</time>
      </trkpt>
      <trkpt lat="44.22649" lon="2.96445">
        <ele>832</ele>
        <time>2019-10-09T13:35:33.000Z</time>
      </trkpt>
      <trkpt lat="44.2265" lon="2.96446">
        <ele>832</ele>
        <time>2019-10-09T13:35:34.000Z</time>
      </trkpt>
      <trkpt lat="44.22651" lon="2.96446">
        <ele>832</ele>
        <time>2019-10-09T13:35:35.000Z</time>
      </trkpt>
      <trkpt lat="44.22652" lon="2.96446">
        <ele>832</ele>
        <time>2019-10-09T13:35:36.000Z</time>
      </trkpt>
      <trkpt lat="44.22653" lon="2.96446">
        <ele>831</ele>
        <time>2019-10-09T13:35:37.000Z</time>
      </trkpt>
      <trkpt lat="44.22654" lon="2.96446">
        <ele>831</ele>
        <time>2019-10-09T13:35:38.000Z</time>
      </trkpt>
      <trkpt lat="44.22656" lon="2.96446">
        <ele>831</ele>
        <time>2019-10-09T13:35:39.000Z</time>
      </trkpt>
      <trkpt lat="44.22657" lon="2.96445">
        <ele>831</ele>
        <time>2019-10-09T13:35:40.000Z</time>
      </trkpt>
      <trkpt lat="44.22658" lon="2.96445">
        <ele>831</ele>
        <time>2019-10-09T13:35:41.000Z</time>
      </trkpt>
      <trkpt lat="44.22658" lon="2.96444">
        <ele>831</ele>
        <time>2019-10-09T13:35:42.000Z</time>
      </trkpt>
      <trkpt lat="44.2266" lon="2.96443">
        <ele>830</ele>
        <time>2019-10-09T13:35:43.000Z</time>
      </trkpt>
      <trkpt lat="44.22661" lon="2.96442">
        <ele>830</ele>
        <time>2019-10-09T13:35:44.000Z</time>
      </trkpt>
      <trkpt lat="44.22663" lon="2.96441">
        <ele>830</ele>
        <time>2019-10-09T13:35:45.000Z</time>
      </trkpt>
      <trkpt lat="44.22664" lon="2.96441">
        <ele>830</ele>
        <time>2019-10-09T13:35:46.000Z</time>
      </trkpt>
      <trkpt lat="44.22666" lon="2.9644">
        <ele>830</ele>
        <time>2019-10-09T13:35:47.000Z</time>
      </trkpt>
      <trkpt lat="44.22667" lon="2.9644">
        <ele>830</ele>
        <time>2019-10-09T13:35:48.000Z</time>
      </trkpt>
      <trkpt lat="44.22668" lon="2.9644">
        <ele>829</ele>
        <time>2019-10-09T13:35:49.000Z</time>
      </trkpt>
      <trkpt lat="44.2267" lon="2.9644">
        <ele>829</ele>
        <time>2019-10-09T13:35:50.000Z</time>
      </trkpt>
      <trkpt lat="44.22671" lon="2.96439">
        <ele>829</ele>
        <time>2019-10-09T13:35:51.000Z</time>
      </trkpt>
      <trkpt lat="44.22673" lon="2.96439">
        <ele>829</ele>
        <time>2019-10-09T13:35:52.000Z</time>
      </trkpt>
      <trkpt lat="44.22675" lon="2.96439">
        <ele>829</ele>
        <time>2019-10-09T13:35:53.000Z</time>
      </trkpt>
      <trkpt lat="44.22676" lon="2.96439">
        <ele>829</ele>
        <time>2019-10-09T13:35:54.000Z</time>
      </trkpt>
      <trkpt lat="44.22677" lon="2.9644">
        <ele>828</ele>
        <time>2019-10-09T13:35:55.000Z</time>
      </trkpt>
      <trkpt lat="44.22679" lon="2.9644">
        <ele>828</ele>
        <time>2019-10-09T13:35:56.000Z</time>
      </trkpt>
      <trkpt lat="44.2268" lon="2.96441">
        <ele>828</ele>
        <time>2019-10-09T13:35:57.000Z</time>
      </trkpt>
      <trkpt lat="44.22682" lon="2.96442">
        <ele>828</ele>
        <time>2019-10-09T13:35:58.000Z</time>
      </trkpt>
      <trkpt lat="44.22683" lon="2.96442">
        <ele>828</ele>
        <time>2019-10-09T13:35:59.000Z</time>
      </trkpt>
      <trkpt lat="44.22684" lon="2.96443">
        <ele>827</ele>
        <time>2019-10-09T13:36:00.000Z</time>
      </trkpt>
      <trkpt lat="44.22685" lon="2.96444">
        <ele>827</ele>
        <time>2019-10-09T13:36:01.000Z</time>
      </trkpt>
      <trkpt lat="44.22686" lon="2.96444">
        <ele>827</ele>
        <time>2019-10-09T13:36:02.000Z</time>
      </trkpt>
      <trkpt lat="44.22687" lon="2.96445">
        <ele>827</ele>
        <time>2019-10-09T13:36:03.000Z</time>
      </trkpt>
      <trkpt lat="44.22688" lon="2.96445">
        <ele>827</ele>
        <time>2019-10-09T13:36:04.000Z</time>
      </trkpt>
      <trkpt lat="44.22689" lon="2.96446">
        <ele>827</ele>
        <time>2019-10-09T13:36:05.000Z</time>
      </trkpt>
      <trkpt lat="44.2269" lon="2.96446">
        <ele>826</ele>
        <time>2019-10-09T13:36:06.000Z</time>
      </trkpt>
      <trkpt lat="44.22692" lon="2.96446">
        <ele>826</ele>
        <time>2019-10-09T13:36:07.000Z</time>
      </trkpt>
      <trkpt lat="44.22693" lon="2.96447">
        <ele>826</ele>
        <time>2019-10-09T13:36:08.000Z</time>
      </trkpt>
      <trkpt lat="44.22695" lon="2.96447">
        <ele>826</ele>
        <time>2019-10-09T13:36:09.000Z</time>
      </trkpt>
      <trkpt lat="44.22696" lon="2.96447">
        <ele>825</ele>
        <time>2019-10-09T13:36:10.000Z</time>
      </trkpt>
      <trkpt lat="44.22698" lon="2.96447">
        <ele>825</ele>
        <time>2019-10-09T13:36:11.000Z</time>
      </trkpt>
      <trkpt lat="44.22699" lon="2.96447">
        <ele>825</ele>
        <time>2019-10-09T13:36:12.000Z</time>
      </trkpt>
      <trkpt lat="44.22701" lon="2.96447">
        <ele>825</ele>
        <time>2019-10-09T13:36:13.000Z</time>
      </trkpt>
      <trkpt lat="44.22703" lon="2.96447">
        <ele>824</ele>
        <time>2019-10-09T13:36:14.000Z</time>
      </trkpt>
      <trkpt lat="44.22704" lon="2.96448">
        <ele>824</ele>
        <time>2019-10-09T13:36:15.000Z</time>
      </trkpt>
      <trkpt lat="44.22705" lon="2.96448">
        <ele>824</ele>
        <time>2019-10-09T13:36:16.000Z</time>
      </trkpt>
      <trkpt lat="44.22706" lon="2.96448">
        <ele>824</ele>
        <time>2019-10-09T13:36:17.000Z</time>
      </trkpt>
      <trkpt lat="44.22706" lon="2.96448">
        <ele>824</ele>
        <time>2019-10-09T13:36:18.000Z</time>
      </trkpt>
      <trkpt lat="44.22707" lon="2.96448">
        <ele>824</ele>
        <time>2019-10-09T13:36:19.000Z</time>
      </trkpt>
      <trkpt lat="44.22708" lon="2.96448">
        <ele>824</ele>
        <time>2019-10-09T13:36:20.000Z</time>
      </trkpt>
      <trkpt lat="44.2271" lon="2.96448">
        <ele>824</ele>
        <time>2019-10-09T13:36:21.000Z</time>
      </trkpt>
      <trkpt lat="44.22711" lon="2.96449">
        <ele>823</ele>
        <time>2019-10-09T13:36:22.000Z</time>
      </trkpt>
      <trkpt lat="44.22712" lon="2.96449">
        <ele>823</ele>
        <time>2019-10-09T13:36:23.000Z</time>
      </trkpt>
      <trkpt lat="44.22714" lon="2.96449">
        <ele>823</ele>
        <time>2019-10-09T13:36:24.000Z</time>
      </trkpt>
      <trkpt lat="44.22716" lon="2.96449">
        <ele>823</ele>
        <time>2019-10-09T13:36:25.000Z</time>
      </trkpt>
      <trkpt lat="44.22718" lon="2.9645">
        <ele>823</ele>
        <time>2019-10-09T13:36:26.000Z</time>
      </trkpt>
      <trkpt lat="44.22719" lon="2.9645">
        <ele>822</ele>
        <time>2019-10-09T13:36:27.000Z</time>
      </trkpt>
      <trkpt lat="44.22721" lon="2.96449">
        <ele>822</ele>
        <time>2019-10-09T13:36:28.000Z</time>
      </trkpt>
      <trkpt lat="44.22723" lon="2.96449">
        <ele>822</ele>
        <time>2019-10-09T13:36:29.000Z</time>
      </trkpt>
      <trkpt lat="44.22725" lon="2.96449">
        <ele>822</ele>
        <time>2019-10-09T13:36:30.000Z</time>
      </trkpt>
      <trkpt lat="44.22727" lon="2.96449">
        <ele>822</ele>
        <time>2019-10-09T13:36:31.000Z</time>
      </trkpt>
      <trkpt lat="44.22729" lon="2.96449">
        <ele>821</ele>
        <time>2019-10-09T13:36:32.000Z</time>
      </trkpt>
      <trkpt lat="44.2273" lon="2.96449">
        <ele>821</ele>
        <time>2019-10-09T13:36:33.000Z</time>
      </trkpt>
      <trkpt lat="44.22732" lon="2.96449">
        <ele>821</ele>
        <time>2019-10-09T13:36:34.000Z</time>
      </trkpt>
      <trkpt lat="44.22733" lon="2.96448">
        <ele>821</ele>
        <time>2019-10-09T13:36:35.000Z</time>
      </trkpt>
      <trkpt lat="44.22735" lon="2.96448">
        <ele>821</ele>
        <time>2019-10-09T13:36:36.000Z</time>
      </trkpt>
      <trkpt lat="44.22736" lon="2.96448">
        <ele>820</ele>
        <time>2019-10-09T13:36:37.000Z</time>
      </trkpt>
      <trkpt lat="44.22738" lon="2.96448">
        <ele>820</ele>
        <time>2019-10-09T13:36:38.000Z</time>
      </trkpt>
      <trkpt lat="44.22739" lon="2.96449">
        <ele>820</ele>
        <time>2019-10-09T13:36:39.000Z</time>
      </trkpt>
      <trkpt lat="44.22741" lon="2.96449">
        <ele>820</ele>
        <time>2019-10-09T13:36:40.000Z</time>
      </trkpt>
      <trkpt lat="44.22742" lon="2.96449">
        <ele>819</ele>
        <time>2019-10-09T13:36:41.000Z</time>
      </trkpt>
      <trkpt lat="44.22743" lon="2.96449">
        <ele>819</ele>
        <time>2019-10-09T13:36:42.000Z</time>
      </trkpt>
      <trkpt lat="44.22744" lon="2.9645">
        <ele>819</ele>
        <time>2019-10-09T13:36:43.000Z</time>
      </trkpt>
      <trkpt lat="44.22746" lon="2.9645">
        <ele>819</ele>
        <time>2019-10-09T13:36:44.000Z</time>
      </trkpt>
      <trkpt lat="44.22747" lon="2.9645">
        <ele>818</ele>
        <time>2019-10-09T13:36:45.000Z</time>
      </trkpt>
      <trkpt lat="44.22749" lon="2.96449">
        <ele>818</ele>
        <time>2019-10-09T13:36:46.000Z</time>
      </trkpt>
      <trkpt lat="44.2275" lon="2.96449">
        <ele>818</ele>
        <time>2019-10-09T13:36:47.000Z</time>
      </trkpt>
      <trkpt lat="44.22751" lon="2.96449">
        <ele>818</ele>
        <time>2019-10-09T13:36:48.000Z</time>
      </trkpt>
      <trkpt lat="44.22753" lon="2.96449">
        <ele>818</ele>
        <time>2019-10-09T13:36:49.000Z</time>
      </trkpt>
      <trkpt lat="44.22754" lon="2.9645">
        <ele>817</ele>
        <time>2019-10-09T13:36:50.000Z</time>
      </trkpt>
      <trkpt lat="44.22755" lon="2.9645">
        <ele>817</ele>
        <time>2019-10-09T13:36:51.000Z</time>
      </trkpt>
      <trkpt lat="44.22756" lon="2.96451">
        <ele>817</ele>
        <time>2019-10-09T13:36:52.000Z</time>
      </trkpt>
      <trkpt lat="44.22758" lon="2.96451">
        <ele>817</ele>
        <time>2019-10-09T13:36:53.000Z</time>
      </trkpt>
      <trkpt lat="44.22759" lon="2.96452">
        <ele>817</ele>
        <time>2019-10-09T13:36:54.000Z</time>
      </trkpt>
      <trkpt lat="44.2276" lon="2.96453">
        <ele>817</ele>
        <time>2019-10-09T13:36:55.000Z</time>
      </trkpt>
      <trkpt lat="44.22762" lon="2.96453">
        <ele>817</ele>
        <time>2019-10-09T13:36:56.000Z</time>
      </trkpt>
      <trkpt lat="44.22763" lon="2.96454">
        <ele>817</ele>
        <time>2019-10-09T13:36:57.000Z</time>
      </trkpt>
      <trkpt lat="44.22764" lon="2.96455">
        <ele>816</ele>
        <time>2019-10-09T13:36:58.000Z</time>
      </trkpt>
      <trkpt lat="44.22766" lon="2.96456">
        <ele>816</ele>
        <time>2019-10-09T13:36:59.000Z</time>
      </trkpt>
      <trkpt lat="44.22767" lon="2.96457">
        <ele>816</ele>
        <time>2019-10-09T13:37:00.000Z</time>
      </trkpt>
      <trkpt lat="44.22769" lon="2.96458">
        <ele>816</ele>
        <time>2019-10-09T13:37:01.000Z</time>
      </trkpt>
      <trkpt lat="44.2277" lon="2.96458">
        <ele>816</ele>
        <time>2019-10-09T13:37:02.000Z</time>
      </trkpt>
      <trkpt lat="44.22771" lon="2.96459">
        <ele>816</ele>
        <time>2019-10-09T13:37:03.000Z</time>
      </trkpt>
      <trkpt lat="44.22773" lon="2.9646">
        <ele>815</ele>
        <time>2019-10-09T13:37:04.000Z</time>
      </trkpt>
      <trkpt lat="44.22774" lon="2.96461">
        <ele>815</ele>
        <time>2019-10-09T13:37:05.000Z</time>
      </trkpt>
      <trkpt lat="44.22775" lon="2.96462">
        <ele>815</ele>
        <time>2019-10-09T13:37:06.000Z</time>
      </trkpt>
      <trkpt lat="44.22777" lon="2.96462">
        <ele>815</ele>
        <time>2019-10-09T13:37:07.000Z</time>
      </trkpt>
      <trkpt lat="44.22779" lon="2.96463">
        <ele>814</ele>
        <time>2019-10-09T13:37:08.000Z</time>
      </trkpt>
      <trkpt lat="44.22781" lon="2.96464">
        <ele>814</ele>
        <time>2019-10-09T13:37:09.000Z</time>
      </trkpt>
      <trkpt lat="44.22782" lon="2.96464">
        <ele>814</ele>
        <time>2019-10-09T13:37:10.000Z</time>
      </trkpt>
      <trkpt lat="44.22784" lon="2.96465">
        <ele>813</ele>
        <time>2019-10-09T13:37:11.000Z</time>
      </trkpt>
      <trkpt lat="44.22786" lon="2.96466">
        <ele>813</ele>
        <time>2019-10-09T13:37:12.000Z</time>
      </trkpt>
      <trkpt lat="44.22788" lon="2.96466">
        <ele>813</ele>
        <time>2019-10-09T13:37:13.000Z</time>
      </trkpt>
      <trkpt lat="44.2279" lon="2.96467">
        <ele>812</ele>
        <time>2019-10-09T13:37:14.000Z</time>
      </trkpt>
      <trkpt lat="44.22792" lon="2.96468">
        <ele>812</ele>
        <time>2019-10-09T13:37:15.000Z</time>
      </trkpt>
      <trkpt lat="44.22793" lon="2.96469">
        <ele>812</ele>
        <time>2019-10-09T13:37:16.000Z</time>
      </trkpt>
      <trkpt lat="44.22795" lon="2.96469">
        <ele>812</ele>
        <time>2019-10-09T13:37:17.000Z</time>
      </trkpt>
      <trkpt lat="44.22797" lon="2.96469">
        <ele>812</ele>
        <time>2019-10-09T13:37:18.000Z</time>
      </trkpt>
      <trkpt lat="44.22798" lon="2.9647">
        <ele>811</ele>
        <time>2019-10-09T13:37:19.000Z</time>
      </trkpt>
      <trkpt lat="44.228" lon="2.96471">
        <ele>811</ele>
        <time>2019-10-09T13:37:20.000Z</time>
      </trkpt>
      <trkpt lat="44.22801" lon="2.96471">
        <ele>811</ele>
        <time>2019-10-09T13:37:21.000Z</time>
      </trkpt>
      <trkpt lat="44.22803" lon="2.96473">
        <ele>811</ele>
        <time>2019-10-09T13:37:22.000Z</time>
      </trkpt>
      <trkpt lat="44.22804" lon="2.96474">
        <ele>811</ele>
        <time>2019-10-09T13:37:23.000Z</time>
      </trkpt>
      <trkpt lat="44.22805" lon="2.96475">
        <ele>811</ele>
        <time>2019-10-09T13:37:24.000Z</time>
      </trkpt>
      <trkpt lat="44.22806" lon="2.96476">
        <ele>810</ele>
        <time>2019-10-09T13:37:25.000Z</time>
      </trkpt>
      <trkpt lat="44.22807" lon="2.96477">
        <ele>810</ele>
        <time>2019-10-09T13:37:26.000Z</time>
      </trkpt>
      <trkpt lat="44.22808" lon="2.96478">
        <ele>810</ele>
        <time>2019-10-09T13:37:27.000Z</time>
      </trkpt>
      <trkpt lat="44.2281" lon="2.96479">
        <ele>810</ele>
        <time>2019-10-09T13:37:28.000Z</time>
      </trkpt>
      <trkpt lat="44.22811" lon="2.9648">
        <ele>810</ele>
        <time>2019-10-09T13:37:29.000Z</time>
      </trkpt>
      <trkpt lat="44.22812" lon="2.96481">
        <ele>809</ele>
        <time>2019-10-09T13:37:30.000Z</time>
      </trkpt>
      <trkpt lat="44.22813" lon="2.96481">
        <ele>809</ele>
        <time>2019-10-09T13:37:31.000Z</time>
      </trkpt>
      <trkpt lat="44.22814" lon="2.96481">
        <ele>809</ele>
        <time>2019-10-09T13:37:32.000Z</time>
      </trkpt>
      <trkpt lat="44.22816" lon="2.9648">
        <ele>809</ele>
        <time>2019-10-09T13:37:33.000Z</time>
      </trkpt>
      <trkpt lat="44.22817" lon="2.9648">
        <ele>809</ele>
        <time>2019-10-09T13:37:34.000Z</time>
      </trkpt>
      <trkpt lat="44.22819" lon="2.96479">
        <ele>809</ele>
        <time>2019-10-09T13:37:35.000Z</time>
      </trkpt>
      <trkpt lat="44.2282" lon="2.96479">
        <ele>809</ele>
        <time>2019-10-09T13:37:36.000Z</time>
      </trkpt>
      <trkpt lat="44.22821" lon="2.96478">
        <ele>809</ele>
        <time>2019-10-09T13:37:37.000Z</time>
      </trkpt>
      <trkpt lat="44.22823" lon="2.96477">
        <ele>808</ele>
        <time>2019-10-09T13:37:38.000Z</time>
      </trkpt>
      <trkpt lat="44.22824" lon="2.96477">
        <ele>808</ele>
        <time>2019-10-09T13:37:39.000Z</time>
      </trkpt>
      <trkpt lat="44.22825" lon="2.96476">
        <ele>808</ele>
        <time>2019-10-09T13:37:40.000Z</time>
      </trkpt>
      <trkpt lat="44.22827" lon="2.96475">
        <ele>808</ele>
        <time>2019-10-09T13:37:41.000Z</time>
      </trkpt>
      <trkpt lat="44.22828" lon="2.96475">
        <ele>808</ele>
        <time>2019-10-09T13:37:42.000Z</time>
      </trkpt>
      <trkpt lat="44.22829" lon="2.96474">
        <ele>808</ele>
        <time>2019-10-09T13:37:43.000Z</time>
      </trkpt>
      <trkpt lat="44.2283" lon="2.96473">
        <ele>808</ele>
        <time>2019-10-09T13:37:44.000Z</time>
      </trkpt>
      <trkpt lat="44.22831" lon="2.96473">
        <ele>808</ele>
        <time>2019-10-09T13:37:45.000Z</time>
      </trkpt>
      <trkpt lat="44.22832" lon="2.96472">
        <ele>808</ele>
        <time>2019-10-09T13:37:46.000Z</time>
      </trkpt>
      <trkpt lat="44.22833" lon="2.96472">
        <ele>808</ele>
        <time>2019-10-09T13:37:47.000Z</time>
      </trkpt>
      <trkpt lat="44.22834" lon="2.96471">
        <ele>808</ele>
        <time>2019-10-09T13:37:48.000Z</time>
      </trkpt>
      <trkpt lat="44.22834" lon="2.9647">
        <ele>808</ele>
        <time>2019-10-09T13:37:49.000Z</time>
      </trkpt>
      <trkpt lat="44.22835" lon="2.96469">
        <ele>809</ele>
        <time>2019-10-09T13:37:50.000Z</time>
      </trkpt>
      <trkpt lat="44.22836" lon="2.96468">
        <ele>809</ele>
        <time>2019-10-09T13:37:51.000Z</time>
      </trkpt>
      <trkpt lat="44.22837" lon="2.96467">
        <ele>809</ele>
        <time>2019-10-09T13:37:52.000Z</time>
      </trkpt>
      <trkpt lat="44.22837" lon="2.96467">
        <ele>809</ele>
        <time>2019-10-09T13:37:53.000Z</time>
      </trkpt>
      <trkpt lat="44.22838" lon="2.96466">
        <ele>809</ele>
        <time>2019-10-09T13:37:54.000Z</time>
      </trkpt>
      <trkpt lat="44.22838" lon="2.96466">
        <ele>810</ele>
        <time>2019-10-09T13:37:55.000Z</time>
      </trkpt>
      <trkpt lat="44.22839" lon="2.96465">
        <ele>810</ele>
        <time>2019-10-09T13:37:56.000Z</time>
      </trkpt>
      <trkpt lat="44.2284" lon="2.96464">
        <ele>810</ele>
        <time>2019-10-09T13:37:57.000Z</time>
      </trkpt>
      <trkpt lat="44.22841" lon="2.96463">
        <ele>810</ele>
        <time>2019-10-09T13:37:58.000Z</time>
      </trkpt>
      <trkpt lat="44.22841" lon="2.96462">
        <ele>810</ele>
        <time>2019-10-09T13:37:59.000Z</time>
      </trkpt>
      <trkpt lat="44.22842" lon="2.96461">
        <ele>810</ele>
        <time>2019-10-09T13:38:00.000Z</time>
      </trkpt>
      <trkpt lat="44.22843" lon="2.9646">
        <ele>810</ele>
        <time>2019-10-09T13:38:01.000Z</time>
      </trkpt>
      <trkpt lat="44.22844" lon="2.96458">
        <ele>810</ele>
        <time>2019-10-09T13:38:02.000Z</time>
      </trkpt>
      <trkpt lat="44.22845" lon="2.96457">
        <ele>810</ele>
        <time>2019-10-09T13:38:03.000Z</time>
      </trkpt>
      <trkpt lat="44.22846" lon="2.96456">
        <ele>810</ele>
        <time>2019-10-09T13:38:04.000Z</time>
      </trkpt>
      <trkpt lat="44.22847" lon="2.96455">
        <ele>810</ele>
        <time>2019-10-09T13:38:05.000Z</time>
      </trkpt>
      <trkpt lat="44.22848" lon="2.96454">
        <ele>810</ele>
        <time>2019-10-09T13:38:06.000Z</time>
      </trkpt>
      <trkpt lat="44.22849" lon="2.96453">
        <ele>810</ele>
        <time>2019-10-09T13:38:07.000Z</time>
      </trkpt>
      <trkpt lat="44.2285" lon="2.96452">
        <ele>810</ele>
        <time>2019-10-09T13:38:08.000Z</time>
      </trkpt>
      <trkpt lat="44.22851" lon="2.96451">
        <ele>810</ele>
        <time>2019-10-09T13:38:09.000Z</time>
      </trkpt>
      <trkpt lat="44.22851" lon="2.9645">
        <ele>810</ele>
        <time>2019-10-09T13:38:10.000Z</time>
      </trkpt>
      <trkpt lat="44.22852" lon="2.9645">
        <ele>810</ele>
        <time>2019-10-09T13:38:11.000Z</time>
      </trkpt>
      <trkpt lat="44.22853" lon="2.96449">
        <ele>810</ele>
        <time>2019-10-09T13:38:12.000Z</time>
      </trkpt>
      <trkpt lat="44.22853" lon="2.96449">
        <ele>810</ele>
        <time>2019-10-09T13:38:13.000Z</time>
      </trkpt>
      <trkpt lat="44.22854" lon="2.96448">
        <ele>810</ele>
        <time>2019-10-09T13:38:14.000Z</time>
      </trkpt>
      <trkpt lat="44.22854" lon="2.96448">
        <ele>811</ele>
        <time>2019-10-09T13:38:15.000Z</time>
      </trkpt>
      <trkpt lat="44.22855" lon="2.96447">
        <ele>811</ele>
        <time>2019-10-09T13:38:16.000Z</time>
      </trkpt>
      <trkpt lat="44.22856" lon="2.96446">
        <ele>811</ele>
        <time>2019-10-09T13:38:17.000Z</time>
      </trkpt>
      <trkpt lat="44.22857" lon="2.96445">
        <ele>811</ele>
        <time>2019-10-09T13:38:18.000Z</time>
      </trkpt>
      <trkpt lat="44.22857" lon="2.96444">
        <ele>811</ele>
        <time>2019-10-09T13:38:19.000Z</time>
      </trkpt>
      <trkpt lat="44.22858" lon="2.96443">
        <ele>811</ele>
        <time>2019-10-09T13:38:20.000Z</time>
      </trkpt>
      <trkpt lat="44.22859" lon="2.96442">
        <ele>811</ele>
        <time>2019-10-09T13:38:21.000Z</time>
      </trkpt>
      <trkpt lat="44.2286" lon="2.96442">
        <ele>811</ele>
        <time>2019-10-09T13:38:22.000Z</time>
      </trkpt>
      <trkpt lat="44.22861" lon="2.96441">
        <ele>811</ele>
        <time>2019-10-09T13:38:23.000Z</time>
      </trkpt>
      <trkpt lat="44.22862" lon="2.9644">
        <ele>811</ele>
        <time>2019-10-09T13:38:24.000Z</time>
      </trkpt>
      <trkpt lat="44.22863" lon="2.9644">
        <ele>811</ele>
        <time>2019-10-09T13:38:25.000Z</time>
      </trkpt>
      <trkpt lat="44.22863" lon="2.96439">
        <ele>811</ele>
        <time>2019-10-09T13:38:26.000Z</time>
      </trkpt>
      <trkpt lat="44.22864" lon="2.96438">
        <ele>811</ele>
        <time>2019-10-09T13:38:27.000Z</time>
      </trkpt>
      <trkpt lat="44.22865" lon="2.96437">
        <ele>811</ele>
        <time>2019-10-09T13:38:28.000Z</time>
      </trkpt>
      <trkpt lat="44.22866" lon="2.96437">
        <ele>811</ele>
        <time>2019-10-09T13:38:29.000Z</time>
      </trkpt>
      <trkpt lat="44.22867" lon="2.96436">
        <ele>811</ele>
        <time>2019-10-09T13:38:30.000Z</time>
      </trkpt>
      <trkpt lat="44.22868" lon="2.96435">
        <ele>811</ele>
        <time>2019-10-09T13:38:31.000Z</time>
      </trkpt>
      <trkpt lat="44.22868" lon="2.96434">
        <ele>811</ele>
        <time>2019-10-09T13:38:32.000Z</time>
      </trkpt>
      <trkpt lat="44.22869" lon="2.96433">
        <ele>811</ele>
        <time>2019-10-09T13:38:33.000Z</time>
      </trkpt>
      <trkpt lat="44.2287" lon="2.96431">
        <ele>812</ele>
        <time>2019-10-09T13:38:34.000Z</time>
      </trkpt>
      <trkpt lat="44.2287" lon="2.96429">
        <ele>812</ele>
        <time>2019-10-09T13:38:35.000Z</time>
      </trkpt>
      <trkpt lat="44.22871" lon="2.96428">
        <ele>812</ele>
        <time>2019-10-09T13:38:36.000Z</time>
      </trkpt>
      <trkpt lat="44.22872" lon="2.96427">
        <ele>812</ele>
        <time>2019-10-09T13:38:37.000Z</time>
      </trkpt>
      <trkpt lat="44.22873" lon="2.96426">
        <ele>812</ele>
        <time>2019-10-09T13:38:38.000Z</time>
      </trkpt>
      <trkpt lat="44.22873" lon="2.96424">
        <ele>812</ele>
        <time>2019-10-09T13:38:39.000Z</time>
      </trkpt>
      <trkpt lat="44.22874" lon="2.96423">
        <ele>813</ele>
        <time>2019-10-09T13:38:40.000Z</time>
      </trkpt>
      <trkpt lat="44.22875" lon="2.96422">
        <ele>813</ele>
        <time>2019-10-09T13:38:41.000Z</time>
      </trkpt>
      <trkpt lat="44.22876" lon="2.96421">
        <ele>813</ele>
        <time>2019-10-09T13:38:42.000Z</time>
      </trkpt>
      <trkpt lat="44.22877" lon="2.9642">
        <ele>813</ele>
        <time>2019-10-09T13:38:43.000Z</time>
      </trkpt>
      <trkpt lat="44.22878" lon="2.96419">
        <ele>813</ele>
        <time>2019-10-09T13:38:44.000Z</time>
      </trkpt>
      <trkpt lat="44.22879" lon="2.96419">
        <ele>813</ele>
        <time>2019-10-09T13:38:45.000Z</time>
      </trkpt>
      <trkpt lat="44.2288" lon="2.96418">
        <ele>813</ele>
        <time>2019-10-09T13:38:46.000Z</time>
      </trkpt>
      <trkpt lat="44.22881" lon="2.96417">
        <ele>813</ele>
        <time>2019-10-09T13:38:47.000Z</time>
      </trkpt>
      <trkpt lat="44.22882" lon="2.96416">
        <ele>813</ele>
        <time>2019-10-09T13:38:48.000Z</time>
      </trkpt>
      <trkpt lat="44.22883" lon="2.96415">
        <ele>813</ele>
        <time>2019-10-09T13:38:49.000Z</time>
      </trkpt>
      <trkpt lat="44.22883" lon="2.96414">
        <ele>814</ele>
        <time>2019-10-09T13:38:50.000Z</time>
      </trkpt>
      <trkpt lat="44.22884" lon="2.96413">
        <ele>814</ele>
        <time>2019-10-09T13:38:51.000Z</time>
      </trkpt>
      <trkpt lat="44.22885" lon="2.96412">
        <ele>814</ele>
        <time>2019-10-09T13:38:52.000Z</time>
      </trkpt>
      <trkpt lat="44.22886" lon="2.96411">
        <ele>814</ele>
        <time>2019-10-09T13:38:53.000Z</time>
      </trkpt>
      <trkpt lat="44.22887" lon="2.9641">
        <ele>814</ele>
        <time>2019-10-09T13:38:54.000Z</time>
      </trkpt>
      <trkpt lat="44.22889" lon="2.9641">
        <ele>814</ele>
        <time>2019-10-09T13:38:55.000Z</time>
      </trkpt>
      <trkpt lat="44.2289" lon="2.96409">
        <ele>814</ele>
        <time>2019-10-09T13:38:56.000Z</time>
      </trkpt>
      <trkpt lat="44.22891" lon="2.96408">
        <ele>814</ele>
        <time>2019-10-09T13:38:57.000Z</time>
      </trkpt>
      <trkpt lat="44.22892" lon="2.96407">
        <ele>814</ele>
        <time>2019-10-09T13:38:58.000Z</time>
      </trkpt>
      <trkpt lat="44.22893" lon="2.96406">
        <ele>815</ele>
        <time>2019-10-09T13:38:59.000Z</time>
      </trkpt>
      <trkpt lat="44.22894" lon="2.96406">
        <ele>815</ele>
        <time>2019-10-09T13:39:00.000Z</time>
      </trkpt>
      <trkpt lat="44.22894" lon="2.96405">
        <ele>815</ele>
        <time>2019-10-09T13:39:01.000Z</time>
      </trkpt>
      <trkpt lat="44.22895" lon="2.96405">
        <ele>815</ele>
        <time>2019-10-09T13:39:02.000Z</time>
      </trkpt>
      <trkpt lat="44.22896" lon="2.96404">
        <ele>815</ele>
        <time>2019-10-09T13:39:03.000Z</time>
      </trkpt>
      <trkpt lat="44.22897" lon="2.96403">
        <ele>815</ele>
        <time>2019-10-09T13:39:04.000Z</time>
      </trkpt>
      <trkpt lat="44.22897" lon="2.96402">
        <ele>815</ele>
        <time>2019-10-09T13:39:05.000Z</time>
      </trkpt>
      <trkpt lat="44.22897" lon="2.96401">
        <ele>816</ele>
        <time>2019-10-09T13:39:06.000Z</time>
      </trkpt>
      <trkpt lat="44.22898" lon="2.964">
        <ele>816</ele>
        <time>2019-10-09T13:39:07.000Z</time>
      </trkpt>
      <trkpt lat="44.22898" lon="2.96398">
        <ele>816</ele>
        <time>2019-10-09T13:39:08.000Z</time>
      </trkpt>
      <trkpt lat="44.22898" lon="2.96396">
        <ele>816</ele>
        <time>2019-10-09T13:39:09.000Z</time>
      </trkpt>
      <trkpt lat="44.22898" lon="2.96395">
        <ele>816</ele>
        <time>2019-10-09T13:39:10.000Z</time>
      </trkpt>
      <trkpt lat="44.22898" lon="2.96394">
        <ele>817</ele>
        <time>2019-10-09T13:39:11.000Z</time>
      </trkpt>
      <trkpt lat="44.22899" lon="2.96392">
        <ele>817</ele>
        <time>2019-10-09T13:39:12.000Z</time>
      </trkpt>
      <trkpt lat="44.22899" lon="2.96391">
        <ele>817</ele>
        <time>2019-10-09T13:39:13.000Z</time>
      </trkpt>
      <trkpt lat="44.22899" lon="2.9639">
        <ele>817</ele>
        <time>2019-10-09T13:39:14.000Z</time>
      </trkpt>
      <trkpt lat="44.229" lon="2.96389">
        <ele>817</ele>
        <time>2019-10-09T13:39:15.000Z</time>
      </trkpt>
      <trkpt lat="44.229" lon="2.96388">
        <ele>818</ele>
        <time>2019-10-09T13:39:16.000Z</time>
      </trkpt>
      <trkpt lat="44.22901" lon="2.96387">
        <ele>818</ele>
        <time>2019-10-09T13:39:17.000Z</time>
      </trkpt>
      <trkpt lat="44.22901" lon="2.96386">
        <ele>818</ele>
        <time>2019-10-09T13:39:18.000Z</time>
      </trkpt>
      <trkpt lat="44.22902" lon="2.96385">
        <ele>818</ele>
        <time>2019-10-09T13:39:19.000Z</time>
      </trkpt>
      <trkpt lat="44.22903" lon="2.96384">
        <ele>818</ele>
        <time>2019-10-09T13:39:20.000Z</time>
      </trkpt>
      <trkpt lat="44.22903" lon="2.96383">
        <ele>819</ele>
        <time>2019-10-09T13:39:21.000Z</time>
      </trkpt>
      <trkpt lat="44.22904" lon="2.96382">
        <ele>819</ele>
        <time>2019-10-09T13:39:22.000Z</time>
      </trkpt>
      <trkpt lat="44.22904" lon="2.96381">
        <ele>819</ele>
        <time>2019-10-09T13:39:23.000Z</time>
      </trkpt>
      <trkpt lat="44.22905" lon="2.9638">
        <ele>819</ele>
        <time>2019-10-09T13:39:24.000Z</time>
      </trkpt>
      <trkpt lat="44.22905" lon="2.96379">
        <ele>820</ele>
        <time>2019-10-09T13:39:25.000Z</time>
      </trkpt>
      <trkpt lat="44.22906" lon="2.96378">
        <ele>820</ele>
        <time>2019-10-09T13:39:26.000Z</time>
      </trkpt>
      <trkpt lat="44.22906" lon="2.96377">
        <ele>820</ele>
        <time>2019-10-09T13:39:27.000Z</time>
      </trkpt>
      <trkpt lat="44.22906" lon="2.96376">
        <ele>821</ele>
        <time>2019-10-09T13:39:28.000Z</time>
      </trkpt>
      <trkpt lat="44.22907" lon="2.96375">
        <ele>821</ele>
        <time>2019-10-09T13:39:29.000Z</time>
      </trkpt>
      <trkpt lat="44.22907" lon="2.96374">
        <ele>821</ele>
        <time>2019-10-09T13:39:30.000Z</time>
      </trkpt>
      <trkpt lat="44.22907" lon="2.96373">
        <ele>822</ele>
        <time>2019-10-09T13:39:31.000Z</time>
      </trkpt>
      <trkpt lat="44.22908" lon="2.96373">
        <ele>822</ele>
        <time>2019-10-09T13:39:32.000Z</time>
      </trkpt>
      <trkpt lat="44.22908" lon="2.96372">
        <ele>822</ele>
        <time>2019-10-09T13:39:33.000Z</time>
      </trkpt>
      <trkpt lat="44.22909" lon="2.96371">
        <ele>823</ele>
        <time>2019-10-09T13:39:34.000Z</time>
      </trkpt>
      <trkpt lat="44.22909" lon="2.9637">
        <ele>823</ele>
        <time>2019-10-09T13:39:35.000Z</time>
      </trkpt>
      <trkpt lat="44.22909" lon="2.9637">
        <ele>823</ele>
        <time>2019-10-09T13:39:36.000Z</time>
      </trkpt>
      <trkpt lat="44.2291" lon="2.96369">
        <ele>823</ele>
        <time>2019-10-09T13:39:37.000Z</time>
      </trkpt>
      <trkpt lat="44.2291" lon="2.96368">
        <ele>823</ele>
        <time>2019-10-09T13:39:38.000Z</time>
      </trkpt>
      <trkpt lat="44.2291" lon="2.96366">
        <ele>824</ele>
        <time>2019-10-09T13:39:39.000Z</time>
      </trkpt>
      <trkpt lat="44.22911" lon="2.96365">
        <ele>824</ele>
        <time>2019-10-09T13:39:40.000Z</time>
      </trkpt>
      <trkpt lat="44.22911" lon="2.96364">
        <ele>824</ele>
        <time>2019-10-09T13:39:41.000Z</time>
      </trkpt>
      <trkpt lat="44.22912" lon="2.96363">
        <ele>824</ele>
        <time>2019-10-09T13:39:42.000Z</time>
      </trkpt>
      <trkpt lat="44.22912" lon="2.96363">
        <ele>824</ele>
        <time>2019-10-09T13:39:43.000Z</time>
      </trkpt>
      <trkpt lat="44.22913" lon="2.96362">
        <ele>825</ele>
        <time>2019-10-09T13:39:44.000Z</time>
      </trkpt>
      <trkpt lat="44.22913" lon="2.96361">
        <ele>825</ele>
        <time>2019-10-09T13:39:45.000Z</time>
      </trkpt>
      <trkpt lat="44.22914" lon="2.9636">
        <ele>825</ele>
        <time>2019-10-09T13:39:46.000Z</time>
      </trkpt>
      <trkpt lat="44.22915" lon="2.96359">
        <ele>825</ele>
        <time>2019-10-09T13:39:47.000Z</time>
      </trkpt>
      <trkpt lat="44.22915" lon="2.96358">
        <ele>826</ele>
        <time>2019-10-09T13:39:48.000Z</time>
      </trkpt>
      <trkpt lat="44.22916" lon="2.96357">
        <ele>826</ele>
        <time>2019-10-09T13:39:49.000Z</time>
      </trkpt>
      <trkpt lat="44.22916" lon="2.96356">
        <ele>826</ele>
        <time>2019-10-09T13:39:50.000Z</time>
      </trkpt>
      <trkpt lat="44.22917" lon="2.96355">
        <ele>826</ele>
        <time>2019-10-09T13:39:51.000Z</time>
      </trkpt>
      <trkpt lat="44.22917" lon="2.96354">
        <ele>826</ele>
        <time>2019-10-09T13:39:52.000Z</time>
      </trkpt>
      <trkpt lat="44.22917" lon="2.96353">
        <ele>827</ele>
        <time>2019-10-09T13:39:53.000Z</time>
      </trkpt>
      <trkpt lat="44.22918" lon="2.96353">
        <ele>827</ele>
        <time>2019-10-09T13:39:54.000Z</time>
      </trkpt>
      <trkpt lat="44.22918" lon="2.96352">
        <ele>827</ele>
        <time>2019-10-09T13:39:55.000Z</time>
      </trkpt>
      <trkpt lat="44.22919" lon="2.96351">
        <ele>827</ele>
        <time>2019-10-09T13:39:56.000Z</time>
      </trkpt>
      <trkpt lat="44.2292" lon="2.9635">
        <ele>828</ele>
        <time>2019-10-09T13:39:57.000Z</time>
      </trkpt>
      <trkpt lat="44.2292" lon="2.96349">
        <ele>828</ele>
        <time>2019-10-09T13:39:58.000Z</time>
      </trkpt>
      <trkpt lat="44.22921" lon="2.96348">
        <ele>828</ele>
        <time>2019-10-09T13:39:59.000Z</time>
      </trkpt>
      <trkpt lat="44.22922" lon="2.96347">
        <ele>828</ele>
        <time>2019-10-09T13:40:00.000Z</time>
      </trkpt>
      <trkpt lat="44.22922" lon="2.96346">
        <ele>828</ele>
        <time>2019-10-09T13:40:01.000Z</time>
      </trkpt>
      <trkpt lat="44.22923" lon="2.96345">
        <ele>829</ele>
        <time>2019-10-09T13:40:02.000Z</time>
      </trkpt>
      <trkpt lat="44.22923" lon="2.96344">
        <ele>829</ele>
        <time>2019-10-09T13:40:03.000Z</time>
      </trkpt>
      <trkpt lat="44.22924" lon="2.96344">
        <ele>829</ele>
        <time>2019-10-09T13:40:04.000Z</time>
      </trkpt>
      <trkpt lat="44.22924" lon="2.96342">
        <ele>829</ele>
        <time>2019-10-09T13:40:05.000Z</time>
      </trkpt>
      <trkpt lat="44.22924" lon="2.96341">
        <ele>829</ele>
        <time>2019-10-09T13:40:06.000Z</time>
      </trkpt>
      <trkpt lat="44.22925" lon="2.9634">
        <ele>830</ele>
        <time>2019-10-09T13:40:07.000Z</time>
      </trkpt>
      <trkpt lat="44.22925" lon="2.96339">
        <ele>830</ele>
        <time>2019-10-09T13:40:08.000Z</time>
      </trkpt>
      <trkpt lat="44.22925" lon="2.96338">
        <ele>830</ele>
        <time>2019-10-09T13:40:09.000Z</time>
      </trkpt>
      <trkpt lat="44.22926" lon="2.96336">
        <ele>830</ele>
        <time>2019-10-09T13:40:10.000Z</time>
      </trkpt>
      <trkpt lat="44.22927" lon="2.96335">
        <ele>830</ele>
        <time>2019-10-09T13:40:11.000Z</time>
      </trkpt>
      <trkpt lat="44.22928" lon="2.96334">
        <ele>830</ele>
        <time>2019-10-09T13:40:12.000Z</time>
      </trkpt>
      <trkpt lat="44.22928" lon="2.96333">
        <ele>830</ele>
        <time>2019-10-09T13:40:13.000Z</time>
      </trkpt>
      <trkpt lat="44.2293" lon="2.96331">
        <ele>830</ele>
        <time>2019-10-09T13:40:14.000Z</time>
      </trkpt>
      <trkpt lat="44.2293" lon="2.9633">
        <ele>830</ele>
        <time>2019-10-09T13:40:15.000Z</time>
      </trkpt>
      <trkpt lat="44.22931" lon="2.96328">
        <ele>830</ele>
        <time>2019-10-09T13:40:16.000Z</time>
      </trkpt>
      <trkpt lat="44.22932" lon="2.96326">
        <ele>829</ele>
        <time>2019-10-09T13:40:17.000Z</time>
      </trkpt>
      <trkpt lat="44.22932" lon="2.96324">
        <ele>829</ele>
        <time>2019-10-09T13:40:18.000Z</time>
      </trkpt>
      <trkpt lat="44.22933" lon="2.96323">
        <ele>829</ele>
        <time>2019-10-09T13:40:19.000Z</time>
      </trkpt>
      <trkpt lat="44.22933" lon="2.96322">
        <ele>830</ele>
        <time>2019-10-09T13:40:20.000Z</time>
      </trkpt>
      <trkpt lat="44.22934" lon="2.9632">
        <ele>830</ele>
        <time>2019-10-09T13:40:21.000Z</time>
      </trkpt>
      <trkpt lat="44.22934" lon="2.96319">
        <ele>830</ele>
        <time>2019-10-09T13:40:22.000Z</time>
      </trkpt>
      <trkpt lat="44.22935" lon="2.96317">
        <ele>830</ele>
        <time>2019-10-09T13:40:23.000Z</time>
      </trkpt>
      <trkpt lat="44.22935" lon="2.96316">
        <ele>830</ele>
        <time>2019-10-09T13:40:24.000Z</time>
      </trkpt>
      <trkpt lat="44.22935" lon="2.96315">
        <ele>830</ele>
        <time>2019-10-09T13:40:25.000Z</time>
      </trkpt>
      <trkpt lat="44.22936" lon="2.96314">
        <ele>831</ele>
        <time>2019-10-09T13:40:26.000Z</time>
      </trkpt>
      <trkpt lat="44.22936" lon="2.96312">
        <ele>831</ele>
        <time>2019-10-09T13:40:27.000Z</time>
      </trkpt>
      <trkpt lat="44.22937" lon="2.96311">
        <ele>831</ele>
        <time>2019-10-09T13:40:28.000Z</time>
      </trkpt>
      <trkpt lat="44.22937" lon="2.9631">
        <ele>831</ele>
        <time>2019-10-09T13:40:29.000Z</time>
      </trkpt>
      <trkpt lat="44.22938" lon="2.96309">
        <ele>831</ele>
        <time>2019-10-09T13:40:30.000Z</time>
      </trkpt>
      <trkpt lat="44.22938" lon="2.96307">
        <ele>831</ele>
        <time>2019-10-09T13:40:31.000Z</time>
      </trkpt>
      <trkpt lat="44.22939" lon="2.96306">
        <ele>831</ele>
        <time>2019-10-09T13:40:32.000Z</time>
      </trkpt>
      <trkpt lat="44.22939" lon="2.96305">
        <ele>831</ele>
        <time>2019-10-09T13:40:33.000Z</time>
      </trkpt>
      <trkpt lat="44.2294" lon="2.96303">
        <ele>831</ele>
        <time>2019-10-09T13:40:34.000Z</time>
      </trkpt>
      <trkpt lat="44.22941" lon="2.96302">
        <ele>831</ele>
        <time>2019-10-09T13:40:35.000Z</time>
      </trkpt>
      <trkpt lat="44.22942" lon="2.963">
        <ele>832</ele>
        <time>2019-10-09T13:40:36.000Z</time>
      </trkpt>
      <trkpt lat="44.22943" lon="2.96299">
        <ele>831</ele>
        <time>2019-10-09T13:40:37.000Z</time>
      </trkpt>
      <trkpt lat="44.22944" lon="2.96298">
        <ele>831</ele>
        <time>2019-10-09T13:40:38.000Z</time>
      </trkpt>
      <trkpt lat="44.22944" lon="2.96297">
        <ele>832</ele>
        <time>2019-10-09T13:40:39.000Z</time>
      </trkpt>
      <trkpt lat="44.22945" lon="2.96296">
        <ele>832</ele>
        <time>2019-10-09T13:40:40.000Z</time>
      </trkpt>
      <trkpt lat="44.22946" lon="2.96295">
        <ele>832</ele>
        <time>2019-10-09T13:40:41.000Z</time>
      </trkpt>
      <trkpt lat="44.22946" lon="2.96293">
        <ele>832</ele>
        <time>2019-10-09T13:40:42.000Z</time>
      </trkpt>
      <trkpt lat="44.22947" lon="2.96292">
        <ele>832</ele>
        <time>2019-10-09T13:40:43.000Z</time>
      </trkpt>
      <trkpt lat="44.22947" lon="2.96291">
        <ele>832</ele>
        <time>2019-10-09T13:40:44.000Z</time>
      </trkpt>
      <trkpt lat="44.22948" lon="2.96289">
        <ele>832</ele>
        <time>2019-10-09T13:40:45.000Z</time>
      </trkpt>
      <trkpt lat="44.22948" lon="2.96288">
        <ele>832</ele>
        <time>2019-10-09T13:40:46.000Z</time>
      </trkpt>
      <trkpt lat="44.22948" lon="2.96286">
        <ele>833</ele>
        <time>2019-10-09T13:40:47.000Z</time>
      </trkpt>
      <trkpt lat="44.22949" lon="2.96285">
        <ele>833</ele>
        <time>2019-10-09T13:40:48.000Z</time>
      </trkpt>
      <trkpt lat="44.22949" lon="2.96283">
        <ele>833</ele>
        <time>2019-10-09T13:40:49.000Z</time>
      </trkpt>
      <trkpt lat="44.2295" lon="2.96281">
        <ele>833</ele>
        <time>2019-10-09T13:40:50.000Z</time>
      </trkpt>
      <trkpt lat="44.22951" lon="2.9628">
        <ele>833</ele>
        <time>2019-10-09T13:40:51.000Z</time>
      </trkpt>
      <trkpt lat="44.22952" lon="2.96278">
        <ele>833</ele>
        <time>2019-10-09T13:40:52.000Z</time>
      </trkpt>
      <trkpt lat="44.22953" lon="2.96277">
        <ele>833</ele>
        <time>2019-10-09T13:40:53.000Z</time>
      </trkpt>
      <trkpt lat="44.22953" lon="2.96276">
        <ele>833</ele>
        <time>2019-10-09T13:40:54.000Z</time>
      </trkpt>
      <trkpt lat="44.22954" lon="2.96274">
        <ele>833</ele>
        <time>2019-10-09T13:40:55.000Z</time>
      </trkpt>
      <trkpt lat="44.22955" lon="2.96273">
        <ele>833</ele>
        <time>2019-10-09T13:40:56.000Z</time>
      </trkpt>
      <trkpt lat="44.22956" lon="2.96272">
        <ele>833</ele>
        <time>2019-10-09T13:40:57.000Z</time>
      </trkpt>
      <trkpt lat="44.22957" lon="2.96271">
        <ele>833</ele>
        <time>2019-10-09T13:40:58.000Z</time>
      </trkpt>
      <trkpt lat="44.22957" lon="2.9627">
        <ele>833</ele>
        <time>2019-10-09T13:40:59.000Z</time>
      </trkpt>
      <trkpt lat="44.22958" lon="2.96269">
        <ele>833</ele>
        <time>2019-10-09T13:41:00.000Z</time>
      </trkpt>
      <trkpt lat="44.22959" lon="2.96268">
        <ele>833</ele>
        <time>2019-10-09T13:41:01.000Z</time>
      </trkpt>
      <trkpt lat="44.2296" lon="2.96267">
        <ele>833</ele>
        <time>2019-10-09T13:41:02.000Z</time>
      </trkpt>
      <trkpt lat="44.22961" lon="2.96265">
        <ele>833</ele>
        <time>2019-10-09T13:41:03.000Z</time>
      </trkpt>
      <trkpt lat="44.22962" lon="2.96262">
        <ele>833</ele>
        <time>2019-10-09T13:41:04.000Z</time>
      </trkpt>
      <trkpt lat="44.22963" lon="2.96259">
        <ele>833</ele>
        <time>2019-10-09T13:41:05.000Z</time>
      </trkpt>
      <trkpt lat="44.22965" lon="2.96256">
        <ele>833</ele>
        <time>2019-10-09T13:41:06.000Z</time>
      </trkpt>
      <trkpt lat="44.22968" lon="2.96251">
        <ele>833</ele>
        <time>2019-10-09T13:41:07.000Z</time>
      </trkpt>
      <trkpt lat="44.22971" lon="2.96246">
        <ele>833</ele>
        <time>2019-10-09T13:41:08.000Z</time>
      </trkpt>
      <trkpt lat="44.22974" lon="2.96241">
        <ele>833</ele>
        <time>2019-10-09T13:41:09.000Z</time>
      </trkpt>
      <trkpt lat="44.22976" lon="2.96235">
        <ele>833</ele>
        <time>2019-10-09T13:41:10.000Z</time>
      </trkpt>
      <trkpt lat="44.22979" lon="2.96228">
        <ele>833</ele>
        <time>2019-10-09T13:41:11.000Z</time>
      </trkpt>
      <trkpt lat="44.22981" lon="2.96221">
        <ele>833</ele>
        <time>2019-10-09T13:41:12.000Z</time>
      </trkpt>
      <trkpt lat="44.22983" lon="2.96215">
        <ele>833</ele>
        <time>2019-10-09T13:41:13.000Z</time>
      </trkpt>
      <trkpt lat="44.22984" lon="2.96208">
        <ele>833</ele>
        <time>2019-10-09T13:41:14.000Z</time>
      </trkpt>
      <trkpt lat="44.22985" lon="2.96201">
        <ele>833</ele>
        <time>2019-10-09T13:41:15.000Z</time>
      </trkpt>
      <trkpt lat="44.22985" lon="2.96196">
        <ele>834</ele>
        <time>2019-10-09T13:41:16.000Z</time>
      </trkpt>
      <trkpt lat="44.22986" lon="2.96194">
        <ele>834</ele>
        <time>2019-10-09T13:41:17.000Z</time>
      </trkpt>
      <trkpt lat="44.22986" lon="2.96191">
        <ele>835</ele>
        <time>2019-10-09T13:41:18.000Z</time>
      </trkpt>
      <trkpt lat="44.22986" lon="2.96188">
        <ele>835</ele>
        <time>2019-10-09T13:41:19.000Z</time>
      </trkpt>
      <trkpt lat="44.22986" lon="2.96186">
        <ele>836</ele>
        <time>2019-10-09T13:41:20.000Z</time>
      </trkpt>
      <trkpt lat="44.22985" lon="2.96183">
        <ele>836</ele>
        <time>2019-10-09T13:41:21.000Z</time>
      </trkpt>
      <trkpt lat="44.22985" lon="2.96181">
        <ele>837</ele>
        <time>2019-10-09T13:41:22.000Z</time>
      </trkpt>
      <trkpt lat="44.22985" lon="2.96178">
        <ele>837</ele>
        <time>2019-10-09T13:41:23.000Z</time>
      </trkpt>
      <trkpt lat="44.22985" lon="2.96176">
        <ele>838</ele>
        <time>2019-10-09T13:41:24.000Z</time>
      </trkpt>
      <trkpt lat="44.22985" lon="2.96174">
        <ele>838</ele>
        <time>2019-10-09T13:41:25.000Z</time>
      </trkpt>
      <trkpt lat="44.22984" lon="2.96171">
        <ele>839</ele>
        <time>2019-10-09T13:41:26.000Z</time>
      </trkpt>
      <trkpt lat="44.22984" lon="2.96169">
        <ele>839</ele>
        <time>2019-10-09T13:41:27.000Z</time>
      </trkpt>
      <trkpt lat="44.22984" lon="2.96167">
        <ele>839</ele>
        <time>2019-10-09T13:41:28.000Z</time>
      </trkpt>
      <trkpt lat="44.22983" lon="2.96164">
        <ele>840</ele>
        <time>2019-10-09T13:41:29.000Z</time>
      </trkpt>
      <trkpt lat="44.22982" lon="2.96159">
        <ele>840</ele>
        <time>2019-10-09T13:41:30.000Z</time>
      </trkpt>
      <trkpt lat="44.22981" lon="2.96155">
        <ele>841</ele>
        <time>2019-10-09T13:41:31.000Z</time>
      </trkpt>
      <trkpt lat="44.22979" lon="2.9615">
        <ele>841</ele>
        <time>2019-10-09T13:41:32.000Z</time>
      </trkpt>
      <trkpt lat="44.22978" lon="2.96145">
        <ele>842</ele>
        <time>2019-10-09T13:41:33.000Z</time>
      </trkpt>
      <trkpt lat="44.22976" lon="2.9614">
        <ele>842</ele>
        <time>2019-10-09T13:41:34.000Z</time>
      </trkpt>
      <trkpt lat="44.22975" lon="2.96135">
        <ele>843</ele>
        <time>2019-10-09T13:41:35.000Z</time>
      </trkpt>
      <trkpt lat="44.22973" lon="2.96131">
        <ele>843</ele>
        <time>2019-10-09T13:41:36.000Z</time>
      </trkpt>
      <trkpt lat="44.22972" lon="2.96126">
        <ele>844</ele>
        <time>2019-10-09T13:41:37.000Z</time>
      </trkpt>
      <trkpt lat="44.22971" lon="2.96121">
        <ele>844</ele>
        <time>2019-10-09T13:41:38.000Z</time>
      </trkpt>
      <trkpt lat="44.2297" lon="2.96117">
        <ele>844</ele>
        <time>2019-10-09T13:41:39.000Z</time>
      </trkpt>
      <trkpt lat="44.22969" lon="2.96112">
        <ele>845</ele>
        <time>2019-10-09T13:41:40.000Z</time>
      </trkpt>
      <trkpt lat="44.22969" lon="2.96107">
        <ele>845</ele>
        <time>2019-10-09T13:41:41.000Z</time>
      </trkpt>
      <trkpt lat="44.22968" lon="2.96102">
        <ele>845</ele>
        <time>2019-10-09T13:41:42.000Z</time>
      </trkpt>
      <trkpt lat="44.22968" lon="2.96097">
        <ele>845</ele>
        <time>2019-10-09T13:41:43.000Z</time>
      </trkpt>
      <trkpt lat="44.22967" lon="2.96092">
        <ele>846</ele>
        <time>2019-10-09T13:41:44.000Z</time>
      </trkpt>
      <trkpt lat="44.22966" lon="2.96087">
        <ele>846</ele>
        <time>2019-10-09T13:41:45.000Z</time>
      </trkpt>
      <trkpt lat="44.22966" lon="2.96082">
        <ele>846</ele>
        <time>2019-10-09T13:41:46.000Z</time>
      </trkpt>
      <trkpt lat="44.22965" lon="2.96077">
        <ele>847</ele>
        <time>2019-10-09T13:41:47.000Z</time>
      </trkpt>
      <trkpt lat="44.22964" lon="2.96073">
        <ele>847</ele>
        <time>2019-10-09T13:41:48.000Z</time>
      </trkpt>
      <trkpt lat="44.22964" lon="2.96068">
        <ele>847</ele>
        <time>2019-10-09T13:41:49.000Z</time>
      </trkpt>
      <trkpt lat="44.22963" lon="2.96063">
        <ele>848</ele>
        <time>2019-10-09T13:41:50.000Z</time>
      </trkpt>
      <trkpt lat="44.22962" lon="2.96058">
        <ele>848</ele>
        <time>2019-10-09T13:41:51.000Z</time>
      </trkpt>
      <trkpt lat="44.22961" lon="2.96054">
        <ele>848</ele>
        <time>2019-10-09T13:41:52.000Z</time>
      </trkpt>
      <trkpt lat="44.2296" lon="2.9605">
        <ele>849</ele>
        <time>2019-10-09T13:41:53.000Z</time>
      </trkpt>
      <trkpt lat="44.22959" lon="2.96049">
        <ele>849</ele>
        <time>2019-10-09T13:41:54.000Z</time>
      </trkpt>
      <trkpt lat="44.22959" lon="2.96048">
        <ele>849</ele>
        <time>2019-10-09T13:41:55.000Z</time>
      </trkpt>
      <trkpt lat="44.22958" lon="2.96046">
        <ele>849</ele>
        <time>2019-10-09T13:41:56.000Z</time>
      </trkpt>
      <trkpt lat="44.22958" lon="2.96045">
        <ele>849</ele>
        <time>2019-10-09T13:41:57.000Z</time>
      </trkpt>
      <trkpt lat="44.22957" lon="2.96043">
        <ele>850</ele>
        <time>2019-10-09T13:41:58.000Z</time>
      </trkpt>
      <trkpt lat="44.22957" lon="2.96042">
        <ele>850</ele>
        <time>2019-10-09T13:41:59.000Z</time>
      </trkpt>
      <trkpt lat="44.22956" lon="2.96041">
        <ele>850</ele>
        <time>2019-10-09T13:42:00.000Z</time>
      </trkpt>
      <trkpt lat="44.22956" lon="2.9604">
        <ele>850</ele>
        <time>2019-10-09T13:42:01.000Z</time>
      </trkpt>
      <trkpt lat="44.22955" lon="2.96038">
        <ele>850</ele>
        <time>2019-10-09T13:42:02.000Z</time>
      </trkpt>
      <trkpt lat="44.22955" lon="2.96037">
        <ele>851</ele>
        <time>2019-10-09T13:42:03.000Z</time>
      </trkpt>
      <trkpt lat="44.22955" lon="2.96035">
        <ele>851</ele>
        <time>2019-10-09T13:42:04.000Z</time>
      </trkpt>
      <trkpt lat="44.22955" lon="2.96034">
        <ele>851</ele>
        <time>2019-10-09T13:42:05.000Z</time>
      </trkpt>
      <trkpt lat="44.22955" lon="2.96032">
        <ele>851</ele>
        <time>2019-10-09T13:42:06.000Z</time>
      </trkpt>
      <trkpt lat="44.22955" lon="2.96031">
        <ele>851</ele>
        <time>2019-10-09T13:42:07.000Z</time>
      </trkpt>
      <trkpt lat="44.22955" lon="2.9603">
        <ele>852</ele>
        <time>2019-10-09T13:42:08.000Z</time>
      </trkpt>
      <trkpt lat="44.22955" lon="2.96028">
        <ele>852</ele>
        <time>2019-10-09T13:42:09.000Z</time>
      </trkpt>
      <trkpt lat="44.22955" lon="2.96026">
        <ele>852</ele>
        <time>2019-10-09T13:42:10.000Z</time>
      </trkpt>
      <trkpt lat="44.22955" lon="2.96025">
        <ele>852</ele>
        <time>2019-10-09T13:42:11.000Z</time>
      </trkpt>
      <trkpt lat="44.22954" lon="2.96024">
        <ele>852</ele>
        <time>2019-10-09T13:42:12.000Z</time>
      </trkpt>
      <trkpt lat="44.22954" lon="2.96022">
        <ele>853</ele>
        <time>2019-10-09T13:42:13.000Z</time>
      </trkpt>
      <trkpt lat="44.22954" lon="2.96021">
        <ele>853</ele>
        <time>2019-10-09T13:42:14.000Z</time>
      </trkpt>
      <trkpt lat="44.22955" lon="2.9602">
        <ele>853</ele>
        <time>2019-10-09T13:42:15.000Z</time>
      </trkpt>
      <trkpt lat="44.22955" lon="2.96019">
        <ele>854</ele>
        <time>2019-10-09T13:42:16.000Z</time>
      </trkpt>
      <trkpt lat="44.22956" lon="2.96018">
        <ele>854</ele>
        <time>2019-10-09T13:42:17.000Z</time>
      </trkpt>
      <trkpt lat="44.22957" lon="2.96017">
        <ele>854</ele>
        <time>2019-10-09T13:42:18.000Z</time>
      </trkpt>
      <trkpt lat="44.22958" lon="2.96016">
        <ele>854</ele>
        <time>2019-10-09T13:42:19.000Z</time>
      </trkpt>
      <trkpt lat="44.22959" lon="2.96016">
        <ele>854</ele>
        <time>2019-10-09T13:42:20.000Z</time>
      </trkpt>
      <trkpt lat="44.2296" lon="2.96015">
        <ele>854</ele>
        <time>2019-10-09T13:42:21.000Z</time>
      </trkpt>
      <trkpt lat="44.22961" lon="2.96014">
        <ele>855</ele>
        <time>2019-10-09T13:42:22.000Z</time>
      </trkpt>
      <trkpt lat="44.22962" lon="2.96013">
        <ele>855</ele>
        <time>2019-10-09T13:42:23.000Z</time>
      </trkpt>
      <trkpt lat="44.22963" lon="2.96013">
        <ele>855</ele>
        <time>2019-10-09T13:42:24.000Z</time>
      </trkpt>
      <trkpt lat="44.22965" lon="2.96012">
        <ele>855</ele>
        <time>2019-10-09T13:42:25.000Z</time>
      </trkpt>
      <trkpt lat="44.22966" lon="2.96011">
        <ele>855</ele>
        <time>2019-10-09T13:42:26.000Z</time>
      </trkpt>
      <trkpt lat="44.22967" lon="2.9601">
        <ele>856</ele>
        <time>2019-10-09T13:42:27.000Z</time>
      </trkpt>
      <trkpt lat="44.22968" lon="2.96009">
        <ele>856</ele>
        <time>2019-10-09T13:42:28.000Z</time>
      </trkpt>
      <trkpt lat="44.22969" lon="2.96008">
        <ele>856</ele>
        <time>2019-10-09T13:42:29.000Z</time>
      </trkpt>
      <trkpt lat="44.2297" lon="2.96007">
        <ele>856</ele>
        <time>2019-10-09T13:42:30.000Z</time>
      </trkpt>
      <trkpt lat="44.22971" lon="2.96006">
        <ele>856</ele>
        <time>2019-10-09T13:42:31.000Z</time>
      </trkpt>
      <trkpt lat="44.22972" lon="2.96004">
        <ele>856</ele>
        <time>2019-10-09T13:42:32.000Z</time>
      </trkpt>
      <trkpt lat="44.22973" lon="2.96003">
        <ele>856</ele>
        <time>2019-10-09T13:42:33.000Z</time>
      </trkpt>
      <trkpt lat="44.22973" lon="2.96002">
        <ele>857</ele>
        <time>2019-10-09T13:42:34.000Z</time>
      </trkpt>
      <trkpt lat="44.22973" lon="2.96">
        <ele>857</ele>
        <time>2019-10-09T13:42:35.000Z</time>
      </trkpt>
      <trkpt lat="44.22973" lon="2.95998">
        <ele>857</ele>
        <time>2019-10-09T13:42:36.000Z</time>
      </trkpt>
      <trkpt lat="44.22973" lon="2.95996">
        <ele>857</ele>
        <time>2019-10-09T13:42:37.000Z</time>
      </trkpt>
      <trkpt lat="44.22973" lon="2.95993">
        <ele>857</ele>
        <time>2019-10-09T13:42:38.000Z</time>
      </trkpt>
      <trkpt lat="44.22973" lon="2.9599">
        <ele>857</ele>
        <time>2019-10-09T13:42:39.000Z</time>
      </trkpt>
      <trkpt lat="44.22974" lon="2.95986">
        <ele>857</ele>
        <time>2019-10-09T13:42:40.000Z</time>
      </trkpt>
      <trkpt lat="44.22975" lon="2.95982">
        <ele>858</ele>
        <time>2019-10-09T13:42:41.000Z</time>
      </trkpt>
      <trkpt lat="44.22976" lon="2.95979">
        <ele>858</ele>
        <time>2019-10-09T13:42:42.000Z</time>
      </trkpt>
      <trkpt lat="44.22978" lon="2.95976">
        <ele>858</ele>
        <time>2019-10-09T13:42:43.000Z</time>
      </trkpt>
      <trkpt lat="44.2298" lon="2.95973">
        <ele>858</ele>
        <time>2019-10-09T13:42:44.000Z</time>
      </trkpt>
      <trkpt lat="44.22982" lon="2.95971">
        <ele>858</ele>
        <time>2019-10-09T13:42:45.000Z</time>
      </trkpt>
      <trkpt lat="44.22984" lon="2.95968">
        <ele>858</ele>
        <time>2019-10-09T13:42:46.000Z</time>
      </trkpt>
      <trkpt lat="44.22986" lon="2.95966">
        <ele>859</ele>
        <time>2019-10-09T13:42:47.000Z</time>
      </trkpt>
      <trkpt lat="44.22987" lon="2.95964">
        <ele>859</ele>
        <time>2019-10-09T13:42:48.000Z</time>
      </trkpt>
      <trkpt lat="44.22988" lon="2.95963">
        <ele>859</ele>
        <time>2019-10-09T13:42:49.000Z</time>
      </trkpt>
      <trkpt lat="44.22989" lon="2.95961">
        <ele>859</ele>
        <time>2019-10-09T13:42:50.000Z</time>
      </trkpt>
      <trkpt lat="44.2299" lon="2.9596">
        <ele>859</ele>
        <time>2019-10-09T13:42:51.000Z</time>
      </trkpt>
      <trkpt lat="44.22991" lon="2.95959">
        <ele>859</ele>
        <time>2019-10-09T13:42:52.000Z</time>
      </trkpt>
      <trkpt lat="44.22992" lon="2.95958">
        <ele>860</ele>
        <time>2019-10-09T13:42:53.000Z</time>
      </trkpt>
      <trkpt lat="44.22993" lon="2.95957">
        <ele>860</ele>
        <time>2019-10-09T13:42:54.000Z</time>
      </trkpt>
      <trkpt lat="44.22994" lon="2.95956">
        <ele>860</ele>
        <time>2019-10-09T13:42:55.000Z</time>
      </trkpt>
      <trkpt lat="44.22995" lon="2.95955">
        <ele>860</ele>
        <time>2019-10-09T13:42:56.000Z</time>
      </trkpt>
      <trkpt lat="44.22997" lon="2.95955">
        <ele>860</ele>
        <time>2019-10-09T13:42:57.000Z</time>
      </trkpt>
      <trkpt lat="44.22998" lon="2.95954">
        <ele>861</ele>
        <time>2019-10-09T13:42:58.000Z</time>
      </trkpt>
      <trkpt lat="44.22999" lon="2.95953">
        <ele>861</ele>
        <time>2019-10-09T13:42:59.000Z</time>
      </trkpt>
      <trkpt lat="44.23001" lon="2.95952">
        <ele>861</ele>
        <time>2019-10-09T13:43:00.000Z</time>
      </trkpt>
      <trkpt lat="44.23002" lon="2.95951">
        <ele>861</ele>
        <time>2019-10-09T13:43:01.000Z</time>
      </trkpt>
      <trkpt lat="44.23003" lon="2.95951">
        <ele>861</ele>
        <time>2019-10-09T13:43:02.000Z</time>
      </trkpt>
      <trkpt lat="44.23005" lon="2.9595">
        <ele>862</ele>
        <time>2019-10-09T13:43:03.000Z</time>
      </trkpt>
      <trkpt lat="44.23006" lon="2.9595">
        <ele>862</ele>
        <time>2019-10-09T13:43:04.000Z</time>
      </trkpt>
      <trkpt lat="44.23007" lon="2.9595">
        <ele>862</ele>
        <time>2019-10-09T13:43:05.000Z</time>
      </trkpt>
      <trkpt lat="44.23008" lon="2.95949">
        <ele>862</ele>
        <time>2019-10-09T13:43:06.000Z</time>
      </trkpt>
      <trkpt lat="44.2301" lon="2.95948">
        <ele>862</ele>
        <time>2019-10-09T13:43:07.000Z</time>
      </trkpt>
      <trkpt lat="44.23011" lon="2.95947">
        <ele>862</ele>
        <time>2019-10-09T13:43:08.000Z</time>
      </trkpt>
      <trkpt lat="44.23012" lon="2.95947">
        <ele>862</ele>
        <time>2019-10-09T13:43:09.000Z</time>
      </trkpt>
      <trkpt lat="44.23013" lon="2.95946">
        <ele>862</ele>
        <time>2019-10-09T13:43:10.000Z</time>
      </trkpt>
      <trkpt lat="44.23014" lon="2.95945">
        <ele>862</ele>
        <time>2019-10-09T13:43:11.000Z</time>
      </trkpt>
      <trkpt lat="44.23015" lon="2.95945">
        <ele>862</ele>
        <time>2019-10-09T13:43:12.000Z</time>
      </trkpt>
      <trkpt lat="44.23016" lon="2.95944">
        <ele>863</ele>
        <time>2019-10-09T13:43:13.000Z</time>
      </trkpt>
      <trkpt lat="44.23017" lon="2.95943">
        <ele>863</ele>
        <time>2019-10-09T13:43:14.000Z</time>
      </trkpt>
      <trkpt lat="44.23018" lon="2.95942">
        <ele>863</ele>
        <time>2019-10-09T13:43:15.000Z</time>
      </trkpt>
      <trkpt lat="44.23019" lon="2.95942">
        <ele>863</ele>
        <time>2019-10-09T13:43:16.000Z</time>
      </trkpt>
      <trkpt lat="44.23019" lon="2.95941">
        <ele>863</ele>
        <time>2019-10-09T13:43:17.000Z</time>
      </trkpt>
      <trkpt lat="44.2302" lon="2.95941">
        <ele>863</ele>
        <time>2019-10-09T13:43:18.000Z</time>
      </trkpt>
      <trkpt lat="44.23021" lon="2.9594">
        <ele>863</ele>
        <time>2019-10-09T13:43:19.000Z</time>
      </trkpt>
      <trkpt lat="44.23023" lon="2.9594">
        <ele>863</ele>
        <time>2019-10-09T13:43:20.000Z</time>
      </trkpt>
      <trkpt lat="44.23023" lon="2.95939">
        <ele>863</ele>
        <time>2019-10-09T13:43:21.000Z</time>
      </trkpt>
      <trkpt lat="44.23023" lon="2.95939">
        <ele>864</ele>
        <time>2019-10-09T13:43:22.000Z</time>
      </trkpt>
      <trkpt lat="44.23024" lon="2.95939">
        <ele>864</ele>
        <time>2019-10-09T13:43:23.000Z</time>
      </trkpt>
      <trkpt lat="44.23025" lon="2.95938">
        <ele>864</ele>
        <time>2019-10-09T13:43:24.000Z</time>
      </trkpt>
      <trkpt lat="44.23025" lon="2.95938">
        <ele>864</ele>
        <time>2019-10-09T13:43:25.000Z</time>
      </trkpt>
      <trkpt lat="44.23026" lon="2.95937">
        <ele>864</ele>
        <time>2019-10-09T13:43:26.000Z</time>
      </trkpt>
      <trkpt lat="44.23027" lon="2.95936">
        <ele>864</ele>
        <time>2019-10-09T13:43:27.000Z</time>
      </trkpt>
      <trkpt lat="44.23027" lon="2.95936">
        <ele>865</ele>
        <time>2019-10-09T13:43:28.000Z</time>
      </trkpt>
      <trkpt lat="44.23027" lon="2.95936">
        <ele>865</ele>
        <time>2019-10-09T13:43:29.000Z</time>
      </trkpt>
      <trkpt lat="44.23028" lon="2.95935">
        <ele>865</ele>
        <time>2019-10-09T13:43:30.000Z</time>
      </trkpt>
      <trkpt lat="44.23029" lon="2.95934">
        <ele>865</ele>
        <time>2019-10-09T13:43:31.000Z</time>
      </trkpt>
      <trkpt lat="44.23029" lon="2.95934">
        <ele>866</ele>
        <time>2019-10-09T13:43:32.000Z</time>
      </trkpt>
      <trkpt lat="44.2303" lon="2.95933">
        <ele>866</ele>
        <time>2019-10-09T13:43:33.000Z</time>
      </trkpt>
      <trkpt lat="44.23031" lon="2.95932">
        <ele>866</ele>
        <time>2019-10-09T13:43:34.000Z</time>
      </trkpt>
      <trkpt lat="44.23032" lon="2.95932">
        <ele>866</ele>
        <time>2019-10-09T13:43:35.000Z</time>
      </trkpt>
      <trkpt lat="44.23033" lon="2.9593">
        <ele>866</ele>
        <time>2019-10-09T13:43:36.000Z</time>
      </trkpt>
      <trkpt lat="44.23034" lon="2.95929">
        <ele>867</ele>
        <time>2019-10-09T13:43:37.000Z</time>
      </trkpt>
      <trkpt lat="44.23036" lon="2.95928">
        <ele>867</ele>
        <time>2019-10-09T13:43:38.000Z</time>
      </trkpt>
      <trkpt lat="44.23037" lon="2.95927">
        <ele>867</ele>
        <time>2019-10-09T13:43:39.000Z</time>
      </trkpt>
      <trkpt lat="44.23038" lon="2.95927">
        <ele>867</ele>
        <time>2019-10-09T13:43:40.000Z</time>
      </trkpt>
      <trkpt lat="44.23039" lon="2.95926">
        <ele>868</ele>
        <time>2019-10-09T13:43:41.000Z</time>
      </trkpt>
      <trkpt lat="44.23041" lon="2.95925">
        <ele>868</ele>
        <time>2019-10-09T13:43:42.000Z</time>
      </trkpt>
      <trkpt lat="44.23042" lon="2.95924">
        <ele>868</ele>
        <time>2019-10-09T13:43:43.000Z</time>
      </trkpt>
      <trkpt lat="44.23043" lon="2.95923">
        <ele>868</ele>
        <time>2019-10-09T13:43:44.000Z</time>
      </trkpt>
      <trkpt lat="44.23044" lon="2.95922">
        <ele>868</ele>
        <time>2019-10-09T13:43:45.000Z</time>
      </trkpt>
      <trkpt lat="44.23044" lon="2.95921">
        <ele>868</ele>
        <time>2019-10-09T13:43:46.000Z</time>
      </trkpt>
      <trkpt lat="44.23044" lon="2.9592">
        <ele>869</ele>
        <time>2019-10-09T13:43:47.000Z</time>
      </trkpt>
      <trkpt lat="44.23044" lon="2.95918">
        <ele>869</ele>
        <time>2019-10-09T13:43:48.000Z</time>
      </trkpt>
      <trkpt lat="44.23044" lon="2.95917">
        <ele>869</ele>
        <time>2019-10-09T13:43:49.000Z</time>
      </trkpt>
      <trkpt lat="44.23044" lon="2.95915">
        <ele>869</ele>
        <time>2019-10-09T13:43:50.000Z</time>
      </trkpt>
      <trkpt lat="44.23044" lon="2.95913">
        <ele>869</ele>
        <time>2019-10-09T13:43:51.000Z</time>
      </trkpt>
      <trkpt lat="44.23044" lon="2.95912">
        <ele>869</ele>
        <time>2019-10-09T13:43:52.000Z</time>
      </trkpt>
      <trkpt lat="44.23045" lon="2.95911">
        <ele>869</ele>
        <time>2019-10-09T13:43:53.000Z</time>
      </trkpt>
      <trkpt lat="44.23045" lon="2.95909">
        <ele>869</ele>
        <time>2019-10-09T13:43:54.000Z</time>
      </trkpt>
      <trkpt lat="44.23045" lon="2.95908">
        <ele>869</ele>
        <time>2019-10-09T13:43:55.000Z</time>
      </trkpt>
      <trkpt lat="44.23046" lon="2.95907">
        <ele>869</ele>
        <time>2019-10-09T13:43:56.000Z</time>
      </trkpt>
      <trkpt lat="44.23047" lon="2.95906">
        <ele>869</ele>
        <time>2019-10-09T13:43:57.000Z</time>
      </trkpt>
      <trkpt lat="44.23048" lon="2.95905">
        <ele>869</ele>
        <time>2019-10-09T13:43:58.000Z</time>
      </trkpt>
      <trkpt lat="44.23049" lon="2.95905">
        <ele>869</ele>
        <time>2019-10-09T13:43:59.000Z</time>
      </trkpt>
      <trkpt lat="44.2305" lon="2.95904">
        <ele>869</ele>
        <time>2019-10-09T13:44:00.000Z</time>
      </trkpt>
      <trkpt lat="44.23051" lon="2.95903">
        <ele>869</ele>
        <time>2019-10-09T13:44:01.000Z</time>
      </trkpt>
      <trkpt lat="44.23052" lon="2.95902">
        <ele>869</ele>
        <time>2019-10-09T13:44:02.000Z</time>
      </trkpt>
      <trkpt lat="44.23053" lon="2.95901">
        <ele>869</ele>
        <time>2019-10-09T13:44:03.000Z</time>
      </trkpt>
      <trkpt lat="44.23053" lon="2.95901">
        <ele>869</ele>
        <time>2019-10-09T13:44:04.000Z</time>
      </trkpt>
      <trkpt lat="44.23054" lon="2.959">
        <ele>869</ele>
        <time>2019-10-09T13:44:05.000Z</time>
      </trkpt>
      <trkpt lat="44.23055" lon="2.959">
        <ele>869</ele>
        <time>2019-10-09T13:44:06.000Z</time>
      </trkpt>
      <trkpt lat="44.23056" lon="2.95901">
        <ele>869</ele>
        <time>2019-10-09T13:44:07.000Z</time>
      </trkpt>
      <trkpt lat="44.23057" lon="2.95901">
        <ele>869</ele>
        <time>2019-10-09T13:44:08.000Z</time>
      </trkpt>
      <trkpt lat="44.23058" lon="2.95902">
        <ele>869</ele>
        <time>2019-10-09T13:44:09.000Z</time>
      </trkpt>
      <trkpt lat="44.23059" lon="2.95903">
        <ele>868</ele>
        <time>2019-10-09T13:44:10.000Z</time>
      </trkpt>
      <trkpt lat="44.2306" lon="2.95904">
        <ele>868</ele>
        <time>2019-10-09T13:44:11.000Z</time>
      </trkpt>
      <trkpt lat="44.23061" lon="2.95905">
        <ele>868</ele>
        <time>2019-10-09T13:44:12.000Z</time>
      </trkpt>
      <trkpt lat="44.23061" lon="2.95905">
        <ele>868</ele>
        <time>2019-10-09T13:44:13.000Z</time>
      </trkpt>
      <trkpt lat="44.23062" lon="2.95906">
        <ele>868</ele>
        <time>2019-10-09T13:44:14.000Z</time>
      </trkpt>
      <trkpt lat="44.23063" lon="2.95907">
        <ele>868</ele>
        <time>2019-10-09T13:44:15.000Z</time>
      </trkpt>
      <trkpt lat="44.23064" lon="2.95908">
        <ele>868</ele>
        <time>2019-10-09T13:44:16.000Z</time>
      </trkpt>
      <trkpt lat="44.23065" lon="2.95909">
        <ele>868</ele>
        <time>2019-10-09T13:44:17.000Z</time>
      </trkpt>
      <trkpt lat="44.23066" lon="2.95909">
        <ele>867</ele>
        <time>2019-10-09T13:44:18.000Z</time>
      </trkpt>
      <trkpt lat="44.23067" lon="2.9591">
        <ele>867</ele>
        <time>2019-10-09T13:44:19.000Z</time>
      </trkpt>
      <trkpt lat="44.23068" lon="2.9591">
        <ele>867</ele>
        <time>2019-10-09T13:44:20.000Z</time>
      </trkpt>
      <trkpt lat="44.23069" lon="2.9591">
        <ele>867</ele>
        <time>2019-10-09T13:44:21.000Z</time>
      </trkpt>
      <trkpt lat="44.2307" lon="2.9591">
        <ele>867</ele>
        <time>2019-10-09T13:44:22.000Z</time>
      </trkpt>
      <trkpt lat="44.23071" lon="2.95909">
        <ele>867</ele>
        <time>2019-10-09T13:44:23.000Z</time>
      </trkpt>
      <trkpt lat="44.23072" lon="2.95909">
        <ele>867</ele>
        <time>2019-10-09T13:44:24.000Z</time>
      </trkpt>
      <trkpt lat="44.23073" lon="2.95908">
        <ele>867</ele>
        <time>2019-10-09T13:44:25.000Z</time>
      </trkpt>
      <trkpt lat="44.23074" lon="2.95907">
        <ele>867</ele>
        <time>2019-10-09T13:44:26.000Z</time>
      </trkpt>
      <trkpt lat="44.23075" lon="2.95906">
        <ele>867</ele>
        <time>2019-10-09T13:44:27.000Z</time>
      </trkpt>
      <trkpt lat="44.23076" lon="2.95905">
        <ele>867</ele>
        <time>2019-10-09T13:44:28.000Z</time>
      </trkpt>
      <trkpt lat="44.23078" lon="2.95903">
        <ele>867</ele>
        <time>2019-10-09T13:44:29.000Z</time>
      </trkpt>
      <trkpt lat="44.23079" lon="2.95901">
        <ele>866</ele>
        <time>2019-10-09T13:44:30.000Z</time>
      </trkpt>
      <trkpt lat="44.23081" lon="2.95899">
        <ele>866</ele>
        <time>2019-10-09T13:44:31.000Z</time>
      </trkpt>
      <trkpt lat="44.23083" lon="2.95896">
        <ele>866</ele>
        <time>2019-10-09T13:44:32.000Z</time>
      </trkpt>
      <trkpt lat="44.23086" lon="2.95893">
        <ele>866</ele>
        <time>2019-10-09T13:44:33.000Z</time>
      </trkpt>
      <trkpt lat="44.23088" lon="2.95891">
        <ele>865</ele>
        <time>2019-10-09T13:44:34.000Z</time>
      </trkpt>
      <trkpt lat="44.23091" lon="2.95889">
        <ele>865</ele>
        <time>2019-10-09T13:44:35.000Z</time>
      </trkpt>
      <trkpt lat="44.23094" lon="2.95887">
        <ele>865</ele>
        <time>2019-10-09T13:44:36.000Z</time>
      </trkpt>
      <trkpt lat="44.23097" lon="2.95886">
        <ele>865</ele>
        <time>2019-10-09T13:44:37.000Z</time>
      </trkpt>
      <trkpt lat="44.23099" lon="2.95885">
        <ele>865</ele>
        <time>2019-10-09T13:44:38.000Z</time>
      </trkpt>
      <trkpt lat="44.23102" lon="2.95885">
        <ele>865</ele>
        <time>2019-10-09T13:44:39.000Z</time>
      </trkpt>
      <trkpt lat="44.23106" lon="2.95885">
        <ele>865</ele>
        <time>2019-10-09T13:44:40.000Z</time>
      </trkpt>
      <trkpt lat="44.23109" lon="2.95885">
        <ele>864</ele>
        <time>2019-10-09T13:44:41.000Z</time>
      </trkpt>
      <trkpt lat="44.23112" lon="2.95886">
        <ele>864</ele>
        <time>2019-10-09T13:44:42.000Z</time>
      </trkpt>
      <trkpt lat="44.23115" lon="2.95889">
        <ele>864</ele>
        <time>2019-10-09T13:44:43.000Z</time>
      </trkpt>
      <trkpt lat="44.23118" lon="2.95891">
        <ele>864</ele>
        <time>2019-10-09T13:44:44.000Z</time>
      </trkpt>
      <trkpt lat="44.23122" lon="2.95895">
        <ele>863</ele>
        <time>2019-10-09T13:44:45.000Z</time>
      </trkpt>
      <trkpt lat="44.23125" lon="2.95898">
        <ele>863</ele>
        <time>2019-10-09T13:44:46.000Z</time>
      </trkpt>
      <trkpt lat="44.23127" lon="2.95901">
        <ele>863</ele>
        <time>2019-10-09T13:44:47.000Z</time>
      </trkpt>
      <trkpt lat="44.23129" lon="2.95903">
        <ele>863</ele>
        <time>2019-10-09T13:44:48.000Z</time>
      </trkpt>
      <trkpt lat="44.23132" lon="2.95904">
        <ele>862</ele>
        <time>2019-10-09T13:44:49.000Z</time>
      </trkpt>
      <trkpt lat="44.23134" lon="2.95905">
        <ele>862</ele>
        <time>2019-10-09T13:44:50.000Z</time>
      </trkpt>
      <trkpt lat="44.23136" lon="2.95904">
        <ele>862</ele>
        <time>2019-10-09T13:44:51.000Z</time>
      </trkpt>
      <trkpt lat="44.23138" lon="2.95904">
        <ele>862</ele>
        <time>2019-10-09T13:44:52.000Z</time>
      </trkpt>
      <trkpt lat="44.23139" lon="2.95903">
        <ele>861</ele>
        <time>2019-10-09T13:44:53.000Z</time>
      </trkpt>
      <trkpt lat="44.23141" lon="2.95902">
        <ele>861</ele>
        <time>2019-10-09T13:44:54.000Z</time>
      </trkpt>
      <trkpt lat="44.23143" lon="2.95901">
        <ele>861</ele>
        <time>2019-10-09T13:44:55.000Z</time>
      </trkpt>
      <trkpt lat="44.23144" lon="2.959">
        <ele>861</ele>
        <time>2019-10-09T13:44:56.000Z</time>
      </trkpt>
      <trkpt lat="44.23146" lon="2.95899">
        <ele>860</ele>
        <time>2019-10-09T13:44:57.000Z</time>
      </trkpt>
      <trkpt lat="44.23148" lon="2.95898">
        <ele>860</ele>
        <time>2019-10-09T13:44:58.000Z</time>
      </trkpt>
      <trkpt lat="44.23149" lon="2.95897">
        <ele>859</ele>
        <time>2019-10-09T13:44:59.000Z</time>
      </trkpt>
      <trkpt lat="44.23151" lon="2.95897">
        <ele>859</ele>
        <time>2019-10-09T13:45:00.000Z</time>
      </trkpt>
      <trkpt lat="44.23153" lon="2.95896">
        <ele>859</ele>
        <time>2019-10-09T13:45:01.000Z</time>
      </trkpt>
      <trkpt lat="44.23154" lon="2.95896">
        <ele>859</ele>
        <time>2019-10-09T13:45:02.000Z</time>
      </trkpt>
      <trkpt lat="44.23156" lon="2.95895">
        <ele>858</ele>
        <time>2019-10-09T13:45:03.000Z</time>
      </trkpt>
      <trkpt lat="44.23158" lon="2.95895">
        <ele>858</ele>
        <time>2019-10-09T13:45:04.000Z</time>
      </trkpt>
      <trkpt lat="44.2316" lon="2.95895">
        <ele>858</ele>
        <time>2019-10-09T13:45:05.000Z</time>
      </trkpt>
      <trkpt lat="44.23162" lon="2.95894">
        <ele>858</ele>
        <time>2019-10-09T13:45:06.000Z</time>
      </trkpt>
      <trkpt lat="44.23164" lon="2.95894">
        <ele>858</ele>
        <time>2019-10-09T13:45:07.000Z</time>
      </trkpt>
      <trkpt lat="44.23165" lon="2.95894">
        <ele>857</ele>
        <time>2019-10-09T13:45:08.000Z</time>
      </trkpt>
      <trkpt lat="44.23167" lon="2.95894">
        <ele>857</ele>
        <time>2019-10-09T13:45:09.000Z</time>
      </trkpt>
      <trkpt lat="44.23169" lon="2.95894">
        <ele>857</ele>
        <time>2019-10-09T13:45:10.000Z</time>
      </trkpt>
      <trkpt lat="44.2317" lon="2.95894">
        <ele>857</ele>
        <time>2019-10-09T13:45:11.000Z</time>
      </trkpt>
      <trkpt lat="44.23171" lon="2.95894">
        <ele>857</ele>
        <time>2019-10-09T13:45:12.000Z</time>
      </trkpt>
      <trkpt lat="44.23173" lon="2.95894">
        <ele>857</ele>
        <time>2019-10-09T13:45:13.000Z</time>
      </trkpt>
      <trkpt lat="44.23174" lon="2.95894">
        <ele>857</ele>
        <time>2019-10-09T13:45:14.000Z</time>
      </trkpt>
      <trkpt lat="44.23176" lon="2.95894">
        <ele>857</ele>
        <time>2019-10-09T13:45:15.000Z</time>
      </trkpt>
      <trkpt lat="44.23177" lon="2.95894">
        <ele>856</ele>
        <time>2019-10-09T13:45:16.000Z</time>
      </trkpt>
      <trkpt lat="44.23179" lon="2.95893">
        <ele>856</ele>
        <time>2019-10-09T13:45:17.000Z</time>
      </trkpt>
      <trkpt lat="44.2318" lon="2.95892">
        <ele>856</ele>
        <time>2019-10-09T13:45:18.000Z</time>
      </trkpt>
      <trkpt lat="44.23181" lon="2.95891">
        <ele>856</ele>
        <time>2019-10-09T13:45:19.000Z</time>
      </trkpt>
      <trkpt lat="44.23181" lon="2.95889">
        <ele>856</ele>
        <time>2019-10-09T13:45:20.000Z</time>
      </trkpt>
      <trkpt lat="44.23182" lon="2.95888">
        <ele>856</ele>
        <time>2019-10-09T13:45:21.000Z</time>
      </trkpt>
      <trkpt lat="44.23182" lon="2.95887">
        <ele>856</ele>
        <time>2019-10-09T13:45:22.000Z</time>
      </trkpt>
      <trkpt lat="44.23183" lon="2.95886">
        <ele>856</ele>
        <time>2019-10-09T13:45:23.000Z</time>
      </trkpt>
      <trkpt lat="44.23184" lon="2.95884">
        <ele>856</ele>
        <time>2019-10-09T13:45:24.000Z</time>
      </trkpt>
      <trkpt lat="44.23185" lon="2.95883">
        <ele>855</ele>
        <time>2019-10-09T13:45:25.000Z</time>
      </trkpt>
      <trkpt lat="44.23186" lon="2.95882">
        <ele>855</ele>
        <time>2019-10-09T13:45:26.000Z</time>
      </trkpt>
      <trkpt lat="44.23187" lon="2.9588">
        <ele>855</ele>
        <time>2019-10-09T13:45:27.000Z</time>
      </trkpt>
      <trkpt lat="44.23188" lon="2.95878">
        <ele>855</ele>
        <time>2019-10-09T13:45:28.000Z</time>
      </trkpt>
      <trkpt lat="44.23189" lon="2.95876">
        <ele>855</ele>
        <time>2019-10-09T13:45:29.000Z</time>
      </trkpt>
      <trkpt lat="44.23189" lon="2.95872">
        <ele>854</ele>
        <time>2019-10-09T13:45:30.000Z</time>
      </trkpt>
      <trkpt lat="44.23189" lon="2.95868">
        <ele>854</ele>
        <time>2019-10-09T13:45:31.000Z</time>
      </trkpt>
      <trkpt lat="44.23188" lon="2.95864">
        <ele>854</ele>
        <time>2019-10-09T13:45:32.000Z</time>
      </trkpt>
      <trkpt lat="44.23187" lon="2.9586">
        <ele>854</ele>
        <time>2019-10-09T13:45:33.000Z</time>
      </trkpt>
      <trkpt lat="44.23186" lon="2.95857">
        <ele>854</ele>
        <time>2019-10-09T13:45:34.000Z</time>
      </trkpt>
      <trkpt lat="44.23185" lon="2.95852">
        <ele>853</ele>
        <time>2019-10-09T13:45:35.000Z</time>
      </trkpt>
      <trkpt lat="44.23184" lon="2.95848">
        <ele>853</ele>
        <time>2019-10-09T13:45:36.000Z</time>
      </trkpt>
      <trkpt lat="44.23182" lon="2.95844">
        <ele>853</ele>
        <time>2019-10-09T13:45:37.000Z</time>
      </trkpt>
      <trkpt lat="44.23181" lon="2.9584">
        <ele>853</ele>
        <time>2019-10-09T13:45:38.000Z</time>
      </trkpt>
      <trkpt lat="44.23179" lon="2.95835">
        <ele>852</ele>
        <time>2019-10-09T13:45:39.000Z</time>
      </trkpt>
      <trkpt lat="44.23178" lon="2.9583">
        <ele>852</ele>
        <time>2019-10-09T13:45:40.000Z</time>
      </trkpt>
      <trkpt lat="44.23176" lon="2.95826">
        <ele>852</ele>
        <time>2019-10-09T13:45:41.000Z</time>
      </trkpt>
      <trkpt lat="44.23173" lon="2.95822">
        <ele>852</ele>
        <time>2019-10-09T13:45:42.000Z</time>
      </trkpt>
      <trkpt lat="44.23171" lon="2.95817">
        <ele>852</ele>
        <time>2019-10-09T13:45:43.000Z</time>
      </trkpt>
      <trkpt lat="44.2317" lon="2.95812">
        <ele>851</ele>
        <time>2019-10-09T13:45:44.000Z</time>
      </trkpt>
      <trkpt lat="44.23168" lon="2.95808">
        <ele>851</ele>
        <time>2019-10-09T13:45:45.000Z</time>
      </trkpt>
      <trkpt lat="44.23167" lon="2.95803">
        <ele>851</ele>
        <time>2019-10-09T13:45:46.000Z</time>
      </trkpt>
      <trkpt lat="44.23166" lon="2.95798">
        <ele>851</ele>
        <time>2019-10-09T13:45:47.000Z</time>
      </trkpt>
      <trkpt lat="44.23164" lon="2.95793">
        <ele>851</ele>
        <time>2019-10-09T13:45:48.000Z</time>
      </trkpt>
      <trkpt lat="44.23163" lon="2.95788">
        <ele>852</ele>
        <time>2019-10-09T13:45:49.000Z</time>
      </trkpt>
      <trkpt lat="44.23162" lon="2.95783">
        <ele>852</ele>
        <time>2019-10-09T13:45:50.000Z</time>
      </trkpt>
      <trkpt lat="44.2316" lon="2.95778">
        <ele>852</ele>
        <time>2019-10-09T13:45:51.000Z</time>
      </trkpt>
      <trkpt lat="44.23159" lon="2.95774">
        <ele>852</ele>
        <time>2019-10-09T13:45:52.000Z</time>
      </trkpt>
      <trkpt lat="44.23158" lon="2.95769">
        <ele>852</ele>
        <time>2019-10-09T13:45:53.000Z</time>
      </trkpt>
      <trkpt lat="44.23158" lon="2.95763">
        <ele>852</ele>
        <time>2019-10-09T13:45:54.000Z</time>
      </trkpt>
      <trkpt lat="44.23158" lon="2.95757">
        <ele>852</ele>
        <time>2019-10-09T13:45:55.000Z</time>
      </trkpt>
      <trkpt lat="44.23159" lon="2.95751">
        <ele>852</ele>
        <time>2019-10-09T13:45:56.000Z</time>
      </trkpt>
      <trkpt lat="44.2316" lon="2.95745">
        <ele>853</ele>
        <time>2019-10-09T13:45:57.000Z</time>
      </trkpt>
      <trkpt lat="44.23161" lon="2.95739">
        <ele>853</ele>
        <time>2019-10-09T13:45:58.000Z</time>
      </trkpt>
      <trkpt lat="44.23162" lon="2.95733">
        <ele>853</ele>
        <time>2019-10-09T13:45:59.000Z</time>
      </trkpt>
      <trkpt lat="44.23163" lon="2.95727">
        <ele>853</ele>
        <time>2019-10-09T13:46:00.000Z</time>
      </trkpt>
      <trkpt lat="44.23164" lon="2.95721">
        <ele>853</ele>
        <time>2019-10-09T13:46:01.000Z</time>
      </trkpt>
      <trkpt lat="44.23164" lon="2.95714">
        <ele>854</ele>
        <time>2019-10-09T13:46:02.000Z</time>
      </trkpt>
      <trkpt lat="44.23163" lon="2.95707">
        <ele>854</ele>
        <time>2019-10-09T13:46:03.000Z</time>
      </trkpt>
      <trkpt lat="44.23161" lon="2.957">
        <ele>854</ele>
        <time>2019-10-09T13:46:04.000Z</time>
      </trkpt>
      <trkpt lat="44.2316" lon="2.95694">
        <ele>854</ele>
        <time>2019-10-09T13:46:05.000Z</time>
      </trkpt>
      <trkpt lat="44.23158" lon="2.95688">
        <ele>854</ele>
        <time>2019-10-09T13:46:06.000Z</time>
      </trkpt>
      <trkpt lat="44.23157" lon="2.95683">
        <ele>854</ele>
        <time>2019-10-09T13:46:07.000Z</time>
      </trkpt>
      <trkpt lat="44.23155" lon="2.95677">
        <ele>855</ele>
        <time>2019-10-09T13:46:08.000Z</time>
      </trkpt>
      <trkpt lat="44.23154" lon="2.95672">
        <ele>855</ele>
        <time>2019-10-09T13:46:09.000Z</time>
      </trkpt>
      <trkpt lat="44.23153" lon="2.95667">
        <ele>855</ele>
        <time>2019-10-09T13:46:10.000Z</time>
      </trkpt>
      <trkpt lat="44.23152" lon="2.95662">
        <ele>855</ele>
        <time>2019-10-09T13:46:11.000Z</time>
      </trkpt>
      <trkpt lat="44.2315" lon="2.95657">
        <ele>855</ele>
        <time>2019-10-09T13:46:12.000Z</time>
      </trkpt>
      <trkpt lat="44.23149" lon="2.95652">
        <ele>855</ele>
        <time>2019-10-09T13:46:13.000Z</time>
      </trkpt>
      <trkpt lat="44.23148" lon="2.95648">
        <ele>855</ele>
        <time>2019-10-09T13:46:14.000Z</time>
      </trkpt>
      <trkpt lat="44.23147" lon="2.95643">
        <ele>855</ele>
        <time>2019-10-09T13:46:15.000Z</time>
      </trkpt>
      <trkpt lat="44.23146" lon="2.9564">
        <ele>856</ele>
        <time>2019-10-09T13:46:16.000Z</time>
      </trkpt>
      <trkpt lat="44.23145" lon="2.95636">
        <ele>856</ele>
        <time>2019-10-09T13:46:17.000Z</time>
      </trkpt>
      <trkpt lat="44.23145" lon="2.95634">
        <ele>856</ele>
        <time>2019-10-09T13:46:18.000Z</time>
      </trkpt>
      <trkpt lat="44.23144" lon="2.95631">
        <ele>856</ele>
        <time>2019-10-09T13:46:19.000Z</time>
      </trkpt>
      <trkpt lat="44.23143" lon="2.95629">
        <ele>856</ele>
        <time>2019-10-09T13:46:20.000Z</time>
      </trkpt>
      <trkpt lat="44.23142" lon="2.95627">
        <ele>857</ele>
        <time>2019-10-09T13:46:21.000Z</time>
      </trkpt>
      <trkpt lat="44.23141" lon="2.95624">
        <ele>857</ele>
        <time>2019-10-09T13:46:22.000Z</time>
      </trkpt>
      <trkpt lat="44.23141" lon="2.95622">
        <ele>857</ele>
        <time>2019-10-09T13:46:23.000Z</time>
      </trkpt>
      <trkpt lat="44.2314" lon="2.9562">
        <ele>857</ele>
        <time>2019-10-09T13:46:24.000Z</time>
      </trkpt>
      <trkpt lat="44.2314" lon="2.95618">
        <ele>858</ele>
        <time>2019-10-09T13:46:25.000Z</time>
      </trkpt>
      <trkpt lat="44.23139" lon="2.95616">
        <ele>858</ele>
        <time>2019-10-09T13:46:26.000Z</time>
      </trkpt>
      <trkpt lat="44.23139" lon="2.95614">
        <ele>858</ele>
        <time>2019-10-09T13:46:27.000Z</time>
      </trkpt>
      <trkpt lat="44.23139" lon="2.95612">
        <ele>858</ele>
        <time>2019-10-09T13:46:28.000Z</time>
      </trkpt>
      <trkpt lat="44.23138" lon="2.9561">
        <ele>858</ele>
        <time>2019-10-09T13:46:29.000Z</time>
      </trkpt>
      <trkpt lat="44.23138" lon="2.95607">
        <ele>858</ele>
        <time>2019-10-09T13:46:30.000Z</time>
      </trkpt>
      <trkpt lat="44.23139" lon="2.95604">
        <ele>858</ele>
        <time>2019-10-09T13:46:31.000Z</time>
      </trkpt>
      <trkpt lat="44.2314" lon="2.956">
        <ele>858</ele>
        <time>2019-10-09T13:46:32.000Z</time>
      </trkpt>
      <trkpt lat="44.23141" lon="2.95596">
        <ele>858</ele>
        <time>2019-10-09T13:46:33.000Z</time>
      </trkpt>
      <trkpt lat="44.23141" lon="2.95591">
        <ele>858</ele>
        <time>2019-10-09T13:46:34.000Z</time>
      </trkpt>
      <trkpt lat="44.23142" lon="2.95586">
        <ele>858</ele>
        <time>2019-10-09T13:46:35.000Z</time>
      </trkpt>
      <trkpt lat="44.23142" lon="2.95581">
        <ele>857</ele>
        <time>2019-10-09T13:46:36.000Z</time>
      </trkpt>
      <trkpt lat="44.23142" lon="2.95576">
        <ele>857</ele>
        <time>2019-10-09T13:46:37.000Z</time>
      </trkpt>
      <trkpt lat="44.23141" lon="2.9557">
        <ele>857</ele>
        <time>2019-10-09T13:46:38.000Z</time>
      </trkpt>
      <trkpt lat="44.2314" lon="2.95564">
        <ele>857</ele>
        <time>2019-10-09T13:46:39.000Z</time>
      </trkpt>
      <trkpt lat="44.23139" lon="2.95558">
        <ele>857</ele>
        <time>2019-10-09T13:46:40.000Z</time>
      </trkpt>
      <trkpt lat="44.23137" lon="2.95552">
        <ele>857</ele>
        <time>2019-10-09T13:46:41.000Z</time>
      </trkpt>
      <trkpt lat="44.23136" lon="2.95546">
        <ele>857</ele>
        <time>2019-10-09T13:46:42.000Z</time>
      </trkpt>
      <trkpt lat="44.23134" lon="2.9554">
        <ele>856</ele>
        <time>2019-10-09T13:46:43.000Z</time>
      </trkpt>
      <trkpt lat="44.23133" lon="2.95534">
        <ele>856</ele>
        <time>2019-10-09T13:46:44.000Z</time>
      </trkpt>
      <trkpt lat="44.23131" lon="2.95528">
        <ele>856</ele>
        <time>2019-10-09T13:46:45.000Z</time>
      </trkpt>
      <trkpt lat="44.23129" lon="2.95522">
        <ele>856</ele>
        <time>2019-10-09T13:46:46.000Z</time>
      </trkpt>
      <trkpt lat="44.23128" lon="2.95516">
        <ele>857</ele>
        <time>2019-10-09T13:46:47.000Z</time>
      </trkpt>
      <trkpt lat="44.23126" lon="2.95511">
        <ele>857</ele>
        <time>2019-10-09T13:46:48.000Z</time>
      </trkpt>
      <trkpt lat="44.23125" lon="2.95505">
        <ele>857</ele>
        <time>2019-10-09T13:46:49.000Z</time>
      </trkpt>
      <trkpt lat="44.23123" lon="2.95498">
        <ele>857</ele>
        <time>2019-10-09T13:46:50.000Z</time>
      </trkpt>
      <trkpt lat="44.23122" lon="2.95492">
        <ele>857</ele>
        <time>2019-10-09T13:46:51.000Z</time>
      </trkpt>
      <trkpt lat="44.23121" lon="2.95486">
        <ele>857</ele>
        <time>2019-10-09T13:46:52.000Z</time>
      </trkpt>
      <trkpt lat="44.23119" lon="2.95479">
        <ele>858</ele>
        <time>2019-10-09T13:46:53.000Z</time>
      </trkpt>
      <trkpt lat="44.23119" lon="2.95473">
        <ele>858</ele>
        <time>2019-10-09T13:46:54.000Z</time>
      </trkpt>
      <trkpt lat="44.23118" lon="2.95467">
        <ele>858</ele>
        <time>2019-10-09T13:46:55.000Z</time>
      </trkpt>
      <trkpt lat="44.23118" lon="2.95461">
        <ele>858</ele>
        <time>2019-10-09T13:46:56.000Z</time>
      </trkpt>
      <trkpt lat="44.23118" lon="2.95454">
        <ele>858</ele>
        <time>2019-10-09T13:46:57.000Z</time>
      </trkpt>
      <trkpt lat="44.23118" lon="2.95449">
        <ele>858</ele>
        <time>2019-10-09T13:46:58.000Z</time>
      </trkpt>
      <trkpt lat="44.23118" lon="2.95443">
        <ele>859</ele>
        <time>2019-10-09T13:46:59.000Z</time>
      </trkpt>
      <trkpt lat="44.23118" lon="2.95438">
        <ele>859</ele>
        <time>2019-10-09T13:47:00.000Z</time>
      </trkpt>
      <trkpt lat="44.23119" lon="2.95432">
        <ele>859</ele>
        <time>2019-10-09T13:47:01.000Z</time>
      </trkpt>
      <trkpt lat="44.23119" lon="2.95427">
        <ele>859</ele>
        <time>2019-10-09T13:47:02.000Z</time>
      </trkpt>
      <trkpt lat="44.23118" lon="2.95421">
        <ele>859</ele>
        <time>2019-10-09T13:47:03.000Z</time>
      </trkpt>
      <trkpt lat="44.23118" lon="2.95415">
        <ele>859</ele>
        <time>2019-10-09T13:47:04.000Z</time>
      </trkpt>
      <trkpt lat="44.23117" lon="2.95409">
        <ele>860</ele>
        <time>2019-10-09T13:47:05.000Z</time>
      </trkpt>
      <trkpt lat="44.23117" lon="2.95403">
        <ele>860</ele>
        <time>2019-10-09T13:47:06.000Z</time>
      </trkpt>
      <trkpt lat="44.23116" lon="2.95396">
        <ele>860</ele>
        <time>2019-10-09T13:47:07.000Z</time>
      </trkpt>
      <trkpt lat="44.23115" lon="2.95389">
        <ele>860</ele>
        <time>2019-10-09T13:47:08.000Z</time>
      </trkpt>
      <trkpt lat="44.23114" lon="2.95383">
        <ele>860</ele>
        <time>2019-10-09T13:47:09.000Z</time>
      </trkpt>
      <trkpt lat="44.23112" lon="2.95377">
        <ele>860</ele>
        <time>2019-10-09T13:47:10.000Z</time>
      </trkpt>
      <trkpt lat="44.23111" lon="2.95371">
        <ele>861</ele>
        <time>2019-10-09T13:47:11.000Z</time>
      </trkpt>
      <trkpt lat="44.2311" lon="2.95367">
        <ele>861</ele>
        <time>2019-10-09T13:47:12.000Z</time>
      </trkpt>
      <trkpt lat="44.23109" lon="2.95363">
        <ele>861</ele>
        <time>2019-10-09T13:47:13.000Z</time>
      </trkpt>
      <trkpt lat="44.23108" lon="2.95361">
        <ele>861</ele>
        <time>2019-10-09T13:47:14.000Z</time>
      </trkpt>
      <trkpt lat="44.23106" lon="2.9536">
        <ele>861</ele>
        <time>2019-10-09T13:47:15.000Z</time>
      </trkpt>
      <trkpt lat="44.23103" lon="2.95361">
        <ele>861</ele>
        <time>2019-10-09T13:47:16.000Z</time>
      </trkpt>
      <trkpt lat="44.23099" lon="2.95365">
        <ele>861</ele>
        <time>2019-10-09T13:47:17.000Z</time>
      </trkpt>
      <trkpt lat="44.23095" lon="2.9537">
        <ele>861</ele>
        <time>2019-10-09T13:47:18.000Z</time>
      </trkpt>
      <trkpt lat="44.23091" lon="2.95376">
        <ele>860</ele>
        <time>2019-10-09T13:47:19.000Z</time>
      </trkpt>
      <trkpt lat="44.23087" lon="2.95381">
        <ele>860</ele>
        <time>2019-10-09T13:47:20.000Z</time>
      </trkpt>
      <trkpt lat="44.23083" lon="2.95388">
        <ele>860</ele>
        <time>2019-10-09T13:47:21.000Z</time>
      </trkpt>
      <trkpt lat="44.2308" lon="2.95395">
        <ele>860</ele>
        <time>2019-10-09T13:47:22.000Z</time>
      </trkpt>
      <trkpt lat="44.23077" lon="2.95403">
        <ele>860</ele>
        <time>2019-10-09T13:47:23.000Z</time>
      </trkpt>
      <trkpt lat="44.23074" lon="2.95411">
        <ele>860</ele>
        <time>2019-10-09T13:47:24.000Z</time>
      </trkpt>
      <trkpt lat="44.23072" lon="2.9542">
        <ele>860</ele>
        <time>2019-10-09T13:47:25.000Z</time>
      </trkpt>
      <trkpt lat="44.23069" lon="2.95427">
        <ele>860</ele>
        <time>2019-10-09T13:47:26.000Z</time>
      </trkpt>
      <trkpt lat="44.23066" lon="2.95434">
        <ele>861</ele>
        <time>2019-10-09T13:47:27.000Z</time>
      </trkpt>
      <trkpt lat="44.23064" lon="2.95441">
        <ele>861</ele>
        <time>2019-10-09T13:47:28.000Z</time>
      </trkpt>
      <trkpt lat="44.23062" lon="2.95446">
        <ele>861</ele>
        <time>2019-10-09T13:47:29.000Z</time>
      </trkpt>
      <trkpt lat="44.2306" lon="2.9545">
        <ele>861</ele>
        <time>2019-10-09T13:47:30.000Z</time>
      </trkpt>
      <trkpt lat="44.23059" lon="2.95453">
        <ele>862</ele>
        <time>2019-10-09T13:47:31.000Z</time>
      </trkpt>
      <trkpt lat="44.23058" lon="2.95455">
        <ele>862</ele>
        <time>2019-10-09T13:47:32.000Z</time>
      </trkpt>
      <trkpt lat="44.23058" lon="2.95457">
        <ele>862</ele>
        <time>2019-10-09T13:47:33.000Z</time>
      </trkpt>
      <trkpt lat="44.23057" lon="2.95458">
        <ele>863</ele>
        <time>2019-10-09T13:47:34.000Z</time>
      </trkpt>
      <trkpt lat="44.23057" lon="2.9546">
        <ele>863</ele>
        <time>2019-10-09T13:47:35.000Z</time>
      </trkpt>
      <trkpt lat="44.23056" lon="2.95461">
        <ele>863</ele>
        <time>2019-10-09T13:47:36.000Z</time>
      </trkpt>
      <trkpt lat="44.23055" lon="2.95463">
        <ele>864</ele>
        <time>2019-10-09T13:47:37.000Z</time>
      </trkpt>
      <trkpt lat="44.23054" lon="2.95465">
        <ele>864</ele>
        <time>2019-10-09T13:47:38.000Z</time>
      </trkpt>
      <trkpt lat="44.23053" lon="2.95466">
        <ele>864</ele>
        <time>2019-10-09T13:47:39.000Z</time>
      </trkpt>
      <trkpt lat="44.23052" lon="2.95468">
        <ele>865</ele>
        <time>2019-10-09T13:47:40.000Z</time>
      </trkpt>
      <trkpt lat="44.23051" lon="2.95469">
        <ele>865</ele>
        <time>2019-10-09T13:47:41.000Z</time>
      </trkpt>
      <trkpt lat="44.2305" lon="2.95471">
        <ele>866</ele>
        <time>2019-10-09T13:47:42.000Z</time>
      </trkpt>
      <trkpt lat="44.23049" lon="2.95472">
        <ele>866</ele>
        <time>2019-10-09T13:47:43.000Z</time>
      </trkpt>
      <trkpt lat="44.23048" lon="2.95474">
        <ele>866</ele>
        <time>2019-10-09T13:47:44.000Z</time>
      </trkpt>
      <trkpt lat="44.23047" lon="2.95476">
        <ele>867</ele>
        <time>2019-10-09T13:47:45.000Z</time>
      </trkpt>
      <trkpt lat="44.23046" lon="2.95477">
        <ele>867</ele>
        <time>2019-10-09T13:47:46.000Z</time>
      </trkpt>
      <trkpt lat="44.23045" lon="2.95479">
        <ele>868</ele>
        <time>2019-10-09T13:47:47.000Z</time>
      </trkpt>
      <trkpt lat="44.23044" lon="2.9548">
        <ele>868</ele>
        <time>2019-10-09T13:47:48.000Z</time>
      </trkpt>
      <trkpt lat="44.23043" lon="2.95482">
        <ele>868</ele>
        <time>2019-10-09T13:47:49.000Z</time>
      </trkpt>
      <trkpt lat="44.23041" lon="2.95483">
        <ele>869</ele>
        <time>2019-10-09T13:47:50.000Z</time>
      </trkpt>
      <trkpt lat="44.2304" lon="2.95484">
        <ele>869</ele>
        <time>2019-10-09T13:47:51.000Z</time>
      </trkpt>
      <trkpt lat="44.2304" lon="2.95485">
        <ele>869</ele>
        <time>2019-10-09T13:47:52.000Z</time>
      </trkpt>
      <trkpt lat="44.23039" lon="2.95487">
        <ele>870</ele>
        <time>2019-10-09T13:47:53.000Z</time>
      </trkpt>
      <trkpt lat="44.23038" lon="2.95489">
        <ele>870</ele>
        <time>2019-10-09T13:47:54.000Z</time>
      </trkpt>
      <trkpt lat="44.23037" lon="2.95491">
        <ele>870</ele>
        <time>2019-10-09T13:47:55.000Z</time>
      </trkpt>
      <trkpt lat="44.23036" lon="2.95492">
        <ele>870</ele>
        <time>2019-10-09T13:47:56.000Z</time>
      </trkpt>
      <trkpt lat="44.23035" lon="2.95494">
        <ele>871</ele>
        <time>2019-10-09T13:47:57.000Z</time>
      </trkpt>
      <trkpt lat="44.23035" lon="2.95496">
        <ele>871</ele>
        <time>2019-10-09T13:47:58.000Z</time>
      </trkpt>
      <trkpt lat="44.23034" lon="2.95498">
        <ele>871</ele>
        <time>2019-10-09T13:47:59.000Z</time>
      </trkpt>
      <trkpt lat="44.23033" lon="2.95501">
        <ele>871</ele>
        <time>2019-10-09T13:48:00.000Z</time>
      </trkpt>
      <trkpt lat="44.23033" lon="2.95504">
        <ele>871</ele>
        <time>2019-10-09T13:48:01.000Z</time>
      </trkpt>
      <trkpt lat="44.23032" lon="2.95506">
        <ele>871</ele>
        <time>2019-10-09T13:48:02.000Z</time>
      </trkpt>
      <trkpt lat="44.23031" lon="2.95508">
        <ele>871</ele>
        <time>2019-10-09T13:48:03.000Z</time>
      </trkpt>
      <trkpt lat="44.23029" lon="2.9551">
        <ele>870</ele>
        <time>2019-10-09T13:48:04.000Z</time>
      </trkpt>
      <trkpt lat="44.23027" lon="2.95511">
        <ele>870</ele>
        <time>2019-10-09T13:48:05.000Z</time>
      </trkpt>
      <trkpt lat="44.23025" lon="2.95512">
        <ele>870</ele>
        <time>2019-10-09T13:48:06.000Z</time>
      </trkpt>
      <trkpt lat="44.23024" lon="2.95513">
        <ele>870</ele>
        <time>2019-10-09T13:48:07.000Z</time>
      </trkpt>
      <trkpt lat="44.23022" lon="2.95514">
        <ele>870</ele>
        <time>2019-10-09T13:48:08.000Z</time>
      </trkpt>
      <trkpt lat="44.2302" lon="2.95514">
        <ele>870</ele>
        <time>2019-10-09T13:48:09.000Z</time>
      </trkpt>
      <trkpt lat="44.23018" lon="2.95515">
        <ele>870</ele>
        <time>2019-10-09T13:48:10.000Z</time>
      </trkpt>
      <trkpt lat="44.23017" lon="2.95516">
        <ele>870</ele>
        <time>2019-10-09T13:48:11.000Z</time>
      </trkpt>
      <trkpt lat="44.23015" lon="2.95517">
        <ele>870</ele>
        <time>2019-10-09T13:48:12.000Z</time>
      </trkpt>
      <trkpt lat="44.23013" lon="2.95518">
        <ele>870</ele>
        <time>2019-10-09T13:48:13.000Z</time>
      </trkpt>
      <trkpt lat="44.23011" lon="2.95519">
        <ele>870</ele>
        <time>2019-10-09T13:48:14.000Z</time>
      </trkpt>
      <trkpt lat="44.2301" lon="2.95519">
        <ele>870</ele>
        <time>2019-10-09T13:48:15.000Z</time>
      </trkpt>
      <trkpt lat="44.23008" lon="2.9552">
        <ele>870</ele>
        <time>2019-10-09T13:48:16.000Z</time>
      </trkpt>
      <trkpt lat="44.23006" lon="2.95521">
        <ele>870</ele>
        <time>2019-10-09T13:48:17.000Z</time>
      </trkpt>
      <trkpt lat="44.23004" lon="2.95522">
        <ele>870</ele>
        <time>2019-10-09T13:48:18.000Z</time>
      </trkpt>
      <trkpt lat="44.23003" lon="2.95523">
        <ele>869</ele>
        <time>2019-10-09T13:48:19.000Z</time>
      </trkpt>
      <trkpt lat="44.23001" lon="2.95524">
        <ele>869</ele>
        <time>2019-10-09T13:48:20.000Z</time>
      </trkpt>
      <trkpt lat="44.23" lon="2.95524">
        <ele>869</ele>
        <time>2019-10-09T13:48:21.000Z</time>
      </trkpt>
      <trkpt lat="44.22998" lon="2.95525">
        <ele>869</ele>
        <time>2019-10-09T13:48:22.000Z</time>
      </trkpt>
      <trkpt lat="44.22997" lon="2.95526">
        <ele>869</ele>
        <time>2019-10-09T13:48:23.000Z</time>
      </trkpt>
      <trkpt lat="44.22995" lon="2.95526">
        <ele>869</ele>
        <time>2019-10-09T13:48:24.000Z</time>
      </trkpt>
      <trkpt lat="44.22993" lon="2.95527">
        <ele>869</ele>
        <time>2019-10-09T13:48:25.000Z</time>
      </trkpt>
      <trkpt lat="44.22991" lon="2.95528">
        <ele>869</ele>
        <time>2019-10-09T13:48:26.000Z</time>
      </trkpt>
      <trkpt lat="44.2299" lon="2.95529">
        <ele>869</ele>
        <time>2019-10-09T13:48:27.000Z</time>
      </trkpt>
      <trkpt lat="44.22988" lon="2.95529">
        <ele>869</ele>
        <time>2019-10-09T13:48:28.000Z</time>
      </trkpt>
      <trkpt lat="44.22987" lon="2.9553">
        <ele>869</ele>
        <time>2019-10-09T13:48:29.000Z</time>
      </trkpt>
      <trkpt lat="44.22985" lon="2.95531">
        <ele>869</ele>
        <time>2019-10-09T13:48:30.000Z</time>
      </trkpt>
      <trkpt lat="44.22984" lon="2.95532">
        <ele>869</ele>
        <time>2019-10-09T13:48:31.000Z</time>
      </trkpt>
      <trkpt lat="44.22982" lon="2.95533">
        <ele>869</ele>
        <time>2019-10-09T13:48:32.000Z</time>
      </trkpt>
      <trkpt lat="44.2298" lon="2.95535">
        <ele>869</ele>
        <time>2019-10-09T13:48:33.000Z</time>
      </trkpt>
      <trkpt lat="44.22978" lon="2.95536">
        <ele>869</ele>
        <time>2019-10-09T13:48:34.000Z</time>
      </trkpt>
      <trkpt lat="44.22977" lon="2.95537">
        <ele>869</ele>
        <time>2019-10-09T13:48:35.000Z</time>
      </trkpt>
      <trkpt lat="44.22975" lon="2.95538">
        <ele>869</ele>
        <time>2019-10-09T13:48:36.000Z</time>
      </trkpt>
      <trkpt lat="44.22974" lon="2.95539">
        <ele>869</ele>
        <time>2019-10-09T13:48:37.000Z</time>
      </trkpt>
      <trkpt lat="44.22972" lon="2.9554">
        <ele>869</ele>
        <time>2019-10-09T13:48:38.000Z</time>
      </trkpt>
      <trkpt lat="44.22971" lon="2.95541">
        <ele>869</ele>
        <time>2019-10-09T13:48:39.000Z</time>
      </trkpt>
      <trkpt lat="44.22969" lon="2.95542">
        <ele>869</ele>
        <time>2019-10-09T13:48:40.000Z</time>
      </trkpt>
      <trkpt lat="44.22968" lon="2.95543">
        <ele>869</ele>
        <time>2019-10-09T13:48:41.000Z</time>
      </trkpt>
      <trkpt lat="44.22967" lon="2.95545">
        <ele>869</ele>
        <time>2019-10-09T13:48:42.000Z</time>
      </trkpt>
      <trkpt lat="44.22965" lon="2.95546">
        <ele>869</ele>
        <time>2019-10-09T13:48:43.000Z</time>
      </trkpt>
      <trkpt lat="44.22964" lon="2.95547">
        <ele>869</ele>
        <time>2019-10-09T13:48:44.000Z</time>
      </trkpt>
      <trkpt lat="44.22963" lon="2.95547">
        <ele>869</ele>
        <time>2019-10-09T13:48:45.000Z</time>
      </trkpt>
      <trkpt lat="44.22961" lon="2.95547">
        <ele>869</ele>
        <time>2019-10-09T13:48:46.000Z</time>
      </trkpt>
      <trkpt lat="44.2296" lon="2.95548">
        <ele>869</ele>
        <time>2019-10-09T13:48:47.000Z</time>
      </trkpt>
      <trkpt lat="44.22959" lon="2.95548">
        <ele>869</ele>
        <time>2019-10-09T13:48:48.000Z</time>
      </trkpt>
      <trkpt lat="44.22958" lon="2.95549">
        <ele>869</ele>
        <time>2019-10-09T13:48:49.000Z</time>
      </trkpt>
      <trkpt lat="44.22957" lon="2.9555">
        <ele>870</ele>
        <time>2019-10-09T13:48:50.000Z</time>
      </trkpt>
      <trkpt lat="44.22956" lon="2.9555">
        <ele>870</ele>
        <time>2019-10-09T13:48:51.000Z</time>
      </trkpt>
      <trkpt lat="44.22954" lon="2.95551">
        <ele>870</ele>
        <time>2019-10-09T13:48:52.000Z</time>
      </trkpt>
      <trkpt lat="44.22953" lon="2.95552">
        <ele>870</ele>
        <time>2019-10-09T13:48:53.000Z</time>
      </trkpt>
      <trkpt lat="44.22953" lon="2.95553">
        <ele>870</ele>
        <time>2019-10-09T13:48:54.000Z</time>
      </trkpt>
      <trkpt lat="44.22952" lon="2.95554">
        <ele>870</ele>
        <time>2019-10-09T13:48:55.000Z</time>
      </trkpt>
      <trkpt lat="44.22951" lon="2.95556">
        <ele>870</ele>
        <time>2019-10-09T13:48:56.000Z</time>
      </trkpt>
      <trkpt lat="44.2295" lon="2.95557">
        <ele>870</ele>
        <time>2019-10-09T13:48:57.000Z</time>
      </trkpt>
      <trkpt lat="44.22949" lon="2.95558">
        <ele>870</ele>
        <time>2019-10-09T13:48:58.000Z</time>
      </trkpt>
      <trkpt lat="44.22948" lon="2.95558">
        <ele>869</ele>
        <time>2019-10-09T13:48:59.000Z</time>
      </trkpt>
      <trkpt lat="44.22948" lon="2.95559">
        <ele>869</ele>
        <time>2019-10-09T13:49:00.000Z</time>
      </trkpt>
      <trkpt lat="44.22946" lon="2.9556">
        <ele>869</ele>
        <time>2019-10-09T13:49:01.000Z</time>
      </trkpt>
      <trkpt lat="44.22945" lon="2.9556">
        <ele>869</ele>
        <time>2019-10-09T13:49:02.000Z</time>
      </trkpt>
      <trkpt lat="44.22944" lon="2.9556">
        <ele>869</ele>
        <time>2019-10-09T13:49:03.000Z</time>
      </trkpt>
      <trkpt lat="44.22942" lon="2.95559">
        <ele>869</ele>
        <time>2019-10-09T13:49:04.000Z</time>
      </trkpt>
      <trkpt lat="44.2294" lon="2.95559">
        <ele>869</ele>
        <time>2019-10-09T13:49:05.000Z</time>
      </trkpt>
      <trkpt lat="44.22938" lon="2.95558">
        <ele>869</ele>
        <time>2019-10-09T13:49:06.000Z</time>
      </trkpt>
      <trkpt lat="44.22936" lon="2.95557">
        <ele>868</ele>
        <time>2019-10-09T13:49:07.000Z</time>
      </trkpt>
      <trkpt lat="44.22933" lon="2.95556">
        <ele>868</ele>
        <time>2019-10-09T13:49:08.000Z</time>
      </trkpt>
      <trkpt lat="44.22931" lon="2.95555">
        <ele>868</ele>
        <time>2019-10-09T13:49:09.000Z</time>
      </trkpt>
      <trkpt lat="44.2293" lon="2.95555">
        <ele>868</ele>
        <time>2019-10-09T13:49:10.000Z</time>
      </trkpt>
      <trkpt lat="44.22929" lon="2.95554">
        <ele>868</ele>
        <time>2019-10-09T13:49:11.000Z</time>
      </trkpt>
      <trkpt lat="44.22928" lon="2.95553">
        <ele>868</ele>
        <time>2019-10-09T13:49:12.000Z</time>
      </trkpt>
      <trkpt lat="44.22927" lon="2.95553">
        <ele>867</ele>
        <time>2019-10-09T13:49:13.000Z</time>
      </trkpt>
      <trkpt lat="44.22926" lon="2.95552">
        <ele>867</ele>
        <time>2019-10-09T13:49:14.000Z</time>
      </trkpt>
      <trkpt lat="44.22925" lon="2.9555">
        <ele>867</ele>
        <time>2019-10-09T13:49:15.000Z</time>
      </trkpt>
      <trkpt lat="44.22924" lon="2.95549">
        <ele>867</ele>
        <time>2019-10-09T13:49:16.000Z</time>
      </trkpt>
      <trkpt lat="44.22923" lon="2.95548">
        <ele>867</ele>
        <time>2019-10-09T13:49:17.000Z</time>
      </trkpt>
      <trkpt lat="44.22922" lon="2.95548">
        <ele>866</ele>
        <time>2019-10-09T13:49:18.000Z</time>
      </trkpt>
      <trkpt lat="44.22921" lon="2.95547">
        <ele>866</ele>
        <time>2019-10-09T13:49:19.000Z</time>
      </trkpt>
      <trkpt lat="44.22919" lon="2.95547">
        <ele>866</ele>
        <time>2019-10-09T13:49:20.000Z</time>
      </trkpt>
      <trkpt lat="44.22918" lon="2.95547">
        <ele>866</ele>
        <time>2019-10-09T13:49:21.000Z</time>
      </trkpt>
      <trkpt lat="44.22916" lon="2.95547">
        <ele>866</ele>
        <time>2019-10-09T13:49:22.000Z</time>
      </trkpt>
      <trkpt lat="44.22915" lon="2.95546">
        <ele>865</ele>
        <time>2019-10-09T13:49:23.000Z</time>
      </trkpt>
      <trkpt lat="44.22913" lon="2.95546">
        <ele>865</ele>
        <time>2019-10-09T13:49:24.000Z</time>
      </trkpt>
      <trkpt lat="44.22912" lon="2.95546">
        <ele>865</ele>
        <time>2019-10-09T13:49:25.000Z</time>
      </trkpt>
      <trkpt lat="44.2291" lon="2.95545">
        <ele>865</ele>
        <time>2019-10-09T13:49:26.000Z</time>
      </trkpt>
      <trkpt lat="44.22908" lon="2.95545">
        <ele>865</ele>
        <time>2019-10-09T13:49:27.000Z</time>
      </trkpt>
      <trkpt lat="44.22907" lon="2.95545">
        <ele>865</ele>
        <time>2019-10-09T13:49:28.000Z</time>
      </trkpt>
      <trkpt lat="44.22905" lon="2.95545">
        <ele>865</ele>
        <time>2019-10-09T13:49:29.000Z</time>
      </trkpt>
      <trkpt lat="44.22904" lon="2.95545">
        <ele>865</ele>
        <time>2019-10-09T13:49:30.000Z</time>
      </trkpt>
      <trkpt lat="44.22902" lon="2.95545">
        <ele>865</ele>
        <time>2019-10-09T13:49:31.000Z</time>
      </trkpt>
      <trkpt lat="44.229" lon="2.95545">
        <ele>865</ele>
        <time>2019-10-09T13:49:32.000Z</time>
      </trkpt>
      <trkpt lat="44.22899" lon="2.95545">
        <ele>865</ele>
        <time>2019-10-09T13:49:33.000Z</time>
      </trkpt>
      <trkpt lat="44.22897" lon="2.95545">
        <ele>865</ele>
        <time>2019-10-09T13:49:34.000Z</time>
      </trkpt>
      <trkpt lat="44.22896" lon="2.95545">
        <ele>865</ele>
        <time>2019-10-09T13:49:35.000Z</time>
      </trkpt>
      <trkpt lat="44.22895" lon="2.95545">
        <ele>865</ele>
        <time>2019-10-09T13:49:36.000Z</time>
      </trkpt>
      <trkpt lat="44.22894" lon="2.95544">
        <ele>865</ele>
        <time>2019-10-09T13:49:37.000Z</time>
      </trkpt>
      <trkpt lat="44.22893" lon="2.95544">
        <ele>865</ele>
        <time>2019-10-09T13:49:38.000Z</time>
      </trkpt>
      <trkpt lat="44.22893" lon="2.95544">
        <ele>865</ele>
        <time>2019-10-09T13:49:39.000Z</time>
      </trkpt>
      <trkpt lat="44.22893" lon="2.95544">
        <ele>865</ele>
        <time>2019-10-09T13:49:40.000Z</time>
      </trkpt>
      <trkpt lat="44.22892" lon="2.95544">
        <ele>865</ele>
        <time>2019-10-09T13:49:41.000Z</time>
      </trkpt>
      <trkpt lat="44.22892" lon="2.95544">
        <ele>865</ele>
        <time>2019-10-09T13:49:42.000Z</time>
      </trkpt>
      <trkpt lat="44.22892" lon="2.95545">
        <ele>865</ele>
        <time>2019-10-09T13:49:43.000Z</time>
      </trkpt>
      <trkpt lat="44.22892" lon="2.95545">
        <ele>865</ele>
        <time>2019-10-09T13:49:44.000Z</time>
      </trkpt>
      <trkpt lat="44.22892" lon="2.95545">
        <ele>865</ele>
        <time>2019-10-09T13:49:45.000Z</time>
      </trkpt>
      <trkpt lat="44.22892" lon="2.95545">
        <ele>866</ele>
        <time>2019-10-09T13:49:46.000Z</time>
      </trkpt>
      <trkpt lat="44.22892" lon="2.95545">
        <ele>866</ele>
        <time>2019-10-09T13:49:47.000Z</time>
      </trkpt>
      <trkpt lat="44.22891" lon="2.95545">
        <ele>866</ele>
        <time>2019-10-09T13:49:48.000Z</time>
      </trkpt>
      <trkpt lat="44.22891" lon="2.95545">
        <ele>866</ele>
        <time>2019-10-09T13:49:49.000Z</time>
      </trkpt>
      <trkpt lat="44.2289" lon="2.95545">
        <ele>865</ele>
        <time>2019-10-09T13:49:50.000Z</time>
      </trkpt>
      <trkpt lat="44.22889" lon="2.95545">
        <ele>865</ele>
        <time>2019-10-09T13:49:51.000Z</time>
      </trkpt>
      <trkpt lat="44.22887" lon="2.95545">
        <ele>865</ele>
        <time>2019-10-09T13:49:52.000Z</time>
      </trkpt>
      <trkpt lat="44.22886" lon="2.95545">
        <ele>865</ele>
        <time>2019-10-09T13:49:53.000Z</time>
      </trkpt>
      <trkpt lat="44.22886" lon="2.95545">
        <ele>865</ele>
        <time>2019-10-09T13:49:54.000Z</time>
      </trkpt>
      <trkpt lat="44.22885" lon="2.95545">
        <ele>865</ele>
        <time>2019-10-09T13:49:55.000Z</time>
      </trkpt>
      <trkpt lat="44.22884" lon="2.95545">
        <ele>865</ele>
        <time>2019-10-09T13:49:56.000Z</time>
      </trkpt>
      <trkpt lat="44.22883" lon="2.95545">
        <ele>865</ele>
        <time>2019-10-09T13:49:57.000Z</time>
      </trkpt>
      <trkpt lat="44.22882" lon="2.95545">
        <ele>866</ele>
        <time>2019-10-09T13:49:58.000Z</time>
      </trkpt>
      <trkpt lat="44.22881" lon="2.95546">
        <ele>866</ele>
        <time>2019-10-09T13:49:59.000Z</time>
      </trkpt>
      <trkpt lat="44.2288" lon="2.95546">
        <ele>866</ele>
        <time>2019-10-09T13:50:00.000Z</time>
      </trkpt>
      <trkpt lat="44.2288" lon="2.95547">
        <ele>866</ele>
        <time>2019-10-09T13:50:01.000Z</time>
      </trkpt>
      <trkpt lat="44.22879" lon="2.95547">
        <ele>866</ele>
        <time>2019-10-09T13:50:02.000Z</time>
      </trkpt>
      <trkpt lat="44.22878" lon="2.95547">
        <ele>866</ele>
        <time>2019-10-09T13:50:03.000Z</time>
      </trkpt>
      <trkpt lat="44.22877" lon="2.95548">
        <ele>865</ele>
        <time>2019-10-09T13:50:04.000Z</time>
      </trkpt>
      <trkpt lat="44.22876" lon="2.95549">
        <ele>865</ele>
        <time>2019-10-09T13:50:05.000Z</time>
      </trkpt>
      <trkpt lat="44.22875" lon="2.9555">
        <ele>865</ele>
        <time>2019-10-09T13:50:06.000Z</time>
      </trkpt>
      <trkpt lat="44.22874" lon="2.95551">
        <ele>865</ele>
        <time>2019-10-09T13:50:07.000Z</time>
      </trkpt>
      <trkpt lat="44.22873" lon="2.95552">
        <ele>865</ele>
        <time>2019-10-09T13:50:08.000Z</time>
      </trkpt>
      <trkpt lat="44.22872" lon="2.95554">
        <ele>865</ele>
        <time>2019-10-09T13:50:09.000Z</time>
      </trkpt>
      <trkpt lat="44.22871" lon="2.95555">
        <ele>865</ele>
        <time>2019-10-09T13:50:10.000Z</time>
      </trkpt>
      <trkpt lat="44.22869" lon="2.95556">
        <ele>865</ele>
        <time>2019-10-09T13:50:11.000Z</time>
      </trkpt>
      <trkpt lat="44.22868" lon="2.95557">
        <ele>865</ele>
        <time>2019-10-09T13:50:12.000Z</time>
      </trkpt>
      <trkpt lat="44.22866" lon="2.95557">
        <ele>865</ele>
        <time>2019-10-09T13:50:13.000Z</time>
      </trkpt>
      <trkpt lat="44.22865" lon="2.95557">
        <ele>865</ele>
        <time>2019-10-09T13:50:14.000Z</time>
      </trkpt>
      <trkpt lat="44.22864" lon="2.95557">
        <ele>864</ele>
        <time>2019-10-09T13:50:15.000Z</time>
      </trkpt>
      <trkpt lat="44.22862" lon="2.95557">
        <ele>864</ele>
        <time>2019-10-09T13:50:16.000Z</time>
      </trkpt>
      <trkpt lat="44.2286" lon="2.95557">
        <ele>864</ele>
        <time>2019-10-09T13:50:17.000Z</time>
      </trkpt>
      <trkpt lat="44.22859" lon="2.95557">
        <ele>864</ele>
        <time>2019-10-09T13:50:18.000Z</time>
      </trkpt>
      <trkpt lat="44.22858" lon="2.95557">
        <ele>864</ele>
        <time>2019-10-09T13:50:19.000Z</time>
      </trkpt>
      <trkpt lat="44.22857" lon="2.95558">
        <ele>864</ele>
        <time>2019-10-09T13:50:20.000Z</time>
      </trkpt>
      <trkpt lat="44.22855" lon="2.95559">
        <ele>864</ele>
        <time>2019-10-09T13:50:21.000Z</time>
      </trkpt>
      <trkpt lat="44.22854" lon="2.9556">
        <ele>864</ele>
        <time>2019-10-09T13:50:22.000Z</time>
      </trkpt>
      <trkpt lat="44.22853" lon="2.95561">
        <ele>864</ele>
        <time>2019-10-09T13:50:23.000Z</time>
      </trkpt>
      <trkpt lat="44.22852" lon="2.95562">
        <ele>864</ele>
        <time>2019-10-09T13:50:24.000Z</time>
      </trkpt>
      <trkpt lat="44.2285" lon="2.95562">
        <ele>864</ele>
        <time>2019-10-09T13:50:25.000Z</time>
      </trkpt>
      <trkpt lat="44.22849" lon="2.95563">
        <ele>864</ele>
        <time>2019-10-09T13:50:26.000Z</time>
      </trkpt>
      <trkpt lat="44.22848" lon="2.95564">
        <ele>864</ele>
        <time>2019-10-09T13:50:27.000Z</time>
      </trkpt>
      <trkpt lat="44.22846" lon="2.95565">
        <ele>864</ele>
        <time>2019-10-09T13:50:28.000Z</time>
      </trkpt>
      <trkpt lat="44.22845" lon="2.95565">
        <ele>864</ele>
        <time>2019-10-09T13:50:29.000Z</time>
      </trkpt>
      <trkpt lat="44.22844" lon="2.95566">
        <ele>863</ele>
        <time>2019-10-09T13:50:30.000Z</time>
      </trkpt>
      <trkpt lat="44.22843" lon="2.95567">
        <ele>863</ele>
        <time>2019-10-09T13:50:31.000Z</time>
      </trkpt>
      <trkpt lat="44.22842" lon="2.95567">
        <ele>863</ele>
        <time>2019-10-09T13:50:32.000Z</time>
      </trkpt>
      <trkpt lat="44.22841" lon="2.95567">
        <ele>863</ele>
        <time>2019-10-09T13:50:33.000Z</time>
      </trkpt>
      <trkpt lat="44.2284" lon="2.95567">
        <ele>863</ele>
        <time>2019-10-09T13:50:34.000Z</time>
      </trkpt>
      <trkpt lat="44.22839" lon="2.95567">
        <ele>863</ele>
        <time>2019-10-09T13:50:35.000Z</time>
      </trkpt>
      <trkpt lat="44.22838" lon="2.95566">
        <ele>862</ele>
        <time>2019-10-09T13:50:36.000Z</time>
      </trkpt>
      <trkpt lat="44.22837" lon="2.95567">
        <ele>862</ele>
        <time>2019-10-09T13:50:37.000Z</time>
      </trkpt>
      <trkpt lat="44.22835" lon="2.95567">
        <ele>862</ele>
        <time>2019-10-09T13:50:38.000Z</time>
      </trkpt>
      <trkpt lat="44.22834" lon="2.95568">
        <ele>862</ele>
        <time>2019-10-09T13:50:39.000Z</time>
      </trkpt>
      <trkpt lat="44.22833" lon="2.95568">
        <ele>862</ele>
        <time>2019-10-09T13:50:40.000Z</time>
      </trkpt>
      <trkpt lat="44.22832" lon="2.95569">
        <ele>861</ele>
        <time>2019-10-09T13:50:41.000Z</time>
      </trkpt>
      <trkpt lat="44.22831" lon="2.9557">
        <ele>861</ele>
        <time>2019-10-09T13:50:42.000Z</time>
      </trkpt>
      <trkpt lat="44.22829" lon="2.9557">
        <ele>861</ele>
        <time>2019-10-09T13:50:43.000Z</time>
      </trkpt>
      <trkpt lat="44.22828" lon="2.95571">
        <ele>861</ele>
        <time>2019-10-09T13:50:44.000Z</time>
      </trkpt>
      <trkpt lat="44.22827" lon="2.95571">
        <ele>861</ele>
        <time>2019-10-09T13:50:45.000Z</time>
      </trkpt>
      <trkpt lat="44.22826" lon="2.95572">
        <ele>861</ele>
        <time>2019-10-09T13:50:46.000Z</time>
      </trkpt>
      <trkpt lat="44.22824" lon="2.95572">
        <ele>861</ele>
        <time>2019-10-09T13:50:47.000Z</time>
      </trkpt>
      <trkpt lat="44.22823" lon="2.95573">
        <ele>861</ele>
        <time>2019-10-09T13:50:48.000Z</time>
      </trkpt>
      <trkpt lat="44.22822" lon="2.95574">
        <ele>861</ele>
        <time>2019-10-09T13:50:49.000Z</time>
      </trkpt>
      <trkpt lat="44.2282" lon="2.95575">
        <ele>861</ele>
        <time>2019-10-09T13:50:50.000Z</time>
      </trkpt>
      <trkpt lat="44.22819" lon="2.95575">
        <ele>861</ele>
        <time>2019-10-09T13:50:51.000Z</time>
      </trkpt>
      <trkpt lat="44.22818" lon="2.95576">
        <ele>861</ele>
        <time>2019-10-09T13:50:52.000Z</time>
      </trkpt>
      <trkpt lat="44.22816" lon="2.95576">
        <ele>861</ele>
        <time>2019-10-09T13:50:53.000Z</time>
      </trkpt>
      <trkpt lat="44.22815" lon="2.95577">
        <ele>861</ele>
        <time>2019-10-09T13:50:54.000Z</time>
      </trkpt>
      <trkpt lat="44.22814" lon="2.95577">
        <ele>861</ele>
        <time>2019-10-09T13:50:55.000Z</time>
      </trkpt>
      <trkpt lat="44.22813" lon="2.95577">
        <ele>861</ele>
        <time>2019-10-09T13:50:56.000Z</time>
      </trkpt>
      <trkpt lat="44.22811" lon="2.95578">
        <ele>861</ele>
        <time>2019-10-09T13:50:57.000Z</time>
      </trkpt>
      <trkpt lat="44.2281" lon="2.95578">
        <ele>861</ele>
        <time>2019-10-09T13:50:58.000Z</time>
      </trkpt>
      <trkpt lat="44.22809" lon="2.95578">
        <ele>862</ele>
        <time>2019-10-09T13:50:59.000Z</time>
      </trkpt>
      <trkpt lat="44.22808" lon="2.95578">
        <ele>862</ele>
        <time>2019-10-09T13:51:00.000Z</time>
      </trkpt>
      <trkpt lat="44.22806" lon="2.95579">
        <ele>862</ele>
        <time>2019-10-09T13:51:01.000Z</time>
      </trkpt>
      <trkpt lat="44.22805" lon="2.95579">
        <ele>862</ele>
        <time>2019-10-09T13:51:02.000Z</time>
      </trkpt>
      <trkpt lat="44.22803" lon="2.95579">
        <ele>862</ele>
        <time>2019-10-09T13:51:03.000Z</time>
      </trkpt>
      <trkpt lat="44.22802" lon="2.9558">
        <ele>862</ele>
        <time>2019-10-09T13:51:04.000Z</time>
      </trkpt>
      <trkpt lat="44.22801" lon="2.95581">
        <ele>862</ele>
        <time>2019-10-09T13:51:05.000Z</time>
      </trkpt>
      <trkpt lat="44.22799" lon="2.95582">
        <ele>862</ele>
        <time>2019-10-09T13:51:06.000Z</time>
      </trkpt>
      <trkpt lat="44.22798" lon="2.95583">
        <ele>862</ele>
        <time>2019-10-09T13:51:07.000Z</time>
      </trkpt>
      <trkpt lat="44.22797" lon="2.95583">
        <ele>862</ele>
        <time>2019-10-09T13:51:08.000Z</time>
      </trkpt>
      <trkpt lat="44.22796" lon="2.95583">
        <ele>862</ele>
        <time>2019-10-09T13:51:09.000Z</time>
      </trkpt>
      <trkpt lat="44.22794" lon="2.95583">
        <ele>862</ele>
        <time>2019-10-09T13:51:10.000Z</time>
      </trkpt>
      <trkpt lat="44.22793" lon="2.95583">
        <ele>862</ele>
        <time>2019-10-09T13:51:11.000Z</time>
      </trkpt>
      <trkpt lat="44.22792" lon="2.95582">
        <ele>862</ele>
        <time>2019-10-09T13:51:12.000Z</time>
      </trkpt>
      <trkpt lat="44.22791" lon="2.95581">
        <ele>862</ele>
        <time>2019-10-09T13:51:13.000Z</time>
      </trkpt>
      <trkpt lat="44.2279" lon="2.9558">
        <ele>862</ele>
        <time>2019-10-09T13:51:14.000Z</time>
      </trkpt>
      <trkpt lat="44.22789" lon="2.95579">
        <ele>862</ele>
        <time>2019-10-09T13:51:15.000Z</time>
      </trkpt>
      <trkpt lat="44.22788" lon="2.95578">
        <ele>862</ele>
        <time>2019-10-09T13:51:16.000Z</time>
      </trkpt>
      <trkpt lat="44.22787" lon="2.95577">
        <ele>862</ele>
        <time>2019-10-09T13:51:17.000Z</time>
      </trkpt>
      <trkpt lat="44.22786" lon="2.95576">
        <ele>862</ele>
        <time>2019-10-09T13:51:18.000Z</time>
      </trkpt>
      <trkpt lat="44.22785" lon="2.95576">
        <ele>861</ele>
        <time>2019-10-09T13:51:19.000Z</time>
      </trkpt>
      <trkpt lat="44.22784" lon="2.95575">
        <ele>861</ele>
        <time>2019-10-09T13:51:20.000Z</time>
      </trkpt>
      <trkpt lat="44.22783" lon="2.95574">
        <ele>861</ele>
        <time>2019-10-09T13:51:21.000Z</time>
      </trkpt>
      <trkpt lat="44.22782" lon="2.95573">
        <ele>861</ele>
        <time>2019-10-09T13:51:22.000Z</time>
      </trkpt>
      <trkpt lat="44.22781" lon="2.95573">
        <ele>861</ele>
        <time>2019-10-09T13:51:23.000Z</time>
      </trkpt>
      <trkpt lat="44.2278" lon="2.95572">
        <ele>860</ele>
        <time>2019-10-09T13:51:24.000Z</time>
      </trkpt>
      <trkpt lat="44.22779" lon="2.95571">
        <ele>860</ele>
        <time>2019-10-09T13:51:25.000Z</time>
      </trkpt>
      <trkpt lat="44.22778" lon="2.95571">
        <ele>860</ele>
        <time>2019-10-09T13:51:26.000Z</time>
      </trkpt>
      <trkpt lat="44.22777" lon="2.95571">
        <ele>860</ele>
        <time>2019-10-09T13:51:27.000Z</time>
      </trkpt>
      <trkpt lat="44.22776" lon="2.95571">
        <ele>860</ele>
        <time>2019-10-09T13:51:28.000Z</time>
      </trkpt>
      <trkpt lat="44.22774" lon="2.95571">
        <ele>860</ele>
        <time>2019-10-09T13:51:29.000Z</time>
      </trkpt>
      <trkpt lat="44.22773" lon="2.9557">
        <ele>860</ele>
        <time>2019-10-09T13:51:30.000Z</time>
      </trkpt>
      <trkpt lat="44.22772" lon="2.9557">
        <ele>860</ele>
        <time>2019-10-09T13:51:31.000Z</time>
      </trkpt>
      <trkpt lat="44.2277" lon="2.95569">
        <ele>859</ele>
        <time>2019-10-09T13:51:32.000Z</time>
      </trkpt>
      <trkpt lat="44.22769" lon="2.95568">
        <ele>859</ele>
        <time>2019-10-09T13:51:33.000Z</time>
      </trkpt>
      <trkpt lat="44.22768" lon="2.95568">
        <ele>859</ele>
        <time>2019-10-09T13:51:34.000Z</time>
      </trkpt>
      <trkpt lat="44.22768" lon="2.95568">
        <ele>859</ele>
        <time>2019-10-09T13:51:35.000Z</time>
      </trkpt>
      <trkpt lat="44.22767" lon="2.95568">
        <ele>859</ele>
        <time>2019-10-09T13:51:36.000Z</time>
      </trkpt>
      <trkpt lat="44.22766" lon="2.95567">
        <ele>859</ele>
        <time>2019-10-09T13:51:37.000Z</time>
      </trkpt>
      <trkpt lat="44.22765" lon="2.95567">
        <ele>859</ele>
        <time>2019-10-09T13:51:38.000Z</time>
      </trkpt>
      <trkpt lat="44.22764" lon="2.95567">
        <ele>859</ele>
        <time>2019-10-09T13:51:39.000Z</time>
      </trkpt>
      <trkpt lat="44.22762" lon="2.95567">
        <ele>858</ele>
        <time>2019-10-09T13:51:40.000Z</time>
      </trkpt>
      <trkpt lat="44.22761" lon="2.95567">
        <ele>858</ele>
        <time>2019-10-09T13:51:41.000Z</time>
      </trkpt>
      <trkpt lat="44.22759" lon="2.95567">
        <ele>858</ele>
        <time>2019-10-09T13:51:42.000Z</time>
      </trkpt>
      <trkpt lat="44.22757" lon="2.95567">
        <ele>858</ele>
        <time>2019-10-09T13:51:43.000Z</time>
      </trkpt>
      <trkpt lat="44.22756" lon="2.95566">
        <ele>858</ele>
        <time>2019-10-09T13:51:44.000Z</time>
      </trkpt>
      <trkpt lat="44.22754" lon="2.95564">
        <ele>858</ele>
        <time>2019-10-09T13:51:45.000Z</time>
      </trkpt>
      <trkpt lat="44.22752" lon="2.95562">
        <ele>858</ele>
        <time>2019-10-09T13:51:46.000Z</time>
      </trkpt>
      <trkpt lat="44.22751" lon="2.95559">
        <ele>858</ele>
        <time>2019-10-09T13:51:47.000Z</time>
      </trkpt>
      <trkpt lat="44.22749" lon="2.95556">
        <ele>858</ele>
        <time>2019-10-09T13:51:48.000Z</time>
      </trkpt>
      <trkpt lat="44.22748" lon="2.95554">
        <ele>858</ele>
        <time>2019-10-09T13:51:49.000Z</time>
      </trkpt>
      <trkpt lat="44.22747" lon="2.95552">
        <ele>858</ele>
        <time>2019-10-09T13:51:50.000Z</time>
      </trkpt>
      <trkpt lat="44.22746" lon="2.9555">
        <ele>858</ele>
        <time>2019-10-09T13:51:51.000Z</time>
      </trkpt>
      <trkpt lat="44.22745" lon="2.95549">
        <ele>858</ele>
        <time>2019-10-09T13:51:52.000Z</time>
      </trkpt>
      <trkpt lat="44.22744" lon="2.95549">
        <ele>858</ele>
        <time>2019-10-09T13:51:53.000Z</time>
      </trkpt>
      <trkpt lat="44.22743" lon="2.95548">
        <ele>858</ele>
        <time>2019-10-09T13:51:54.000Z</time>
      </trkpt>
      <trkpt lat="44.22742" lon="2.95548">
        <ele>858</ele>
        <time>2019-10-09T13:51:55.000Z</time>
      </trkpt>
      <trkpt lat="44.22741" lon="2.95547">
        <ele>858</ele>
        <time>2019-10-09T13:51:56.000Z</time>
      </trkpt>
      <trkpt lat="44.2274" lon="2.95546">
        <ele>858</ele>
        <time>2019-10-09T13:51:57.000Z</time>
      </trkpt>
      <trkpt lat="44.22739" lon="2.95546">
        <ele>858</ele>
        <time>2019-10-09T13:51:58.000Z</time>
      </trkpt>
      <trkpt lat="44.22738" lon="2.95545">
        <ele>858</ele>
        <time>2019-10-09T13:51:59.000Z</time>
      </trkpt>
      <trkpt lat="44.22737" lon="2.95544">
        <ele>858</ele>
        <time>2019-10-09T13:52:00.000Z</time>
      </trkpt>
      <trkpt lat="44.22737" lon="2.95543">
        <ele>858</ele>
        <time>2019-10-09T13:52:01.000Z</time>
      </trkpt>
      <trkpt lat="44.22736" lon="2.95542">
        <ele>858</ele>
        <time>2019-10-09T13:52:02.000Z</time>
      </trkpt>
      <trkpt lat="44.22735" lon="2.95541">
        <ele>858</ele>
        <time>2019-10-09T13:52:03.000Z</time>
      </trkpt>
      <trkpt lat="44.22734" lon="2.95541">
        <ele>858</ele>
        <time>2019-10-09T13:52:04.000Z</time>
      </trkpt>
      <trkpt lat="44.22733" lon="2.9554">
        <ele>858</ele>
        <time>2019-10-09T13:52:05.000Z</time>
      </trkpt>
      <trkpt lat="44.22732" lon="2.9554">
        <ele>858</ele>
        <time>2019-10-09T13:52:06.000Z</time>
      </trkpt>
      <trkpt lat="44.22731" lon="2.9554">
        <ele>858</ele>
        <time>2019-10-09T13:52:07.000Z</time>
      </trkpt>
      <trkpt lat="44.2273" lon="2.9554">
        <ele>858</ele>
        <time>2019-10-09T13:52:08.000Z</time>
      </trkpt>
      <trkpt lat="44.22729" lon="2.9554">
        <ele>858</ele>
        <time>2019-10-09T13:52:09.000Z</time>
      </trkpt>
      <trkpt lat="44.22727" lon="2.9554">
        <ele>858</ele>
        <time>2019-10-09T13:52:10.000Z</time>
      </trkpt>
      <trkpt lat="44.22726" lon="2.9554">
        <ele>858</ele>
        <time>2019-10-09T13:52:11.000Z</time>
      </trkpt>
      <trkpt lat="44.22726" lon="2.95541">
        <ele>858</ele>
        <time>2019-10-09T13:52:12.000Z</time>
      </trkpt>
      <trkpt lat="44.22725" lon="2.95541">
        <ele>858</ele>
        <time>2019-10-09T13:52:13.000Z</time>
      </trkpt>
      <trkpt lat="44.22724" lon="2.95541">
        <ele>858</ele>
        <time>2019-10-09T13:52:14.000Z</time>
      </trkpt>
      <trkpt lat="44.22723" lon="2.95542">
        <ele>858</ele>
        <time>2019-10-09T13:52:15.000Z</time>
      </trkpt>
      <trkpt lat="44.22722" lon="2.95542">
        <ele>858</ele>
        <time>2019-10-09T13:52:16.000Z</time>
      </trkpt>
      <trkpt lat="44.2272" lon="2.95543">
        <ele>858</ele>
        <time>2019-10-09T13:52:17.000Z</time>
      </trkpt>
      <trkpt lat="44.22719" lon="2.95544">
        <ele>858</ele>
        <time>2019-10-09T13:52:18.000Z</time>
      </trkpt>
      <trkpt lat="44.22718" lon="2.95545">
        <ele>858</ele>
        <time>2019-10-09T13:52:19.000Z</time>
      </trkpt>
      <trkpt lat="44.22716" lon="2.95545">
        <ele>858</ele>
        <time>2019-10-09T13:52:20.000Z</time>
      </trkpt>
      <trkpt lat="44.22715" lon="2.95545">
        <ele>858</ele>
        <time>2019-10-09T13:52:21.000Z</time>
      </trkpt>
      <trkpt lat="44.22714" lon="2.95545">
        <ele>858</ele>
        <time>2019-10-09T13:52:22.000Z</time>
      </trkpt>
      <trkpt lat="44.22713" lon="2.95545">
        <ele>857</ele>
        <time>2019-10-09T13:52:23.000Z</time>
      </trkpt>
      <trkpt lat="44.22712" lon="2.95544">
        <ele>857</ele>
        <time>2019-10-09T13:52:24.000Z</time>
      </trkpt>
      <trkpt lat="44.22711" lon="2.95544">
        <ele>857</ele>
        <time>2019-10-09T13:52:25.000Z</time>
      </trkpt>
      <trkpt lat="44.2271" lon="2.95544">
        <ele>857</ele>
        <time>2019-10-09T13:52:26.000Z</time>
      </trkpt>
      <trkpt lat="44.22709" lon="2.95544">
        <ele>857</ele>
        <time>2019-10-09T13:52:27.000Z</time>
      </trkpt>
      <trkpt lat="44.22708" lon="2.95544">
        <ele>857</ele>
        <time>2019-10-09T13:52:28.000Z</time>
      </trkpt>
      <trkpt lat="44.22707" lon="2.95544">
        <ele>857</ele>
        <time>2019-10-09T13:52:29.000Z</time>
      </trkpt>
      <trkpt lat="44.22705" lon="2.95545">
        <ele>857</ele>
        <time>2019-10-09T13:52:30.000Z</time>
      </trkpt>
      <trkpt lat="44.22704" lon="2.95546">
        <ele>857</ele>
        <time>2019-10-09T13:52:31.000Z</time>
      </trkpt>
      <trkpt lat="44.22703" lon="2.95546">
        <ele>857</ele>
        <time>2019-10-09T13:52:32.000Z</time>
      </trkpt>
      <trkpt lat="44.22702" lon="2.95547">
        <ele>857</ele>
        <time>2019-10-09T13:52:33.000Z</time>
      </trkpt>
      <trkpt lat="44.22701" lon="2.95548">
        <ele>857</ele>
        <time>2019-10-09T13:52:34.000Z</time>
      </trkpt>
      <trkpt lat="44.227" lon="2.95548">
        <ele>857</ele>
        <time>2019-10-09T13:52:35.000Z</time>
      </trkpt>
      <trkpt lat="44.22699" lon="2.95549">
        <ele>856</ele>
        <time>2019-10-09T13:52:36.000Z</time>
      </trkpt>
      <trkpt lat="44.22698" lon="2.95549">
        <ele>856</ele>
        <time>2019-10-09T13:52:37.000Z</time>
      </trkpt>
      <trkpt lat="44.22697" lon="2.9555">
        <ele>856</ele>
        <time>2019-10-09T13:52:38.000Z</time>
      </trkpt>
      <trkpt lat="44.22695" lon="2.95551">
        <ele>856</ele>
        <time>2019-10-09T13:52:39.000Z</time>
      </trkpt>
      <trkpt lat="44.22694" lon="2.95551">
        <ele>856</ele>
        <time>2019-10-09T13:52:40.000Z</time>
      </trkpt>
      <trkpt lat="44.22693" lon="2.95552">
        <ele>856</ele>
        <time>2019-10-09T13:52:41.000Z</time>
      </trkpt>
      <trkpt lat="44.22692" lon="2.95552">
        <ele>855</ele>
        <time>2019-10-09T13:52:42.000Z</time>
      </trkpt>
      <trkpt lat="44.22691" lon="2.95553">
        <ele>855</ele>
        <time>2019-10-09T13:52:43.000Z</time>
      </trkpt>
      <trkpt lat="44.2269" lon="2.95553">
        <ele>855</ele>
        <time>2019-10-09T13:52:44.000Z</time>
      </trkpt>
      <trkpt lat="44.22689" lon="2.95553">
        <ele>855</ele>
        <time>2019-10-09T13:52:45.000Z</time>
      </trkpt>
      <trkpt lat="44.22688" lon="2.95553">
        <ele>855</ele>
        <time>2019-10-09T13:52:46.000Z</time>
      </trkpt>
      <trkpt lat="44.22687" lon="2.95553">
        <ele>855</ele>
        <time>2019-10-09T13:52:47.000Z</time>
      </trkpt>
      <trkpt lat="44.22686" lon="2.95553">
        <ele>855</ele>
        <time>2019-10-09T13:52:48.000Z</time>
      </trkpt>
      <trkpt lat="44.22685" lon="2.95554">
        <ele>855</ele>
        <time>2019-10-09T13:52:49.000Z</time>
      </trkpt>
      <trkpt lat="44.22683" lon="2.95554">
        <ele>855</ele>
        <time>2019-10-09T13:52:50.000Z</time>
      </trkpt>
      <trkpt lat="44.22682" lon="2.95554">
        <ele>855</ele>
        <time>2019-10-09T13:52:51.000Z</time>
      </trkpt>
      <trkpt lat="44.22681" lon="2.95554">
        <ele>855</ele>
        <time>2019-10-09T13:52:52.000Z</time>
      </trkpt>
      <trkpt lat="44.2268" lon="2.95555">
        <ele>855</ele>
        <time>2019-10-09T13:52:53.000Z</time>
      </trkpt>
      <trkpt lat="44.22679" lon="2.95555">
        <ele>855</ele>
        <time>2019-10-09T13:52:54.000Z</time>
      </trkpt>
      <trkpt lat="44.22678" lon="2.95554">
        <ele>855</ele>
        <time>2019-10-09T13:52:55.000Z</time>
      </trkpt>
      <trkpt lat="44.22677" lon="2.95554">
        <ele>855</ele>
        <time>2019-10-09T13:52:56.000Z</time>
      </trkpt>
      <trkpt lat="44.22676" lon="2.95554">
        <ele>855</ele>
        <time>2019-10-09T13:52:57.000Z</time>
      </trkpt>
      <trkpt lat="44.22675" lon="2.95554">
        <ele>855</ele>
        <time>2019-10-09T13:52:58.000Z</time>
      </trkpt>
      <trkpt lat="44.22675" lon="2.95554">
        <ele>855</ele>
        <time>2019-10-09T13:52:59.000Z</time>
      </trkpt>
      <trkpt lat="44.22674" lon="2.95554">
        <ele>855</ele>
        <time>2019-10-09T13:53:00.000Z</time>
      </trkpt>
      <trkpt lat="44.22673" lon="2.95554">
        <ele>855</ele>
        <time>2019-10-09T13:53:01.000Z</time>
      </trkpt>
      <trkpt lat="44.22672" lon="2.95554">
        <ele>854</ele>
        <time>2019-10-09T13:53:02.000Z</time>
      </trkpt>
      <trkpt lat="44.22671" lon="2.95554">
        <ele>854</ele>
        <time>2019-10-09T13:53:03.000Z</time>
      </trkpt>
      <trkpt lat="44.22671" lon="2.95554">
        <ele>854</ele>
        <time>2019-10-09T13:53:04.000Z</time>
      </trkpt>
      <trkpt lat="44.2267" lon="2.95554">
        <ele>854</ele>
        <time>2019-10-09T13:53:05.000Z</time>
      </trkpt>
      <trkpt lat="44.2267" lon="2.95554">
        <ele>854</ele>
        <time>2019-10-09T13:53:06.000Z</time>
      </trkpt>
      <trkpt lat="44.22669" lon="2.95554">
        <ele>853</ele>
        <time>2019-10-09T13:53:07.000Z</time>
      </trkpt>
      <trkpt lat="44.22669" lon="2.95554">
        <ele>853</ele>
        <time>2019-10-09T13:53:08.000Z</time>
      </trkpt>
      <trkpt lat="44.22669" lon="2.95554">
        <ele>853</ele>
        <time>2019-10-09T13:53:09.000Z</time>
      </trkpt>
      <trkpt lat="44.22668" lon="2.95554">
        <ele>853</ele>
        <time>2019-10-09T13:53:10.000Z</time>
      </trkpt>
      <trkpt lat="44.22668" lon="2.95555">
        <ele>853</ele>
        <time>2019-10-09T13:53:11.000Z</time>
      </trkpt>
      <trkpt lat="44.22668" lon="2.95555">
        <ele>853</ele>
        <time>2019-10-09T13:53:12.000Z</time>
      </trkpt>
      <trkpt lat="44.22668" lon="2.95555">
        <ele>853</ele>
        <time>2019-10-09T13:53:13.000Z</time>
      </trkpt>
      <trkpt lat="44.22667" lon="2.95555">
        <ele>852</ele>
        <time>2019-10-09T13:53:14.000Z</time>
      </trkpt>
      <trkpt lat="44.22667" lon="2.95556">
        <ele>852</ele>
        <time>2019-10-09T13:53:15.000Z</time>
      </trkpt>
      <trkpt lat="44.22666" lon="2.95556">
        <ele>852</ele>
        <time>2019-10-09T13:53:16.000Z</time>
      </trkpt>
      <trkpt lat="44.22666" lon="2.95557">
        <ele>852</ele>
        <time>2019-10-09T13:53:17.000Z</time>
      </trkpt>
      <trkpt lat="44.22665" lon="2.95557">
        <ele>852</ele>
        <time>2019-10-09T13:53:18.000Z</time>
      </trkpt>
      <trkpt lat="44.22665" lon="2.95557">
        <ele>852</ele>
        <time>2019-10-09T13:53:19.000Z</time>
      </trkpt>
      <trkpt lat="44.22665" lon="2.95558">
        <ele>851</ele>
        <time>2019-10-09T13:53:20.000Z</time>
      </trkpt>
      <trkpt lat="44.22664" lon="2.95558">
        <ele>851</ele>
        <time>2019-10-09T13:53:21.000Z</time>
      </trkpt>
      <trkpt lat="44.22664" lon="2.95559">
        <ele>851</ele>
        <time>2019-10-09T13:53:22.000Z</time>
      </trkpt>
      <trkpt lat="44.22663" lon="2.95559">
        <ele>851</ele>
        <time>2019-10-09T13:53:23.000Z</time>
      </trkpt>
      <trkpt lat="44.22663" lon="2.9556">
        <ele>851</ele>
        <time>2019-10-09T13:53:24.000Z</time>
      </trkpt>
      <trkpt lat="44.22663" lon="2.95561">
        <ele>851</ele>
        <time>2019-10-09T13:53:25.000Z</time>
      </trkpt>
      <trkpt lat="44.22663" lon="2.95562">
        <ele>850</ele>
        <time>2019-10-09T13:53:26.000Z</time>
      </trkpt>
      <trkpt lat="44.22663" lon="2.95563">
        <ele>850</ele>
        <time>2019-10-09T13:53:27.000Z</time>
      </trkpt>
      <trkpt lat="44.22662" lon="2.95564">
        <ele>850</ele>
        <time>2019-10-09T13:53:28.000Z</time>
      </trkpt>
      <trkpt lat="44.22662" lon="2.95565">
        <ele>850</ele>
        <time>2019-10-09T13:53:29.000Z</time>
      </trkpt>
      <trkpt lat="44.22662" lon="2.95566">
        <ele>850</ele>
        <time>2019-10-09T13:53:30.000Z</time>
      </trkpt>
      <trkpt lat="44.22661" lon="2.95567">
        <ele>850</ele>
        <time>2019-10-09T13:53:31.000Z</time>
      </trkpt>
      <trkpt lat="44.22661" lon="2.95567">
        <ele>850</ele>
        <time>2019-10-09T13:53:32.000Z</time>
      </trkpt>
      <trkpt lat="44.2266" lon="2.95567">
        <ele>849</ele>
        <time>2019-10-09T13:53:33.000Z</time>
      </trkpt>
      <trkpt lat="44.2266" lon="2.95568">
        <ele>849</ele>
        <time>2019-10-09T13:53:34.000Z</time>
      </trkpt>
      <trkpt lat="44.22659" lon="2.95568">
        <ele>849</ele>
        <time>2019-10-09T13:53:35.000Z</time>
      </trkpt>
      <trkpt lat="44.22659" lon="2.95568">
        <ele>849</ele>
        <time>2019-10-09T13:53:36.000Z</time>
      </trkpt>
      <trkpt lat="44.22659" lon="2.95568">
        <ele>848</ele>
        <time>2019-10-09T13:53:37.000Z</time>
      </trkpt>
      <trkpt lat="44.22658" lon="2.95568">
        <ele>848</ele>
        <time>2019-10-09T13:53:38.000Z</time>
      </trkpt>
      <trkpt lat="44.22657" lon="2.95569">
        <ele>848</ele>
        <time>2019-10-09T13:53:39.000Z</time>
      </trkpt>
      <trkpt lat="44.22656" lon="2.9557">
        <ele>848</ele>
        <time>2019-10-09T13:53:40.000Z</time>
      </trkpt>
      <trkpt lat="44.22655" lon="2.9557">
        <ele>847</ele>
        <time>2019-10-09T13:53:41.000Z</time>
      </trkpt>
      <trkpt lat="44.22654" lon="2.95571">
        <ele>847</ele>
        <time>2019-10-09T13:53:42.000Z</time>
      </trkpt>
      <trkpt lat="44.22654" lon="2.95572">
        <ele>847</ele>
        <time>2019-10-09T13:53:43.000Z</time>
      </trkpt>
      <trkpt lat="44.22653" lon="2.95573">
        <ele>847</ele>
        <time>2019-10-09T13:53:44.000Z</time>
      </trkpt>
      <trkpt lat="44.22652" lon="2.95573">
        <ele>847</ele>
        <time>2019-10-09T13:53:45.000Z</time>
      </trkpt>
      <trkpt lat="44.22651" lon="2.95574">
        <ele>847</ele>
        <time>2019-10-09T13:53:46.000Z</time>
      </trkpt>
      <trkpt lat="44.2265" lon="2.95575">
        <ele>847</ele>
        <time>2019-10-09T13:53:47.000Z</time>
      </trkpt>
      <trkpt lat="44.22649" lon="2.95575">
        <ele>847</ele>
        <time>2019-10-09T13:53:48.000Z</time>
      </trkpt>
      <trkpt lat="44.22648" lon="2.95576">
        <ele>847</ele>
        <time>2019-10-09T13:53:49.000Z</time>
      </trkpt>
      <trkpt lat="44.22647" lon="2.95576">
        <ele>847</ele>
        <time>2019-10-09T13:53:50.000Z</time>
      </trkpt>
      <trkpt lat="44.22645" lon="2.95576">
        <ele>847</ele>
        <time>2019-10-09T13:53:51.000Z</time>
      </trkpt>
      <trkpt lat="44.22645" lon="2.95576">
        <ele>847</ele>
        <time>2019-10-09T13:53:52.000Z</time>
      </trkpt>
      <trkpt lat="44.22644" lon="2.95577">
        <ele>847</ele>
        <time>2019-10-09T13:53:53.000Z</time>
      </trkpt>
      <trkpt lat="44.22643" lon="2.95577">
        <ele>847</ele>
        <time>2019-10-09T13:53:54.000Z</time>
      </trkpt>
      <trkpt lat="44.22642" lon="2.95577">
        <ele>847</ele>
        <time>2019-10-09T13:53:55.000Z</time>
      </trkpt>
      <trkpt lat="44.22642" lon="2.95578">
        <ele>846</ele>
        <time>2019-10-09T13:53:56.000Z</time>
      </trkpt>
      <trkpt lat="44.22641" lon="2.95579">
        <ele>846</ele>
        <time>2019-10-09T13:53:57.000Z</time>
      </trkpt>
      <trkpt lat="44.22641" lon="2.9558">
        <ele>846</ele>
        <time>2019-10-09T13:53:58.000Z</time>
      </trkpt>
      <trkpt lat="44.2264" lon="2.95581">
        <ele>846</ele>
        <time>2019-10-09T13:53:59.000Z</time>
      </trkpt>
      <trkpt lat="44.22639" lon="2.95583">
        <ele>846</ele>
        <time>2019-10-09T13:54:00.000Z</time>
      </trkpt>
      <trkpt lat="44.22639" lon="2.95584">
        <ele>846</ele>
        <time>2019-10-09T13:54:01.000Z</time>
      </trkpt>
      <trkpt lat="44.22638" lon="2.95586">
        <ele>846</ele>
        <time>2019-10-09T13:54:02.000Z</time>
      </trkpt>
      <trkpt lat="44.22637" lon="2.95588">
        <ele>846</ele>
        <time>2019-10-09T13:54:03.000Z</time>
      </trkpt>
      <trkpt lat="44.22636" lon="2.95589">
        <ele>846</ele>
        <time>2019-10-09T13:54:04.000Z</time>
      </trkpt>
      <trkpt lat="44.22635" lon="2.95591">
        <ele>846</ele>
        <time>2019-10-09T13:54:05.000Z</time>
      </trkpt>
      <trkpt lat="44.22634" lon="2.95592">
        <ele>846</ele>
        <time>2019-10-09T13:54:06.000Z</time>
      </trkpt>
      <trkpt lat="44.22634" lon="2.95594">
        <ele>846</ele>
        <time>2019-10-09T13:54:07.000Z</time>
      </trkpt>
      <trkpt lat="44.22633" lon="2.95596">
        <ele>845</ele>
        <time>2019-10-09T13:54:08.000Z</time>
      </trkpt>
      <trkpt lat="44.22633" lon="2.95597">
        <ele>845</ele>
        <time>2019-10-09T13:54:09.000Z</time>
      </trkpt>
      <trkpt lat="44.22632" lon="2.95598">
        <ele>845</ele>
        <time>2019-10-09T13:54:10.000Z</time>
      </trkpt>
      <trkpt lat="44.22632" lon="2.956">
        <ele>845</ele>
        <time>2019-10-09T13:54:11.000Z</time>
      </trkpt>
      <trkpt lat="44.22632" lon="2.95601">
        <ele>845</ele>
        <time>2019-10-09T13:54:12.000Z</time>
      </trkpt>
      <trkpt lat="44.22631" lon="2.95603">
        <ele>845</ele>
        <time>2019-10-09T13:54:13.000Z</time>
      </trkpt>
      <trkpt lat="44.22631" lon="2.95606">
        <ele>845</ele>
        <time>2019-10-09T13:54:14.000Z</time>
      </trkpt>
      <trkpt lat="44.2263" lon="2.95608">
        <ele>845</ele>
        <time>2019-10-09T13:54:15.000Z</time>
      </trkpt>
      <trkpt lat="44.2263" lon="2.95611">
        <ele>845</ele>
        <time>2019-10-09T13:54:16.000Z</time>
      </trkpt>
      <trkpt lat="44.22629" lon="2.95613">
        <ele>845</ele>
        <time>2019-10-09T13:54:17.000Z</time>
      </trkpt>
      <trkpt lat="44.22628" lon="2.95617">
        <ele>845</ele>
        <time>2019-10-09T13:54:18.000Z</time>
      </trkpt>
      <trkpt lat="44.22627" lon="2.9562">
        <ele>845</ele>
        <time>2019-10-09T13:54:19.000Z</time>
      </trkpt>
      <trkpt lat="44.22626" lon="2.95622">
        <ele>845</ele>
        <time>2019-10-09T13:54:20.000Z</time>
      </trkpt>
      <trkpt lat="44.22625" lon="2.95624">
        <ele>845</ele>
        <time>2019-10-09T13:54:21.000Z</time>
      </trkpt>
      <trkpt lat="44.22623" lon="2.95625">
        <ele>845</ele>
        <time>2019-10-09T13:54:22.000Z</time>
      </trkpt>
      <trkpt lat="44.22621" lon="2.95626">
        <ele>845</ele>
        <time>2019-10-09T13:54:23.000Z</time>
      </trkpt>
      <trkpt lat="44.22619" lon="2.95626">
        <ele>845</ele>
        <time>2019-10-09T13:54:24.000Z</time>
      </trkpt>
      <trkpt lat="44.22618" lon="2.95626">
        <ele>844</ele>
        <time>2019-10-09T13:54:25.000Z</time>
      </trkpt>
      <trkpt lat="44.22617" lon="2.95627">
        <ele>844</ele>
        <time>2019-10-09T13:54:26.000Z</time>
      </trkpt>
      <trkpt lat="44.22615" lon="2.95627">
        <ele>844</ele>
        <time>2019-10-09T13:54:27.000Z</time>
      </trkpt>
      <trkpt lat="44.22614" lon="2.95628">
        <ele>844</ele>
        <time>2019-10-09T13:54:28.000Z</time>
      </trkpt>
      <trkpt lat="44.22613" lon="2.95629">
        <ele>844</ele>
        <time>2019-10-09T13:54:29.000Z</time>
      </trkpt>
      <trkpt lat="44.22612" lon="2.9563">
        <ele>844</ele>
        <time>2019-10-09T13:54:30.000Z</time>
      </trkpt>
      <trkpt lat="44.22611" lon="2.95632">
        <ele>844</ele>
        <time>2019-10-09T13:54:31.000Z</time>
      </trkpt>
      <trkpt lat="44.2261" lon="2.95634">
        <ele>844</ele>
        <time>2019-10-09T13:54:32.000Z</time>
      </trkpt>
      <trkpt lat="44.22609" lon="2.95636">
        <ele>844</ele>
        <time>2019-10-09T13:54:33.000Z</time>
      </trkpt>
      <trkpt lat="44.22608" lon="2.95638">
        <ele>843</ele>
        <time>2019-10-09T13:54:34.000Z</time>
      </trkpt>
      <trkpt lat="44.22607" lon="2.9564">
        <ele>843</ele>
        <time>2019-10-09T13:54:35.000Z</time>
      </trkpt>
      <trkpt lat="44.22605" lon="2.95643">
        <ele>843</ele>
        <time>2019-10-09T13:54:36.000Z</time>
      </trkpt>
      <trkpt lat="44.22604" lon="2.95645">
        <ele>843</ele>
        <time>2019-10-09T13:54:37.000Z</time>
      </trkpt>
      <trkpt lat="44.22604" lon="2.95647">
        <ele>843</ele>
        <time>2019-10-09T13:54:38.000Z</time>
      </trkpt>
      <trkpt lat="44.22603" lon="2.95649">
        <ele>842</ele>
        <time>2019-10-09T13:54:39.000Z</time>
      </trkpt>
      <trkpt lat="44.22602" lon="2.9565">
        <ele>842</ele>
        <time>2019-10-09T13:54:40.000Z</time>
      </trkpt>
      <trkpt lat="44.22602" lon="2.95653">
        <ele>842</ele>
        <time>2019-10-09T13:54:41.000Z</time>
      </trkpt>
      <trkpt lat="44.22601" lon="2.95654">
        <ele>842</ele>
        <time>2019-10-09T13:54:42.000Z</time>
      </trkpt>
      <trkpt lat="44.226" lon="2.95656">
        <ele>842</ele>
        <time>2019-10-09T13:54:43.000Z</time>
      </trkpt>
      <trkpt lat="44.226" lon="2.95658">
        <ele>842</ele>
        <time>2019-10-09T13:54:44.000Z</time>
      </trkpt>
      <trkpt lat="44.226" lon="2.9566">
        <ele>841</ele>
        <time>2019-10-09T13:54:45.000Z</time>
      </trkpt>
      <trkpt lat="44.22599" lon="2.95662">
        <ele>841</ele>
        <time>2019-10-09T13:54:46.000Z</time>
      </trkpt>
      <trkpt lat="44.22599" lon="2.95664">
        <ele>841</ele>
        <time>2019-10-09T13:54:47.000Z</time>
      </trkpt>
      <trkpt lat="44.22598" lon="2.95666">
        <ele>841</ele>
        <time>2019-10-09T13:54:48.000Z</time>
      </trkpt>
      <trkpt lat="44.22597" lon="2.95668">
        <ele>840</ele>
        <time>2019-10-09T13:54:49.000Z</time>
      </trkpt>
      <trkpt lat="44.22596" lon="2.9567">
        <ele>840</ele>
        <time>2019-10-09T13:54:50.000Z</time>
      </trkpt>
      <trkpt lat="44.22595" lon="2.95671">
        <ele>840</ele>
        <time>2019-10-09T13:54:51.000Z</time>
      </trkpt>
      <trkpt lat="44.22593" lon="2.95673">
        <ele>840</ele>
        <time>2019-10-09T13:54:52.000Z</time>
      </trkpt>
      <trkpt lat="44.22592" lon="2.95674">
        <ele>840</ele>
        <time>2019-10-09T13:54:53.000Z</time>
      </trkpt>
      <trkpt lat="44.2259" lon="2.95675">
        <ele>840</ele>
        <time>2019-10-09T13:54:54.000Z</time>
      </trkpt>
      <trkpt lat="44.22589" lon="2.95676">
        <ele>840</ele>
        <time>2019-10-09T13:54:55.000Z</time>
      </trkpt>
      <trkpt lat="44.22587" lon="2.95677">
        <ele>839</ele>
        <time>2019-10-09T13:54:56.000Z</time>
      </trkpt>
      <trkpt lat="44.22586" lon="2.95678">
        <ele>839</ele>
        <time>2019-10-09T13:54:57.000Z</time>
      </trkpt>
      <trkpt lat="44.22584" lon="2.95678">
        <ele>839</ele>
        <time>2019-10-09T13:54:58.000Z</time>
      </trkpt>
      <trkpt lat="44.22583" lon="2.95679">
        <ele>839</ele>
        <time>2019-10-09T13:54:59.000Z</time>
      </trkpt>
      <trkpt lat="44.22581" lon="2.95679">
        <ele>839</ele>
        <time>2019-10-09T13:55:00.000Z</time>
      </trkpt>
      <trkpt lat="44.22579" lon="2.95679">
        <ele>839</ele>
        <time>2019-10-09T13:55:01.000Z</time>
      </trkpt>
      <trkpt lat="44.22578" lon="2.95679">
        <ele>839</ele>
        <time>2019-10-09T13:55:02.000Z</time>
      </trkpt>
      <trkpt lat="44.22576" lon="2.95679">
        <ele>838</ele>
        <time>2019-10-09T13:55:03.000Z</time>
      </trkpt>
      <trkpt lat="44.22575" lon="2.95679">
        <ele>838</ele>
        <time>2019-10-09T13:55:04.000Z</time>
      </trkpt>
      <trkpt lat="44.22574" lon="2.95679">
        <ele>838</ele>
        <time>2019-10-09T13:55:05.000Z</time>
      </trkpt>
      <trkpt lat="44.22572" lon="2.95679">
        <ele>838</ele>
        <time>2019-10-09T13:55:06.000Z</time>
      </trkpt>
      <trkpt lat="44.22571" lon="2.9568">
        <ele>838</ele>
        <time>2019-10-09T13:55:07.000Z</time>
      </trkpt>
      <trkpt lat="44.22569" lon="2.9568">
        <ele>837</ele>
        <time>2019-10-09T13:55:08.000Z</time>
      </trkpt>
      <trkpt lat="44.22568" lon="2.9568">
        <ele>837</ele>
        <time>2019-10-09T13:55:09.000Z</time>
      </trkpt>
      <trkpt lat="44.22567" lon="2.9568">
        <ele>837</ele>
        <time>2019-10-09T13:55:10.000Z</time>
      </trkpt>
      <trkpt lat="44.22565" lon="2.9568">
        <ele>837</ele>
        <time>2019-10-09T13:55:11.000Z</time>
      </trkpt>
      <trkpt lat="44.22564" lon="2.9568">
        <ele>836</ele>
        <time>2019-10-09T13:55:12.000Z</time>
      </trkpt>
      <trkpt lat="44.22563" lon="2.9568">
        <ele>836</ele>
        <time>2019-10-09T13:55:13.000Z</time>
      </trkpt>
      <trkpt lat="44.22561" lon="2.9568">
        <ele>836</ele>
        <time>2019-10-09T13:55:14.000Z</time>
      </trkpt>
      <trkpt lat="44.2256" lon="2.9568">
        <ele>836</ele>
        <time>2019-10-09T13:55:15.000Z</time>
      </trkpt>
      <trkpt lat="44.22558" lon="2.9568">
        <ele>836</ele>
        <time>2019-10-09T13:55:16.000Z</time>
      </trkpt>
      <trkpt lat="44.22557" lon="2.9568">
        <ele>835</ele>
        <time>2019-10-09T13:55:17.000Z</time>
      </trkpt>
      <trkpt lat="44.22556" lon="2.95679">
        <ele>835</ele>
        <time>2019-10-09T13:55:18.000Z</time>
      </trkpt>
      <trkpt lat="44.22554" lon="2.95679">
        <ele>835</ele>
        <time>2019-10-09T13:55:19.000Z</time>
      </trkpt>
      <trkpt lat="44.22553" lon="2.95679">
        <ele>835</ele>
        <time>2019-10-09T13:55:20.000Z</time>
      </trkpt>
      <trkpt lat="44.22551" lon="2.95678">
        <ele>835</ele>
        <time>2019-10-09T13:55:21.000Z</time>
      </trkpt>
      <trkpt lat="44.2255" lon="2.95678">
        <ele>835</ele>
        <time>2019-10-09T13:55:22.000Z</time>
      </trkpt>
      <trkpt lat="44.22548" lon="2.95677">
        <ele>835</ele>
        <time>2019-10-09T13:55:23.000Z</time>
      </trkpt>
      <trkpt lat="44.22547" lon="2.95676">
        <ele>835</ele>
        <time>2019-10-09T13:55:24.000Z</time>
      </trkpt>
      <trkpt lat="44.22546" lon="2.95675">
        <ele>835</ele>
        <time>2019-10-09T13:55:25.000Z</time>
      </trkpt>
      <trkpt lat="44.22545" lon="2.95674">
        <ele>834</ele>
        <time>2019-10-09T13:55:26.000Z</time>
      </trkpt>
      <trkpt lat="44.22543" lon="2.95673">
        <ele>834</ele>
        <time>2019-10-09T13:55:27.000Z</time>
      </trkpt>
      <trkpt lat="44.22542" lon="2.95673">
        <ele>834</ele>
        <time>2019-10-09T13:55:28.000Z</time>
      </trkpt>
      <trkpt lat="44.22541" lon="2.95672">
        <ele>834</ele>
        <time>2019-10-09T13:55:29.000Z</time>
      </trkpt>
      <trkpt lat="44.22539" lon="2.95672">
        <ele>834</ele>
        <time>2019-10-09T13:55:30.000Z</time>
      </trkpt>
      <trkpt lat="44.22538" lon="2.95672">
        <ele>834</ele>
        <time>2019-10-09T13:55:31.000Z</time>
      </trkpt>
      <trkpt lat="44.22537" lon="2.95672">
        <ele>834</ele>
        <time>2019-10-09T13:55:32.000Z</time>
      </trkpt>
      <trkpt lat="44.22535" lon="2.95673">
        <ele>834</ele>
        <time>2019-10-09T13:55:33.000Z</time>
      </trkpt>
      <trkpt lat="44.22534" lon="2.95673">
        <ele>835</ele>
        <time>2019-10-09T13:55:34.000Z</time>
      </trkpt>
      <trkpt lat="44.22532" lon="2.95673">
        <ele>835</ele>
        <time>2019-10-09T13:55:35.000Z</time>
      </trkpt>
      <trkpt lat="44.22531" lon="2.95674">
        <ele>835</ele>
        <time>2019-10-09T13:55:36.000Z</time>
      </trkpt>
      <trkpt lat="44.22529" lon="2.95674">
        <ele>835</ele>
        <time>2019-10-09T13:55:37.000Z</time>
      </trkpt>
      <trkpt lat="44.22528" lon="2.95674">
        <ele>835</ele>
        <time>2019-10-09T13:55:38.000Z</time>
      </trkpt>
      <trkpt lat="44.22526" lon="2.95675">
        <ele>835</ele>
        <time>2019-10-09T13:55:39.000Z</time>
      </trkpt>
      <trkpt lat="44.22525" lon="2.95675">
        <ele>835</ele>
        <time>2019-10-09T13:55:40.000Z</time>
      </trkpt>
      <trkpt lat="44.22523" lon="2.95676">
        <ele>835</ele>
        <time>2019-10-09T13:55:41.000Z</time>
      </trkpt>
      <trkpt lat="44.22522" lon="2.95676">
        <ele>835</ele>
        <time>2019-10-09T13:55:42.000Z</time>
      </trkpt>
      <trkpt lat="44.22521" lon="2.95676">
        <ele>834</ele>
        <time>2019-10-09T13:55:43.000Z</time>
      </trkpt>
      <trkpt lat="44.22519" lon="2.95676">
        <ele>834</ele>
        <time>2019-10-09T13:55:44.000Z</time>
      </trkpt>
      <trkpt lat="44.22518" lon="2.95676">
        <ele>834</ele>
        <time>2019-10-09T13:55:45.000Z</time>
      </trkpt>
      <trkpt lat="44.22516" lon="2.95676">
        <ele>834</ele>
        <time>2019-10-09T13:55:46.000Z</time>
      </trkpt>
      <trkpt lat="44.22514" lon="2.95676">
        <ele>834</ele>
        <time>2019-10-09T13:55:47.000Z</time>
      </trkpt>
      <trkpt lat="44.22513" lon="2.95676">
        <ele>834</ele>
        <time>2019-10-09T13:55:48.000Z</time>
      </trkpt>
      <trkpt lat="44.22512" lon="2.95677">
        <ele>834</ele>
        <time>2019-10-09T13:55:49.000Z</time>
      </trkpt>
      <trkpt lat="44.22511" lon="2.95676">
        <ele>834</ele>
        <time>2019-10-09T13:55:50.000Z</time>
      </trkpt>
      <trkpt lat="44.22509" lon="2.95676">
        <ele>834</ele>
        <time>2019-10-09T13:55:51.000Z</time>
      </trkpt>
      <trkpt lat="44.22508" lon="2.95676">
        <ele>834</ele>
        <time>2019-10-09T13:55:52.000Z</time>
      </trkpt>
      <trkpt lat="44.22507" lon="2.95676">
        <ele>834</ele>
        <time>2019-10-09T13:55:53.000Z</time>
      </trkpt>
      <trkpt lat="44.22505" lon="2.95675">
        <ele>833</ele>
        <time>2019-10-09T13:55:54.000Z</time>
      </trkpt>
      <trkpt lat="44.22504" lon="2.95675">
        <ele>833</ele>
        <time>2019-10-09T13:55:55.000Z</time>
      </trkpt>
      <trkpt lat="44.22503" lon="2.95676">
        <ele>833</ele>
        <time>2019-10-09T13:55:56.000Z</time>
      </trkpt>
      <trkpt lat="44.22501" lon="2.95676">
        <ele>833</ele>
        <time>2019-10-09T13:55:57.000Z</time>
      </trkpt>
      <trkpt lat="44.225" lon="2.95676">
        <ele>833</ele>
        <time>2019-10-09T13:55:58.000Z</time>
      </trkpt>
      <trkpt lat="44.22499" lon="2.95676">
        <ele>833</ele>
        <time>2019-10-09T13:55:59.000Z</time>
      </trkpt>
      <trkpt lat="44.22497" lon="2.95676">
        <ele>833</ele>
        <time>2019-10-09T13:56:00.000Z</time>
      </trkpt>
      <trkpt lat="44.22496" lon="2.95676">
        <ele>833</ele>
        <time>2019-10-09T13:56:01.000Z</time>
      </trkpt>
      <trkpt lat="44.22495" lon="2.95677">
        <ele>833</ele>
        <time>2019-10-09T13:56:02.000Z</time>
      </trkpt>
      <trkpt lat="44.22493" lon="2.95677">
        <ele>833</ele>
        <time>2019-10-09T13:56:03.000Z</time>
      </trkpt>
      <trkpt lat="44.22492" lon="2.95677">
        <ele>833</ele>
        <time>2019-10-09T13:56:04.000Z</time>
      </trkpt>
      <trkpt lat="44.2249" lon="2.95678">
        <ele>832</ele>
        <time>2019-10-09T13:56:05.000Z</time>
      </trkpt>
      <trkpt lat="44.22489" lon="2.95678">
        <ele>832</ele>
        <time>2019-10-09T13:56:06.000Z</time>
      </trkpt>
      <trkpt lat="44.22488" lon="2.95679">
        <ele>832</ele>
        <time>2019-10-09T13:56:07.000Z</time>
      </trkpt>
      <trkpt lat="44.22486" lon="2.95679">
        <ele>832</ele>
        <time>2019-10-09T13:56:08.000Z</time>
      </trkpt>
      <trkpt lat="44.22485" lon="2.9568">
        <ele>832</ele>
        <time>2019-10-09T13:56:09.000Z</time>
      </trkpt>
      <trkpt lat="44.22483" lon="2.9568">
        <ele>832</ele>
        <time>2019-10-09T13:56:10.000Z</time>
      </trkpt>
      <trkpt lat="44.22482" lon="2.95681">
        <ele>832</ele>
        <time>2019-10-09T13:56:11.000Z</time>
      </trkpt>
      <trkpt lat="44.22481" lon="2.95681">
        <ele>831</ele>
        <time>2019-10-09T13:56:12.000Z</time>
      </trkpt>
      <trkpt lat="44.2248" lon="2.95682">
        <ele>831</ele>
        <time>2019-10-09T13:56:13.000Z</time>
      </trkpt>
      <trkpt lat="44.22478" lon="2.95682">
        <ele>831</ele>
        <time>2019-10-09T13:56:14.000Z</time>
      </trkpt>
      <trkpt lat="44.22477" lon="2.95683">
        <ele>831</ele>
        <time>2019-10-09T13:56:15.000Z</time>
      </trkpt>
      <trkpt lat="44.22476" lon="2.95684">
        <ele>830</ele>
        <time>2019-10-09T13:56:16.000Z</time>
      </trkpt>
      <trkpt lat="44.22475" lon="2.95685">
        <ele>830</ele>
        <time>2019-10-09T13:56:17.000Z</time>
      </trkpt>
      <trkpt lat="44.22474" lon="2.95686">
        <ele>830</ele>
        <time>2019-10-09T13:56:18.000Z</time>
      </trkpt>
      <trkpt lat="44.22473" lon="2.95687">
        <ele>829</ele>
        <time>2019-10-09T13:56:19.000Z</time>
      </trkpt>
      <trkpt lat="44.22472" lon="2.95688">
        <ele>829</ele>
        <time>2019-10-09T13:56:20.000Z</time>
      </trkpt>
      <trkpt lat="44.22471" lon="2.95689">
        <ele>828</ele>
        <time>2019-10-09T13:56:21.000Z</time>
      </trkpt>
      <trkpt lat="44.22471" lon="2.9569">
        <ele>828</ele>
        <time>2019-10-09T13:56:22.000Z</time>
      </trkpt>
      <trkpt lat="44.2247" lon="2.95691">
        <ele>828</ele>
        <time>2019-10-09T13:56:23.000Z</time>
      </trkpt>
      <trkpt lat="44.22469" lon="2.95692">
        <ele>827</ele>
        <time>2019-10-09T13:56:24.000Z</time>
      </trkpt>
      <trkpt lat="44.22468" lon="2.95693">
        <ele>827</ele>
        <time>2019-10-09T13:56:25.000Z</time>
      </trkpt>
      <trkpt lat="44.22468" lon="2.95694">
        <ele>827</ele>
        <time>2019-10-09T13:56:26.000Z</time>
      </trkpt>
      <trkpt lat="44.22467" lon="2.95694">
        <ele>826</ele>
        <time>2019-10-09T13:56:27.000Z</time>
      </trkpt>
      <trkpt lat="44.22465" lon="2.95695">
        <ele>826</ele>
        <time>2019-10-09T13:56:28.000Z</time>
      </trkpt>
      <trkpt lat="44.22464" lon="2.95695">
        <ele>825</ele>
        <time>2019-10-09T13:56:29.000Z</time>
      </trkpt>
      <trkpt lat="44.22463" lon="2.95696">
        <ele>825</ele>
        <time>2019-10-09T13:56:30.000Z</time>
      </trkpt>
      <trkpt lat="44.22463" lon="2.95697">
        <ele>825</ele>
        <time>2019-10-09T13:56:31.000Z</time>
      </trkpt>
      <trkpt lat="44.22462" lon="2.95698">
        <ele>825</ele>
        <time>2019-10-09T13:56:32.000Z</time>
      </trkpt>
      <trkpt lat="44.22461" lon="2.95699">
        <ele>824</ele>
        <time>2019-10-09T13:56:33.000Z</time>
      </trkpt>
      <trkpt lat="44.2246" lon="2.957">
        <ele>824</ele>
        <time>2019-10-09T13:56:34.000Z</time>
      </trkpt>
      <trkpt lat="44.22459" lon="2.95702">
        <ele>824</ele>
        <time>2019-10-09T13:56:35.000Z</time>
      </trkpt>
      <trkpt lat="44.22458" lon="2.95703">
        <ele>823</ele>
        <time>2019-10-09T13:56:36.000Z</time>
      </trkpt>
      <trkpt lat="44.22458" lon="2.95704">
        <ele>823</ele>
        <time>2019-10-09T13:56:37.000Z</time>
      </trkpt>
      <trkpt lat="44.22457" lon="2.95706">
        <ele>823</ele>
        <time>2019-10-09T13:56:38.000Z</time>
      </trkpt>
      <trkpt lat="44.22456" lon="2.95707">
        <ele>822</ele>
        <time>2019-10-09T13:56:39.000Z</time>
      </trkpt>
      <trkpt lat="44.22455" lon="2.95708">
        <ele>822</ele>
        <time>2019-10-09T13:56:40.000Z</time>
      </trkpt>
      <trkpt lat="44.22454" lon="2.95709">
        <ele>822</ele>
        <time>2019-10-09T13:56:41.000Z</time>
      </trkpt>
      <trkpt lat="44.22453" lon="2.9571">
        <ele>822</ele>
        <time>2019-10-09T13:56:42.000Z</time>
      </trkpt>
      <trkpt lat="44.22452" lon="2.95711">
        <ele>821</ele>
        <time>2019-10-09T13:56:43.000Z</time>
      </trkpt>
      <trkpt lat="44.2245" lon="2.95712">
        <ele>821</ele>
        <time>2019-10-09T13:56:44.000Z</time>
      </trkpt>
      <trkpt lat="44.22449" lon="2.95712">
        <ele>821</ele>
        <time>2019-10-09T13:56:45.000Z</time>
      </trkpt>
      <trkpt lat="44.22448" lon="2.95713">
        <ele>820</ele>
        <time>2019-10-09T13:56:46.000Z</time>
      </trkpt>
      <trkpt lat="44.22447" lon="2.95713">
        <ele>820</ele>
        <time>2019-10-09T13:56:47.000Z</time>
      </trkpt>
      <trkpt lat="44.22446" lon="2.95714">
        <ele>820</ele>
        <time>2019-10-09T13:56:48.000Z</time>
      </trkpt>
      <trkpt lat="44.22444" lon="2.95715">
        <ele>820</ele>
        <time>2019-10-09T13:56:49.000Z</time>
      </trkpt>
      <trkpt lat="44.22443" lon="2.95715">
        <ele>819</ele>
        <time>2019-10-09T13:56:50.000Z</time>
      </trkpt>
      <trkpt lat="44.22441" lon="2.95714">
        <ele>819</ele>
        <time>2019-10-09T13:56:51.000Z</time>
      </trkpt>
      <trkpt lat="44.22439" lon="2.95713">
        <ele>819</ele>
        <time>2019-10-09T13:56:52.000Z</time>
      </trkpt>
      <trkpt lat="44.22436" lon="2.95712">
        <ele>818</ele>
        <time>2019-10-09T13:56:53.000Z</time>
      </trkpt>
      <trkpt lat="44.22433" lon="2.95709">
        <ele>818</ele>
        <time>2019-10-09T13:56:54.000Z</time>
      </trkpt>
      <trkpt lat="44.22429" lon="2.95706">
        <ele>818</ele>
        <time>2019-10-09T13:56:55.000Z</time>
      </trkpt>
      <trkpt lat="44.22426" lon="2.95703">
        <ele>818</ele>
        <time>2019-10-09T13:56:56.000Z</time>
      </trkpt>
      <trkpt lat="44.22424" lon="2.95699">
        <ele>817</ele>
        <time>2019-10-09T13:56:57.000Z</time>
      </trkpt>
      <trkpt lat="44.22421" lon="2.95695">
        <ele>817</ele>
        <time>2019-10-09T13:56:58.000Z</time>
      </trkpt>
      <trkpt lat="44.22419" lon="2.95691">
        <ele>817</ele>
        <time>2019-10-09T13:56:59.000Z</time>
      </trkpt>
      <trkpt lat="44.22417" lon="2.95687">
        <ele>816</ele>
        <time>2019-10-09T13:57:00.000Z</time>
      </trkpt>
      <trkpt lat="44.22414" lon="2.95682">
        <ele>816</ele>
        <time>2019-10-09T13:57:01.000Z</time>
      </trkpt>
      <trkpt lat="44.22412" lon="2.95677">
        <ele>815</ele>
        <time>2019-10-09T13:57:02.000Z</time>
      </trkpt>
      <trkpt lat="44.2241" lon="2.95673">
        <ele>815</ele>
        <time>2019-10-09T13:57:03.000Z</time>
      </trkpt>
      <trkpt lat="44.22409" lon="2.95669">
        <ele>815</ele>
        <time>2019-10-09T13:57:04.000Z</time>
      </trkpt>
      <trkpt lat="44.22407" lon="2.95665">
        <ele>814</ele>
        <time>2019-10-09T13:57:05.000Z</time>
      </trkpt>
      <trkpt lat="44.22405" lon="2.95661">
        <ele>814</ele>
        <time>2019-10-09T13:57:06.000Z</time>
      </trkpt>
      <trkpt lat="44.22403" lon="2.95657">
        <ele>814</ele>
        <time>2019-10-09T13:57:07.000Z</time>
      </trkpt>
      <trkpt lat="44.22401" lon="2.95653">
        <ele>813</ele>
        <time>2019-10-09T13:57:08.000Z</time>
      </trkpt>
      <trkpt lat="44.22399" lon="2.95648">
        <ele>813</ele>
        <time>2019-10-09T13:57:09.000Z</time>
      </trkpt>
      <trkpt lat="44.22397" lon="2.95643">
        <ele>812</ele>
        <time>2019-10-09T13:57:10.000Z</time>
      </trkpt>
      <trkpt lat="44.22394" lon="2.95637">
        <ele>812</ele>
        <time>2019-10-09T13:57:11.000Z</time>
      </trkpt>
      <trkpt lat="44.22392" lon="2.95632">
        <ele>812</ele>
        <time>2019-10-09T13:57:12.000Z</time>
      </trkpt>
      <trkpt lat="44.22389" lon="2.95628">
        <ele>812</ele>
        <time>2019-10-09T13:57:13.000Z</time>
      </trkpt>
      <trkpt lat="44.22387" lon="2.95623">
        <ele>811</ele>
        <time>2019-10-09T13:57:14.000Z</time>
      </trkpt>
      <trkpt lat="44.22385" lon="2.95619">
        <ele>811</ele>
        <time>2019-10-09T13:57:15.000Z</time>
      </trkpt>
      <trkpt lat="44.22383" lon="2.95615">
        <ele>811</ele>
        <time>2019-10-09T13:57:16.000Z</time>
      </trkpt>
      <trkpt lat="44.22381" lon="2.95611">
        <ele>811</ele>
        <time>2019-10-09T13:57:17.000Z</time>
      </trkpt>
      <trkpt lat="44.22379" lon="2.95606">
        <ele>811</ele>
        <time>2019-10-09T13:57:18.000Z</time>
      </trkpt>
      <trkpt lat="44.22377" lon="2.95602">
        <ele>810</ele>
        <time>2019-10-09T13:57:19.000Z</time>
      </trkpt>
      <trkpt lat="44.22374" lon="2.95598">
        <ele>810</ele>
        <time>2019-10-09T13:57:20.000Z</time>
      </trkpt>
      <trkpt lat="44.2237" lon="2.95594">
        <ele>810</ele>
        <time>2019-10-09T13:57:21.000Z</time>
      </trkpt>
      <trkpt lat="44.22367" lon="2.9559">
        <ele>809</ele>
        <time>2019-10-09T13:57:22.000Z</time>
      </trkpt>
      <trkpt lat="44.22364" lon="2.95586">
        <ele>809</ele>
        <time>2019-10-09T13:57:23.000Z</time>
      </trkpt>
      <trkpt lat="44.2236" lon="2.95582">
        <ele>809</ele>
        <time>2019-10-09T13:57:24.000Z</time>
      </trkpt>
      <trkpt lat="44.22357" lon="2.9558">
        <ele>809</ele>
        <time>2019-10-09T13:57:25.000Z</time>
      </trkpt>
      <trkpt lat="44.22353" lon="2.95578">
        <ele>809</ele>
        <time>2019-10-09T13:57:26.000Z</time>
      </trkpt>
      <trkpt lat="44.22349" lon="2.95576">
        <ele>808</ele>
        <time>2019-10-09T13:57:27.000Z</time>
      </trkpt>
      <trkpt lat="44.22346" lon="2.95575">
        <ele>808</ele>
        <time>2019-10-09T13:57:28.000Z</time>
      </trkpt>
      <trkpt lat="44.22342" lon="2.95575">
        <ele>808</ele>
        <time>2019-10-09T13:57:29.000Z</time>
      </trkpt>
      <trkpt lat="44.22339" lon="2.95576">
        <ele>808</ele>
        <time>2019-10-09T13:57:30.000Z</time>
      </trkpt>
      <trkpt lat="44.22335" lon="2.95577">
        <ele>808</ele>
        <time>2019-10-09T13:57:31.000Z</time>
      </trkpt>
      <trkpt lat="44.22331" lon="2.95578">
        <ele>808</ele>
        <time>2019-10-09T13:57:32.000Z</time>
      </trkpt>
      <trkpt lat="44.22327" lon="2.95579">
        <ele>808</ele>
        <time>2019-10-09T13:57:33.000Z</time>
      </trkpt>
      <trkpt lat="44.22323" lon="2.95579">
        <ele>808</ele>
        <time>2019-10-09T13:57:34.000Z</time>
      </trkpt>
      <trkpt lat="44.22319" lon="2.95579">
        <ele>808</ele>
        <time>2019-10-09T13:57:35.000Z</time>
      </trkpt>
      <trkpt lat="44.22315" lon="2.95578">
        <ele>808</ele>
        <time>2019-10-09T13:57:36.000Z</time>
      </trkpt>
      <trkpt lat="44.22311" lon="2.95576">
        <ele>808</ele>
        <time>2019-10-09T13:57:37.000Z</time>
      </trkpt>
      <trkpt lat="44.22307" lon="2.95575">
        <ele>808</ele>
        <time>2019-10-09T13:57:38.000Z</time>
      </trkpt>
      <trkpt lat="44.22303" lon="2.95573">
        <ele>808</ele>
        <time>2019-10-09T13:57:39.000Z</time>
      </trkpt>
      <trkpt lat="44.22299" lon="2.9557">
        <ele>808</ele>
        <time>2019-10-09T13:57:40.000Z</time>
      </trkpt>
      <trkpt lat="44.22295" lon="2.95568">
        <ele>808</ele>
        <time>2019-10-09T13:57:41.000Z</time>
      </trkpt>
      <trkpt lat="44.22292" lon="2.95566">
        <ele>808</ele>
        <time>2019-10-09T13:57:42.000Z</time>
      </trkpt>
      <trkpt lat="44.22288" lon="2.95563">
        <ele>808</ele>
        <time>2019-10-09T13:57:43.000Z</time>
      </trkpt>
      <trkpt lat="44.22284" lon="2.95561">
        <ele>808</ele>
        <time>2019-10-09T13:57:44.000Z</time>
      </trkpt>
      <trkpt lat="44.22279" lon="2.95559">
        <ele>808</ele>
        <time>2019-10-09T13:57:45.000Z</time>
      </trkpt>
      <trkpt lat="44.22275" lon="2.95557">
        <ele>808</ele>
        <time>2019-10-09T13:57:46.000Z</time>
      </trkpt>
      <trkpt lat="44.22271" lon="2.95555">
        <ele>808</ele>
        <time>2019-10-09T13:57:47.000Z</time>
      </trkpt>
      <trkpt lat="44.22267" lon="2.95552">
        <ele>808</ele>
        <time>2019-10-09T13:57:48.000Z</time>
      </trkpt>
      <trkpt lat="44.22263" lon="2.95549">
        <ele>807</ele>
        <time>2019-10-09T13:57:49.000Z</time>
      </trkpt>
      <trkpt lat="44.2226" lon="2.95546">
        <ele>807</ele>
        <time>2019-10-09T13:57:50.000Z</time>
      </trkpt>
      <trkpt lat="44.22257" lon="2.95542">
        <ele>807</ele>
        <time>2019-10-09T13:57:51.000Z</time>
      </trkpt>
      <trkpt lat="44.22255" lon="2.95539">
        <ele>807</ele>
        <time>2019-10-09T13:57:52.000Z</time>
      </trkpt>
      <trkpt lat="44.22254" lon="2.95536">
        <ele>807</ele>
        <time>2019-10-09T13:57:53.000Z</time>
      </trkpt>
      <trkpt lat="44.22254" lon="2.95532">
        <ele>806</ele>
        <time>2019-10-09T13:57:54.000Z</time>
      </trkpt>
      <trkpt lat="44.22254" lon="2.95528">
        <ele>806</ele>
        <time>2019-10-09T13:57:55.000Z</time>
      </trkpt>
      <trkpt lat="44.22254" lon="2.95525">
        <ele>806</ele>
        <time>2019-10-09T13:57:56.000Z</time>
      </trkpt>
      <trkpt lat="44.22255" lon="2.95522">
        <ele>806</ele>
        <time>2019-10-09T13:57:57.000Z</time>
      </trkpt>
      <trkpt lat="44.22255" lon="2.9552">
        <ele>806</ele>
        <time>2019-10-09T13:57:58.000Z</time>
      </trkpt>
      <trkpt lat="44.22256" lon="2.95517">
        <ele>805</ele>
        <time>2019-10-09T13:57:59.000Z</time>
      </trkpt>
      <trkpt lat="44.22256" lon="2.95515">
        <ele>805</ele>
        <time>2019-10-09T13:58:00.000Z</time>
      </trkpt>
      <trkpt lat="44.22257" lon="2.95513">
        <ele>805</ele>
        <time>2019-10-09T13:58:01.000Z</time>
      </trkpt>
      <trkpt lat="44.22258" lon="2.95511">
        <ele>805</ele>
        <time>2019-10-09T13:58:02.000Z</time>
      </trkpt>
      <trkpt lat="44.22259" lon="2.95509">
        <ele>805</ele>
        <time>2019-10-09T13:58:03.000Z</time>
      </trkpt>
      <trkpt lat="44.22259" lon="2.95507">
        <ele>805</ele>
        <time>2019-10-09T13:58:04.000Z</time>
      </trkpt>
      <trkpt lat="44.2226" lon="2.95505">
        <ele>804</ele>
        <time>2019-10-09T13:58:05.000Z</time>
      </trkpt>
      <trkpt lat="44.22261" lon="2.95503">
        <ele>804</ele>
        <time>2019-10-09T13:58:06.000Z</time>
      </trkpt>
      <trkpt lat="44.22262" lon="2.95501">
        <ele>804</ele>
        <time>2019-10-09T13:58:07.000Z</time>
      </trkpt>
      <trkpt lat="44.22262" lon="2.95499">
        <ele>803</ele>
        <time>2019-10-09T13:58:08.000Z</time>
      </trkpt>
      <trkpt lat="44.22263" lon="2.95497">
        <ele>803</ele>
        <time>2019-10-09T13:58:09.000Z</time>
      </trkpt>
      <trkpt lat="44.22264" lon="2.95495">
        <ele>803</ele>
        <time>2019-10-09T13:58:10.000Z</time>
      </trkpt>
      <trkpt lat="44.22265" lon="2.95493">
        <ele>802</ele>
        <time>2019-10-09T13:58:11.000Z</time>
      </trkpt>
      <trkpt lat="44.22266" lon="2.95491">
        <ele>802</ele>
        <time>2019-10-09T13:58:12.000Z</time>
      </trkpt>
      <trkpt lat="44.22267" lon="2.9549">
        <ele>802</ele>
        <time>2019-10-09T13:58:13.000Z</time>
      </trkpt>
      <trkpt lat="44.22268" lon="2.95489">
        <ele>802</ele>
        <time>2019-10-09T13:58:14.000Z</time>
      </trkpt>
      <trkpt lat="44.22269" lon="2.95487">
        <ele>801</ele>
        <time>2019-10-09T13:58:15.000Z</time>
      </trkpt>
      <trkpt lat="44.2227" lon="2.95486">
        <ele>801</ele>
        <time>2019-10-09T13:58:16.000Z</time>
      </trkpt>
      <trkpt lat="44.22271" lon="2.95485">
        <ele>801</ele>
        <time>2019-10-09T13:58:17.000Z</time>
      </trkpt>
      <trkpt lat="44.22272" lon="2.95484">
        <ele>801</ele>
        <time>2019-10-09T13:58:18.000Z</time>
      </trkpt>
      <trkpt lat="44.22273" lon="2.95483">
        <ele>801</ele>
        <time>2019-10-09T13:58:19.000Z</time>
      </trkpt>
      <trkpt lat="44.22274" lon="2.95481">
        <ele>801</ele>
        <time>2019-10-09T13:58:20.000Z</time>
      </trkpt>
      <trkpt lat="44.22275" lon="2.9548">
        <ele>801</ele>
        <time>2019-10-09T13:58:21.000Z</time>
      </trkpt>
      <trkpt lat="44.22275" lon="2.95479">
        <ele>801</ele>
        <time>2019-10-09T13:58:22.000Z</time>
      </trkpt>
      <trkpt lat="44.22276" lon="2.95477">
        <ele>801</ele>
        <time>2019-10-09T13:58:23.000Z</time>
      </trkpt>
      <trkpt lat="44.22277" lon="2.95476">
        <ele>801</ele>
        <time>2019-10-09T13:58:24.000Z</time>
      </trkpt>
      <trkpt lat="44.22278" lon="2.95474">
        <ele>800</ele>
        <time>2019-10-09T13:58:25.000Z</time>
      </trkpt>
      <trkpt lat="44.22279" lon="2.95473">
        <ele>800</ele>
        <time>2019-10-09T13:58:26.000Z</time>
      </trkpt>
      <trkpt lat="44.2228" lon="2.95471">
        <ele>800</ele>
        <time>2019-10-09T13:58:27.000Z</time>
      </trkpt>
      <trkpt lat="44.2228" lon="2.95469">
        <ele>800</ele>
        <time>2019-10-09T13:58:28.000Z</time>
      </trkpt>
      <trkpt lat="44.22281" lon="2.95467">
        <ele>800</ele>
        <time>2019-10-09T13:58:29.000Z</time>
      </trkpt>
      <trkpt lat="44.22281" lon="2.95466">
        <ele>800</ele>
        <time>2019-10-09T13:58:30.000Z</time>
      </trkpt>
      <trkpt lat="44.22282" lon="2.95464">
        <ele>800</ele>
        <time>2019-10-09T13:58:31.000Z</time>
      </trkpt>
      <trkpt lat="44.22283" lon="2.95462">
        <ele>800</ele>
        <time>2019-10-09T13:58:32.000Z</time>
      </trkpt>
      <trkpt lat="44.22283" lon="2.9546">
        <ele>800</ele>
        <time>2019-10-09T13:58:33.000Z</time>
      </trkpt>
      <trkpt lat="44.22283" lon="2.95458">
        <ele>800</ele>
        <time>2019-10-09T13:58:34.000Z</time>
      </trkpt>
      <trkpt lat="44.22284" lon="2.95456">
        <ele>800</ele>
        <time>2019-10-09T13:58:35.000Z</time>
      </trkpt>
      <trkpt lat="44.22284" lon="2.95454">
        <ele>800</ele>
        <time>2019-10-09T13:58:36.000Z</time>
      </trkpt>
      <trkpt lat="44.22285" lon="2.95453">
        <ele>800</ele>
        <time>2019-10-09T13:58:37.000Z</time>
      </trkpt>
      <trkpt lat="44.22286" lon="2.95451">
        <ele>800</ele>
        <time>2019-10-09T13:58:38.000Z</time>
      </trkpt>
      <trkpt lat="44.22286" lon="2.95449">
        <ele>800</ele>
        <time>2019-10-09T13:58:39.000Z</time>
      </trkpt>
      <trkpt lat="44.22287" lon="2.95448">
        <ele>800</ele>
        <time>2019-10-09T13:58:40.000Z</time>
      </trkpt>
      <trkpt lat="44.22288" lon="2.95446">
        <ele>800</ele>
        <time>2019-10-09T13:58:41.000Z</time>
      </trkpt>
      <trkpt lat="44.22288" lon="2.95444">
        <ele>800</ele>
        <time>2019-10-09T13:58:42.000Z</time>
      </trkpt>
      <trkpt lat="44.22289" lon="2.95442">
        <ele>800</ele>
        <time>2019-10-09T13:58:43.000Z</time>
      </trkpt>
      <trkpt lat="44.22289" lon="2.9544">
        <ele>800</ele>
        <time>2019-10-09T13:58:44.000Z</time>
      </trkpt>
      <trkpt lat="44.2229" lon="2.95438">
        <ele>800</ele>
        <time>2019-10-09T13:58:45.000Z</time>
      </trkpt>
      <trkpt lat="44.2229" lon="2.95435">
        <ele>800</ele>
        <time>2019-10-09T13:58:46.000Z</time>
      </trkpt>
      <trkpt lat="44.22291" lon="2.95434">
        <ele>800</ele>
        <time>2019-10-09T13:58:47.000Z</time>
      </trkpt>
      <trkpt lat="44.22291" lon="2.95431">
        <ele>800</ele>
        <time>2019-10-09T13:58:48.000Z</time>
      </trkpt>
      <trkpt lat="44.22291" lon="2.9543">
        <ele>800</ele>
        <time>2019-10-09T13:58:49.000Z</time>
      </trkpt>
      <trkpt lat="44.22291" lon="2.95428">
        <ele>800</ele>
        <time>2019-10-09T13:58:50.000Z</time>
      </trkpt>
      <trkpt lat="44.22291" lon="2.95426">
        <ele>800</ele>
        <time>2019-10-09T13:58:51.000Z</time>
      </trkpt>
      <trkpt lat="44.22291" lon="2.95424">
        <ele>800</ele>
        <time>2019-10-09T13:58:52.000Z</time>
      </trkpt>
      <trkpt lat="44.22291" lon="2.95423">
        <ele>800</ele>
        <time>2019-10-09T13:58:53.000Z</time>
      </trkpt>
      <trkpt lat="44.2229" lon="2.95421">
        <ele>800</ele>
        <time>2019-10-09T13:58:54.000Z</time>
      </trkpt>
      <trkpt lat="44.2229" lon="2.9542">
        <ele>800</ele>
        <time>2019-10-09T13:58:55.000Z</time>
      </trkpt>
      <trkpt lat="44.22289" lon="2.95418">
        <ele>800</ele>
        <time>2019-10-09T13:58:56.000Z</time>
      </trkpt>
      <trkpt lat="44.22289" lon="2.95418">
        <ele>800</ele>
        <time>2019-10-09T13:58:57.000Z</time>
      </trkpt>
      <trkpt lat="44.22289" lon="2.95418">
        <ele>800</ele>
        <time>2019-10-09T13:58:58.000Z</time>
      </trkpt>
      <trkpt lat="44.22289" lon="2.95418">
        <ele>800</ele>
        <time>2019-10-09T13:58:59.000Z</time>
      </trkpt>
      <trkpt lat="44.22289" lon="2.95417">
        <ele>800</ele>
        <time>2019-10-09T13:59:00.000Z</time>
      </trkpt>
      <trkpt lat="44.22289" lon="2.95417">
        <ele>800</ele>
        <time>2019-10-09T13:59:01.000Z</time>
      </trkpt>
      <trkpt lat="44.22289" lon="2.95417">
        <ele>800</ele>
        <time>2019-10-09T13:59:02.000Z</time>
      </trkpt>
      <trkpt lat="44.22289" lon="2.95417">
        <ele>800</ele>
        <time>2019-10-09T13:59:03.000Z</time>
      </trkpt>
      <trkpt lat="44.22289" lon="2.95417">
        <ele>800</ele>
        <time>2019-10-09T13:59:04.000Z</time>
      </trkpt>
      <trkpt lat="44.22289" lon="2.95416">
        <ele>799</ele>
        <time>2019-10-09T13:59:05.000Z</time>
      </trkpt>
      <trkpt lat="44.22289" lon="2.95415">
        <ele>799</ele>
        <time>2019-10-09T13:59:06.000Z</time>
      </trkpt>
      <trkpt lat="44.22288" lon="2.95414">
        <ele>799</ele>
        <time>2019-10-09T13:59:07.000Z</time>
      </trkpt>
      <trkpt lat="44.22288" lon="2.95412">
        <ele>799</ele>
        <time>2019-10-09T13:59:08.000Z</time>
      </trkpt>
      <trkpt lat="44.22288" lon="2.95411">
        <ele>799</ele>
        <time>2019-10-09T13:59:09.000Z</time>
      </trkpt>
      <trkpt lat="44.22288" lon="2.95409">
        <ele>799</ele>
        <time>2019-10-09T13:59:10.000Z</time>
      </trkpt>
      <trkpt lat="44.22287" lon="2.95408">
        <ele>799</ele>
        <time>2019-10-09T13:59:11.000Z</time>
      </trkpt>
      <trkpt lat="44.22287" lon="2.95407">
        <ele>799</ele>
        <time>2019-10-09T13:59:12.000Z</time>
      </trkpt>
      <trkpt lat="44.22287" lon="2.95405">
        <ele>799</ele>
        <time>2019-10-09T13:59:13.000Z</time>
      </trkpt>
      <trkpt lat="44.22287" lon="2.95404">
        <ele>799</ele>
        <time>2019-10-09T13:59:14.000Z</time>
      </trkpt>
      <trkpt lat="44.22286" lon="2.95402">
        <ele>799</ele>
        <time>2019-10-09T13:59:15.000Z</time>
      </trkpt>
      <trkpt lat="44.22286" lon="2.95401">
        <ele>799</ele>
        <time>2019-10-09T13:59:16.000Z</time>
      </trkpt>
      <trkpt lat="44.22286" lon="2.95399">
        <ele>799</ele>
        <time>2019-10-09T13:59:17.000Z</time>
      </trkpt>
      <trkpt lat="44.22287" lon="2.95398">
        <ele>799</ele>
        <time>2019-10-09T13:59:18.000Z</time>
      </trkpt>
      <trkpt lat="44.22287" lon="2.95396">
        <ele>799</ele>
        <time>2019-10-09T13:59:19.000Z</time>
      </trkpt>
      <trkpt lat="44.22287" lon="2.95394">
        <ele>799</ele>
        <time>2019-10-09T13:59:20.000Z</time>
      </trkpt>
      <trkpt lat="44.22287" lon="2.95393">
        <ele>799</ele>
        <time>2019-10-09T13:59:21.000Z</time>
      </trkpt>
      <trkpt lat="44.22287" lon="2.95391">
        <ele>799</ele>
        <time>2019-10-09T13:59:22.000Z</time>
      </trkpt>
      <trkpt lat="44.22287" lon="2.9539">
        <ele>799</ele>
        <time>2019-10-09T13:59:23.000Z</time>
      </trkpt>
      <trkpt lat="44.22287" lon="2.95389">
        <ele>799</ele>
        <time>2019-10-09T13:59:24.000Z</time>
      </trkpt>
      <trkpt lat="44.22287" lon="2.95388">
        <ele>799</ele>
        <time>2019-10-09T13:59:25.000Z</time>
      </trkpt>
      <trkpt lat="44.22287" lon="2.95388">
        <ele>799</ele>
        <time>2019-10-09T13:59:26.000Z</time>
      </trkpt>
      <trkpt lat="44.22287" lon="2.95388">
        <ele>799</ele>
        <time>2019-10-09T13:59:27.000Z</time>
      </trkpt>
      <trkpt lat="44.22287" lon="2.95387">
        <ele>799</ele>
        <time>2019-10-09T13:59:28.000Z</time>
      </trkpt>
      <trkpt lat="44.22287" lon="2.95386">
        <ele>799</ele>
        <time>2019-10-09T13:59:29.000Z</time>
      </trkpt>
      <trkpt lat="44.22287" lon="2.95385">
        <ele>799</ele>
        <time>2019-10-09T13:59:30.000Z</time>
      </trkpt>
      <trkpt lat="44.22287" lon="2.95385">
        <ele>799</ele>
        <time>2019-10-09T13:59:31.000Z</time>
      </trkpt>
      <trkpt lat="44.22287" lon="2.95385">
        <ele>799</ele>
        <time>2019-10-09T13:59:32.000Z</time>
      </trkpt>
      <trkpt lat="44.22287" lon="2.95385">
        <ele>799</ele>
        <time>2019-10-09T13:59:33.000Z</time>
      </trkpt>
      <trkpt lat="44.22287" lon="2.95385">
        <ele>799</ele>
        <time>2019-10-09T13:59:34.000Z</time>
      </trkpt>
      <trkpt lat="44.22287" lon="2.95385">
        <ele>799</ele>
        <time>2019-10-09T13:59:35.000Z</time>
      </trkpt>
      <trkpt lat="44.22287" lon="2.95385">
        <ele>799</ele>
        <time>2019-10-09T13:59:36.000Z</time>
      </trkpt>
      <trkpt lat="44.22287" lon="2.95385">
        <ele>799</ele>
        <time>2019-10-09T13:59:37.000Z</time>
      </trkpt>
      <trkpt lat="44.22287" lon="2.95385">
        <ele>799</ele>
        <time>2019-10-09T13:59:38.000Z</time>
      </trkpt>
      <trkpt lat="44.22287" lon="2.95385">
        <ele>799</ele>
        <time>2019-10-09T13:59:39.000Z</time>
      </trkpt>
      <trkpt lat="44.22287" lon="2.95384">
        <ele>799</ele>
        <time>2019-10-09T13:59:40.000Z</time>
      </trkpt>
      <trkpt lat="44.22287" lon="2.95384">
        <ele>799</ele>
        <time>2019-10-09T13:59:41.000Z</time>
      </trkpt>
      <trkpt lat="44.22286" lon="2.95384">
        <ele>799</ele>
        <time>2019-10-09T13:59:42.000Z</time>
      </trkpt>
      <trkpt lat="44.22286" lon="2.95384">
        <ele>799</ele>
        <time>2019-10-09T13:59:43.000Z</time>
      </trkpt>
      <trkpt lat="44.22286" lon="2.95384">
        <ele>799</ele>
        <time>2019-10-09T13:59:44.000Z</time>
      </trkpt>
      <trkpt lat="44.22286" lon="2.95382">
        <ele>799</ele>
        <time>2019-10-09T13:59:45.000Z</time>
      </trkpt>
      <trkpt lat="44.22286" lon="2.95381">
        <ele>799</ele>
        <time>2019-10-09T13:59:46.000Z</time>
      </trkpt>
      <trkpt lat="44.22285" lon="2.9538">
        <ele>799</ele>
        <time>2019-10-09T13:59:47.000Z</time>
      </trkpt>
      <trkpt lat="44.22285" lon="2.95379">
        <ele>799</ele>
        <time>2019-10-09T13:59:48.000Z</time>
      </trkpt>
      <trkpt lat="44.22284" lon="2.95379">
        <ele>799</ele>
        <time>2019-10-09T13:59:49.000Z</time>
      </trkpt>
      <trkpt lat="44.22284" lon="2.95379">
        <ele>799</ele>
        <time>2019-10-09T13:59:50.000Z</time>
      </trkpt>
      <trkpt lat="44.22284" lon="2.9538">
        <ele>799</ele>
        <time>2019-10-09T13:59:51.000Z</time>
      </trkpt>
      <trkpt lat="44.22283" lon="2.95382">
        <ele>799</ele>
        <time>2019-10-09T13:59:52.000Z</time>
      </trkpt>
      <trkpt lat="44.22283" lon="2.95383">
        <ele>799</ele>
        <time>2019-10-09T13:59:53.000Z</time>
      </trkpt>
      <trkpt lat="44.22284" lon="2.95385">
        <ele>799</ele>
        <time>2019-10-09T13:59:54.000Z</time>
      </trkpt>
      <trkpt lat="44.22283" lon="2.95387">
        <ele>799</ele>
        <time>2019-10-09T13:59:55.000Z</time>
      </trkpt>
      <trkpt lat="44.22283" lon="2.95389">
        <ele>799</ele>
        <time>2019-10-09T13:59:56.000Z</time>
      </trkpt>
      <trkpt lat="44.22283" lon="2.95391">
        <ele>799</ele>
        <time>2019-10-09T13:59:57.000Z</time>
      </trkpt>
      <trkpt lat="44.22283" lon="2.95393">
        <ele>799</ele>
        <time>2019-10-09T13:59:58.000Z</time>
      </trkpt>
      <trkpt lat="44.22283" lon="2.95395">
        <ele>798</ele>
        <time>2019-10-09T13:59:59.000Z</time>
      </trkpt>
      <trkpt lat="44.22284" lon="2.95397">
        <ele>798</ele>
        <time>2019-10-09T14:00:00.000Z</time>
      </trkpt>
      <trkpt lat="44.22284" lon="2.95398">
        <ele>798</ele>
        <time>2019-10-09T14:00:01.000Z</time>
      </trkpt>
      <trkpt lat="44.22285" lon="2.954">
        <ele>798</ele>
        <time>2019-10-09T14:00:02.000Z</time>
      </trkpt>
      <trkpt lat="44.22286" lon="2.95401">
        <ele>798</ele>
        <time>2019-10-09T14:00:03.000Z</time>
      </trkpt>
      <trkpt lat="44.22286" lon="2.95402">
        <ele>798</ele>
        <time>2019-10-09T14:00:04.000Z</time>
      </trkpt>
      <trkpt lat="44.22286" lon="2.95404">
        <ele>798</ele>
        <time>2019-10-09T14:00:05.000Z</time>
      </trkpt>
      <trkpt lat="44.22286" lon="2.95405">
        <ele>798</ele>
        <time>2019-10-09T14:00:06.000Z</time>
      </trkpt>
      <trkpt lat="44.22287" lon="2.95407">
        <ele>798</ele>
        <time>2019-10-09T14:00:07.000Z</time>
      </trkpt>
      <trkpt lat="44.22288" lon="2.95408">
        <ele>798</ele>
        <time>2019-10-09T14:00:08.000Z</time>
      </trkpt>
      <trkpt lat="44.22288" lon="2.9541">
        <ele>797</ele>
        <time>2019-10-09T14:00:09.000Z</time>
      </trkpt>
      <trkpt lat="44.22289" lon="2.95412">
        <ele>797</ele>
        <time>2019-10-09T14:00:10.000Z</time>
      </trkpt>
      <trkpt lat="44.22289" lon="2.95414">
        <ele>797</ele>
        <time>2019-10-09T14:00:11.000Z</time>
      </trkpt>
      <trkpt lat="44.2229" lon="2.95415">
        <ele>797</ele>
        <time>2019-10-09T14:00:12.000Z</time>
      </trkpt>
      <trkpt lat="44.22291" lon="2.95419">
        <ele>797</ele>
        <time>2019-10-09T14:00:13.000Z</time>
      </trkpt>
      <trkpt lat="44.22291" lon="2.95422">
        <ele>797</ele>
        <time>2019-10-09T14:00:14.000Z</time>
      </trkpt>
      <trkpt lat="44.22292" lon="2.95426">
        <ele>797</ele>
        <time>2019-10-09T14:00:15.000Z</time>
      </trkpt>
      <trkpt lat="44.22292" lon="2.9543">
        <ele>797</ele>
        <time>2019-10-09T14:00:16.000Z</time>
      </trkpt>
      <trkpt lat="44.22292" lon="2.95434">
        <ele>797</ele>
        <time>2019-10-09T14:00:17.000Z</time>
      </trkpt>
      <trkpt lat="44.22291" lon="2.95438">
        <ele>797</ele>
        <time>2019-10-09T14:00:18.000Z</time>
      </trkpt>
      <trkpt lat="44.2229" lon="2.95441">
        <ele>797</ele>
        <time>2019-10-09T14:00:19.000Z</time>
      </trkpt>
      <trkpt lat="44.2229" lon="2.95446">
        <ele>797</ele>
        <time>2019-10-09T14:00:20.000Z</time>
      </trkpt>
      <trkpt lat="44.22289" lon="2.9545">
        <ele>797</ele>
        <time>2019-10-09T14:00:21.000Z</time>
      </trkpt>
      <trkpt lat="44.22288" lon="2.95455">
        <ele>797</ele>
        <time>2019-10-09T14:00:22.000Z</time>
      </trkpt>
      <trkpt lat="44.22287" lon="2.9546">
        <ele>797</ele>
        <time>2019-10-09T14:00:23.000Z</time>
      </trkpt>
      <trkpt lat="44.22286" lon="2.95464">
        <ele>797</ele>
        <time>2019-10-09T14:00:24.000Z</time>
      </trkpt>
      <trkpt lat="44.22284" lon="2.95469">
        <ele>797</ele>
        <time>2019-10-09T14:00:25.000Z</time>
      </trkpt>
      <trkpt lat="44.22282" lon="2.95473">
        <ele>797</ele>
        <time>2019-10-09T14:00:26.000Z</time>
      </trkpt>
      <trkpt lat="44.2228" lon="2.95477">
        <ele>797</ele>
        <time>2019-10-09T14:00:27.000Z</time>
      </trkpt>
      <trkpt lat="44.22278" lon="2.95481">
        <ele>797</ele>
        <time>2019-10-09T14:00:28.000Z</time>
      </trkpt>
      <trkpt lat="44.22276" lon="2.95485">
        <ele>797</ele>
        <time>2019-10-09T14:00:29.000Z</time>
      </trkpt>
      <trkpt lat="44.22273" lon="2.95489">
        <ele>797</ele>
        <time>2019-10-09T14:00:30.000Z</time>
      </trkpt>
      <trkpt lat="44.22271" lon="2.95494">
        <ele>798</ele>
        <time>2019-10-09T14:00:31.000Z</time>
      </trkpt>
      <trkpt lat="44.22269" lon="2.95499">
        <ele>798</ele>
        <time>2019-10-09T14:00:32.000Z</time>
      </trkpt>
      <trkpt lat="44.22267" lon="2.95504">
        <ele>798</ele>
        <time>2019-10-09T14:00:33.000Z</time>
      </trkpt>
      <trkpt lat="44.22266" lon="2.95509">
        <ele>798</ele>
        <time>2019-10-09T14:00:34.000Z</time>
      </trkpt>
      <trkpt lat="44.22265" lon="2.95514">
        <ele>798</ele>
        <time>2019-10-09T14:00:35.000Z</time>
      </trkpt>
      <trkpt lat="44.22264" lon="2.95518">
        <ele>798</ele>
        <time>2019-10-09T14:00:36.000Z</time>
      </trkpt>
      <trkpt lat="44.22263" lon="2.95523">
        <ele>799</ele>
        <time>2019-10-09T14:00:37.000Z</time>
      </trkpt>
      <trkpt lat="44.22263" lon="2.95527">
        <ele>799</ele>
        <time>2019-10-09T14:00:38.000Z</time>
      </trkpt>
      <trkpt lat="44.22262" lon="2.95531">
        <ele>799</ele>
        <time>2019-10-09T14:00:39.000Z</time>
      </trkpt>
      <trkpt lat="44.22262" lon="2.95536">
        <ele>799</ele>
        <time>2019-10-09T14:00:40.000Z</time>
      </trkpt>
      <trkpt lat="44.22263" lon="2.9554">
        <ele>799</ele>
        <time>2019-10-09T14:00:41.000Z</time>
      </trkpt>
      <trkpt lat="44.22264" lon="2.95544">
        <ele>799</ele>
        <time>2019-10-09T14:00:42.000Z</time>
      </trkpt>
      <trkpt lat="44.22265" lon="2.95548">
        <ele>799</ele>
        <time>2019-10-09T14:00:43.000Z</time>
      </trkpt>
      <trkpt lat="44.22266" lon="2.95551">
        <ele>800</ele>
        <time>2019-10-09T14:00:44.000Z</time>
      </trkpt>
      <trkpt lat="44.22268" lon="2.95554">
        <ele>800</ele>
        <time>2019-10-09T14:00:45.000Z</time>
      </trkpt>
      <trkpt lat="44.2227" lon="2.95557">
        <ele>800</ele>
        <time>2019-10-09T14:00:46.000Z</time>
      </trkpt>
      <trkpt lat="44.22272" lon="2.95559">
        <ele>800</ele>
        <time>2019-10-09T14:00:47.000Z</time>
      </trkpt>
      <trkpt lat="44.22274" lon="2.9556">
        <ele>800</ele>
        <time>2019-10-09T14:00:48.000Z</time>
      </trkpt>
      <trkpt lat="44.22276" lon="2.95562">
        <ele>801</ele>
        <time>2019-10-09T14:00:49.000Z</time>
      </trkpt>
      <trkpt lat="44.22279" lon="2.95564">
        <ele>801</ele>
        <time>2019-10-09T14:00:50.000Z</time>
      </trkpt>
      <trkpt lat="44.22283" lon="2.95567">
        <ele>801</ele>
        <time>2019-10-09T14:00:51.000Z</time>
      </trkpt>
      <trkpt lat="44.22286" lon="2.95569">
        <ele>801</ele>
        <time>2019-10-09T14:00:52.000Z</time>
      </trkpt>
      <trkpt lat="44.2229" lon="2.95571">
        <ele>801</ele>
        <time>2019-10-09T14:00:53.000Z</time>
      </trkpt>
      <trkpt lat="44.22294" lon="2.95574">
        <ele>802</ele>
        <time>2019-10-09T14:00:54.000Z</time>
      </trkpt>
      <trkpt lat="44.22298" lon="2.95576">
        <ele>802</ele>
        <time>2019-10-09T14:00:55.000Z</time>
      </trkpt>
      <trkpt lat="44.22303" lon="2.95578">
        <ele>802</ele>
        <time>2019-10-09T14:00:56.000Z</time>
      </trkpt>
      <trkpt lat="44.22307" lon="2.9558">
        <ele>802</ele>
        <time>2019-10-09T14:00:57.000Z</time>
      </trkpt>
      <trkpt lat="44.22312" lon="2.95581">
        <ele>803</ele>
        <time>2019-10-09T14:00:58.000Z</time>
      </trkpt>
      <trkpt lat="44.22316" lon="2.95582">
        <ele>803</ele>
        <time>2019-10-09T14:00:59.000Z</time>
      </trkpt>
      <trkpt lat="44.22321" lon="2.95582">
        <ele>803</ele>
        <time>2019-10-09T14:01:00.000Z</time>
      </trkpt>
      <trkpt lat="44.22325" lon="2.95582">
        <ele>803</ele>
        <time>2019-10-09T14:01:01.000Z</time>
      </trkpt>
      <trkpt lat="44.22329" lon="2.95582">
        <ele>804</ele>
        <time>2019-10-09T14:01:02.000Z</time>
      </trkpt>
      <trkpt lat="44.22333" lon="2.95581">
        <ele>804</ele>
        <time>2019-10-09T14:01:03.000Z</time>
      </trkpt>
      <trkpt lat="44.22337" lon="2.9558">
        <ele>804</ele>
        <time>2019-10-09T14:01:04.000Z</time>
      </trkpt>
      <trkpt lat="44.22341" lon="2.95579">
        <ele>804</ele>
        <time>2019-10-09T14:01:05.000Z</time>
      </trkpt>
      <trkpt lat="44.22346" lon="2.9558">
        <ele>804</ele>
        <time>2019-10-09T14:01:06.000Z</time>
      </trkpt>
      <trkpt lat="44.2235" lon="2.95581">
        <ele>804</ele>
        <time>2019-10-09T14:01:07.000Z</time>
      </trkpt>
      <trkpt lat="44.22354" lon="2.95584">
        <ele>804</ele>
        <time>2019-10-09T14:01:08.000Z</time>
      </trkpt>
      <trkpt lat="44.22359" lon="2.95587">
        <ele>805</ele>
        <time>2019-10-09T14:01:09.000Z</time>
      </trkpt>
      <trkpt lat="44.22363" lon="2.95591">
        <ele>805</ele>
        <time>2019-10-09T14:01:10.000Z</time>
      </trkpt>
      <trkpt lat="44.22367" lon="2.95596">
        <ele>805</ele>
        <time>2019-10-09T14:01:11.000Z</time>
      </trkpt>
      <trkpt lat="44.22371" lon="2.95601">
        <ele>805</ele>
        <time>2019-10-09T14:01:12.000Z</time>
      </trkpt>
      <trkpt lat="44.22376" lon="2.95606">
        <ele>806</ele>
        <time>2019-10-09T14:01:13.000Z</time>
      </trkpt>
      <trkpt lat="44.2238" lon="2.95611">
        <ele>806</ele>
        <time>2019-10-09T14:01:14.000Z</time>
      </trkpt>
      <trkpt lat="44.22383" lon="2.95616">
        <ele>806</ele>
        <time>2019-10-09T14:01:15.000Z</time>
      </trkpt>
      <trkpt lat="44.22386" lon="2.95622">
        <ele>807</ele>
        <time>2019-10-09T14:01:16.000Z</time>
      </trkpt>
      <trkpt lat="44.2239" lon="2.95628">
        <ele>807</ele>
        <time>2019-10-09T14:01:17.000Z</time>
      </trkpt>
      <trkpt lat="44.22393" lon="2.95634">
        <ele>807</ele>
        <time>2019-10-09T14:01:18.000Z</time>
      </trkpt>
      <trkpt lat="44.22396" lon="2.9564">
        <ele>807</ele>
        <time>2019-10-09T14:01:19.000Z</time>
      </trkpt>
      <trkpt lat="44.22399" lon="2.95646">
        <ele>807</ele>
        <time>2019-10-09T14:01:20.000Z</time>
      </trkpt>
      <trkpt lat="44.22402" lon="2.95652">
        <ele>808</ele>
        <time>2019-10-09T14:01:21.000Z</time>
      </trkpt>
      <trkpt lat="44.22405" lon="2.95657">
        <ele>808</ele>
        <time>2019-10-09T14:01:22.000Z</time>
      </trkpt>
      <trkpt lat="44.22408" lon="2.95662">
        <ele>808</ele>
        <time>2019-10-09T14:01:23.000Z</time>
      </trkpt>
      <trkpt lat="44.2241" lon="2.95667">
        <ele>808</ele>
        <time>2019-10-09T14:01:24.000Z</time>
      </trkpt>
      <trkpt lat="44.22412" lon="2.95672">
        <ele>808</ele>
        <time>2019-10-09T14:01:25.000Z</time>
      </trkpt>
      <trkpt lat="44.22415" lon="2.95677">
        <ele>808</ele>
        <time>2019-10-09T14:01:26.000Z</time>
      </trkpt>
      <trkpt lat="44.22417" lon="2.95682">
        <ele>808</ele>
        <time>2019-10-09T14:01:27.000Z</time>
      </trkpt>
      <trkpt lat="44.22419" lon="2.95687">
        <ele>808</ele>
        <time>2019-10-09T14:01:28.000Z</time>
      </trkpt>
      <trkpt lat="44.22421" lon="2.95692">
        <ele>808</ele>
        <time>2019-10-09T14:01:29.000Z</time>
      </trkpt>
      <trkpt lat="44.22424" lon="2.95696">
        <ele>808</ele>
        <time>2019-10-09T14:01:30.000Z</time>
      </trkpt>
      <trkpt lat="44.22426" lon="2.957">
        <ele>808</ele>
        <time>2019-10-09T14:01:31.000Z</time>
      </trkpt>
      <trkpt lat="44.2243" lon="2.95703">
        <ele>808</ele>
        <time>2019-10-09T14:01:32.000Z</time>
      </trkpt>
      <trkpt lat="44.22433" lon="2.95707">
        <ele>808</ele>
        <time>2019-10-09T14:01:33.000Z</time>
      </trkpt>
      <trkpt lat="44.22436" lon="2.95709">
        <ele>809</ele>
        <time>2019-10-09T14:01:34.000Z</time>
      </trkpt>
      <trkpt lat="44.2244" lon="2.95712">
        <ele>809</ele>
        <time>2019-10-09T14:01:35.000Z</time>
      </trkpt>
      <trkpt lat="44.22444" lon="2.95715">
        <ele>809</ele>
        <time>2019-10-09T14:01:36.000Z</time>
      </trkpt>
      <trkpt lat="44.22447" lon="2.95718">
        <ele>809</ele>
        <time>2019-10-09T14:01:37.000Z</time>
      </trkpt>
      <trkpt lat="44.22451" lon="2.95722">
        <ele>809</ele>
        <time>2019-10-09T14:01:38.000Z</time>
      </trkpt>
      <trkpt lat="44.22455" lon="2.95725">
        <ele>809</ele>
        <time>2019-10-09T14:01:39.000Z</time>
      </trkpt>
      <trkpt lat="44.22459" lon="2.95728">
        <ele>809</ele>
        <time>2019-10-09T14:01:40.000Z</time>
      </trkpt>
      <trkpt lat="44.22464" lon="2.9573">
        <ele>809</ele>
        <time>2019-10-09T14:01:41.000Z</time>
      </trkpt>
      <trkpt lat="44.22468" lon="2.95732">
        <ele>809</ele>
        <time>2019-10-09T14:01:42.000Z</time>
      </trkpt>
      <trkpt lat="44.22473" lon="2.95734">
        <ele>808</ele>
        <time>2019-10-09T14:01:43.000Z</time>
      </trkpt>
      <trkpt lat="44.22478" lon="2.95737">
        <ele>808</ele>
        <time>2019-10-09T14:01:44.000Z</time>
      </trkpt>
      <trkpt lat="44.22484" lon="2.95739">
        <ele>808</ele>
        <time>2019-10-09T14:01:45.000Z</time>
      </trkpt>
      <trkpt lat="44.2249" lon="2.95742">
        <ele>809</ele>
        <time>2019-10-09T14:01:46.000Z</time>
      </trkpt>
      <trkpt lat="44.22496" lon="2.95745">
        <ele>809</ele>
        <time>2019-10-09T14:01:47.000Z</time>
      </trkpt>
      <trkpt lat="44.22502" lon="2.95748">
        <ele>809</ele>
        <time>2019-10-09T14:01:48.000Z</time>
      </trkpt>
      <trkpt lat="44.22508" lon="2.9575">
        <ele>809</ele>
        <time>2019-10-09T14:01:49.000Z</time>
      </trkpt>
      <trkpt lat="44.22514" lon="2.95751">
        <ele>809</ele>
        <time>2019-10-09T14:01:50.000Z</time>
      </trkpt>
      <trkpt lat="44.2252" lon="2.95753">
        <ele>809</ele>
        <time>2019-10-09T14:01:51.000Z</time>
      </trkpt>
      <trkpt lat="44.22525" lon="2.95753">
        <ele>809</ele>
        <time>2019-10-09T14:01:52.000Z</time>
      </trkpt>
      <trkpt lat="44.2253" lon="2.95754">
        <ele>809</ele>
        <time>2019-10-09T14:01:53.000Z</time>
      </trkpt>
      <trkpt lat="44.22535" lon="2.95755">
        <ele>809</ele>
        <time>2019-10-09T14:01:54.000Z</time>
      </trkpt>
      <trkpt lat="44.2254" lon="2.95757">
        <ele>809</ele>
        <time>2019-10-09T14:01:55.000Z</time>
      </trkpt>
      <trkpt lat="44.22545" lon="2.95759">
        <ele>809</ele>
        <time>2019-10-09T14:01:56.000Z</time>
      </trkpt>
      <trkpt lat="44.2255" lon="2.95761">
        <ele>809</ele>
        <time>2019-10-09T14:01:57.000Z</time>
      </trkpt>
      <trkpt lat="44.22555" lon="2.95764">
        <ele>809</ele>
        <time>2019-10-09T14:01:58.000Z</time>
      </trkpt>
      <trkpt lat="44.2256" lon="2.95767">
        <ele>809</ele>
        <time>2019-10-09T14:01:59.000Z</time>
      </trkpt>
      <trkpt lat="44.22564" lon="2.95771">
        <ele>810</ele>
        <time>2019-10-09T14:02:00.000Z</time>
      </trkpt>
      <trkpt lat="44.22568" lon="2.95774">
        <ele>810</ele>
        <time>2019-10-09T14:02:01.000Z</time>
      </trkpt>
      <trkpt lat="44.22572" lon="2.95776">
        <ele>810</ele>
        <time>2019-10-09T14:02:02.000Z</time>
      </trkpt>
      <trkpt lat="44.22576" lon="2.95777">
        <ele>810</ele>
        <time>2019-10-09T14:02:03.000Z</time>
      </trkpt>
      <trkpt lat="44.2258" lon="2.95778">
        <ele>810</ele>
        <time>2019-10-09T14:02:04.000Z</time>
      </trkpt>
      <trkpt lat="44.22585" lon="2.95778">
        <ele>811</ele>
        <time>2019-10-09T14:02:05.000Z</time>
      </trkpt>
      <trkpt lat="44.22591" lon="2.95779">
        <ele>811</ele>
        <time>2019-10-09T14:02:06.000Z</time>
      </trkpt>
      <trkpt lat="44.22596" lon="2.9578">
        <ele>811</ele>
        <time>2019-10-09T14:02:07.000Z</time>
      </trkpt>
      <trkpt lat="44.22601" lon="2.9578">
        <ele>812</ele>
        <time>2019-10-09T14:02:08.000Z</time>
      </trkpt>
      <trkpt lat="44.22606" lon="2.95781">
        <ele>812</ele>
        <time>2019-10-09T14:02:09.000Z</time>
      </trkpt>
      <trkpt lat="44.22611" lon="2.95781">
        <ele>812</ele>
        <time>2019-10-09T14:02:10.000Z</time>
      </trkpt>
      <trkpt lat="44.22616" lon="2.95782">
        <ele>813</ele>
        <time>2019-10-09T14:02:11.000Z</time>
      </trkpt>
      <trkpt lat="44.2262" lon="2.95783">
        <ele>813</ele>
        <time>2019-10-09T14:02:12.000Z</time>
      </trkpt>
      <trkpt lat="44.22625" lon="2.95785">
        <ele>814</ele>
        <time>2019-10-09T14:02:13.000Z</time>
      </trkpt>
      <trkpt lat="44.2263" lon="2.95787">
        <ele>814</ele>
        <time>2019-10-09T14:02:14.000Z</time>
      </trkpt>
      <trkpt lat="44.22634" lon="2.95789">
        <ele>815</ele>
        <time>2019-10-09T14:02:15.000Z</time>
      </trkpt>
      <trkpt lat="44.22639" lon="2.9579">
        <ele>815</ele>
        <time>2019-10-09T14:02:16.000Z</time>
      </trkpt>
      <trkpt lat="44.22644" lon="2.95792">
        <ele>816</ele>
        <time>2019-10-09T14:02:17.000Z</time>
      </trkpt>
      <trkpt lat="44.22648" lon="2.95794">
        <ele>816</ele>
        <time>2019-10-09T14:02:18.000Z</time>
      </trkpt>
      <trkpt lat="44.22653" lon="2.95796">
        <ele>817</ele>
        <time>2019-10-09T14:02:19.000Z</time>
      </trkpt>
      <trkpt lat="44.22656" lon="2.95798">
        <ele>818</ele>
        <time>2019-10-09T14:02:20.000Z</time>
      </trkpt>
      <trkpt lat="44.22659" lon="2.95801">
        <ele>818</ele>
        <time>2019-10-09T14:02:21.000Z</time>
      </trkpt>
      <trkpt lat="44.22661" lon="2.95805">
        <ele>819</ele>
        <time>2019-10-09T14:02:22.000Z</time>
      </trkpt>
      <trkpt lat="44.22662" lon="2.95808">
        <ele>819</ele>
        <time>2019-10-09T14:02:23.000Z</time>
      </trkpt>
      <trkpt lat="44.22662" lon="2.95811">
        <ele>819</ele>
        <time>2019-10-09T14:02:24.000Z</time>
      </trkpt>
      <trkpt lat="44.22662" lon="2.95813">
        <ele>820</ele>
        <time>2019-10-09T14:02:25.000Z</time>
      </trkpt>
      <trkpt lat="44.2266" lon="2.95815">
        <ele>820</ele>
        <time>2019-10-09T14:02:26.000Z</time>
      </trkpt>
      <trkpt lat="44.22658" lon="2.95816">
        <ele>821</ele>
        <time>2019-10-09T14:02:27.000Z</time>
      </trkpt>
      <trkpt lat="44.22657" lon="2.95817">
        <ele>821</ele>
        <time>2019-10-09T14:02:28.000Z</time>
      </trkpt>
      <trkpt lat="44.22656" lon="2.95817">
        <ele>821</ele>
        <time>2019-10-09T14:02:29.000Z</time>
      </trkpt>
      <trkpt lat="44.22655" lon="2.95818">
        <ele>822</ele>
        <time>2019-10-09T14:02:30.000Z</time>
      </trkpt>
      <trkpt lat="44.22654" lon="2.9582">
        <ele>822</ele>
        <time>2019-10-09T14:02:31.000Z</time>
      </trkpt>
      <trkpt lat="44.22653" lon="2.95821">
        <ele>822</ele>
        <time>2019-10-09T14:02:32.000Z</time>
      </trkpt>
      <trkpt lat="44.22652" lon="2.95822">
        <ele>822</ele>
        <time>2019-10-09T14:02:33.000Z</time>
      </trkpt>
      <trkpt lat="44.22651" lon="2.95823">
        <ele>822</ele>
        <time>2019-10-09T14:02:34.000Z</time>
      </trkpt>
      <trkpt lat="44.2265" lon="2.95824">
        <ele>823</ele>
        <time>2019-10-09T14:02:35.000Z</time>
      </trkpt>
      <trkpt lat="44.22648" lon="2.95825">
        <ele>823</ele>
        <time>2019-10-09T14:02:36.000Z</time>
      </trkpt>
      <trkpt lat="44.22647" lon="2.95826">
        <ele>823</ele>
        <time>2019-10-09T14:02:37.000Z</time>
      </trkpt>
      <trkpt lat="44.22646" lon="2.95827">
        <ele>824</ele>
        <time>2019-10-09T14:02:38.000Z</time>
      </trkpt>
      <trkpt lat="44.22645" lon="2.95828">
        <ele>824</ele>
        <time>2019-10-09T14:02:39.000Z</time>
      </trkpt>
      <trkpt lat="44.22644" lon="2.95829">
        <ele>824</ele>
        <time>2019-10-09T14:02:40.000Z</time>
      </trkpt>
      <trkpt lat="44.22643" lon="2.9583">
        <ele>825</ele>
        <time>2019-10-09T14:02:41.000Z</time>
      </trkpt>
      <trkpt lat="44.22642" lon="2.95831">
        <ele>825</ele>
        <time>2019-10-09T14:02:42.000Z</time>
      </trkpt>
      <trkpt lat="44.2264" lon="2.95833">
        <ele>825</ele>
        <time>2019-10-09T14:02:43.000Z</time>
      </trkpt>
      <trkpt lat="44.22638" lon="2.95835">
        <ele>825</ele>
        <time>2019-10-09T14:02:44.000Z</time>
      </trkpt>
      <trkpt lat="44.22635" lon="2.95837">
        <ele>825</ele>
        <time>2019-10-09T14:02:45.000Z</time>
      </trkpt>
      <trkpt lat="44.22632" lon="2.95839">
        <ele>825</ele>
        <time>2019-10-09T14:02:46.000Z</time>
      </trkpt>
      <trkpt lat="44.22628" lon="2.95842">
        <ele>825</ele>
        <time>2019-10-09T14:02:47.000Z</time>
      </trkpt>
      <trkpt lat="44.22623" lon="2.95844">
        <ele>825</ele>
        <time>2019-10-09T14:02:48.000Z</time>
      </trkpt>
      <trkpt lat="44.22617" lon="2.95845">
        <ele>825</ele>
        <time>2019-10-09T14:02:49.000Z</time>
      </trkpt>
      <trkpt lat="44.22611" lon="2.95846">
        <ele>825</ele>
        <time>2019-10-09T14:02:50.000Z</time>
      </trkpt>
      <trkpt lat="44.22604" lon="2.95845">
        <ele>825</ele>
        <time>2019-10-09T14:02:51.000Z</time>
      </trkpt>
      <trkpt lat="44.22597" lon="2.95844">
        <ele>825</ele>
        <time>2019-10-09T14:02:52.000Z</time>
      </trkpt>
      <trkpt lat="44.22591" lon="2.95843">
        <ele>826</ele>
        <time>2019-10-09T14:02:53.000Z</time>
      </trkpt>
      <trkpt lat="44.22584" lon="2.95843">
        <ele>826</ele>
        <time>2019-10-09T14:02:54.000Z</time>
      </trkpt>
      <trkpt lat="44.22577" lon="2.95844">
        <ele>826</ele>
        <time>2019-10-09T14:02:55.000Z</time>
      </trkpt>
      <trkpt lat="44.2257" lon="2.95845">
        <ele>826</ele>
        <time>2019-10-09T14:02:56.000Z</time>
      </trkpt>
      <trkpt lat="44.22563" lon="2.95847">
        <ele>826</ele>
        <time>2019-10-09T14:02:57.000Z</time>
      </trkpt>
      <trkpt lat="44.22556" lon="2.9585">
        <ele>827</ele>
        <time>2019-10-09T14:02:58.000Z</time>
      </trkpt>
      <trkpt lat="44.22549" lon="2.95852">
        <ele>827</ele>
        <time>2019-10-09T14:02:59.000Z</time>
      </trkpt>
      <trkpt lat="44.22542" lon="2.95855">
        <ele>827</ele>
        <time>2019-10-09T14:03:00.000Z</time>
      </trkpt>
      <trkpt lat="44.22535" lon="2.95857">
        <ele>827</ele>
        <time>2019-10-09T14:03:01.000Z</time>
      </trkpt>
      <trkpt lat="44.22527" lon="2.9586">
        <ele>827</ele>
        <time>2019-10-09T14:03:02.000Z</time>
      </trkpt>
      <trkpt lat="44.2252" lon="2.95862">
        <ele>828</ele>
        <time>2019-10-09T14:03:03.000Z</time>
      </trkpt>
      <trkpt lat="44.22513" lon="2.95865">
        <ele>828</ele>
        <time>2019-10-09T14:03:04.000Z</time>
      </trkpt>
      <trkpt lat="44.22506" lon="2.95868">
        <ele>828</ele>
        <time>2019-10-09T14:03:05.000Z</time>
      </trkpt>
      <trkpt lat="44.22498" lon="2.9587">
        <ele>828</ele>
        <time>2019-10-09T14:03:06.000Z</time>
      </trkpt>
      <trkpt lat="44.22491" lon="2.95871">
        <ele>828</ele>
        <time>2019-10-09T14:03:07.000Z</time>
      </trkpt>
      <trkpt lat="44.22484" lon="2.95873">
        <ele>829</ele>
        <time>2019-10-09T14:03:08.000Z</time>
      </trkpt>
      <trkpt lat="44.22476" lon="2.95875">
        <ele>829</ele>
        <time>2019-10-09T14:03:09.000Z</time>
      </trkpt>
      <trkpt lat="44.22469" lon="2.95877">
        <ele>829</ele>
        <time>2019-10-09T14:03:10.000Z</time>
      </trkpt>
      <trkpt lat="44.22463" lon="2.9588">
        <ele>830</ele>
        <time>2019-10-09T14:03:11.000Z</time>
      </trkpt>
      <trkpt lat="44.22456" lon="2.95883">
        <ele>830</ele>
        <time>2019-10-09T14:03:12.000Z</time>
      </trkpt>
      <trkpt lat="44.2245" lon="2.95885">
        <ele>830</ele>
        <time>2019-10-09T14:03:13.000Z</time>
      </trkpt>
      <trkpt lat="44.22443" lon="2.95887">
        <ele>831</ele>
        <time>2019-10-09T14:03:14.000Z</time>
      </trkpt>
      <trkpt lat="44.22437" lon="2.95889">
        <ele>831</ele>
        <time>2019-10-09T14:03:15.000Z</time>
      </trkpt>
      <trkpt lat="44.22431" lon="2.95891">
        <ele>832</ele>
        <time>2019-10-09T14:03:16.000Z</time>
      </trkpt>
      <trkpt lat="44.22425" lon="2.95894">
        <ele>832</ele>
        <time>2019-10-09T14:03:17.000Z</time>
      </trkpt>
      <trkpt lat="44.2242" lon="2.95895">
        <ele>833</ele>
        <time>2019-10-09T14:03:18.000Z</time>
      </trkpt>
      <trkpt lat="44.22415" lon="2.95897">
        <ele>833</ele>
        <time>2019-10-09T14:03:19.000Z</time>
      </trkpt>
      <trkpt lat="44.2241" lon="2.95898">
        <ele>834</ele>
        <time>2019-10-09T14:03:20.000Z</time>
      </trkpt>
      <trkpt lat="44.22406" lon="2.95899">
        <ele>834</ele>
        <time>2019-10-09T14:03:21.000Z</time>
      </trkpt>
      <trkpt lat="44.22402" lon="2.959">
        <ele>834</ele>
        <time>2019-10-09T14:03:22.000Z</time>
      </trkpt>
      <trkpt lat="44.22398" lon="2.95902">
        <ele>835</ele>
        <time>2019-10-09T14:03:23.000Z</time>
      </trkpt>
      <trkpt lat="44.22396" lon="2.95902">
        <ele>835</ele>
        <time>2019-10-09T14:03:24.000Z</time>
      </trkpt>
      <trkpt lat="44.22395" lon="2.95903">
        <ele>835</ele>
        <time>2019-10-09T14:03:25.000Z</time>
      </trkpt>
      <trkpt lat="44.22393" lon="2.95903">
        <ele>836</ele>
        <time>2019-10-09T14:03:26.000Z</time>
      </trkpt>
      <trkpt lat="44.22392" lon="2.95904">
        <ele>836</ele>
        <time>2019-10-09T14:03:27.000Z</time>
      </trkpt>
      <trkpt lat="44.2239" lon="2.95904">
        <ele>836</ele>
        <time>2019-10-09T14:03:28.000Z</time>
      </trkpt>
      <trkpt lat="44.22388" lon="2.95905">
        <ele>836</ele>
        <time>2019-10-09T14:03:29.000Z</time>
      </trkpt>
      <trkpt lat="44.22387" lon="2.95905">
        <ele>837</ele>
        <time>2019-10-09T14:03:30.000Z</time>
      </trkpt>
      <trkpt lat="44.22385" lon="2.95906">
        <ele>837</ele>
        <time>2019-10-09T14:03:31.000Z</time>
      </trkpt>
      <trkpt lat="44.22384" lon="2.95907">
        <ele>837</ele>
        <time>2019-10-09T14:03:32.000Z</time>
      </trkpt>
      <trkpt lat="44.22383" lon="2.95907">
        <ele>837</ele>
        <time>2019-10-09T14:03:33.000Z</time>
      </trkpt>
      <trkpt lat="44.22381" lon="2.95908">
        <ele>837</ele>
        <time>2019-10-09T14:03:34.000Z</time>
      </trkpt>
      <trkpt lat="44.2238" lon="2.95908">
        <ele>837</ele>
        <time>2019-10-09T14:03:35.000Z</time>
      </trkpt>
      <trkpt lat="44.22378" lon="2.95909">
        <ele>838</ele>
        <time>2019-10-09T14:03:36.000Z</time>
      </trkpt>
      <trkpt lat="44.22377" lon="2.9591">
        <ele>838</ele>
        <time>2019-10-09T14:03:37.000Z</time>
      </trkpt>
      <trkpt lat="44.22376" lon="2.95911">
        <ele>838</ele>
        <time>2019-10-09T14:03:38.000Z</time>
      </trkpt>
      <trkpt lat="44.22375" lon="2.95912">
        <ele>838</ele>
        <time>2019-10-09T14:03:39.000Z</time>
      </trkpt>
      <trkpt lat="44.22374" lon="2.95913">
        <ele>838</ele>
        <time>2019-10-09T14:03:40.000Z</time>
      </trkpt>
      <trkpt lat="44.22373" lon="2.95914">
        <ele>839</ele>
        <time>2019-10-09T14:03:41.000Z</time>
      </trkpt>
      <trkpt lat="44.22371" lon="2.95915">
        <ele>839</ele>
        <time>2019-10-09T14:03:42.000Z</time>
      </trkpt>
      <trkpt lat="44.2237" lon="2.95916">
        <ele>839</ele>
        <time>2019-10-09T14:03:43.000Z</time>
      </trkpt>
      <trkpt lat="44.22369" lon="2.95917">
        <ele>839</ele>
        <time>2019-10-09T14:03:44.000Z</time>
      </trkpt>
      <trkpt lat="44.22368" lon="2.95918">
        <ele>839</ele>
        <time>2019-10-09T14:03:45.000Z</time>
      </trkpt>
      <trkpt lat="44.22367" lon="2.9592">
        <ele>840</ele>
        <time>2019-10-09T14:03:46.000Z</time>
      </trkpt>
      <trkpt lat="44.22366" lon="2.95921">
        <ele>840</ele>
        <time>2019-10-09T14:03:47.000Z</time>
      </trkpt>
      <trkpt lat="44.22364" lon="2.95922">
        <ele>840</ele>
        <time>2019-10-09T14:03:48.000Z</time>
      </trkpt>
      <trkpt lat="44.22363" lon="2.95924">
        <ele>840</ele>
        <time>2019-10-09T14:03:49.000Z</time>
      </trkpt>
      <trkpt lat="44.22362" lon="2.95925">
        <ele>841</ele>
        <time>2019-10-09T14:03:50.000Z</time>
      </trkpt>
      <trkpt lat="44.22362" lon="2.95927">
        <ele>841</ele>
        <time>2019-10-09T14:03:51.000Z</time>
      </trkpt>
      <trkpt lat="44.22361" lon="2.95929">
        <ele>841</ele>
        <time>2019-10-09T14:03:52.000Z</time>
      </trkpt>
      <trkpt lat="44.2236" lon="2.95931">
        <ele>841</ele>
        <time>2019-10-09T14:03:53.000Z</time>
      </trkpt>
      <trkpt lat="44.22359" lon="2.95933">
        <ele>841</ele>
        <time>2019-10-09T14:03:54.000Z</time>
      </trkpt>
      <trkpt lat="44.22359" lon="2.95934">
        <ele>842</ele>
        <time>2019-10-09T14:03:55.000Z</time>
      </trkpt>
      <trkpt lat="44.22358" lon="2.95936">
        <ele>842</ele>
        <time>2019-10-09T14:03:56.000Z</time>
      </trkpt>
      <trkpt lat="44.22357" lon="2.95939">
        <ele>842</ele>
        <time>2019-10-09T14:03:57.000Z</time>
      </trkpt>
      <trkpt lat="44.22357" lon="2.95941">
        <ele>842</ele>
        <time>2019-10-09T14:03:58.000Z</time>
      </trkpt>
      <trkpt lat="44.22356" lon="2.95943">
        <ele>842</ele>
        <time>2019-10-09T14:03:59.000Z</time>
      </trkpt>
      <trkpt lat="44.22356" lon="2.95946">
        <ele>843</ele>
        <time>2019-10-09T14:04:00.000Z</time>
      </trkpt>
      <trkpt lat="44.22355" lon="2.9595">
        <ele>843</ele>
        <time>2019-10-09T14:04:01.000Z</time>
      </trkpt>
      <trkpt lat="44.22355" lon="2.95955">
        <ele>843</ele>
        <time>2019-10-09T14:04:02.000Z</time>
      </trkpt>
      <trkpt lat="44.22355" lon="2.9596">
        <ele>843</ele>
        <time>2019-10-09T14:04:03.000Z</time>
      </trkpt>
      <trkpt lat="44.22357" lon="2.95966">
        <ele>843</ele>
        <time>2019-10-09T14:04:04.000Z</time>
      </trkpt>
      <trkpt lat="44.22359" lon="2.95971">
        <ele>843</ele>
        <time>2019-10-09T14:04:05.000Z</time>
      </trkpt>
      <trkpt lat="44.22361" lon="2.95976">
        <ele>843</ele>
        <time>2019-10-09T14:04:06.000Z</time>
      </trkpt>
      <trkpt lat="44.22364" lon="2.95981">
        <ele>843</ele>
        <time>2019-10-09T14:04:07.000Z</time>
      </trkpt>
      <trkpt lat="44.22368" lon="2.95986">
        <ele>843</ele>
        <time>2019-10-09T14:04:08.000Z</time>
      </trkpt>
      <trkpt lat="44.22371" lon="2.95991">
        <ele>843</ele>
        <time>2019-10-09T14:04:09.000Z</time>
      </trkpt>
      <trkpt lat="44.22375" lon="2.95995">
        <ele>843</ele>
        <time>2019-10-09T14:04:10.000Z</time>
      </trkpt>
      <trkpt lat="44.22379" lon="2.95999">
        <ele>844</ele>
        <time>2019-10-09T14:04:11.000Z</time>
      </trkpt>
      <trkpt lat="44.22384" lon="2.96002">
        <ele>844</ele>
        <time>2019-10-09T14:04:12.000Z</time>
      </trkpt>
      <trkpt lat="44.22388" lon="2.96006">
        <ele>844</ele>
        <time>2019-10-09T14:04:13.000Z</time>
      </trkpt>
      <trkpt lat="44.22392" lon="2.96011">
        <ele>844</ele>
        <time>2019-10-09T14:04:14.000Z</time>
      </trkpt>
      <trkpt lat="44.22396" lon="2.96016">
        <ele>844</ele>
        <time>2019-10-09T14:04:15.000Z</time>
      </trkpt>
      <trkpt lat="44.224" lon="2.96022">
        <ele>844</ele>
        <time>2019-10-09T14:04:16.000Z</time>
      </trkpt>
      <trkpt lat="44.22402" lon="2.96028">
        <ele>844</ele>
        <time>2019-10-09T14:04:17.000Z</time>
      </trkpt>
      <trkpt lat="44.22405" lon="2.96034">
        <ele>844</ele>
        <time>2019-10-09T14:04:18.000Z</time>
      </trkpt>
      <trkpt lat="44.22407" lon="2.9604">
        <ele>844</ele>
        <time>2019-10-09T14:04:19.000Z</time>
      </trkpt>
      <trkpt lat="44.22408" lon="2.96045">
        <ele>844</ele>
        <time>2019-10-09T14:04:20.000Z</time>
      </trkpt>
      <trkpt lat="44.2241" lon="2.96051">
        <ele>844</ele>
        <time>2019-10-09T14:04:21.000Z</time>
      </trkpt>
      <trkpt lat="44.2241" lon="2.96056">
        <ele>844</ele>
        <time>2019-10-09T14:04:22.000Z</time>
      </trkpt>
      <trkpt lat="44.22411" lon="2.9606">
        <ele>844</ele>
        <time>2019-10-09T14:04:23.000Z</time>
      </trkpt>
      <trkpt lat="44.22412" lon="2.96065">
        <ele>844</ele>
        <time>2019-10-09T14:04:24.000Z</time>
      </trkpt>
      <trkpt lat="44.22412" lon="2.96069">
        <ele>844</ele>
        <time>2019-10-09T14:04:25.000Z</time>
      </trkpt>
      <trkpt lat="44.22412" lon="2.96073">
        <ele>844</ele>
        <time>2019-10-09T14:04:26.000Z</time>
      </trkpt>
      <trkpt lat="44.22413" lon="2.96076">
        <ele>844</ele>
        <time>2019-10-09T14:04:27.000Z</time>
      </trkpt>
      <trkpt lat="44.22414" lon="2.96078">
        <ele>844</ele>
        <time>2019-10-09T14:04:28.000Z</time>
      </trkpt>
      <trkpt lat="44.22415" lon="2.9608">
        <ele>844</ele>
        <time>2019-10-09T14:04:29.000Z</time>
      </trkpt>
      <trkpt lat="44.22415" lon="2.96082">
        <ele>845</ele>
        <time>2019-10-09T14:04:30.000Z</time>
      </trkpt>
      <trkpt lat="44.22416" lon="2.96083">
        <ele>845</ele>
        <time>2019-10-09T14:04:31.000Z</time>
      </trkpt>
      <trkpt lat="44.22416" lon="2.96085">
        <ele>845</ele>
        <time>2019-10-09T14:04:32.000Z</time>
      </trkpt>
      <trkpt lat="44.22417" lon="2.96086">
        <ele>845</ele>
        <time>2019-10-09T14:04:33.000Z</time>
      </trkpt>
      <trkpt lat="44.22417" lon="2.96088">
        <ele>845</ele>
        <time>2019-10-09T14:04:34.000Z</time>
      </trkpt>
      <trkpt lat="44.22417" lon="2.96091">
        <ele>845</ele>
        <time>2019-10-09T14:04:35.000Z</time>
      </trkpt>
      <trkpt lat="44.22418" lon="2.96096">
        <ele>845</ele>
        <time>2019-10-09T14:04:36.000Z</time>
      </trkpt>
      <trkpt lat="44.22417" lon="2.96101">
        <ele>845</ele>
        <time>2019-10-09T14:04:37.000Z</time>
      </trkpt>
      <trkpt lat="44.22417" lon="2.96106">
        <ele>845</ele>
        <time>2019-10-09T14:04:38.000Z</time>
      </trkpt>
      <trkpt lat="44.22416" lon="2.96112">
        <ele>845</ele>
        <time>2019-10-09T14:04:39.000Z</time>
      </trkpt>
      <trkpt lat="44.22416" lon="2.96118">
        <ele>845</ele>
        <time>2019-10-09T14:04:40.000Z</time>
      </trkpt>
      <trkpt lat="44.22416" lon="2.96124">
        <ele>845</ele>
        <time>2019-10-09T14:04:41.000Z</time>
      </trkpt>
      <trkpt lat="44.22415" lon="2.96129">
        <ele>845</ele>
        <time>2019-10-09T14:04:42.000Z</time>
      </trkpt>
      <trkpt lat="44.22415" lon="2.96135">
        <ele>845</ele>
        <time>2019-10-09T14:04:43.000Z</time>
      </trkpt>
      <trkpt lat="44.22415" lon="2.9614">
        <ele>845</ele>
        <time>2019-10-09T14:04:44.000Z</time>
      </trkpt>
      <trkpt lat="44.22416" lon="2.96146">
        <ele>845</ele>
        <time>2019-10-09T14:04:45.000Z</time>
      </trkpt>
      <trkpt lat="44.22416" lon="2.96152">
        <ele>845</ele>
        <time>2019-10-09T14:04:46.000Z</time>
      </trkpt>
      <trkpt lat="44.22418" lon="2.96157">
        <ele>845</ele>
        <time>2019-10-09T14:04:47.000Z</time>
      </trkpt>
      <trkpt lat="44.22419" lon="2.96162">
        <ele>845</ele>
        <time>2019-10-09T14:04:48.000Z</time>
      </trkpt>
      <trkpt lat="44.22422" lon="2.96167">
        <ele>846</ele>
        <time>2019-10-09T14:04:49.000Z</time>
      </trkpt>
      <trkpt lat="44.22425" lon="2.96171">
        <ele>846</ele>
        <time>2019-10-09T14:04:50.000Z</time>
      </trkpt>
      <trkpt lat="44.22428" lon="2.96174">
        <ele>846</ele>
        <time>2019-10-09T14:04:51.000Z</time>
      </trkpt>
      <trkpt lat="44.22432" lon="2.96177">
        <ele>846</ele>
        <time>2019-10-09T14:04:52.000Z</time>
      </trkpt>
      <trkpt lat="44.22436" lon="2.9618">
        <ele>846</ele>
        <time>2019-10-09T14:04:53.000Z</time>
      </trkpt>
      <trkpt lat="44.2244" lon="2.96183">
        <ele>846</ele>
        <time>2019-10-09T14:04:54.000Z</time>
      </trkpt>
      <trkpt lat="44.22443" lon="2.96185">
        <ele>846</ele>
        <time>2019-10-09T14:04:55.000Z</time>
      </trkpt>
      <trkpt lat="44.22447" lon="2.96187">
        <ele>846</ele>
        <time>2019-10-09T14:04:56.000Z</time>
      </trkpt>
      <trkpt lat="44.22451" lon="2.96189">
        <ele>846</ele>
        <time>2019-10-09T14:04:57.000Z</time>
      </trkpt>
      <trkpt lat="44.22456" lon="2.96189">
        <ele>846</ele>
        <time>2019-10-09T14:04:58.000Z</time>
      </trkpt>
      <trkpt lat="44.2246" lon="2.96189">
        <ele>846</ele>
        <time>2019-10-09T14:04:59.000Z</time>
      </trkpt>
      <trkpt lat="44.22464" lon="2.96188">
        <ele>847</ele>
        <time>2019-10-09T14:05:00.000Z</time>
      </trkpt>
      <trkpt lat="44.22468" lon="2.96186">
        <ele>847</ele>
        <time>2019-10-09T14:05:01.000Z</time>
      </trkpt>
      <trkpt lat="44.22472" lon="2.96184">
        <ele>847</ele>
        <time>2019-10-09T14:05:02.000Z</time>
      </trkpt>
      <trkpt lat="44.22476" lon="2.9618">
        <ele>847</ele>
        <time>2019-10-09T14:05:03.000Z</time>
      </trkpt>
      <trkpt lat="44.22479" lon="2.96177">
        <ele>847</ele>
        <time>2019-10-09T14:05:04.000Z</time>
      </trkpt>
      <trkpt lat="44.22483" lon="2.96174">
        <ele>847</ele>
        <time>2019-10-09T14:05:05.000Z</time>
      </trkpt>
      <trkpt lat="44.22486" lon="2.96172">
        <ele>847</ele>
        <time>2019-10-09T14:05:06.000Z</time>
      </trkpt>
      <trkpt lat="44.22488" lon="2.9617">
        <ele>847</ele>
        <time>2019-10-09T14:05:07.000Z</time>
      </trkpt>
      <trkpt lat="44.22489" lon="2.96168">
        <ele>847</ele>
        <time>2019-10-09T14:05:08.000Z</time>
      </trkpt>
      <trkpt lat="44.2249" lon="2.96167">
        <ele>847</ele>
        <time>2019-10-09T14:05:09.000Z</time>
      </trkpt>
      <trkpt lat="44.2249" lon="2.96165">
        <ele>847</ele>
        <time>2019-10-09T14:05:10.000Z</time>
      </trkpt>
      <trkpt lat="44.22491" lon="2.96163">
        <ele>847</ele>
        <time>2019-10-09T14:05:11.000Z</time>
      </trkpt>
      <trkpt lat="44.22491" lon="2.96162">
        <ele>847</ele>
        <time>2019-10-09T14:05:12.000Z</time>
      </trkpt>
      <trkpt lat="44.22491" lon="2.9616">
        <ele>848</ele>
        <time>2019-10-09T14:05:13.000Z</time>
      </trkpt>
      <trkpt lat="44.22491" lon="2.96158">
        <ele>848</ele>
        <time>2019-10-09T14:05:14.000Z</time>
      </trkpt>
      <trkpt lat="44.22492" lon="2.96156">
        <ele>848</ele>
        <time>2019-10-09T14:05:15.000Z</time>
      </trkpt>
      <trkpt lat="44.22492" lon="2.96154">
        <ele>848</ele>
        <time>2019-10-09T14:05:16.000Z</time>
      </trkpt>
      <trkpt lat="44.22492" lon="2.96153">
        <ele>848</ele>
        <time>2019-10-09T14:05:17.000Z</time>
      </trkpt>
      <trkpt lat="44.22493" lon="2.96151">
        <ele>848</ele>
        <time>2019-10-09T14:05:18.000Z</time>
      </trkpt>
      <trkpt lat="44.22493" lon="2.96149">
        <ele>848</ele>
        <time>2019-10-09T14:05:19.000Z</time>
      </trkpt>
      <trkpt lat="44.22493" lon="2.96147">
        <ele>848</ele>
        <time>2019-10-09T14:05:20.000Z</time>
      </trkpt>
      <trkpt lat="44.22493" lon="2.96146">
        <ele>849</ele>
        <time>2019-10-09T14:05:21.000Z</time>
      </trkpt>
      <trkpt lat="44.22493" lon="2.96144">
        <ele>849</ele>
        <time>2019-10-09T14:05:22.000Z</time>
      </trkpt>
      <trkpt lat="44.22494" lon="2.96142">
        <ele>849</ele>
        <time>2019-10-09T14:05:23.000Z</time>
      </trkpt>
      <trkpt lat="44.22494" lon="2.9614">
        <ele>849</ele>
        <time>2019-10-09T14:05:24.000Z</time>
      </trkpt>
      <trkpt lat="44.22495" lon="2.96138">
        <ele>849</ele>
        <time>2019-10-09T14:05:25.000Z</time>
      </trkpt>
      <trkpt lat="44.22496" lon="2.96137">
        <ele>849</ele>
        <time>2019-10-09T14:05:26.000Z</time>
      </trkpt>
      <trkpt lat="44.22497" lon="2.96136">
        <ele>849</ele>
        <time>2019-10-09T14:05:27.000Z</time>
      </trkpt>
      <trkpt lat="44.22498" lon="2.96134">
        <ele>849</ele>
        <time>2019-10-09T14:05:28.000Z</time>
      </trkpt>
      <trkpt lat="44.22499" lon="2.96133">
        <ele>850</ele>
        <time>2019-10-09T14:05:29.000Z</time>
      </trkpt>
      <trkpt lat="44.22501" lon="2.96132">
        <ele>850</ele>
        <time>2019-10-09T14:05:30.000Z</time>
      </trkpt>
      <trkpt lat="44.22502" lon="2.96132">
        <ele>850</ele>
        <time>2019-10-09T14:05:31.000Z</time>
      </trkpt>
      <trkpt lat="44.22503" lon="2.96131">
        <ele>850</ele>
        <time>2019-10-09T14:05:32.000Z</time>
      </trkpt>
      <trkpt lat="44.22504" lon="2.9613">
        <ele>850</ele>
        <time>2019-10-09T14:05:33.000Z</time>
      </trkpt>
      <trkpt lat="44.22505" lon="2.96129">
        <ele>850</ele>
        <time>2019-10-09T14:05:34.000Z</time>
      </trkpt>
      <trkpt lat="44.22506" lon="2.96128">
        <ele>850</ele>
        <time>2019-10-09T14:05:35.000Z</time>
      </trkpt>
      <trkpt lat="44.22508" lon="2.96127">
        <ele>850</ele>
        <time>2019-10-09T14:05:36.000Z</time>
      </trkpt>
      <trkpt lat="44.22509" lon="2.96126">
        <ele>851</ele>
        <time>2019-10-09T14:05:37.000Z</time>
      </trkpt>
      <trkpt lat="44.2251" lon="2.96125">
        <ele>851</ele>
        <time>2019-10-09T14:05:38.000Z</time>
      </trkpt>
      <trkpt lat="44.22511" lon="2.96125">
        <ele>851</ele>
        <time>2019-10-09T14:05:39.000Z</time>
      </trkpt>
      <trkpt lat="44.22513" lon="2.96124">
        <ele>851</ele>
        <time>2019-10-09T14:05:40.000Z</time>
      </trkpt>
      <trkpt lat="44.22514" lon="2.96123">
        <ele>851</ele>
        <time>2019-10-09T14:05:41.000Z</time>
      </trkpt>
      <trkpt lat="44.22515" lon="2.96122">
        <ele>851</ele>
        <time>2019-10-09T14:05:42.000Z</time>
      </trkpt>
      <trkpt lat="44.22516" lon="2.96121">
        <ele>851</ele>
        <time>2019-10-09T14:05:43.000Z</time>
      </trkpt>
      <trkpt lat="44.22518" lon="2.96121">
        <ele>851</ele>
        <time>2019-10-09T14:05:44.000Z</time>
      </trkpt>
      <trkpt lat="44.22519" lon="2.9612">
        <ele>851</ele>
        <time>2019-10-09T14:05:45.000Z</time>
      </trkpt>
      <trkpt lat="44.2252" lon="2.96119">
        <ele>851</ele>
        <time>2019-10-09T14:05:46.000Z</time>
      </trkpt>
      <trkpt lat="44.22522" lon="2.96118">
        <ele>851</ele>
        <time>2019-10-09T14:05:47.000Z</time>
      </trkpt>
      <trkpt lat="44.22523" lon="2.96117">
        <ele>851</ele>
        <time>2019-10-09T14:05:48.000Z</time>
      </trkpt>
      <trkpt lat="44.22524" lon="2.96116">
        <ele>851</ele>
        <time>2019-10-09T14:05:49.000Z</time>
      </trkpt>
      <trkpt lat="44.22525" lon="2.96115">
        <ele>852</ele>
        <time>2019-10-09T14:05:50.000Z</time>
      </trkpt>
      <trkpt lat="44.22526" lon="2.96113">
        <ele>852</ele>
        <time>2019-10-09T14:05:51.000Z</time>
      </trkpt>
      <trkpt lat="44.22527" lon="2.96112">
        <ele>852</ele>
        <time>2019-10-09T14:05:52.000Z</time>
      </trkpt>
      <trkpt lat="44.22528" lon="2.96111">
        <ele>852</ele>
        <time>2019-10-09T14:05:53.000Z</time>
      </trkpt>
      <trkpt lat="44.22529" lon="2.9611">
        <ele>852</ele>
        <time>2019-10-09T14:05:54.000Z</time>
      </trkpt>
      <trkpt lat="44.2253" lon="2.96108">
        <ele>852</ele>
        <time>2019-10-09T14:05:55.000Z</time>
      </trkpt>
      <trkpt lat="44.22531" lon="2.96107">
        <ele>852</ele>
        <time>2019-10-09T14:05:56.000Z</time>
      </trkpt>
      <trkpt lat="44.22532" lon="2.96106">
        <ele>852</ele>
        <time>2019-10-09T14:05:57.000Z</time>
      </trkpt>
      <trkpt lat="44.22533" lon="2.96106">
        <ele>852</ele>
        <time>2019-10-09T14:05:58.000Z</time>
      </trkpt>
      <trkpt lat="44.22535" lon="2.96105">
        <ele>852</ele>
        <time>2019-10-09T14:05:59.000Z</time>
      </trkpt>
      <trkpt lat="44.22536" lon="2.96106">
        <ele>852</ele>
        <time>2019-10-09T14:06:00.000Z</time>
      </trkpt>
      <trkpt lat="44.22537" lon="2.96106">
        <ele>852</ele>
        <time>2019-10-09T14:06:01.000Z</time>
      </trkpt>
      <trkpt lat="44.22539" lon="2.96106">
        <ele>853</ele>
        <time>2019-10-09T14:06:02.000Z</time>
      </trkpt>
      <trkpt lat="44.2254" lon="2.96107">
        <ele>853</ele>
        <time>2019-10-09T14:06:03.000Z</time>
      </trkpt>
      <trkpt lat="44.22541" lon="2.96108">
        <ele>853</ele>
        <time>2019-10-09T14:06:04.000Z</time>
      </trkpt>
      <trkpt lat="44.22542" lon="2.96109">
        <ele>853</ele>
        <time>2019-10-09T14:06:05.000Z</time>
      </trkpt>
      <trkpt lat="44.22543" lon="2.9611">
        <ele>853</ele>
        <time>2019-10-09T14:06:06.000Z</time>
      </trkpt>
      <trkpt lat="44.22544" lon="2.96111">
        <ele>853</ele>
        <time>2019-10-09T14:06:07.000Z</time>
      </trkpt>
      <trkpt lat="44.22543" lon="2.96113">
        <ele>853</ele>
        <time>2019-10-09T14:06:08.000Z</time>
      </trkpt>
      <trkpt lat="44.22543" lon="2.96114">
        <ele>853</ele>
        <time>2019-10-09T14:06:09.000Z</time>
      </trkpt>
      <trkpt lat="44.22542" lon="2.96115">
        <ele>853</ele>
        <time>2019-10-09T14:06:10.000Z</time>
      </trkpt>
      <trkpt lat="44.2254" lon="2.96116">
        <ele>853</ele>
        <time>2019-10-09T14:06:11.000Z</time>
      </trkpt>
      <trkpt lat="44.22539" lon="2.96117">
        <ele>853</ele>
        <time>2019-10-09T14:06:12.000Z</time>
      </trkpt>
      <trkpt lat="44.22538" lon="2.96118">
        <ele>853</ele>
        <time>2019-10-09T14:06:13.000Z</time>
      </trkpt>
      <trkpt lat="44.22536" lon="2.96119">
        <ele>852</ele>
        <time>2019-10-09T14:06:14.000Z</time>
      </trkpt>
      <trkpt lat="44.22535" lon="2.96119">
        <ele>852</ele>
        <time>2019-10-09T14:06:15.000Z</time>
      </trkpt>
      <trkpt lat="44.22533" lon="2.9612">
        <ele>852</ele>
        <time>2019-10-09T14:06:16.000Z</time>
      </trkpt>
      <trkpt lat="44.22532" lon="2.9612">
        <ele>852</ele>
        <time>2019-10-09T14:06:17.000Z</time>
      </trkpt>
      <trkpt lat="44.2253" lon="2.96121">
        <ele>852</ele>
        <time>2019-10-09T14:06:18.000Z</time>
      </trkpt>
      <trkpt lat="44.22528" lon="2.96121">
        <ele>852</ele>
        <time>2019-10-09T14:06:19.000Z</time>
      </trkpt>
      <trkpt lat="44.22527" lon="2.96122">
        <ele>852</ele>
        <time>2019-10-09T14:06:20.000Z</time>
      </trkpt>
      <trkpt lat="44.22525" lon="2.96122">
        <ele>852</ele>
        <time>2019-10-09T14:06:21.000Z</time>
      </trkpt>
      <trkpt lat="44.22523" lon="2.96122">
        <ele>852</ele>
        <time>2019-10-09T14:06:22.000Z</time>
      </trkpt>
      <trkpt lat="44.22522" lon="2.96123">
        <ele>851</ele>
        <time>2019-10-09T14:06:23.000Z</time>
      </trkpt>
      <trkpt lat="44.2252" lon="2.96123">
        <ele>851</ele>
        <time>2019-10-09T14:06:24.000Z</time>
      </trkpt>
      <trkpt lat="44.22518" lon="2.96123">
        <ele>851</ele>
        <time>2019-10-09T14:06:25.000Z</time>
      </trkpt>
      <trkpt lat="44.22516" lon="2.96124">
        <ele>851</ele>
        <time>2019-10-09T14:06:26.000Z</time>
      </trkpt>
      <trkpt lat="44.22515" lon="2.96124">
        <ele>851</ele>
        <time>2019-10-09T14:06:27.000Z</time>
      </trkpt>
      <trkpt lat="44.22513" lon="2.96125">
        <ele>851</ele>
        <time>2019-10-09T14:06:28.000Z</time>
      </trkpt>
      <trkpt lat="44.22511" lon="2.96126">
        <ele>851</ele>
        <time>2019-10-09T14:06:29.000Z</time>
      </trkpt>
      <trkpt lat="44.2251" lon="2.96126">
        <ele>850</ele>
        <time>2019-10-09T14:06:30.000Z</time>
      </trkpt>
      <trkpt lat="44.22508" lon="2.96127">
        <ele>850</ele>
        <time>2019-10-09T14:06:31.000Z</time>
      </trkpt>
      <trkpt lat="44.22506" lon="2.96127">
        <ele>850</ele>
        <time>2019-10-09T14:06:32.000Z</time>
      </trkpt>
      <trkpt lat="44.22505" lon="2.96128">
        <ele>850</ele>
        <time>2019-10-09T14:06:33.000Z</time>
      </trkpt>
      <trkpt lat="44.22503" lon="2.96128">
        <ele>850</ele>
        <time>2019-10-09T14:06:34.000Z</time>
      </trkpt>
      <trkpt lat="44.22501" lon="2.96128">
        <ele>850</ele>
        <time>2019-10-09T14:06:35.000Z</time>
      </trkpt>
      <trkpt lat="44.225" lon="2.96128">
        <ele>850</ele>
        <time>2019-10-09T14:06:36.000Z</time>
      </trkpt>
      <trkpt lat="44.22498" lon="2.96128">
        <ele>850</ele>
        <time>2019-10-09T14:06:37.000Z</time>
      </trkpt>
      <trkpt lat="44.22496" lon="2.96128">
        <ele>850</ele>
        <time>2019-10-09T14:06:38.000Z</time>
      </trkpt>
      <trkpt lat="44.22495" lon="2.96128">
        <ele>850</ele>
        <time>2019-10-09T14:06:39.000Z</time>
      </trkpt>
      <trkpt lat="44.22493" lon="2.96128">
        <ele>849</ele>
        <time>2019-10-09T14:06:40.000Z</time>
      </trkpt>
      <trkpt lat="44.22491" lon="2.96127">
        <ele>849</ele>
        <time>2019-10-09T14:06:41.000Z</time>
      </trkpt>
      <trkpt lat="44.22489" lon="2.96127">
        <ele>849</ele>
        <time>2019-10-09T14:06:42.000Z</time>
      </trkpt>
      <trkpt lat="44.22487" lon="2.96127">
        <ele>849</ele>
        <time>2019-10-09T14:06:43.000Z</time>
      </trkpt>
      <trkpt lat="44.22486" lon="2.96127">
        <ele>849</ele>
        <time>2019-10-09T14:06:44.000Z</time>
      </trkpt>
      <trkpt lat="44.22484" lon="2.96128">
        <ele>849</ele>
        <time>2019-10-09T14:06:45.000Z</time>
      </trkpt>
      <trkpt lat="44.22482" lon="2.96129">
        <ele>849</ele>
        <time>2019-10-09T14:06:46.000Z</time>
      </trkpt>
      <trkpt lat="44.22481" lon="2.9613">
        <ele>849</ele>
        <time>2019-10-09T14:06:47.000Z</time>
      </trkpt>
      <trkpt lat="44.22479" lon="2.96133">
        <ele>848</ele>
        <time>2019-10-09T14:06:48.000Z</time>
      </trkpt>
      <trkpt lat="44.22477" lon="2.96137">
        <ele>848</ele>
        <time>2019-10-09T14:06:49.000Z</time>
      </trkpt>
      <trkpt lat="44.22475" lon="2.96141">
        <ele>848</ele>
        <time>2019-10-09T14:06:50.000Z</time>
      </trkpt>
      <trkpt lat="44.22473" lon="2.96146">
        <ele>848</ele>
        <time>2019-10-09T14:06:51.000Z</time>
      </trkpt>
      <trkpt lat="44.22472" lon="2.96151">
        <ele>848</ele>
        <time>2019-10-09T14:06:52.000Z</time>
      </trkpt>
      <trkpt lat="44.22471" lon="2.96156">
        <ele>847</ele>
        <time>2019-10-09T14:06:53.000Z</time>
      </trkpt>
      <trkpt lat="44.22469" lon="2.96162">
        <ele>847</ele>
        <time>2019-10-09T14:06:54.000Z</time>
      </trkpt>
      <trkpt lat="44.22468" lon="2.96168">
        <ele>847</ele>
        <time>2019-10-09T14:06:55.000Z</time>
      </trkpt>
      <trkpt lat="44.22467" lon="2.96173">
        <ele>847</ele>
        <time>2019-10-09T14:06:56.000Z</time>
      </trkpt>
      <trkpt lat="44.22466" lon="2.96179">
        <ele>847</ele>
        <time>2019-10-09T14:06:57.000Z</time>
      </trkpt>
      <trkpt lat="44.22465" lon="2.96184">
        <ele>847</ele>
        <time>2019-10-09T14:06:58.000Z</time>
      </trkpt>
      <trkpt lat="44.22465" lon="2.9619">
        <ele>847</ele>
        <time>2019-10-09T14:06:59.000Z</time>
      </trkpt>
      <trkpt lat="44.22465" lon="2.96195">
        <ele>847</ele>
        <time>2019-10-09T14:07:00.000Z</time>
      </trkpt>
      <trkpt lat="44.22465" lon="2.96201">
        <ele>847</ele>
        <time>2019-10-09T14:07:01.000Z</time>
      </trkpt>
      <trkpt lat="44.22465" lon="2.96206">
        <ele>847</ele>
        <time>2019-10-09T14:07:02.000Z</time>
      </trkpt>
      <trkpt lat="44.22466" lon="2.96212">
        <ele>846</ele>
        <time>2019-10-09T14:07:03.000Z</time>
      </trkpt>
      <trkpt lat="44.22467" lon="2.96217">
        <ele>846</ele>
        <time>2019-10-09T14:07:04.000Z</time>
      </trkpt>
      <trkpt lat="44.22468" lon="2.96222">
        <ele>846</ele>
        <time>2019-10-09T14:07:05.000Z</time>
      </trkpt>
      <trkpt lat="44.2247" lon="2.96227">
        <ele>846</ele>
        <time>2019-10-09T14:07:06.000Z</time>
      </trkpt>
      <trkpt lat="44.22471" lon="2.96233">
        <ele>846</ele>
        <time>2019-10-09T14:07:07.000Z</time>
      </trkpt>
      <trkpt lat="44.22473" lon="2.96238">
        <ele>846</ele>
        <time>2019-10-09T14:07:08.000Z</time>
      </trkpt>
      <trkpt lat="44.22476" lon="2.96243">
        <ele>846</ele>
        <time>2019-10-09T14:07:09.000Z</time>
      </trkpt>
      <trkpt lat="44.22479" lon="2.96248">
        <ele>845</ele>
        <time>2019-10-09T14:07:10.000Z</time>
      </trkpt>
      <trkpt lat="44.22483" lon="2.96253">
        <ele>845</ele>
        <time>2019-10-09T14:07:11.000Z</time>
      </trkpt>
      <trkpt lat="44.22487" lon="2.96258">
        <ele>845</ele>
        <time>2019-10-09T14:07:12.000Z</time>
      </trkpt>
      <trkpt lat="44.22491" lon="2.96263">
        <ele>845</ele>
        <time>2019-10-09T14:07:13.000Z</time>
      </trkpt>
      <trkpt lat="44.22495" lon="2.96268">
        <ele>845</ele>
        <time>2019-10-09T14:07:14.000Z</time>
      </trkpt>
      <trkpt lat="44.225" lon="2.96272">
        <ele>845</ele>
        <time>2019-10-09T14:07:15.000Z</time>
      </trkpt>
      <trkpt lat="44.22505" lon="2.96275">
        <ele>845</ele>
        <time>2019-10-09T14:07:16.000Z</time>
      </trkpt>
      <trkpt lat="44.22511" lon="2.96276">
        <ele>844</ele>
        <time>2019-10-09T14:07:17.000Z</time>
      </trkpt>
      <trkpt lat="44.22517" lon="2.96277">
        <ele>844</ele>
        <time>2019-10-09T14:07:18.000Z</time>
      </trkpt>
      <trkpt lat="44.22523" lon="2.96276">
        <ele>844</ele>
        <time>2019-10-09T14:07:19.000Z</time>
      </trkpt>
      <trkpt lat="44.22528" lon="2.96274">
        <ele>844</ele>
        <time>2019-10-09T14:07:20.000Z</time>
      </trkpt>
      <trkpt lat="44.22534" lon="2.9627">
        <ele>844</ele>
        <time>2019-10-09T14:07:21.000Z</time>
      </trkpt>
      <trkpt lat="44.22539" lon="2.96265">
        <ele>844</ele>
        <time>2019-10-09T14:07:22.000Z</time>
      </trkpt>
      <trkpt lat="44.22543" lon="2.96259">
        <ele>844</ele>
        <time>2019-10-09T14:07:23.000Z</time>
      </trkpt>
      <trkpt lat="44.22548" lon="2.96253">
        <ele>844</ele>
        <time>2019-10-09T14:07:24.000Z</time>
      </trkpt>
      <trkpt lat="44.22553" lon="2.96246">
        <ele>845</ele>
        <time>2019-10-09T14:07:25.000Z</time>
      </trkpt>
      <trkpt lat="44.22557" lon="2.96239">
        <ele>845</ele>
        <time>2019-10-09T14:07:26.000Z</time>
      </trkpt>
      <trkpt lat="44.22561" lon="2.96231">
        <ele>845</ele>
        <time>2019-10-09T14:07:27.000Z</time>
      </trkpt>
      <trkpt lat="44.22565" lon="2.96223">
        <ele>845</ele>
        <time>2019-10-09T14:07:28.000Z</time>
      </trkpt>
      <trkpt lat="44.22568" lon="2.96214">
        <ele>846</ele>
        <time>2019-10-09T14:07:29.000Z</time>
      </trkpt>
      <trkpt lat="44.22572" lon="2.96206">
        <ele>846</ele>
        <time>2019-10-09T14:07:30.000Z</time>
      </trkpt>
      <trkpt lat="44.22576" lon="2.96197">
        <ele>847</ele>
        <time>2019-10-09T14:07:31.000Z</time>
      </trkpt>
      <trkpt lat="44.22579" lon="2.96189">
        <ele>847</ele>
        <time>2019-10-09T14:07:32.000Z</time>
      </trkpt>
      <trkpt lat="44.22582" lon="2.9618">
        <ele>847</ele>
        <time>2019-10-09T14:07:33.000Z</time>
      </trkpt>
      <trkpt lat="44.22585" lon="2.96171">
        <ele>848</ele>
        <time>2019-10-09T14:07:34.000Z</time>
      </trkpt>
      <trkpt lat="44.22587" lon="2.96162">
        <ele>849</ele>
        <time>2019-10-09T14:07:35.000Z</time>
      </trkpt>
      <trkpt lat="44.2259" lon="2.96153">
        <ele>849</ele>
        <time>2019-10-09T14:07:36.000Z</time>
      </trkpt>
      <trkpt lat="44.22592" lon="2.96144">
        <ele>850</ele>
        <time>2019-10-09T14:07:37.000Z</time>
      </trkpt>
      <trkpt lat="44.22595" lon="2.96135">
        <ele>850</ele>
        <time>2019-10-09T14:07:38.000Z</time>
      </trkpt>
      <trkpt lat="44.22597" lon="2.96126">
        <ele>851</ele>
        <time>2019-10-09T14:07:39.000Z</time>
      </trkpt>
      <trkpt lat="44.22599" lon="2.96117">
        <ele>851</ele>
        <time>2019-10-09T14:07:40.000Z</time>
      </trkpt>
      <trkpt lat="44.22601" lon="2.96108">
        <ele>851</ele>
        <time>2019-10-09T14:07:41.000Z</time>
      </trkpt>
      <trkpt lat="44.22601" lon="2.96101">
        <ele>852</ele>
        <time>2019-10-09T14:07:42.000Z</time>
      </trkpt>
      <trkpt lat="44.22601" lon="2.96094">
        <ele>852</ele>
        <time>2019-10-09T14:07:43.000Z</time>
      </trkpt>
      <trkpt lat="44.226" lon="2.9609">
        <ele>853</ele>
        <time>2019-10-09T14:07:44.000Z</time>
      </trkpt>
      <trkpt lat="44.22599" lon="2.96087">
        <ele>853</ele>
        <time>2019-10-09T14:07:45.000Z</time>
      </trkpt>
      <trkpt lat="44.22597" lon="2.96086">
        <ele>853</ele>
        <time>2019-10-09T14:07:46.000Z</time>
      </trkpt>
      <trkpt lat="44.22596" lon="2.96086">
        <ele>853</ele>
        <time>2019-10-09T14:07:47.000Z</time>
      </trkpt>
      <trkpt lat="44.22594" lon="2.96086">
        <ele>853</ele>
        <time>2019-10-09T14:07:48.000Z</time>
      </trkpt>
      <trkpt lat="44.22592" lon="2.96086">
        <ele>854</ele>
        <time>2019-10-09T14:07:49.000Z</time>
      </trkpt>
      <trkpt lat="44.2259" lon="2.96086">
        <ele>854</ele>
        <time>2019-10-09T14:07:50.000Z</time>
      </trkpt>
      <trkpt lat="44.22588" lon="2.96086">
        <ele>854</ele>
        <time>2019-10-09T14:07:51.000Z</time>
      </trkpt>
      <trkpt lat="44.22586" lon="2.96085">
        <ele>854</ele>
        <time>2019-10-09T14:07:52.000Z</time>
      </trkpt>
      <trkpt lat="44.22584" lon="2.96085">
        <ele>854</ele>
        <time>2019-10-09T14:07:53.000Z</time>
      </trkpt>
      <trkpt lat="44.22582" lon="2.96085">
        <ele>854</ele>
        <time>2019-10-09T14:07:54.000Z</time>
      </trkpt>
      <trkpt lat="44.2258" lon="2.96085">
        <ele>854</ele>
        <time>2019-10-09T14:07:55.000Z</time>
      </trkpt>
      <trkpt lat="44.22578" lon="2.96084">
        <ele>854</ele>
        <time>2019-10-09T14:07:56.000Z</time>
      </trkpt>
      <trkpt lat="44.22576" lon="2.96084">
        <ele>854</ele>
        <time>2019-10-09T14:07:57.000Z</time>
      </trkpt>
      <trkpt lat="44.22574" lon="2.96084">
        <ele>854</ele>
        <time>2019-10-09T14:07:58.000Z</time>
      </trkpt>
      <trkpt lat="44.22572" lon="2.96084">
        <ele>854</ele>
        <time>2019-10-09T14:07:59.000Z</time>
      </trkpt>
      <trkpt lat="44.22569" lon="2.96083">
        <ele>854</ele>
        <time>2019-10-09T14:08:00.000Z</time>
      </trkpt>
      <trkpt lat="44.22566" lon="2.96083">
        <ele>854</ele>
        <time>2019-10-09T14:08:01.000Z</time>
      </trkpt>
      <trkpt lat="44.22563" lon="2.96082">
        <ele>854</ele>
        <time>2019-10-09T14:08:02.000Z</time>
      </trkpt>
      <trkpt lat="44.22559" lon="2.96082">
        <ele>854</ele>
        <time>2019-10-09T14:08:03.000Z</time>
      </trkpt>
      <trkpt lat="44.22555" lon="2.96082">
        <ele>854</ele>
        <time>2019-10-09T14:08:04.000Z</time>
      </trkpt>
      <trkpt lat="44.22551" lon="2.96082">
        <ele>854</ele>
        <time>2019-10-09T14:08:05.000Z</time>
      </trkpt>
      <trkpt lat="44.22546" lon="2.96082">
        <ele>853</ele>
        <time>2019-10-09T14:08:06.000Z</time>
      </trkpt>
      <trkpt lat="44.22541" lon="2.96083">
        <ele>853</ele>
        <time>2019-10-09T14:08:07.000Z</time>
      </trkpt>
      <trkpt lat="44.22536" lon="2.96084">
        <ele>853</ele>
        <time>2019-10-09T14:08:08.000Z</time>
      </trkpt>
      <trkpt lat="44.22531" lon="2.96085">
        <ele>853</ele>
        <time>2019-10-09T14:08:09.000Z</time>
      </trkpt>
      <trkpt lat="44.22526" lon="2.96086">
        <ele>853</ele>
        <time>2019-10-09T14:08:10.000Z</time>
      </trkpt>
      <trkpt lat="44.22521" lon="2.96089">
        <ele>853</ele>
        <time>2019-10-09T14:08:11.000Z</time>
      </trkpt>
      <trkpt lat="44.22516" lon="2.96091">
        <ele>853</ele>
        <time>2019-10-09T14:08:12.000Z</time>
      </trkpt>
      <trkpt lat="44.22511" lon="2.96093">
        <ele>853</ele>
        <time>2019-10-09T14:08:13.000Z</time>
      </trkpt>
      <trkpt lat="44.22506" lon="2.96096">
        <ele>852</ele>
        <time>2019-10-09T14:08:14.000Z</time>
      </trkpt>
      <trkpt lat="44.22502" lon="2.961">
        <ele>852</ele>
        <time>2019-10-09T14:08:15.000Z</time>
      </trkpt>
      <trkpt lat="44.22498" lon="2.96104">
        <ele>852</ele>
        <time>2019-10-09T14:08:16.000Z</time>
      </trkpt>
      <trkpt lat="44.22495" lon="2.96108">
        <ele>852</ele>
        <time>2019-10-09T14:08:17.000Z</time>
      </trkpt>
      <trkpt lat="44.22492" lon="2.96113">
        <ele>852</ele>
        <time>2019-10-09T14:08:18.000Z</time>
      </trkpt>
      <trkpt lat="44.22489" lon="2.96118">
        <ele>852</ele>
        <time>2019-10-09T14:08:19.000Z</time>
      </trkpt>
      <trkpt lat="44.22487" lon="2.96123">
        <ele>852</ele>
        <time>2019-10-09T14:08:20.000Z</time>
      </trkpt>
      <trkpt lat="44.22485" lon="2.96129">
        <ele>852</ele>
        <time>2019-10-09T14:08:21.000Z</time>
      </trkpt>
      <trkpt lat="44.22484" lon="2.96135">
        <ele>851</ele>
        <time>2019-10-09T14:08:22.000Z</time>
      </trkpt>
      <trkpt lat="44.22483" lon="2.9614">
        <ele>851</ele>
        <time>2019-10-09T14:08:23.000Z</time>
      </trkpt>
      <trkpt lat="44.22484" lon="2.96146">
        <ele>851</ele>
        <time>2019-10-09T14:08:24.000Z</time>
      </trkpt>
      <trkpt lat="44.22485" lon="2.96151">
        <ele>851</ele>
        <time>2019-10-09T14:08:25.000Z</time>
      </trkpt>
      <trkpt lat="44.22488" lon="2.96156">
        <ele>851</ele>
        <time>2019-10-09T14:08:26.000Z</time>
      </trkpt>
      <trkpt lat="44.22491" lon="2.96159">
        <ele>851</ele>
        <time>2019-10-09T14:08:27.000Z</time>
      </trkpt>
      <trkpt lat="44.22495" lon="2.96161">
        <ele>851</ele>
        <time>2019-10-09T14:08:28.000Z</time>
      </trkpt>
      <trkpt lat="44.22501" lon="2.96162">
        <ele>851</ele>
        <time>2019-10-09T14:08:29.000Z</time>
      </trkpt>
      <trkpt lat="44.22507" lon="2.96162">
        <ele>851</ele>
        <time>2019-10-09T14:08:30.000Z</time>
      </trkpt>
      <trkpt lat="44.22514" lon="2.9616">
        <ele>851</ele>
        <time>2019-10-09T14:08:31.000Z</time>
      </trkpt>
      <trkpt lat="44.22521" lon="2.96159">
        <ele>851</ele>
        <time>2019-10-09T14:08:32.000Z</time>
      </trkpt>
      <trkpt lat="44.22527" lon="2.96157">
        <ele>851</ele>
        <time>2019-10-09T14:08:33.000Z</time>
      </trkpt>
      <trkpt lat="44.22532" lon="2.96155">
        <ele>850</ele>
        <time>2019-10-09T14:08:34.000Z</time>
      </trkpt>
      <trkpt lat="44.22536" lon="2.96153">
        <ele>850</ele>
        <time>2019-10-09T14:08:35.000Z</time>
      </trkpt>
      <trkpt lat="44.2254" lon="2.96153">
        <ele>850</ele>
        <time>2019-10-09T14:08:36.000Z</time>
      </trkpt>
      <trkpt lat="44.22541" lon="2.96154">
        <ele>850</ele>
        <time>2019-10-09T14:08:37.000Z</time>
      </trkpt>
      <trkpt lat="44.2254" lon="2.96155">
        <ele>850</ele>
        <time>2019-10-09T14:08:38.000Z</time>
      </trkpt>
      <trkpt lat="44.22538" lon="2.96155">
        <ele>850</ele>
        <time>2019-10-09T14:08:39.000Z</time>
      </trkpt>
      <trkpt lat="44.22536" lon="2.96155">
        <ele>850</ele>
        <time>2019-10-09T14:08:40.000Z</time>
      </trkpt>
      <trkpt lat="44.22535" lon="2.96153">
        <ele>850</ele>
        <time>2019-10-09T14:08:41.000Z</time>
      </trkpt>
      <trkpt lat="44.22534" lon="2.96152">
        <ele>850</ele>
        <time>2019-10-09T14:08:42.000Z</time>
      </trkpt>
      <trkpt lat="44.22534" lon="2.96152">
        <ele>850</ele>
        <time>2019-10-09T14:08:43.000Z</time>
      </trkpt>
      <trkpt lat="44.22534" lon="2.96151">
        <ele>850</ele>
        <time>2019-10-09T14:08:44.000Z</time>
      </trkpt>
      <trkpt lat="44.22535" lon="2.96151">
        <ele>850</ele>
        <time>2019-10-09T14:08:45.000Z</time>
      </trkpt>
      <trkpt lat="44.22535" lon="2.96151">
        <ele>850</ele>
        <time>2019-10-09T14:08:46.000Z</time>
      </trkpt>
      <trkpt lat="44.22535" lon="2.96151">
        <ele>850</ele>
        <time>2019-10-09T14:08:47.000Z</time>
      </trkpt>
      <trkpt lat="44.22535" lon="2.96151">
        <ele>850</ele>
        <time>2019-10-09T14:08:48.000Z</time>
      </trkpt>
      <trkpt lat="44.22535" lon="2.96151">
        <ele>850</ele>
        <time>2019-10-09T14:08:49.000Z</time>
      </trkpt>
      <trkpt lat="44.22535" lon="2.96152">
        <ele>850</ele>
        <time>2019-10-09T14:08:50.000Z</time>
      </trkpt>
      <trkpt lat="44.22534" lon="2.96152">
        <ele>850</ele>
        <time>2019-10-09T14:08:51.000Z</time>
      </trkpt>
      <trkpt lat="44.22534" lon="2.96153">
        <ele>851</ele>
        <time>2019-10-09T14:08:52.000Z</time>
      </trkpt>
      <trkpt lat="44.22534" lon="2.96153">
        <ele>851</ele>
        <time>2019-10-09T14:08:53.000Z</time>
      </trkpt>
      <trkpt lat="44.22534" lon="2.96153">
        <ele>851</ele>
        <time>2019-10-09T14:08:54.000Z</time>
      </trkpt>
      <trkpt lat="44.22534" lon="2.96153">
        <ele>851</ele>
        <time>2019-10-09T14:08:55.000Z</time>
      </trkpt>
      <trkpt lat="44.22534" lon="2.96153">
        <ele>851</ele>
        <time>2019-10-09T14:08:56.000Z</time>
      </trkpt>
      <trkpt lat="44.22534" lon="2.96153">
        <ele>851</ele>
        <time>2019-10-09T14:08:57.000Z</time>
      </trkpt>
      <trkpt lat="44.22534" lon="2.96152">
        <ele>851</ele>
        <time>2019-10-09T14:08:58.000Z</time>
      </trkpt>
      <trkpt lat="44.22534" lon="2.96152">
        <ele>851</ele>
        <time>2019-10-09T14:08:59.000Z</time>
      </trkpt>
      <trkpt lat="44.22534" lon="2.96152">
        <ele>851</ele>
        <time>2019-10-09T14:09:00.000Z</time>
      </trkpt>
      <trkpt lat="44.22534" lon="2.96152">
        <ele>851</ele>
        <time>2019-10-09T14:09:01.000Z</time>
      </trkpt>
      <trkpt lat="44.22534" lon="2.96152">
        <ele>851</ele>
        <time>2019-10-09T14:09:02.000Z</time>
      </trkpt>
      <trkpt lat="44.22534" lon="2.96152">
        <ele>851</ele>
        <time>2019-10-09T14:09:03.000Z</time>
      </trkpt>
      <trkpt lat="44.22534" lon="2.96152">
        <ele>851</ele>
        <time>2019-10-09T14:09:04.000Z</time>
      </trkpt>
      <trkpt lat="44.22534" lon="2.96152">
        <ele>851</ele>
        <time>2019-10-09T14:09:05.000Z</time>
      </trkpt>
      <trkpt lat="44.22534" lon="2.96152">
        <ele>851</ele>
        <time>2019-10-09T14:09:06.000Z</time>
      </trkpt>
      <trkpt lat="44.22534" lon="2.96152">
        <ele>851</ele>
        <time>2019-10-09T14:09:07.000Z</time>
      </trkpt>
      <trkpt lat="44.22534" lon="2.96152">
        <ele>851</ele>
        <time>2019-10-09T14:09:08.000Z</time>
      </trkpt>
      <trkpt lat="44.22534" lon="2.96151">
        <ele>851</ele>
        <time>2019-10-09T14:09:09.000Z</time>
      </trkpt>
      <trkpt lat="44.22534" lon="2.9615">
        <ele>851</ele>
        <time>2019-10-09T14:09:10.000Z</time>
      </trkpt>
      <trkpt lat="44.22533" lon="2.96148">
        <ele>851</ele>
        <time>2019-10-09T14:09:11.000Z</time>
      </trkpt>
      <trkpt lat="44.22532" lon="2.96146">
        <ele>851</ele>
        <time>2019-10-09T14:09:12.000Z</time>
      </trkpt>
      <trkpt lat="44.2253" lon="2.96145">
        <ele>851</ele>
        <time>2019-10-09T14:09:13.000Z</time>
      </trkpt>
      <trkpt lat="44.22529" lon="2.96144">
        <ele>851</ele>
        <time>2019-10-09T14:09:14.000Z</time>
      </trkpt>
      <trkpt lat="44.22527" lon="2.96142">
        <ele>851</ele>
        <time>2019-10-09T14:09:15.000Z</time>
      </trkpt>
      <trkpt lat="44.22526" lon="2.96141">
        <ele>851</ele>
        <time>2019-10-09T14:09:16.000Z</time>
      </trkpt>
      <trkpt lat="44.22524" lon="2.9614">
        <ele>851</ele>
        <time>2019-10-09T14:09:17.000Z</time>
      </trkpt>
      <trkpt lat="44.22522" lon="2.96139">
        <ele>851</ele>
        <time>2019-10-09T14:09:18.000Z</time>
      </trkpt>
      <trkpt lat="44.22521" lon="2.96138">
        <ele>851</ele>
        <time>2019-10-09T14:09:19.000Z</time>
      </trkpt>
      <trkpt lat="44.22519" lon="2.96137">
        <ele>851</ele>
        <time>2019-10-09T14:09:20.000Z</time>
      </trkpt>
      <trkpt lat="44.22518" lon="2.96136">
        <ele>851</ele>
        <time>2019-10-09T14:09:21.000Z</time>
      </trkpt>
      <trkpt lat="44.22516" lon="2.96135">
        <ele>851</ele>
        <time>2019-10-09T14:09:22.000Z</time>
      </trkpt>
      <trkpt lat="44.22515" lon="2.96134">
        <ele>851</ele>
        <time>2019-10-09T14:09:23.000Z</time>
      </trkpt>
      <trkpt lat="44.22512" lon="2.96133">
        <ele>851</ele>
        <time>2019-10-09T14:09:24.000Z</time>
      </trkpt>
      <trkpt lat="44.22509" lon="2.96132">
        <ele>851</ele>
        <time>2019-10-09T14:09:25.000Z</time>
      </trkpt>
      <trkpt lat="44.22505" lon="2.96131">
        <ele>851</ele>
        <time>2019-10-09T14:09:26.000Z</time>
      </trkpt>
      <trkpt lat="44.22502" lon="2.9613">
        <ele>851</ele>
        <time>2019-10-09T14:09:27.000Z</time>
      </trkpt>
      <trkpt lat="44.22498" lon="2.96128">
        <ele>851</ele>
        <time>2019-10-09T14:09:28.000Z</time>
      </trkpt>
      <trkpt lat="44.22495" lon="2.96126">
        <ele>851</ele>
        <time>2019-10-09T14:09:29.000Z</time>
      </trkpt>
      <trkpt lat="44.22492" lon="2.96123">
        <ele>850</ele>
        <time>2019-10-09T14:09:30.000Z</time>
      </trkpt>
      <trkpt lat="44.22489" lon="2.9612">
        <ele>850</ele>
        <time>2019-10-09T14:09:31.000Z</time>
      </trkpt>
      <trkpt lat="44.22487" lon="2.96116">
        <ele>850</ele>
        <time>2019-10-09T14:09:32.000Z</time>
      </trkpt>
      <trkpt lat="44.22485" lon="2.96112">
        <ele>850</ele>
        <time>2019-10-09T14:09:33.000Z</time>
      </trkpt>
      <trkpt lat="44.22484" lon="2.96109">
        <ele>850</ele>
        <time>2019-10-09T14:09:34.000Z</time>
      </trkpt>
      <trkpt lat="44.22484" lon="2.96104">
        <ele>850</ele>
        <time>2019-10-09T14:09:35.000Z</time>
      </trkpt>
      <trkpt lat="44.22486" lon="2.96101">
        <ele>850</ele>
        <time>2019-10-09T14:09:36.000Z</time>
      </trkpt>
      <trkpt lat="44.22489" lon="2.96098">
        <ele>850</ele>
        <time>2019-10-09T14:09:37.000Z</time>
      </trkpt>
      <trkpt lat="44.22492" lon="2.96096">
        <ele>850</ele>
        <time>2019-10-09T14:09:38.000Z</time>
      </trkpt>
      <trkpt lat="44.22495" lon="2.96095">
        <ele>850</ele>
        <time>2019-10-09T14:09:39.000Z</time>
      </trkpt>
      <trkpt lat="44.22498" lon="2.96095">
        <ele>850</ele>
        <time>2019-10-09T14:09:40.000Z</time>
      </trkpt>
      <trkpt lat="44.22501" lon="2.96096">
        <ele>850</ele>
        <time>2019-10-09T14:09:41.000Z</time>
      </trkpt>
      <trkpt lat="44.22504" lon="2.96098">
        <ele>851</ele>
        <time>2019-10-09T14:09:42.000Z</time>
      </trkpt>
      <trkpt lat="44.22507" lon="2.961">
        <ele>851</ele>
        <time>2019-10-09T14:09:43.000Z</time>
      </trkpt>
      <trkpt lat="44.22509" lon="2.96104">
        <ele>851</ele>
        <time>2019-10-09T14:09:44.000Z</time>
      </trkpt>
      <trkpt lat="44.22511" lon="2.96108">
        <ele>851</ele>
        <time>2019-10-09T14:09:45.000Z</time>
      </trkpt>
      <trkpt lat="44.22512" lon="2.96112">
        <ele>851</ele>
        <time>2019-10-09T14:09:46.000Z</time>
      </trkpt>
      <trkpt lat="44.22512" lon="2.96117">
        <ele>851</ele>
        <time>2019-10-09T14:09:47.000Z</time>
      </trkpt>
      <trkpt lat="44.22512" lon="2.96121">
        <ele>851</ele>
        <time>2019-10-09T14:09:48.000Z</time>
      </trkpt>
      <trkpt lat="44.22511" lon="2.96125">
        <ele>851</ele>
        <time>2019-10-09T14:09:49.000Z</time>
      </trkpt>
      <trkpt lat="44.22509" lon="2.96128">
        <ele>851</ele>
        <time>2019-10-09T14:09:50.000Z</time>
      </trkpt>
      <trkpt lat="44.22506" lon="2.9613">
        <ele>851</ele>
        <time>2019-10-09T14:09:51.000Z</time>
      </trkpt>
      <trkpt lat="44.22503" lon="2.9613">
        <ele>851</ele>
        <time>2019-10-09T14:09:52.000Z</time>
      </trkpt>
      <trkpt lat="44.225" lon="2.96128">
        <ele>851</ele>
        <time>2019-10-09T14:09:53.000Z</time>
      </trkpt>
      <trkpt lat="44.22497" lon="2.96125">
        <ele>850</ele>
        <time>2019-10-09T14:09:54.000Z</time>
      </trkpt>
      <trkpt lat="44.22495" lon="2.96122">
        <ele>850</ele>
        <time>2019-10-09T14:09:55.000Z</time>
      </trkpt>
      <trkpt lat="44.22494" lon="2.96117">
        <ele>850</ele>
        <time>2019-10-09T14:09:56.000Z</time>
      </trkpt>
      <trkpt lat="44.22493" lon="2.96113">
        <ele>850</ele>
        <time>2019-10-09T14:09:57.000Z</time>
      </trkpt>
      <trkpt lat="44.22493" lon="2.96108">
        <ele>850</ele>
        <time>2019-10-09T14:09:58.000Z</time>
      </trkpt>
      <trkpt lat="44.22495" lon="2.96104">
        <ele>850</ele>
        <time>2019-10-09T14:09:59.000Z</time>
      </trkpt>
      <trkpt lat="44.22496" lon="2.96101">
        <ele>850</ele>
        <time>2019-10-09T14:10:00.000Z</time>
      </trkpt>
      <trkpt lat="44.22499" lon="2.96099">
        <ele>850</ele>
        <time>2019-10-09T14:10:01.000Z</time>
      </trkpt>
      <trkpt lat="44.225" lon="2.96099">
        <ele>850</ele>
        <time>2019-10-09T14:10:02.000Z</time>
      </trkpt>
      <trkpt lat="44.22501" lon="2.96099">
        <ele>850</ele>
        <time>2019-10-09T14:10:03.000Z</time>
      </trkpt>
      <trkpt lat="44.22503" lon="2.961">
        <ele>850</ele>
        <time>2019-10-09T14:10:04.000Z</time>
      </trkpt>
      <trkpt lat="44.22504" lon="2.961">
        <ele>850</ele>
        <time>2019-10-09T14:10:05.000Z</time>
      </trkpt>
      <trkpt lat="44.22505" lon="2.961">
        <ele>850</ele>
        <time>2019-10-09T14:10:06.000Z</time>
      </trkpt>
      <trkpt lat="44.22507" lon="2.961">
        <ele>850</ele>
        <time>2019-10-09T14:10:07.000Z</time>
      </trkpt>
      <trkpt lat="44.22508" lon="2.96099">
        <ele>850</ele>
        <time>2019-10-09T14:10:08.000Z</time>
      </trkpt>
      <trkpt lat="44.22509" lon="2.96098">
        <ele>850</ele>
        <time>2019-10-09T14:10:09.000Z</time>
      </trkpt>
      <trkpt lat="44.2251" lon="2.96097">
        <ele>850</ele>
        <time>2019-10-09T14:10:10.000Z</time>
      </trkpt>
      <trkpt lat="44.22512" lon="2.96095">
        <ele>850</ele>
        <time>2019-10-09T14:10:11.000Z</time>
      </trkpt>
      <trkpt lat="44.22513" lon="2.96093">
        <ele>850</ele>
        <time>2019-10-09T14:10:12.000Z</time>
      </trkpt>
      <trkpt lat="44.22514" lon="2.96089">
        <ele>850</ele>
        <time>2019-10-09T14:10:13.000Z</time>
      </trkpt>
      <trkpt lat="44.22515" lon="2.96085">
        <ele>850</ele>
        <time>2019-10-09T14:10:14.000Z</time>
      </trkpt>
      <trkpt lat="44.22515" lon="2.96081">
        <ele>851</ele>
        <time>2019-10-09T14:10:15.000Z</time>
      </trkpt>
      <trkpt lat="44.22514" lon="2.96076">
        <ele>851</ele>
        <time>2019-10-09T14:10:16.000Z</time>
      </trkpt>
      <trkpt lat="44.22513" lon="2.96072">
        <ele>851</ele>
        <time>2019-10-09T14:10:17.000Z</time>
      </trkpt>
      <trkpt lat="44.22512" lon="2.96067">
        <ele>851</ele>
        <time>2019-10-09T14:10:18.000Z</time>
      </trkpt>
      <trkpt lat="44.2251" lon="2.96063">
        <ele>851</ele>
        <time>2019-10-09T14:10:19.000Z</time>
      </trkpt>
      <trkpt lat="44.22509" lon="2.9606">
        <ele>851</ele>
        <time>2019-10-09T14:10:20.000Z</time>
      </trkpt>
      <trkpt lat="44.22506" lon="2.96058">
        <ele>850</ele>
        <time>2019-10-09T14:10:21.000Z</time>
      </trkpt>
      <trkpt lat="44.22503" lon="2.96057">
        <ele>850</ele>
        <time>2019-10-09T14:10:22.000Z</time>
      </trkpt>
      <trkpt lat="44.225" lon="2.96059">
        <ele>850</ele>
        <time>2019-10-09T14:10:23.000Z</time>
      </trkpt>
      <trkpt lat="44.22497" lon="2.96062">
        <ele>850</ele>
        <time>2019-10-09T14:10:24.000Z</time>
      </trkpt>
      <trkpt lat="44.22495" lon="2.96067">
        <ele>850</ele>
        <time>2019-10-09T14:10:25.000Z</time>
      </trkpt>
      <trkpt lat="44.22494" lon="2.96072">
        <ele>850</ele>
        <time>2019-10-09T14:10:26.000Z</time>
      </trkpt>
      <trkpt lat="44.22493" lon="2.96077">
        <ele>850</ele>
        <time>2019-10-09T14:10:27.000Z</time>
      </trkpt>
      <trkpt lat="44.22492" lon="2.96082">
        <ele>850</ele>
        <time>2019-10-09T14:10:28.000Z</time>
      </trkpt>
      <trkpt lat="44.22491" lon="2.96087">
        <ele>850</ele>
        <time>2019-10-09T14:10:29.000Z</time>
      </trkpt>
      <trkpt lat="44.22492" lon="2.96091">
        <ele>850</ele>
        <time>2019-10-09T14:10:30.000Z</time>
      </trkpt>
      <trkpt lat="44.22493" lon="2.96096">
        <ele>850</ele>
        <time>2019-10-09T14:10:31.000Z</time>
      </trkpt>
      <trkpt lat="44.22494" lon="2.961">
        <ele>850</ele>
        <time>2019-10-09T14:10:32.000Z</time>
      </trkpt>
      <trkpt lat="44.22496" lon="2.96103">
        <ele>850</ele>
        <time>2019-10-09T14:10:33.000Z</time>
      </trkpt>
      <trkpt lat="44.22499" lon="2.96105">
        <ele>850</ele>
        <time>2019-10-09T14:10:34.000Z</time>
      </trkpt>
      <trkpt lat="44.22502" lon="2.96106">
        <ele>850</ele>
        <time>2019-10-09T14:10:35.000Z</time>
      </trkpt>
      <trkpt lat="44.22505" lon="2.96105">
        <ele>850</ele>
        <time>2019-10-09T14:10:36.000Z</time>
      </trkpt>
      <trkpt lat="44.22508" lon="2.96104">
        <ele>850</ele>
        <time>2019-10-09T14:10:37.000Z</time>
      </trkpt>
      <trkpt lat="44.2251" lon="2.96101">
        <ele>850</ele>
        <time>2019-10-09T14:10:38.000Z</time>
      </trkpt>
      <trkpt lat="44.2251" lon="2.96097">
        <ele>850</ele>
        <time>2019-10-09T14:10:39.000Z</time>
      </trkpt>
      <trkpt lat="44.2251" lon="2.96093">
        <ele>850</ele>
        <time>2019-10-09T14:10:40.000Z</time>
      </trkpt>
      <trkpt lat="44.22509" lon="2.96088">
        <ele>850</ele>
        <time>2019-10-09T14:10:41.000Z</time>
      </trkpt>
      <trkpt lat="44.22508" lon="2.96084">
        <ele>850</ele>
        <time>2019-10-09T14:10:42.000Z</time>
      </trkpt>
      <trkpt lat="44.22507" lon="2.96082">
        <ele>850</ele>
        <time>2019-10-09T14:10:43.000Z</time>
      </trkpt>
      <trkpt lat="44.22504" lon="2.96081">
        <ele>850</ele>
        <time>2019-10-09T14:10:44.000Z</time>
      </trkpt>
      <trkpt lat="44.22502" lon="2.96082">
        <ele>850</ele>
        <time>2019-10-09T14:10:45.000Z</time>
      </trkpt>
      <trkpt lat="44.22499" lon="2.96085">
        <ele>850</ele>
        <time>2019-10-09T14:10:46.000Z</time>
      </trkpt>
      <trkpt lat="44.22497" lon="2.96089">
        <ele>850</ele>
        <time>2019-10-09T14:10:47.000Z</time>
      </trkpt>
      <trkpt lat="44.22496" lon="2.96093">
        <ele>850</ele>
        <time>2019-10-09T14:10:48.000Z</time>
      </trkpt>
      <trkpt lat="44.22496" lon="2.96097">
        <ele>850</ele>
        <time>2019-10-09T14:10:49.000Z</time>
      </trkpt>
      <trkpt lat="44.22496" lon="2.96102">
        <ele>850</ele>
        <time>2019-10-09T14:10:50.000Z</time>
      </trkpt>
      <trkpt lat="44.22497" lon="2.96106">
        <ele>850</ele>
        <time>2019-10-09T14:10:51.000Z</time>
      </trkpt>
      <trkpt lat="44.22498" lon="2.96111">
        <ele>850</ele>
        <time>2019-10-09T14:10:52.000Z</time>
      </trkpt>
      <trkpt lat="44.22499" lon="2.96116">
        <ele>850</ele>
        <time>2019-10-09T14:10:53.000Z</time>
      </trkpt>
      <trkpt lat="44.22499" lon="2.9612">
        <ele>850</ele>
        <time>2019-10-09T14:10:54.000Z</time>
      </trkpt>
      <trkpt lat="44.22498" lon="2.96123">
        <ele>850</ele>
        <time>2019-10-09T14:10:55.000Z</time>
      </trkpt>
      <trkpt lat="44.22496" lon="2.96124">
        <ele>850</ele>
        <time>2019-10-09T14:10:56.000Z</time>
      </trkpt>
      <trkpt lat="44.22494" lon="2.96123">
        <ele>850</ele>
        <time>2019-10-09T14:10:57.000Z</time>
      </trkpt>
      <trkpt lat="44.22493" lon="2.96121">
        <ele>850</ele>
        <time>2019-10-09T14:10:58.000Z</time>
      </trkpt>
      <trkpt lat="44.22492" lon="2.96119">
        <ele>850</ele>
        <time>2019-10-09T14:10:59.000Z</time>
      </trkpt>
      <trkpt lat="44.22493" lon="2.96116">
        <ele>849</ele>
        <time>2019-10-09T14:11:00.000Z</time>
      </trkpt>
      <trkpt lat="44.22496" lon="2.96117">
        <ele>849</ele>
        <time>2019-10-09T14:11:01.000Z</time>
      </trkpt>
      <trkpt lat="44.22499" lon="2.96119">
        <ele>849</ele>
        <time>2019-10-09T14:11:02.000Z</time>
      </trkpt>
      <trkpt lat="44.22503" lon="2.9612">
        <ele>849</ele>
        <time>2019-10-09T14:11:03.000Z</time>
      </trkpt>
      <trkpt lat="44.22506" lon="2.96121">
        <ele>849</ele>
        <time>2019-10-09T14:11:04.000Z</time>
      </trkpt>
      <trkpt lat="44.22509" lon="2.96121">
        <ele>850</ele>
        <time>2019-10-09T14:11:05.000Z</time>
      </trkpt>
      <trkpt lat="44.22512" lon="2.96121">
        <ele>850</ele>
        <time>2019-10-09T14:11:06.000Z</time>
      </trkpt>
      <trkpt lat="44.22513" lon="2.9612">
        <ele>850</ele>
        <time>2019-10-09T14:11:07.000Z</time>
      </trkpt>
      <trkpt lat="44.22514" lon="2.96118">
        <ele>850</ele>
        <time>2019-10-09T14:11:08.000Z</time>
      </trkpt>
      <trkpt lat="44.22514" lon="2.96117">
        <ele>850</ele>
        <time>2019-10-09T14:11:09.000Z</time>
      </trkpt>
      <trkpt lat="44.22515" lon="2.96115">
        <ele>850</ele>
        <time>2019-10-09T14:11:10.000Z</time>
      </trkpt>
      <trkpt lat="44.22515" lon="2.96113">
        <ele>850</ele>
        <time>2019-10-09T14:11:11.000Z</time>
      </trkpt>
      <trkpt lat="44.22514" lon="2.96111">
        <ele>850</ele>
        <time>2019-10-09T14:11:12.000Z</time>
      </trkpt>
      <trkpt lat="44.22514" lon="2.96109">
        <ele>850</ele>
        <time>2019-10-09T14:11:13.000Z</time>
      </trkpt>
      <trkpt lat="44.22513" lon="2.96108">
        <ele>850</ele>
        <time>2019-10-09T14:11:14.000Z</time>
      </trkpt>
      <trkpt lat="44.22512" lon="2.96106">
        <ele>850</ele>
        <time>2019-10-09T14:11:15.000Z</time>
      </trkpt>
      <trkpt lat="44.22511" lon="2.96104">
        <ele>851</ele>
        <time>2019-10-09T14:11:16.000Z</time>
      </trkpt>
      <trkpt lat="44.22509" lon="2.96102">
        <ele>851</ele>
        <time>2019-10-09T14:11:17.000Z</time>
      </trkpt>
      <trkpt lat="44.22508" lon="2.96101">
        <ele>851</ele>
        <time>2019-10-09T14:11:18.000Z</time>
      </trkpt>
      <trkpt lat="44.22507" lon="2.96099">
        <ele>851</ele>
        <time>2019-10-09T14:11:19.000Z</time>
      </trkpt>
      <trkpt lat="44.22505" lon="2.96096">
        <ele>851</ele>
        <time>2019-10-09T14:11:20.000Z</time>
      </trkpt>
      <trkpt lat="44.22503" lon="2.96093">
        <ele>851</ele>
        <time>2019-10-09T14:11:21.000Z</time>
      </trkpt>
      <trkpt lat="44.22502" lon="2.96089">
        <ele>851</ele>
        <time>2019-10-09T14:11:22.000Z</time>
      </trkpt>
      <trkpt lat="44.22501" lon="2.96084">
        <ele>851</ele>
        <time>2019-10-09T14:11:23.000Z</time>
      </trkpt>
      <trkpt lat="44.225" lon="2.9608">
        <ele>851</ele>
        <time>2019-10-09T14:11:24.000Z</time>
      </trkpt>
      <trkpt lat="44.22499" lon="2.96076">
        <ele>851</ele>
        <time>2019-10-09T14:11:25.000Z</time>
      </trkpt>
      <trkpt lat="44.22499" lon="2.96071">
        <ele>851</ele>
        <time>2019-10-09T14:11:26.000Z</time>
      </trkpt>
      <trkpt lat="44.22499" lon="2.96067">
        <ele>851</ele>
        <time>2019-10-09T14:11:27.000Z</time>
      </trkpt>
      <trkpt lat="44.22499" lon="2.96064">
        <ele>851</ele>
        <time>2019-10-09T14:11:28.000Z</time>
      </trkpt>
      <trkpt lat="44.22501" lon="2.9606">
        <ele>851</ele>
        <time>2019-10-09T14:11:29.000Z</time>
      </trkpt>
      <trkpt lat="44.22502" lon="2.96057">
        <ele>852</ele>
        <time>2019-10-09T14:11:30.000Z</time>
      </trkpt>
      <trkpt lat="44.22505" lon="2.96054">
        <ele>852</ele>
        <time>2019-10-09T14:11:31.000Z</time>
      </trkpt>
      <trkpt lat="44.22507" lon="2.96051">
        <ele>852</ele>
        <time>2019-10-09T14:11:32.000Z</time>
      </trkpt>
      <trkpt lat="44.2251" lon="2.96051">
        <ele>852</ele>
        <time>2019-10-09T14:11:33.000Z</time>
      </trkpt>
      <trkpt lat="44.22513" lon="2.96051">
        <ele>852</ele>
        <time>2019-10-09T14:11:34.000Z</time>
      </trkpt>
      <trkpt lat="44.22516" lon="2.96051">
        <ele>852</ele>
        <time>2019-10-09T14:11:35.000Z</time>
      </trkpt>
      <trkpt lat="44.22519" lon="2.96051">
        <ele>852</ele>
        <time>2019-10-09T14:11:36.000Z</time>
      </trkpt>
      <trkpt lat="44.22522" lon="2.96051">
        <ele>852</ele>
        <time>2019-10-09T14:11:37.000Z</time>
      </trkpt>
      <trkpt lat="44.22525" lon="2.96051">
        <ele>852</ele>
        <time>2019-10-09T14:11:38.000Z</time>
      </trkpt>
      <trkpt lat="44.22528" lon="2.96051">
        <ele>852</ele>
        <time>2019-10-09T14:11:39.000Z</time>
      </trkpt>
      <trkpt lat="44.22531" lon="2.96051">
        <ele>852</ele>
        <time>2019-10-09T14:11:40.000Z</time>
      </trkpt>
      <trkpt lat="44.22534" lon="2.9605">
        <ele>852</ele>
        <time>2019-10-09T14:11:41.000Z</time>
      </trkpt>
      <trkpt lat="44.22538" lon="2.9605">
        <ele>852</ele>
        <time>2019-10-09T14:11:42.000Z</time>
      </trkpt>
      <trkpt lat="44.22541" lon="2.9605">
        <ele>852</ele>
        <time>2019-10-09T14:11:43.000Z</time>
      </trkpt>
      <trkpt lat="44.22544" lon="2.9605">
        <ele>852</ele>
        <time>2019-10-09T14:11:44.000Z</time>
      </trkpt>
      <trkpt lat="44.22547" lon="2.9605">
        <ele>852</ele>
        <time>2019-10-09T14:11:45.000Z</time>
      </trkpt>
      <trkpt lat="44.2255" lon="2.9605">
        <ele>852</ele>
        <time>2019-10-09T14:11:46.000Z</time>
      </trkpt>
      <trkpt lat="44.22553" lon="2.9605">
        <ele>852</ele>
        <time>2019-10-09T14:11:47.000Z</time>
      </trkpt>
      <trkpt lat="44.22557" lon="2.9605">
        <ele>852</ele>
        <time>2019-10-09T14:11:48.000Z</time>
      </trkpt>
      <trkpt lat="44.2256" lon="2.9605">
        <ele>852</ele>
        <time>2019-10-09T14:11:49.000Z</time>
      </trkpt>
      <trkpt lat="44.22563" lon="2.96051">
        <ele>852</ele>
        <time>2019-10-09T14:11:50.000Z</time>
      </trkpt>
      <trkpt lat="44.22566" lon="2.96051">
        <ele>852</ele>
        <time>2019-10-09T14:11:51.000Z</time>
      </trkpt>
      <trkpt lat="44.22569" lon="2.96052">
        <ele>852</ele>
        <time>2019-10-09T14:11:52.000Z</time>
      </trkpt>
      <trkpt lat="44.22573" lon="2.96052">
        <ele>853</ele>
        <time>2019-10-09T14:11:53.000Z</time>
      </trkpt>
      <trkpt lat="44.22576" lon="2.96053">
        <ele>853</ele>
        <time>2019-10-09T14:11:54.000Z</time>
      </trkpt>
      <trkpt lat="44.22579" lon="2.96054">
        <ele>853</ele>
        <time>2019-10-09T14:11:55.000Z</time>
      </trkpt>
      <trkpt lat="44.22582" lon="2.96055">
        <ele>853</ele>
        <time>2019-10-09T14:11:56.000Z</time>
      </trkpt>
      <trkpt lat="44.22585" lon="2.96057">
        <ele>853</ele>
        <time>2019-10-09T14:11:57.000Z</time>
      </trkpt>
      <trkpt lat="44.22587" lon="2.9606">
        <ele>853</ele>
        <time>2019-10-09T14:11:58.000Z</time>
      </trkpt>
      <trkpt lat="44.2259" lon="2.96063">
        <ele>853</ele>
        <time>2019-10-09T14:11:59.000Z</time>
      </trkpt>
      <trkpt lat="44.22591" lon="2.96067">
        <ele>853</ele>
        <time>2019-10-09T14:12:00.000Z</time>
      </trkpt>
      <trkpt lat="44.22591" lon="2.96071">
        <ele>853</ele>
        <time>2019-10-09T14:12:01.000Z</time>
      </trkpt>
      <trkpt lat="44.22589" lon="2.96075">
        <ele>853</ele>
        <time>2019-10-09T14:12:02.000Z</time>
      </trkpt>
      <trkpt lat="44.22587" lon="2.96077">
        <ele>853</ele>
        <time>2019-10-09T14:12:03.000Z</time>
      </trkpt>
      <trkpt lat="44.22584" lon="2.9608">
        <ele>853</ele>
        <time>2019-10-09T14:12:04.000Z</time>
      </trkpt>
      <trkpt lat="44.2258" lon="2.9608">
        <ele>853</ele>
        <time>2019-10-09T14:12:05.000Z</time>
      </trkpt>
      <trkpt lat="44.22576" lon="2.9608">
        <ele>853</ele>
        <time>2019-10-09T14:12:06.000Z</time>
      </trkpt>
      <trkpt lat="44.22572" lon="2.96078">
        <ele>853</ele>
        <time>2019-10-09T14:12:07.000Z</time>
      </trkpt>
      <trkpt lat="44.22568" lon="2.96076">
        <ele>853</ele>
        <time>2019-10-09T14:12:08.000Z</time>
      </trkpt>
      <trkpt lat="44.22564" lon="2.96074">
        <ele>853</ele>
        <time>2019-10-09T14:12:09.000Z</time>
      </trkpt>
      <trkpt lat="44.2256" lon="2.96072">
        <ele>853</ele>
        <time>2019-10-09T14:12:10.000Z</time>
      </trkpt>
      <trkpt lat="44.22556" lon="2.96069">
        <ele>853</ele>
        <time>2019-10-09T14:12:11.000Z</time>
      </trkpt>
      <trkpt lat="44.22553" lon="2.96066">
        <ele>853</ele>
        <time>2019-10-09T14:12:12.000Z</time>
      </trkpt>
      <trkpt lat="44.22549" lon="2.96063">
        <ele>853</ele>
        <time>2019-10-09T14:12:13.000Z</time>
      </trkpt>
      <trkpt lat="44.22545" lon="2.96062">
        <ele>853</ele>
        <time>2019-10-09T14:12:14.000Z</time>
      </trkpt>
      <trkpt lat="44.22541" lon="2.9606">
        <ele>853</ele>
        <time>2019-10-09T14:12:15.000Z</time>
      </trkpt>
      <trkpt lat="44.22537" lon="2.9606">
        <ele>853</ele>
        <time>2019-10-09T14:12:16.000Z</time>
      </trkpt>
      <trkpt lat="44.22533" lon="2.96059">
        <ele>853</ele>
        <time>2019-10-09T14:12:17.000Z</time>
      </trkpt>
      <trkpt lat="44.22529" lon="2.96059">
        <ele>853</ele>
        <time>2019-10-09T14:12:18.000Z</time>
      </trkpt>
      <trkpt lat="44.22525" lon="2.96059">
        <ele>852</ele>
        <time>2019-10-09T14:12:19.000Z</time>
      </trkpt>
      <trkpt lat="44.22522" lon="2.9606">
        <ele>852</ele>
        <time>2019-10-09T14:12:20.000Z</time>
      </trkpt>
      <trkpt lat="44.22518" lon="2.9606">
        <ele>852</ele>
        <time>2019-10-09T14:12:21.000Z</time>
      </trkpt>
      <trkpt lat="44.22514" lon="2.96061">
        <ele>852</ele>
        <time>2019-10-09T14:12:22.000Z</time>
      </trkpt>
      <trkpt lat="44.22511" lon="2.96062">
        <ele>852</ele>
        <time>2019-10-09T14:12:23.000Z</time>
      </trkpt>
      <trkpt lat="44.22507" lon="2.96064">
        <ele>852</ele>
        <time>2019-10-09T14:12:24.000Z</time>
      </trkpt>
      <trkpt lat="44.22504" lon="2.96066">
        <ele>852</ele>
        <time>2019-10-09T14:12:25.000Z</time>
      </trkpt>
      <trkpt lat="44.22501" lon="2.96069">
        <ele>852</ele>
        <time>2019-10-09T14:12:26.000Z</time>
      </trkpt>
      <trkpt lat="44.22498" lon="2.96073">
        <ele>852</ele>
        <time>2019-10-09T14:12:27.000Z</time>
      </trkpt>
      <trkpt lat="44.22495" lon="2.96078">
        <ele>851</ele>
        <time>2019-10-09T14:12:28.000Z</time>
      </trkpt>
      <trkpt lat="44.22493" lon="2.96082">
        <ele>851</ele>
        <time>2019-10-09T14:12:29.000Z</time>
      </trkpt>
      <trkpt lat="44.22492" lon="2.96087">
        <ele>851</ele>
        <time>2019-10-09T14:12:30.000Z</time>
      </trkpt>
      <trkpt lat="44.22493" lon="2.96091">
        <ele>851</ele>
        <time>2019-10-09T14:12:31.000Z</time>
      </trkpt>
      <trkpt lat="44.22495" lon="2.96095">
        <ele>851</ele>
        <time>2019-10-09T14:12:32.000Z</time>
      </trkpt>
      <trkpt lat="44.22499" lon="2.96098">
        <ele>851</ele>
        <time>2019-10-09T14:12:33.000Z</time>
      </trkpt>
      <trkpt lat="44.22503" lon="2.961">
        <ele>851</ele>
        <time>2019-10-09T14:12:34.000Z</time>
      </trkpt>
      <trkpt lat="44.22509" lon="2.961">
        <ele>851</ele>
        <time>2019-10-09T14:12:35.000Z</time>
      </trkpt>
      <trkpt lat="44.22514" lon="2.96099">
        <ele>851</ele>
        <time>2019-10-09T14:12:36.000Z</time>
      </trkpt>
      <trkpt lat="44.22519" lon="2.96098">
        <ele>851</ele>
        <time>2019-10-09T14:12:37.000Z</time>
      </trkpt>
      <trkpt lat="44.22523" lon="2.96097">
        <ele>851</ele>
        <time>2019-10-09T14:12:38.000Z</time>
      </trkpt>
      <trkpt lat="44.22527" lon="2.96096">
        <ele>851</ele>
        <time>2019-10-09T14:12:39.000Z</time>
      </trkpt>
      <trkpt lat="44.2253" lon="2.96094">
        <ele>851</ele>
        <time>2019-10-09T14:12:40.000Z</time>
      </trkpt>
      <trkpt lat="44.22532" lon="2.96093">
        <ele>851</ele>
        <time>2019-10-09T14:12:41.000Z</time>
      </trkpt>
      <trkpt lat="44.22534" lon="2.96092">
        <ele>851</ele>
        <time>2019-10-09T14:12:42.000Z</time>
      </trkpt>
      <trkpt lat="44.22536" lon="2.96092">
        <ele>851</ele>
        <time>2019-10-09T14:12:43.000Z</time>
      </trkpt>
      <trkpt lat="44.22538" lon="2.96092">
        <ele>851</ele>
        <time>2019-10-09T14:12:44.000Z</time>
      </trkpt>
      <trkpt lat="44.2254" lon="2.96093">
        <ele>851</ele>
        <time>2019-10-09T14:12:45.000Z</time>
      </trkpt>
      <trkpt lat="44.22541" lon="2.96094">
        <ele>851</ele>
        <time>2019-10-09T14:12:46.000Z</time>
      </trkpt>
      <trkpt lat="44.22542" lon="2.96096">
        <ele>851</ele>
        <time>2019-10-09T14:12:47.000Z</time>
      </trkpt>
      <trkpt lat="44.22543" lon="2.96098">
        <ele>851</ele>
        <time>2019-10-09T14:12:48.000Z</time>
      </trkpt>
      <trkpt lat="44.22543" lon="2.961">
        <ele>852</ele>
        <time>2019-10-09T14:12:49.000Z</time>
      </trkpt>
      <trkpt lat="44.22543" lon="2.96102">
        <ele>852</ele>
        <time>2019-10-09T14:12:50.000Z</time>
      </trkpt>
      <trkpt lat="44.22543" lon="2.96104">
        <ele>852</ele>
        <time>2019-10-09T14:12:51.000Z</time>
      </trkpt>
      <trkpt lat="44.22542" lon="2.96106">
        <ele>852</ele>
        <time>2019-10-09T14:12:52.000Z</time>
      </trkpt>
      <trkpt lat="44.22542" lon="2.96109">
        <ele>852</ele>
        <time>2019-10-09T14:12:53.000Z</time>
      </trkpt>
      <trkpt lat="44.22541" lon="2.96111">
        <ele>852</ele>
        <time>2019-10-09T14:12:54.000Z</time>
      </trkpt>
      <trkpt lat="44.2254" lon="2.96113">
        <ele>852</ele>
        <time>2019-10-09T14:12:55.000Z</time>
      </trkpt>
      <trkpt lat="44.22539" lon="2.96116">
        <ele>852</ele>
        <time>2019-10-09T14:12:56.000Z</time>
      </trkpt>
      <trkpt lat="44.22537" lon="2.96119">
        <ele>851</ele>
        <time>2019-10-09T14:12:57.000Z</time>
      </trkpt>
      <trkpt lat="44.22534" lon="2.96121">
        <ele>851</ele>
        <time>2019-10-09T14:12:58.000Z</time>
      </trkpt>
      <trkpt lat="44.22532" lon="2.96124">
        <ele>851</ele>
        <time>2019-10-09T14:12:59.000Z</time>
      </trkpt>
      <trkpt lat="44.22528" lon="2.96126">
        <ele>851</ele>
        <time>2019-10-09T14:13:00.000Z</time>
      </trkpt>
      <trkpt lat="44.22525" lon="2.96127">
        <ele>851</ele>
        <time>2019-10-09T14:13:01.000Z</time>
      </trkpt>
      <trkpt lat="44.22521" lon="2.96129">
        <ele>851</ele>
        <time>2019-10-09T14:13:02.000Z</time>
      </trkpt>
      <trkpt lat="44.22518" lon="2.9613">
        <ele>851</ele>
        <time>2019-10-09T14:13:03.000Z</time>
      </trkpt>
      <trkpt lat="44.22514" lon="2.96131">
        <ele>851</ele>
        <time>2019-10-09T14:13:04.000Z</time>
      </trkpt>
      <trkpt lat="44.22511" lon="2.96132">
        <ele>851</ele>
        <time>2019-10-09T14:13:05.000Z</time>
      </trkpt>
      <trkpt lat="44.22508" lon="2.96132">
        <ele>851</ele>
        <time>2019-10-09T14:13:06.000Z</time>
      </trkpt>
      <trkpt lat="44.22505" lon="2.96132">
        <ele>851</ele>
        <time>2019-10-09T14:13:07.000Z</time>
      </trkpt>
      <trkpt lat="44.22502" lon="2.96131">
        <ele>851</ele>
        <time>2019-10-09T14:13:08.000Z</time>
      </trkpt>
      <trkpt lat="44.22499" lon="2.96129">
        <ele>851</ele>
        <time>2019-10-09T14:13:09.000Z</time>
      </trkpt>
      <trkpt lat="44.22497" lon="2.96127">
        <ele>851</ele>
        <time>2019-10-09T14:13:10.000Z</time>
      </trkpt>
      <trkpt lat="44.22495" lon="2.96124">
        <ele>851</ele>
        <time>2019-10-09T14:13:11.000Z</time>
      </trkpt>
      <trkpt lat="44.22493" lon="2.9612">
        <ele>851</ele>
        <time>2019-10-09T14:13:12.000Z</time>
      </trkpt>
      <trkpt lat="44.22492" lon="2.96117">
        <ele>851</ele>
        <time>2019-10-09T14:13:13.000Z</time>
      </trkpt>
      <trkpt lat="44.22492" lon="2.96113">
        <ele>851</ele>
        <time>2019-10-09T14:13:14.000Z</time>
      </trkpt>
      <trkpt lat="44.22493" lon="2.9611">
        <ele>851</ele>
        <time>2019-10-09T14:13:15.000Z</time>
      </trkpt>
      <trkpt lat="44.22494" lon="2.96107">
        <ele>851</ele>
        <time>2019-10-09T14:13:16.000Z</time>
      </trkpt>
      <trkpt lat="44.22495" lon="2.96104">
        <ele>851</ele>
        <time>2019-10-09T14:13:17.000Z</time>
      </trkpt>
      <trkpt lat="44.22497" lon="2.96102">
        <ele>851</ele>
        <time>2019-10-09T14:13:18.000Z</time>
      </trkpt>
      <trkpt lat="44.22498" lon="2.96101">
        <ele>851</ele>
        <time>2019-10-09T14:13:19.000Z</time>
      </trkpt>
      <trkpt lat="44.225" lon="2.961">
        <ele>851</ele>
        <time>2019-10-09T14:13:20.000Z</time>
      </trkpt>
      <trkpt lat="44.22501" lon="2.96099">
        <ele>851</ele>
        <time>2019-10-09T14:13:21.000Z</time>
      </trkpt>
      <trkpt lat="44.22502" lon="2.96098">
        <ele>851</ele>
        <time>2019-10-09T14:13:22.000Z</time>
      </trkpt>
      <trkpt lat="44.22504" lon="2.96097">
        <ele>851</ele>
        <time>2019-10-09T14:13:23.000Z</time>
      </trkpt>
      <trkpt lat="44.22505" lon="2.96096">
        <ele>851</ele>
        <time>2019-10-09T14:13:24.000Z</time>
      </trkpt>
      <trkpt lat="44.22506" lon="2.96094">
        <ele>851</ele>
        <time>2019-10-09T14:13:25.000Z</time>
      </trkpt>
      <trkpt lat="44.22507" lon="2.96093">
        <ele>851</ele>
        <time>2019-10-09T14:13:26.000Z</time>
      </trkpt>
      <trkpt lat="44.22508" lon="2.96091">
        <ele>852</ele>
        <time>2019-10-09T14:13:27.000Z</time>
      </trkpt>
      <trkpt lat="44.2251" lon="2.96089">
        <ele>852</ele>
        <time>2019-10-09T14:13:28.000Z</time>
      </trkpt>
      <trkpt lat="44.22511" lon="2.96088">
        <ele>852</ele>
        <time>2019-10-09T14:13:29.000Z</time>
      </trkpt>
      <trkpt lat="44.22512" lon="2.96086">
        <ele>852</ele>
        <time>2019-10-09T14:13:30.000Z</time>
      </trkpt>
      <trkpt lat="44.22513" lon="2.96085">
        <ele>852</ele>
        <time>2019-10-09T14:13:31.000Z</time>
      </trkpt>
      <trkpt lat="44.22514" lon="2.96083">
        <ele>852</ele>
        <time>2019-10-09T14:13:32.000Z</time>
      </trkpt>
      <trkpt lat="44.22515" lon="2.96082">
        <ele>852</ele>
        <time>2019-10-09T14:13:33.000Z</time>
      </trkpt>
      <trkpt lat="44.22517" lon="2.96081">
        <ele>852</ele>
        <time>2019-10-09T14:13:34.000Z</time>
      </trkpt>
      <trkpt lat="44.22518" lon="2.9608">
        <ele>852</ele>
        <time>2019-10-09T14:13:35.000Z</time>
      </trkpt>
      <trkpt lat="44.22519" lon="2.96079">
        <ele>852</ele>
        <time>2019-10-09T14:13:36.000Z</time>
      </trkpt>
      <trkpt lat="44.22521" lon="2.96079">
        <ele>852</ele>
        <time>2019-10-09T14:13:37.000Z</time>
      </trkpt>
      <trkpt lat="44.22522" lon="2.96079">
        <ele>852</ele>
        <time>2019-10-09T14:13:38.000Z</time>
      </trkpt>
      <trkpt lat="44.22523" lon="2.9608">
        <ele>852</ele>
        <time>2019-10-09T14:13:39.000Z</time>
      </trkpt>
      <trkpt lat="44.22524" lon="2.96081">
        <ele>852</ele>
        <time>2019-10-09T14:13:40.000Z</time>
      </trkpt>
      <trkpt lat="44.22524" lon="2.96083">
        <ele>852</ele>
        <time>2019-10-09T14:13:41.000Z</time>
      </trkpt>
      <trkpt lat="44.22524" lon="2.96085">
        <ele>852</ele>
        <time>2019-10-09T14:13:42.000Z</time>
      </trkpt>
      <trkpt lat="44.22523" lon="2.96087">
        <ele>852</ele>
        <time>2019-10-09T14:13:43.000Z</time>
      </trkpt>
      <trkpt lat="44.22522" lon="2.96088">
        <ele>852</ele>
        <time>2019-10-09T14:13:44.000Z</time>
      </trkpt>
      <trkpt lat="44.22521" lon="2.96089">
        <ele>852</ele>
        <time>2019-10-09T14:13:45.000Z</time>
      </trkpt>
      <trkpt lat="44.22519" lon="2.96089">
        <ele>852</ele>
        <time>2019-10-09T14:13:46.000Z</time>
      </trkpt>
      <trkpt lat="44.22518" lon="2.9609">
        <ele>852</ele>
        <time>2019-10-09T14:13:47.000Z</time>
      </trkpt>
      <trkpt lat="44.22517" lon="2.9609">
        <ele>852</ele>
        <time>2019-10-09T14:13:48.000Z</time>
      </trkpt>
      <trkpt lat="44.22516" lon="2.96091">
        <ele>852</ele>
        <time>2019-10-09T14:13:49.000Z</time>
      </trkpt>
      <trkpt lat="44.22515" lon="2.96091">
        <ele>852</ele>
        <time>2019-10-09T14:13:50.000Z</time>
      </trkpt>
      <trkpt lat="44.22514" lon="2.96092">
        <ele>852</ele>
        <time>2019-10-09T14:13:51.000Z</time>
      </trkpt>
      <trkpt lat="44.22513" lon="2.96094">
        <ele>852</ele>
        <time>2019-10-09T14:13:52.000Z</time>
      </trkpt>
      <trkpt lat="44.22512" lon="2.96094">
        <ele>852</ele>
        <time>2019-10-09T14:13:53.000Z</time>
      </trkpt>
      <trkpt lat="44.22511" lon="2.96096">
        <ele>852</ele>
        <time>2019-10-09T14:13:54.000Z</time>
      </trkpt>
      <trkpt lat="44.22511" lon="2.96097">
        <ele>852</ele>
        <time>2019-10-09T14:13:55.000Z</time>
      </trkpt>
      <trkpt lat="44.2251" lon="2.96098">
        <ele>852</ele>
        <time>2019-10-09T14:13:56.000Z</time>
      </trkpt>
      <trkpt lat="44.22509" lon="2.96099">
        <ele>852</ele>
        <time>2019-10-09T14:13:57.000Z</time>
      </trkpt>
      <trkpt lat="44.22508" lon="2.961">
        <ele>852</ele>
        <time>2019-10-09T14:13:58.000Z</time>
      </trkpt>
      <trkpt lat="44.22507" lon="2.96101">
        <ele>852</ele>
        <time>2019-10-09T14:13:59.000Z</time>
      </trkpt>
      <trkpt lat="44.22506" lon="2.96103">
        <ele>852</ele>
        <time>2019-10-09T14:14:00.000Z</time>
      </trkpt>
      <trkpt lat="44.22505" lon="2.96104">
        <ele>852</ele>
        <time>2019-10-09T14:14:01.000Z</time>
      </trkpt>
      <trkpt lat="44.22505" lon="2.96105">
        <ele>852</ele>
        <time>2019-10-09T14:14:02.000Z</time>
      </trkpt>
      <trkpt lat="44.22504" lon="2.96107">
        <ele>852</ele>
        <time>2019-10-09T14:14:03.000Z</time>
      </trkpt>
      <trkpt lat="44.22503" lon="2.96108">
        <ele>852</ele>
        <time>2019-10-09T14:14:04.000Z</time>
      </trkpt>
      <trkpt lat="44.22502" lon="2.9611">
        <ele>852</ele>
        <time>2019-10-09T14:14:05.000Z</time>
      </trkpt>
      <trkpt lat="44.22501" lon="2.96111">
        <ele>852</ele>
        <time>2019-10-09T14:14:06.000Z</time>
      </trkpt>
      <trkpt lat="44.225" lon="2.96112">
        <ele>852</ele>
        <time>2019-10-09T14:14:07.000Z</time>
      </trkpt>
      <trkpt lat="44.22499" lon="2.96113">
        <ele>851</ele>
        <time>2019-10-09T14:14:08.000Z</time>
      </trkpt>
      <trkpt lat="44.22498" lon="2.96114">
        <ele>851</ele>
        <time>2019-10-09T14:14:09.000Z</time>
      </trkpt>
      <trkpt lat="44.22498" lon="2.96115">
        <ele>851</ele>
        <time>2019-10-09T14:14:10.000Z</time>
      </trkpt>
      <trkpt lat="44.22497" lon="2.96116">
        <ele>851</ele>
        <time>2019-10-09T14:14:11.000Z</time>
      </trkpt>
      <trkpt lat="44.22496" lon="2.96118">
        <ele>851</ele>
        <time>2019-10-09T14:14:12.000Z</time>
      </trkpt>
      <trkpt lat="44.22495" lon="2.96119">
        <ele>851</ele>
        <time>2019-10-09T14:14:13.000Z</time>
      </trkpt>
      <trkpt lat="44.22494" lon="2.96121">
        <ele>851</ele>
        <time>2019-10-09T14:14:14.000Z</time>
      </trkpt>
      <trkpt lat="44.22493" lon="2.96122">
        <ele>851</ele>
        <time>2019-10-09T14:14:15.000Z</time>
      </trkpt>
      <trkpt lat="44.22491" lon="2.96123">
        <ele>851</ele>
        <time>2019-10-09T14:14:16.000Z</time>
      </trkpt>
      <trkpt lat="44.2249" lon="2.96124">
        <ele>851</ele>
        <time>2019-10-09T14:14:17.000Z</time>
      </trkpt>
      <trkpt lat="44.22489" lon="2.96125">
        <ele>851</ele>
        <time>2019-10-09T14:14:18.000Z</time>
      </trkpt>
      <trkpt lat="44.22488" lon="2.96126">
        <ele>851</ele>
        <time>2019-10-09T14:14:19.000Z</time>
      </trkpt>
      <trkpt lat="44.22487" lon="2.96127">
        <ele>851</ele>
        <time>2019-10-09T14:14:20.000Z</time>
      </trkpt>
      <trkpt lat="44.22486" lon="2.96128">
        <ele>851</ele>
        <time>2019-10-09T14:14:21.000Z</time>
      </trkpt>
      <trkpt lat="44.22485" lon="2.96129">
        <ele>851</ele>
        <time>2019-10-09T14:14:22.000Z</time>
      </trkpt>
      <trkpt lat="44.22484" lon="2.96129">
        <ele>851</ele>
        <time>2019-10-09T14:14:23.000Z</time>
      </trkpt>
      <trkpt lat="44.22482" lon="2.9613">
        <ele>851</ele>
        <time>2019-10-09T14:14:24.000Z</time>
      </trkpt>
      <trkpt lat="44.22481" lon="2.96131">
        <ele>851</ele>
        <time>2019-10-09T14:14:25.000Z</time>
      </trkpt>
      <trkpt lat="44.2248" lon="2.96132">
        <ele>851</ele>
        <time>2019-10-09T14:14:26.000Z</time>
      </trkpt>
      <trkpt lat="44.22479" lon="2.96132">
        <ele>851</ele>
        <time>2019-10-09T14:14:27.000Z</time>
      </trkpt>
      <trkpt lat="44.22477" lon="2.96132">
        <ele>850</ele>
        <time>2019-10-09T14:14:28.000Z</time>
      </trkpt>
      <trkpt lat="44.22476" lon="2.96132">
        <ele>850</ele>
        <time>2019-10-09T14:14:29.000Z</time>
      </trkpt>
      <trkpt lat="44.22475" lon="2.96133">
        <ele>850</ele>
        <time>2019-10-09T14:14:30.000Z</time>
      </trkpt>
      <trkpt lat="44.22474" lon="2.96133">
        <ele>850</ele>
        <time>2019-10-09T14:14:31.000Z</time>
      </trkpt>
      <trkpt lat="44.22472" lon="2.96133">
        <ele>850</ele>
        <time>2019-10-09T14:14:32.000Z</time>
      </trkpt>
      <trkpt lat="44.22471" lon="2.96134">
        <ele>850</ele>
        <time>2019-10-09T14:14:33.000Z</time>
      </trkpt>
      <trkpt lat="44.2247" lon="2.96135">
        <ele>850</ele>
        <time>2019-10-09T14:14:34.000Z</time>
      </trkpt>
      <trkpt lat="44.22469" lon="2.96136">
        <ele>850</ele>
        <time>2019-10-09T14:14:35.000Z</time>
      </trkpt>
      <trkpt lat="44.22467" lon="2.96137">
        <ele>850</ele>
        <time>2019-10-09T14:14:36.000Z</time>
      </trkpt>
      <trkpt lat="44.22466" lon="2.96138">
        <ele>850</ele>
        <time>2019-10-09T14:14:37.000Z</time>
      </trkpt>
      <trkpt lat="44.22465" lon="2.96139">
        <ele>850</ele>
        <time>2019-10-09T14:14:38.000Z</time>
      </trkpt>
      <trkpt lat="44.22464" lon="2.9614">
        <ele>849</ele>
        <time>2019-10-09T14:14:39.000Z</time>
      </trkpt>
      <trkpt lat="44.22464" lon="2.96141">
        <ele>849</ele>
        <time>2019-10-09T14:14:40.000Z</time>
      </trkpt>
      <trkpt lat="44.22462" lon="2.96142">
        <ele>849</ele>
        <time>2019-10-09T14:14:41.000Z</time>
      </trkpt>
      <trkpt lat="44.22461" lon="2.96142">
        <ele>849</ele>
        <time>2019-10-09T14:14:42.000Z</time>
      </trkpt>
      <trkpt lat="44.2246" lon="2.96143">
        <ele>849</ele>
        <time>2019-10-09T14:14:43.000Z</time>
      </trkpt>
      <trkpt lat="44.22458" lon="2.96143">
        <ele>849</ele>
        <time>2019-10-09T14:14:44.000Z</time>
      </trkpt>
      <trkpt lat="44.22457" lon="2.96143">
        <ele>849</ele>
        <time>2019-10-09T14:14:45.000Z</time>
      </trkpt>
      <trkpt lat="44.22455" lon="2.96143">
        <ele>849</ele>
        <time>2019-10-09T14:14:46.000Z</time>
      </trkpt>
      <trkpt lat="44.22454" lon="2.96144">
        <ele>849</ele>
        <time>2019-10-09T14:14:47.000Z</time>
      </trkpt>
      <trkpt lat="44.22453" lon="2.96144">
        <ele>849</ele>
        <time>2019-10-09T14:14:48.000Z</time>
      </trkpt>
      <trkpt lat="44.22451" lon="2.96144">
        <ele>849</ele>
        <time>2019-10-09T14:14:49.000Z</time>
      </trkpt>
      <trkpt lat="44.2245" lon="2.96144">
        <ele>849</ele>
        <time>2019-10-09T14:14:50.000Z</time>
      </trkpt>
      <trkpt lat="44.22449" lon="2.96144">
        <ele>848</ele>
        <time>2019-10-09T14:14:51.000Z</time>
      </trkpt>
      <trkpt lat="44.22448" lon="2.96145">
        <ele>848</ele>
        <time>2019-10-09T14:14:52.000Z</time>
      </trkpt>
      <trkpt lat="44.22446" lon="2.96145">
        <ele>848</ele>
        <time>2019-10-09T14:14:53.000Z</time>
      </trkpt>
      <trkpt lat="44.22445" lon="2.96145">
        <ele>848</ele>
        <time>2019-10-09T14:14:54.000Z</time>
      </trkpt>
      <trkpt lat="44.22444" lon="2.96145">
        <ele>848</ele>
        <time>2019-10-09T14:14:55.000Z</time>
      </trkpt>
      <trkpt lat="44.22443" lon="2.96145">
        <ele>848</ele>
        <time>2019-10-09T14:14:56.000Z</time>
      </trkpt>
      <trkpt lat="44.22441" lon="2.96146">
        <ele>848</ele>
        <time>2019-10-09T14:14:57.000Z</time>
      </trkpt>
      <trkpt lat="44.2244" lon="2.96146">
        <ele>848</ele>
        <time>2019-10-09T14:14:58.000Z</time>
      </trkpt>
      <trkpt lat="44.22438" lon="2.96146">
        <ele>848</ele>
        <time>2019-10-09T14:14:59.000Z</time>
      </trkpt>
      <trkpt lat="44.22437" lon="2.96146">
        <ele>848</ele>
        <time>2019-10-09T14:15:00.000Z</time>
      </trkpt>
      <trkpt lat="44.22435" lon="2.96146">
        <ele>848</ele>
        <time>2019-10-09T14:15:01.000Z</time>
      </trkpt>
      <trkpt lat="44.22433" lon="2.96146">
        <ele>848</ele>
        <time>2019-10-09T14:15:02.000Z</time>
      </trkpt>
      <trkpt lat="44.22432" lon="2.96145">
        <ele>848</ele>
        <time>2019-10-09T14:15:03.000Z</time>
      </trkpt>
      <trkpt lat="44.2243" lon="2.96144">
        <ele>848</ele>
        <time>2019-10-09T14:15:04.000Z</time>
      </trkpt>
      <trkpt lat="44.22429" lon="2.96143">
        <ele>848</ele>
        <time>2019-10-09T14:15:05.000Z</time>
      </trkpt>
      <trkpt lat="44.22427" lon="2.96142">
        <ele>847</ele>
        <time>2019-10-09T14:15:06.000Z</time>
      </trkpt>
      <trkpt lat="44.22426" lon="2.96141">
        <ele>847</ele>
        <time>2019-10-09T14:15:07.000Z</time>
      </trkpt>
      <trkpt lat="44.22424" lon="2.9614">
        <ele>847</ele>
        <time>2019-10-09T14:15:08.000Z</time>
      </trkpt>
      <trkpt lat="44.22423" lon="2.96139">
        <ele>847</ele>
        <time>2019-10-09T14:15:09.000Z</time>
      </trkpt>
      <trkpt lat="44.22421" lon="2.96139">
        <ele>847</ele>
        <time>2019-10-09T14:15:10.000Z</time>
      </trkpt>
      <trkpt lat="44.2242" lon="2.96138">
        <ele>847</ele>
        <time>2019-10-09T14:15:11.000Z</time>
      </trkpt>
      <trkpt lat="44.22418" lon="2.96138">
        <ele>847</ele>
        <time>2019-10-09T14:15:12.000Z</time>
      </trkpt>
      <trkpt lat="44.22416" lon="2.96138">
        <ele>846</ele>
        <time>2019-10-09T14:15:13.000Z</time>
      </trkpt>
      <trkpt lat="44.22415" lon="2.96139">
        <ele>846</ele>
        <time>2019-10-09T14:15:14.000Z</time>
      </trkpt>
      <trkpt lat="44.22413" lon="2.96139">
        <ele>846</ele>
        <time>2019-10-09T14:15:15.000Z</time>
      </trkpt>
      <trkpt lat="44.22411" lon="2.9614">
        <ele>846</ele>
        <time>2019-10-09T14:15:16.000Z</time>
      </trkpt>
      <trkpt lat="44.22409" lon="2.9614">
        <ele>846</ele>
        <time>2019-10-09T14:15:17.000Z</time>
      </trkpt>
      <trkpt lat="44.22407" lon="2.96141">
        <ele>845</ele>
        <time>2019-10-09T14:15:18.000Z</time>
      </trkpt>
      <trkpt lat="44.22405" lon="2.96141">
        <ele>845</ele>
        <time>2019-10-09T14:15:19.000Z</time>
      </trkpt>
      <trkpt lat="44.22404" lon="2.96141">
        <ele>845</ele>
        <time>2019-10-09T14:15:20.000Z</time>
      </trkpt>
      <trkpt lat="44.22402" lon="2.96141">
        <ele>845</ele>
        <time>2019-10-09T14:15:21.000Z</time>
      </trkpt>
      <trkpt lat="44.22401" lon="2.96141">
        <ele>845</ele>
        <time>2019-10-09T14:15:22.000Z</time>
      </trkpt>
      <trkpt lat="44.224" lon="2.96141">
        <ele>845</ele>
        <time>2019-10-09T14:15:23.000Z</time>
      </trkpt>
      <trkpt lat="44.22398" lon="2.96142">
        <ele>845</ele>
        <time>2019-10-09T14:15:24.000Z</time>
      </trkpt>
      <trkpt lat="44.22397" lon="2.96142">
        <ele>845</ele>
        <time>2019-10-09T14:15:25.000Z</time>
      </trkpt>
      <trkpt lat="44.22396" lon="2.96143">
        <ele>845</ele>
        <time>2019-10-09T14:15:26.000Z</time>
      </trkpt>
      <trkpt lat="44.22394" lon="2.96144">
        <ele>844</ele>
        <time>2019-10-09T14:15:27.000Z</time>
      </trkpt>
      <trkpt lat="44.22393" lon="2.96145">
        <ele>844</ele>
        <time>2019-10-09T14:15:28.000Z</time>
      </trkpt>
      <trkpt lat="44.22392" lon="2.96147">
        <ele>844</ele>
        <time>2019-10-09T14:15:29.000Z</time>
      </trkpt>
      <trkpt lat="44.22391" lon="2.96148">
        <ele>844</ele>
        <time>2019-10-09T14:15:30.000Z</time>
      </trkpt>
      <trkpt lat="44.2239" lon="2.9615">
        <ele>844</ele>
        <time>2019-10-09T14:15:31.000Z</time>
      </trkpt>
      <trkpt lat="44.22389" lon="2.96152">
        <ele>844</ele>
        <time>2019-10-09T14:15:32.000Z</time>
      </trkpt>
      <trkpt lat="44.22389" lon="2.96154">
        <ele>844</ele>
        <time>2019-10-09T14:15:33.000Z</time>
      </trkpt>
      <trkpt lat="44.22388" lon="2.96155">
        <ele>844</ele>
        <time>2019-10-09T14:15:34.000Z</time>
      </trkpt>
      <trkpt lat="44.22387" lon="2.96157">
        <ele>844</ele>
        <time>2019-10-09T14:15:35.000Z</time>
      </trkpt>
      <trkpt lat="44.22387" lon="2.96159">
        <ele>844</ele>
        <time>2019-10-09T14:15:36.000Z</time>
      </trkpt>
      <trkpt lat="44.22386" lon="2.96161">
        <ele>844</ele>
        <time>2019-10-09T14:15:37.000Z</time>
      </trkpt>
      <trkpt lat="44.22386" lon="2.96163">
        <ele>844</ele>
        <time>2019-10-09T14:15:38.000Z</time>
      </trkpt>
      <trkpt lat="44.22385" lon="2.96164">
        <ele>844</ele>
        <time>2019-10-09T14:15:39.000Z</time>
      </trkpt>
      <trkpt lat="44.22385" lon="2.96165">
        <ele>845</ele>
        <time>2019-10-09T14:15:40.000Z</time>
      </trkpt>
      <trkpt lat="44.22385" lon="2.96165">
        <ele>845</ele>
        <time>2019-10-09T14:15:41.000Z</time>
      </trkpt>
      <trkpt lat="44.22385" lon="2.96166">
        <ele>845</ele>
        <time>2019-10-09T14:15:42.000Z</time>
      </trkpt>
      <trkpt lat="44.22385" lon="2.96166">
        <ele>845</ele>
        <time>2019-10-09T14:15:43.000Z</time>
      </trkpt>
      <trkpt lat="44.22385" lon="2.96166">
        <ele>845</ele>
        <time>2019-10-09T14:15:44.000Z</time>
      </trkpt>
      <trkpt lat="44.22386" lon="2.96167">
        <ele>845</ele>
        <time>2019-10-09T14:15:45.000Z</time>
      </trkpt>
      <trkpt lat="44.22386" lon="2.96167">
        <ele>845</ele>
        <time>2019-10-09T14:15:46.000Z</time>
      </trkpt>
      <trkpt lat="44.22386" lon="2.96168">
        <ele>845</ele>
        <time>2019-10-09T14:15:47.000Z</time>
      </trkpt>
      <trkpt lat="44.22386" lon="2.96169">
        <ele>845</ele>
        <time>2019-10-09T14:15:48.000Z</time>
      </trkpt>
      <trkpt lat="44.22386" lon="2.96169">
        <ele>845</ele>
        <time>2019-10-09T14:15:49.000Z</time>
      </trkpt>
      <trkpt lat="44.22386" lon="2.96169">
        <ele>846</ele>
        <time>2019-10-09T14:15:50.000Z</time>
      </trkpt>
      <trkpt lat="44.22385" lon="2.9617">
        <ele>846</ele>
        <time>2019-10-09T14:15:51.000Z</time>
      </trkpt>
      <trkpt lat="44.22385" lon="2.96172">
        <ele>846</ele>
        <time>2019-10-09T14:15:52.000Z</time>
      </trkpt>
      <trkpt lat="44.22385" lon="2.96173">
        <ele>846</ele>
        <time>2019-10-09T14:15:53.000Z</time>
      </trkpt>
      <trkpt lat="44.22385" lon="2.96174">
        <ele>846</ele>
        <time>2019-10-09T14:15:54.000Z</time>
      </trkpt>
      <trkpt lat="44.22385" lon="2.96174">
        <ele>846</ele>
        <time>2019-10-09T14:15:55.000Z</time>
      </trkpt>
      <trkpt lat="44.22385" lon="2.96174">
        <ele>846</ele>
        <time>2019-10-09T14:15:56.000Z</time>
      </trkpt>
      <trkpt lat="44.22385" lon="2.96174">
        <ele>846</ele>
        <time>2019-10-09T14:15:57.000Z</time>
      </trkpt>
      <trkpt lat="44.22385" lon="2.96175">
        <ele>846</ele>
        <time>2019-10-09T14:15:58.000Z</time>
      </trkpt>
      <trkpt lat="44.22384" lon="2.96175">
        <ele>846</ele>
        <time>2019-10-09T14:15:59.000Z</time>
      </trkpt>
      <trkpt lat="44.22384" lon="2.96174">
        <ele>846</ele>
        <time>2019-10-09T14:16:00.000Z</time>
      </trkpt>
      <trkpt lat="44.22384" lon="2.96174">
        <ele>846</ele>
        <time>2019-10-09T14:16:01.000Z</time>
      </trkpt>
      <trkpt lat="44.22385" lon="2.96174">
        <ele>846</ele>
        <time>2019-10-09T14:16:02.000Z</time>
      </trkpt>
      <trkpt lat="44.22385" lon="2.96174">
        <ele>846</ele>
        <time>2019-10-09T14:16:03.000Z</time>
      </trkpt>
      <trkpt lat="44.22385" lon="2.96174">
        <ele>846</ele>
        <time>2019-10-09T14:16:04.000Z</time>
      </trkpt>
      <trkpt lat="44.22385" lon="2.96174">
        <ele>846</ele>
        <time>2019-10-09T14:16:05.000Z</time>
      </trkpt>
      <trkpt lat="44.22385" lon="2.96174">
        <ele>846</ele>
        <time>2019-10-09T14:16:06.000Z</time>
      </trkpt>
      <trkpt lat="44.22385" lon="2.96174">
        <ele>846</ele>
        <time>2019-10-09T14:16:07.000Z</time>
      </trkpt>
      <trkpt lat="44.22385" lon="2.96173">
        <ele>846</ele>
        <time>2019-10-09T14:16:08.000Z</time>
      </trkpt>
      <trkpt lat="44.22385" lon="2.96173">
        <ele>846</ele>
        <time>2019-10-09T14:16:09.000Z</time>
      </trkpt>
      <trkpt lat="44.22385" lon="2.96174">
        <ele>846</ele>
        <time>2019-10-09T14:16:10.000Z</time>
      </trkpt>
      <trkpt lat="44.22385" lon="2.96174">
        <ele>846</ele>
        <time>2019-10-09T14:16:11.000Z</time>
      </trkpt>
      <trkpt lat="44.22385" lon="2.96174">
        <ele>846</ele>
        <time>2019-10-09T14:16:12.000Z</time>
      </trkpt>
      <trkpt lat="44.22385" lon="2.96174">
        <ele>846</ele>
        <time>2019-10-09T14:16:13.000Z</time>
      </trkpt>
      <trkpt lat="44.22384" lon="2.96174">
        <ele>846</ele>
        <time>2019-10-09T14:16:14.000Z</time>
      </trkpt>
      <trkpt lat="44.22384" lon="2.96174">
        <ele>846</ele>
        <time>2019-10-09T14:16:15.000Z</time>
      </trkpt>
      <trkpt lat="44.22385" lon="2.96174">
        <ele>846</ele>
        <time>2019-10-09T14:16:16.000Z</time>
      </trkpt>
      <trkpt lat="44.22385" lon="2.96174">
        <ele>846</ele>
        <time>2019-10-09T14:16:17.000Z</time>
      </trkpt>
      <trkpt lat="44.22385" lon="2.96174">
        <ele>846</ele>
        <time>2019-10-09T14:16:18.000Z</time>
      </trkpt>
      <trkpt lat="44.22385" lon="2.96174">
        <ele>846</ele>
        <time>2019-10-09T14:16:19.000Z</time>
      </trkpt>
      <trkpt lat="44.22385" lon="2.96174">
        <ele>846</ele>
        <time>2019-10-09T14:16:20.000Z</time>
      </trkpt>
      <trkpt lat="44.22386" lon="2.96174">
        <ele>846</ele>
        <time>2019-10-09T14:16:21.000Z</time>
      </trkpt>
      <trkpt lat="44.22386" lon="2.96174">
        <ele>846</ele>
        <time>2019-10-09T14:16:22.000Z</time>
      </trkpt>
      <trkpt lat="44.22386" lon="2.96174">
        <ele>846</ele>
        <time>2019-10-09T14:16:23.000Z</time>
      </trkpt>
      <trkpt lat="44.22386" lon="2.96174">
        <ele>846</ele>
        <time>2019-10-09T14:16:24.000Z</time>
      </trkpt>
      <trkpt lat="44.22386" lon="2.96173">
        <ele>846</ele>
        <time>2019-10-09T14:16:25.000Z</time>
      </trkpt>
      <trkpt lat="44.22386" lon="2.96174">
        <ele>846</ele>
        <time>2019-10-09T14:16:26.000Z</time>
      </trkpt>
      <trkpt lat="44.22386" lon="2.96174">
        <ele>846</ele>
        <time>2019-10-09T14:16:27.000Z</time>
      </trkpt>
      <trkpt lat="44.22385" lon="2.96174">
        <ele>846</ele>
        <time>2019-10-09T14:16:28.000Z</time>
      </trkpt>
      <trkpt lat="44.22385" lon="2.96174">
        <ele>846</ele>
        <time>2019-10-09T14:16:29.000Z</time>
      </trkpt>
      <trkpt lat="44.22385" lon="2.96174">
        <ele>846</ele>
        <time>2019-10-09T14:16:30.000Z</time>
      </trkpt>
      <trkpt lat="44.22385" lon="2.96174">
        <ele>845</ele>
        <time>2019-10-09T14:16:31.000Z</time>
      </trkpt>
      <trkpt lat="44.22385" lon="2.96174">
        <ele>845</ele>
        <time>2019-10-09T14:16:32.000Z</time>
      </trkpt>
      <trkpt lat="44.22385" lon="2.96174">
        <ele>845</ele>
        <time>2019-10-09T14:16:33.000Z</time>
      </trkpt>
      <trkpt lat="44.22385" lon="2.96174">
        <ele>845</ele>
        <time>2019-10-09T14:16:34.000Z</time>
      </trkpt>
      <trkpt lat="44.22385" lon="2.96174">
        <ele>845</ele>
        <time>2019-10-09T14:16:35.000Z</time>
      </trkpt>
      <trkpt lat="44.22385" lon="2.96173">
        <ele>845</ele>
        <time>2019-10-09T14:16:36.000Z</time>
      </trkpt>
      <trkpt lat="44.22385" lon="2.96173">
        <ele>845</ele>
        <time>2019-10-09T14:16:37.000Z</time>
      </trkpt>
      <trkpt lat="44.22385" lon="2.96173">
        <ele>845</ele>
        <time>2019-10-09T14:16:38.000Z</time>
      </trkpt>
      <trkpt lat="44.22386" lon="2.96172">
        <ele>845</ele>
        <time>2019-10-09T14:16:39.000Z</time>
      </trkpt>
      <trkpt lat="44.22386" lon="2.96172">
        <ele>845</ele>
        <time>2019-10-09T14:16:40.000Z</time>
      </trkpt>
    </trkseg>
  </trk>
</gpx>